<?xml version="1.0" encoding="UTF-8" standalone="no" ?>
<gpx xmlns="http://www.topografix.com/GPX/1/1" xmlns:xsi="http://www.w3.org/2001/XMLSchema-instance" xsi:schemaLocation="http://www.topografix.com/GPX/1/1 http://www.topografix.com/GPX/1/1/gpx.xsd" version="1.1" creator="VisuGPX - https://www.visugpx.com">
  <metadata>
    <name>Tamé Bioux Limouche</name>
    <desc><![CDATA[Tamé Bouix Limouche]]></desc>
  </metadata>
  <trk>
    <name><![CDATA[Tamé Bouix Limouches]]></name>
    <cmt><![CDATA[Bruno, thierry1 &2 JeanPierre JeanMichel, Jacques, Gilles, Edmond]]></cmt>
    <trkseg>
      <trkpt lat="45.11576" lon="4.96427">
        <ele>202.24099731445</ele>
        <time>2010-10-09T11:16:45Z</time>
      </trkpt>
      <trkpt lat="45.11549" lon="4.96442">
        <ele>201.93400573731</ele>
        <time>2010-10-09T11:17:46Z</time>
      </trkpt>
      <trkpt lat="45.11554" lon="4.96452">
        <ele>201.57499694824</ele>
        <time>2010-10-09T11:17:49Z</time>
      </trkpt>
      <trkpt lat="45.11563" lon="4.96451">
        <ele>201.93200683594</ele>
        <time>2010-10-09T11:17:54Z</time>
      </trkpt>
      <trkpt lat="45.11563" lon="4.96452">
        <ele>202.33599853516</ele>
        <time>2010-10-09T11:17:58Z</time>
      </trkpt>
      <trkpt lat="45.11568" lon="4.96461">
        <ele>202.36599731445</ele>
        <time>2010-10-09T11:18:03Z</time>
      </trkpt>
      <trkpt lat="45.11568" lon="4.9648">
        <ele>201.75700378418</ele>
        <time>2010-10-09T11:18:07Z</time>
      </trkpt>
      <trkpt lat="45.11568" lon="4.96497">
        <ele>201.30599975586</ele>
        <time>2010-10-09T11:18:11Z</time>
      </trkpt>
      <trkpt lat="45.11571" lon="4.96523">
        <ele>201.10899353027</ele>
        <time>2010-10-09T11:18:15Z</time>
      </trkpt>
      <trkpt lat="45.11581" lon="4.9658">
        <ele>201.00799560547</ele>
        <time>2010-10-09T11:18:23Z</time>
      </trkpt>
      <trkpt lat="45.11596" lon="4.9663">
        <ele>201.48399353027</ele>
        <time>2010-10-09T11:18:31Z</time>
      </trkpt>
      <trkpt lat="45.11619" lon="4.96687">
        <ele>201.37300109863</ele>
        <time>2010-10-09T11:18:40Z</time>
      </trkpt>
      <trkpt lat="45.11644" lon="4.96738">
        <ele>202.15400695801</ele>
        <time>2010-10-09T11:18:48Z</time>
      </trkpt>
      <trkpt lat="45.11679" lon="4.96792">
        <ele>202.88600158691</ele>
        <time>2010-10-09T11:18:57Z</time>
      </trkpt>
      <trkpt lat="45.11715" lon="4.96844">
        <ele>203.49499511719</ele>
        <time>2010-10-09T11:19:06Z</time>
      </trkpt>
      <trkpt lat="45.11723" lon="4.96865">
        <ele>203.50700378418</ele>
        <time>2010-10-09T11:19:09Z</time>
      </trkpt>
      <trkpt lat="45.1174" lon="4.96887">
        <ele>203.65800476074</ele>
        <time>2010-10-09T11:19:13Z</time>
      </trkpt>
      <trkpt lat="45.11746" lon="4.96892">
        <ele>203.79800415039</ele>
        <time>2010-10-09T11:19:14Z</time>
      </trkpt>
      <trkpt lat="45.11776" lon="4.96933">
        <ele>204.27099609375</ele>
        <time>2010-10-09T11:19:21Z</time>
      </trkpt>
      <trkpt lat="45.11819" lon="4.96995">
        <ele>204.78900146484</ele>
        <time>2010-10-09T11:19:31Z</time>
      </trkpt>
      <trkpt lat="45.11869" lon="4.97058">
        <ele>204.90899658203</ele>
        <time>2010-10-09T11:19:42Z</time>
      </trkpt>
      <trkpt lat="45.11875" lon="4.97089">
        <ele>205.1190032959</ele>
        <time>2010-10-09T11:19:46Z</time>
      </trkpt>
      <trkpt lat="45.11875" lon="4.97097">
        <ele>204.92399597168</ele>
        <time>2010-10-09T11:19:47Z</time>
      </trkpt>
      <trkpt lat="45.11871" lon="4.9713">
        <ele>204.46800231934</ele>
        <time>2010-10-09T11:19:51Z</time>
      </trkpt>
      <trkpt lat="45.11872" lon="4.97173">
        <ele>204.08799743652</ele>
        <time>2010-10-09T11:19:56Z</time>
      </trkpt>
      <trkpt lat="45.11887" lon="4.97255">
        <ele>203.19500732422</ele>
        <time>2010-10-09T11:20:06Z</time>
      </trkpt>
      <trkpt lat="45.11894" lon="4.97302">
        <ele>202.99000549316</ele>
        <time>2010-10-09T11:20:12Z</time>
      </trkpt>
      <trkpt lat="45.11901" lon="4.97337">
        <ele>202.56399536133</ele>
        <time>2010-10-09T11:20:17Z</time>
      </trkpt>
      <trkpt lat="45.11914" lon="4.97415">
        <ele>203.71499633789</ele>
        <time>2010-10-09T11:20:27Z</time>
      </trkpt>
      <trkpt lat="45.11923" lon="4.9747">
        <ele>203.69799804688</ele>
        <time>2010-10-09T11:20:34Z</time>
      </trkpt>
      <trkpt lat="45.11933" lon="4.97528">
        <ele>204.35899353027</ele>
        <time>2010-10-09T11:20:42Z</time>
      </trkpt>
      <trkpt lat="45.11942" lon="4.97578">
        <ele>205.56799316406</ele>
        <time>2010-10-09T11:20:49Z</time>
      </trkpt>
      <trkpt lat="45.11947" lon="4.97607">
        <ele>205.94999694824</ele>
        <time>2010-10-09T11:20:53Z</time>
      </trkpt>
      <trkpt lat="45.11953" lon="4.97629">
        <ele>206.00199890137</ele>
        <time>2010-10-09T11:20:56Z</time>
      </trkpt>
      <trkpt lat="45.11954" lon="4.97644">
        <ele>205.80900573731</ele>
        <time>2010-10-09T11:20:58Z</time>
      </trkpt>
      <trkpt lat="45.11961" lon="4.97681">
        <ele>206.26600646973</ele>
        <time>2010-10-09T11:21:03Z</time>
      </trkpt>
      <trkpt lat="45.11966" lon="4.97711">
        <ele>205.80299377441</ele>
        <time>2010-10-09T11:21:07Z</time>
      </trkpt>
      <trkpt lat="45.11975" lon="4.97766">
        <ele>206.30700683594</ele>
        <time>2010-10-09T11:21:14Z</time>
      </trkpt>
      <trkpt lat="45.11982" lon="4.97813">
        <ele>206.53700256348</ele>
        <time>2010-10-09T11:21:20Z</time>
      </trkpt>
      <trkpt lat="45.11993" lon="4.97875">
        <ele>207.40400695801</ele>
        <time>2010-10-09T11:21:28Z</time>
      </trkpt>
      <trkpt lat="45.12005" lon="4.97937">
        <ele>208.09899902344</ele>
        <time>2010-10-09T11:21:36Z</time>
      </trkpt>
      <trkpt lat="45.12021" lon="4.97995">
        <ele>208.53999328613</ele>
        <time>2010-10-09T11:21:44Z</time>
      </trkpt>
      <trkpt lat="45.12036" lon="4.98049">
        <ele>209.22500610352</ele>
        <time>2010-10-09T11:21:51Z</time>
      </trkpt>
      <trkpt lat="45.12054" lon="4.98124">
        <ele>209.63600158691</ele>
        <time>2010-10-09T11:22:00Z</time>
      </trkpt>
      <trkpt lat="45.12064" lon="4.98192">
        <ele>210.64399719238</ele>
        <time>2010-10-09T11:22:08Z</time>
      </trkpt>
      <trkpt lat="45.12064" lon="4.98236">
        <ele>210.77299499512</ele>
        <time>2010-10-09T11:22:13Z</time>
      </trkpt>
      <trkpt lat="45.12058" lon="4.98296">
        <ele>210.94700622559</ele>
        <time>2010-10-09T11:22:20Z</time>
      </trkpt>
      <trkpt lat="45.12044" lon="4.98369">
        <ele>211.94000244141</ele>
        <time>2010-10-09T11:22:29Z</time>
      </trkpt>
      <trkpt lat="45.12039" lon="4.98382">
        <ele>211.99899291992</ele>
        <time>2010-10-09T11:22:31Z</time>
      </trkpt>
      <trkpt lat="45.12019" lon="4.984">
        <ele>211.96699523926</ele>
        <time>2010-10-09T11:22:36Z</time>
      </trkpt>
      <trkpt lat="45.11991" lon="4.98389">
        <ele>210.59399414062</ele>
        <time>2010-10-09T11:22:41Z</time>
      </trkpt>
      <trkpt lat="45.11974" lon="4.98394">
        <ele>211.03799438477</ele>
        <time>2010-10-09T11:22:45Z</time>
      </trkpt>
      <trkpt lat="45.11977" lon="4.98403">
        <ele>211.75999450684</ele>
        <time>2010-10-09T11:22:48Z</time>
      </trkpt>
      <trkpt lat="45.11983" lon="4.98405">
        <ele>211.7859954834</ele>
        <time>2010-10-09T11:22:52Z</time>
      </trkpt>
      <trkpt lat="45.11983" lon="4.98405">
        <ele>211.90600585938</ele>
        <time>2010-10-09T11:22:54Z</time>
      </trkpt>
      <trkpt lat="45.11985" lon="4.98419">
        <ele>211.95500183106</ele>
        <time>2010-10-09T11:23:21Z</time>
      </trkpt>
      <trkpt lat="45.11977" lon="4.98432">
        <ele>212.0890045166</ele>
        <time>2010-10-09T11:23:26Z</time>
      </trkpt>
      <trkpt lat="45.11979" lon="4.98435">
        <ele>211.53199768066</ele>
        <time>2010-10-09T11:23:29Z</time>
      </trkpt>
      <trkpt lat="45.11984" lon="4.98432">
        <ele>213.23699951172</ele>
        <time>2010-10-09T11:26:51Z</time>
      </trkpt>
      <trkpt lat="45.11987" lon="4.98418">
        <ele>212.71600341797</ele>
        <time>2010-10-09T11:26:57Z</time>
      </trkpt>
      <trkpt lat="45.11987" lon="4.98402">
        <ele>212.67199707031</ele>
        <time>2010-10-09T11:27:03Z</time>
      </trkpt>
      <trkpt lat="45.11987" lon="4.98402">
        <ele>212.91600036621</ele>
        <time>2010-10-09T11:27:05Z</time>
      </trkpt>
      <trkpt lat="45.11985" lon="4.98404">
        <ele>215.47900390625</ele>
        <time>2010-10-09T11:36:46Z</time>
      </trkpt>
      <trkpt lat="45.11981" lon="4.98401">
        <ele>215.25799560547</ele>
        <time>2010-10-09T11:36:50Z</time>
      </trkpt>
      <trkpt lat="45.11979" lon="4.98395">
        <ele>214.83500671387</ele>
        <time>2010-10-09T11:36:54Z</time>
      </trkpt>
      <trkpt lat="45.11983" lon="4.98388">
        <ele>215.31300354004</ele>
        <time>2010-10-09T11:36:58Z</time>
      </trkpt>
      <trkpt lat="45.11993" lon="4.98391">
        <ele>215.35699462891</ele>
        <time>2010-10-09T11:37:03Z</time>
      </trkpt>
      <trkpt lat="45.11995" lon="4.98392">
        <ele>215.49899291992</ele>
        <time>2010-10-09T11:37:04Z</time>
      </trkpt>
      <trkpt lat="45.12008" lon="4.98397">
        <ele>215.74699401856</ele>
        <time>2010-10-09T11:37:10Z</time>
      </trkpt>
      <trkpt lat="45.12021" lon="4.98405">
        <ele>216.16200256348</ele>
        <time>2010-10-09T11:37:15Z</time>
      </trkpt>
      <trkpt lat="45.12027" lon="4.98419">
        <ele>217.01300048828</ele>
        <time>2010-10-09T11:37:19Z</time>
      </trkpt>
      <trkpt lat="45.12025" lon="4.98442">
        <ele>216.78100585938</ele>
        <time>2010-10-09T11:37:24Z</time>
      </trkpt>
      <trkpt lat="45.12017" lon="4.98486">
        <ele>216.78199768066</ele>
        <time>2010-10-09T11:37:32Z</time>
      </trkpt>
      <trkpt lat="45.12014" lon="4.98543">
        <ele>216.68200683594</ele>
        <time>2010-10-09T11:37:41Z</time>
      </trkpt>
      <trkpt lat="45.12014" lon="4.98603">
        <ele>216.72700500488</ele>
        <time>2010-10-09T11:37:50Z</time>
      </trkpt>
      <trkpt lat="45.12019" lon="4.98659">
        <ele>216.68800354004</ele>
        <time>2010-10-09T11:37:58Z</time>
      </trkpt>
      <trkpt lat="45.1203" lon="4.98721">
        <ele>216.57600402832</ele>
        <time>2010-10-09T11:38:07Z</time>
      </trkpt>
      <trkpt lat="45.12045" lon="4.98781">
        <ele>217.09700012207</ele>
        <time>2010-10-09T11:38:16Z</time>
      </trkpt>
      <trkpt lat="45.12066" lon="4.9884">
        <ele>217.46099853516</ele>
        <time>2010-10-09T11:38:25Z</time>
      </trkpt>
      <trkpt lat="45.12098" lon="4.98908">
        <ele>217.82899475098</ele>
        <time>2010-10-09T11:38:36Z</time>
      </trkpt>
      <trkpt lat="45.12132" lon="4.98963">
        <ele>218.24600219727</ele>
        <time>2010-10-09T11:38:46Z</time>
      </trkpt>
      <trkpt lat="45.12163" lon="4.99003">
        <ele>220.2799987793</ele>
        <time>2010-10-09T11:38:55Z</time>
      </trkpt>
      <trkpt lat="45.12188" lon="4.9903">
        <ele>221.96099853516</ele>
        <time>2010-10-09T11:39:03Z</time>
      </trkpt>
      <trkpt lat="45.12208" lon="4.99053">
        <ele>222.97900390625</ele>
        <time>2010-10-09T11:39:10Z</time>
      </trkpt>
      <trkpt lat="45.12219" lon="4.99075">
        <ele>223.61199951172</ele>
        <time>2010-10-09T11:39:15Z</time>
      </trkpt>
      <trkpt lat="45.12231" lon="4.99079">
        <ele>224.06399536133</ele>
        <time>2010-10-09T11:39:19Z</time>
      </trkpt>
      <trkpt lat="45.12242" lon="4.99075">
        <ele>225.56500244141</ele>
        <time>2010-10-09T11:39:24Z</time>
      </trkpt>
      <trkpt lat="45.12257" lon="4.99079">
        <ele>227.38600158691</ele>
        <time>2010-10-09T11:39:31Z</time>
      </trkpt>
      <trkpt lat="45.12271" lon="4.99089">
        <ele>228.85400390625</ele>
        <time>2010-10-09T11:39:39Z</time>
      </trkpt>
      <trkpt lat="45.12279" lon="4.9911">
        <ele>229.73399353027</ele>
        <time>2010-10-09T11:39:45Z</time>
      </trkpt>
      <trkpt lat="45.12286" lon="4.99134">
        <ele>230.85099792481</ele>
        <time>2010-10-09T11:39:50Z</time>
      </trkpt>
      <trkpt lat="45.12299" lon="4.99164">
        <ele>232.22500610352</ele>
        <time>2010-10-09T11:39:57Z</time>
      </trkpt>
      <trkpt lat="45.12305" lon="4.99177">
        <ele>232.5890045166</ele>
        <time>2010-10-09T11:40:00Z</time>
      </trkpt>
      <trkpt lat="45.12317" lon="4.99195">
        <ele>233.25999450684</ele>
        <time>2010-10-09T11:40:04Z</time>
      </trkpt>
      <trkpt lat="45.1234" lon="4.99248">
        <ele>234.36500549316</ele>
        <time>2010-10-09T11:40:15Z</time>
      </trkpt>
      <trkpt lat="45.12349" lon="4.99292">
        <ele>234.35200500488</ele>
        <time>2010-10-09T11:40:22Z</time>
      </trkpt>
      <trkpt lat="45.1236" lon="4.99356">
        <ele>234.41499328613</ele>
        <time>2010-10-09T11:40:31Z</time>
      </trkpt>
      <trkpt lat="45.12373" lon="4.99418">
        <ele>233.80599975586</ele>
        <time>2010-10-09T11:40:39Z</time>
      </trkpt>
      <trkpt lat="45.12389" lon="4.995">
        <ele>233.48199462891</ele>
        <time>2010-10-09T11:40:49Z</time>
      </trkpt>
      <trkpt lat="45.12407" lon="4.99552">
        <ele>233.57099914551</ele>
        <time>2010-10-09T11:40:56Z</time>
      </trkpt>
      <trkpt lat="45.12436" lon="4.99599">
        <ele>232.98399353027</ele>
        <time>2010-10-09T11:41:04Z</time>
      </trkpt>
      <trkpt lat="45.12464" lon="4.99644">
        <ele>232.7380065918</ele>
        <time>2010-10-09T11:41:12Z</time>
      </trkpt>
      <trkpt lat="45.12501" lon="4.99696">
        <ele>232.42100524902</ele>
        <time>2010-10-09T11:41:22Z</time>
      </trkpt>
      <trkpt lat="45.12537" lon="4.99732">
        <ele>231.83500671387</ele>
        <time>2010-10-09T11:41:30Z</time>
      </trkpt>
      <trkpt lat="45.12554" lon="4.99757">
        <ele>232.03100585938</ele>
        <time>2010-10-09T11:41:36Z</time>
      </trkpt>
      <trkpt lat="45.12561" lon="4.99769">
        <ele>232.11700439453</ele>
        <time>2010-10-09T11:41:42Z</time>
      </trkpt>
      <trkpt lat="45.12567" lon="4.9978">
        <ele>231.63299560547</ele>
        <time>2010-10-09T11:41:49Z</time>
      </trkpt>
      <trkpt lat="45.12573" lon="4.99792">
        <ele>232.04899597168</ele>
        <time>2010-10-09T11:41:57Z</time>
      </trkpt>
      <trkpt lat="45.1258" lon="4.99805">
        <ele>231.85699462891</ele>
        <time>2010-10-09T11:42:03Z</time>
      </trkpt>
      <trkpt lat="45.12598" lon="4.9983">
        <ele>231.66499328613</ele>
        <time>2010-10-09T11:42:11Z</time>
      </trkpt>
      <trkpt lat="45.12619" lon="4.99854">
        <ele>231.13999938965</ele>
        <time>2010-10-09T11:42:17Z</time>
      </trkpt>
      <trkpt lat="45.12634" lon="4.99875">
        <ele>230.86099243164</ele>
        <time>2010-10-09T11:42:21Z</time>
      </trkpt>
      <trkpt lat="45.12656" lon="4.99948">
        <ele>230.77799987793</ele>
        <time>2010-10-09T11:42:31Z</time>
      </trkpt>
      <trkpt lat="45.12674" lon="4.99989">
        <ele>230.91799926758</ele>
        <time>2010-10-09T11:42:37Z</time>
      </trkpt>
      <trkpt lat="45.12701" lon="5.00024">
        <ele>231.06300354004</ele>
        <time>2010-10-09T11:42:44Z</time>
      </trkpt>
      <trkpt lat="45.1273" lon="5.00049">
        <ele>232.20899963379</ele>
        <time>2010-10-09T11:42:51Z</time>
      </trkpt>
      <trkpt lat="45.12765" lon="5.00065">
        <ele>233.42300415039</ele>
        <time>2010-10-09T11:42:59Z</time>
      </trkpt>
      <trkpt lat="45.12803" lon="5.00078">
        <ele>235.04499816894</ele>
        <time>2010-10-09T11:43:08Z</time>
      </trkpt>
      <trkpt lat="45.12824" lon="5.00086">
        <ele>235.82299804688</ele>
        <time>2010-10-09T11:43:13Z</time>
      </trkpt>
      <trkpt lat="45.12841" lon="5.00099">
        <ele>236.18200683594</ele>
        <time>2010-10-09T11:43:17Z</time>
      </trkpt>
      <trkpt lat="45.12864" lon="5.00133">
        <ele>237.72900390625</ele>
        <time>2010-10-09T11:43:24Z</time>
      </trkpt>
      <trkpt lat="45.12891" lon="5.00181">
        <ele>239.11399841309</ele>
        <time>2010-10-09T11:43:33Z</time>
      </trkpt>
      <trkpt lat="45.12923" lon="5.00227">
        <ele>241.1130065918</ele>
        <time>2010-10-09T11:43:43Z</time>
      </trkpt>
      <trkpt lat="45.12957" lon="5.00253">
        <ele>241.85099792481</ele>
        <time>2010-10-09T11:43:51Z</time>
      </trkpt>
      <trkpt lat="45.13004" lon="5.00276">
        <ele>241.50399780273</ele>
        <time>2010-10-09T11:44:00Z</time>
      </trkpt>
      <trkpt lat="45.13041" lon="5.0029">
        <ele>242.26100158691</ele>
        <time>2010-10-09T11:44:07Z</time>
      </trkpt>
      <trkpt lat="45.13083" lon="5.00305">
        <ele>242.39300537109</ele>
        <time>2010-10-09T11:44:15Z</time>
      </trkpt>
      <trkpt lat="45.1313" lon="5.00327">
        <ele>242.83200073242</ele>
        <time>2010-10-09T11:44:24Z</time>
      </trkpt>
      <trkpt lat="45.1316" lon="5.00342">
        <ele>243.72300720215</ele>
        <time>2010-10-09T11:44:30Z</time>
      </trkpt>
      <trkpt lat="45.13199" lon="5.00349">
        <ele>244.33000183106</ele>
        <time>2010-10-09T11:44:37Z</time>
      </trkpt>
      <trkpt lat="45.13247" lon="5.00347">
        <ele>245.16000366211</ele>
        <time>2010-10-09T11:44:46Z</time>
      </trkpt>
      <trkpt lat="45.133" lon="5.00346">
        <ele>245.91200256348</ele>
        <time>2010-10-09T11:44:56Z</time>
      </trkpt>
      <trkpt lat="45.13355" lon="5.00354">
        <ele>246.6130065918</ele>
        <time>2010-10-09T11:45:06Z</time>
      </trkpt>
      <trkpt lat="45.13397" lon="5.00378">
        <ele>247.19000244141</ele>
        <time>2010-10-09T11:45:14Z</time>
      </trkpt>
      <trkpt lat="45.13451" lon="5.00415">
        <ele>248.67799377441</ele>
        <time>2010-10-09T11:45:25Z</time>
      </trkpt>
      <trkpt lat="45.13496" lon="5.00445">
        <ele>249.02799987793</ele>
        <time>2010-10-09T11:45:34Z</time>
      </trkpt>
      <trkpt lat="45.13536" lon="5.00467">
        <ele>249.88200378418</ele>
        <time>2010-10-09T11:45:42Z</time>
      </trkpt>
      <trkpt lat="45.13574" lon="5.00477">
        <ele>250.24899291992</ele>
        <time>2010-10-09T11:45:49Z</time>
      </trkpt>
      <trkpt lat="45.13612" lon="5.0049">
        <ele>250.20899963379</ele>
        <time>2010-10-09T11:45:56Z</time>
      </trkpt>
      <trkpt lat="45.13645" lon="5.00514">
        <ele>250.44000244141</ele>
        <time>2010-10-09T11:46:02Z</time>
      </trkpt>
      <trkpt lat="45.13681" lon="5.00557">
        <ele>250.04800415039</ele>
        <time>2010-10-09T11:46:10Z</time>
      </trkpt>
      <trkpt lat="45.13718" lon="5.00598">
        <ele>250.34399414062</ele>
        <time>2010-10-09T11:46:18Z</time>
      </trkpt>
      <trkpt lat="45.13751" lon="5.00632">
        <ele>251.60299682617</ele>
        <time>2010-10-09T11:46:25Z</time>
      </trkpt>
      <trkpt lat="45.13788" lon="5.00665">
        <ele>251.81900024414</ele>
        <time>2010-10-09T11:46:32Z</time>
      </trkpt>
      <trkpt lat="45.13836" lon="5.00693">
        <ele>252.40699768066</ele>
        <time>2010-10-09T11:46:40Z</time>
      </trkpt>
      <trkpt lat="45.13884" lon="5.00717">
        <ele>253.0119934082</ele>
        <time>2010-10-09T11:46:48Z</time>
      </trkpt>
      <trkpt lat="45.13926" lon="5.00737">
        <ele>253.11199951172</ele>
        <time>2010-10-09T11:46:55Z</time>
      </trkpt>
      <trkpt lat="45.13975" lon="5.00761">
        <ele>253.39500427246</ele>
        <time>2010-10-09T11:47:03Z</time>
      </trkpt>
      <trkpt lat="45.14022" lon="5.00783">
        <ele>253.53100585938</ele>
        <time>2010-10-09T11:47:11Z</time>
      </trkpt>
      <trkpt lat="45.14077" lon="5.00811">
        <ele>254.05900573731</ele>
        <time>2010-10-09T11:47:20Z</time>
      </trkpt>
      <trkpt lat="45.14135" lon="5.0084">
        <ele>254.18600463867</ele>
        <time>2010-10-09T11:47:30Z</time>
      </trkpt>
      <trkpt lat="45.14193" lon="5.00868">
        <ele>254.48199462891</ele>
        <time>2010-10-09T11:47:40Z</time>
      </trkpt>
      <trkpt lat="45.14244" lon="5.00892">
        <ele>254.77099609375</ele>
        <time>2010-10-09T11:47:49Z</time>
      </trkpt>
      <trkpt lat="45.14278" lon="5.00909">
        <ele>255.34399414062</ele>
        <time>2010-10-09T11:47:55Z</time>
      </trkpt>
      <trkpt lat="45.14305" lon="5.00928">
        <ele>255.5299987793</ele>
        <time>2010-10-09T11:48:00Z</time>
      </trkpt>
      <trkpt lat="45.14334" lon="5.00957">
        <ele>255.99499511719</ele>
        <time>2010-10-09T11:48:06Z</time>
      </trkpt>
      <trkpt lat="45.14374" lon="5.01003">
        <ele>256.03900146484</ele>
        <time>2010-10-09T11:48:15Z</time>
      </trkpt>
      <trkpt lat="45.14415" lon="5.0105">
        <ele>256.42999267578</ele>
        <time>2010-10-09T11:48:24Z</time>
      </trkpt>
      <trkpt lat="45.14454" lon="5.01092">
        <ele>256.54501342773</ele>
        <time>2010-10-09T11:48:32Z</time>
      </trkpt>
      <trkpt lat="45.14489" lon="5.0113">
        <ele>256.71499633789</ele>
        <time>2010-10-09T11:48:39Z</time>
      </trkpt>
      <trkpt lat="45.14539" lon="5.01169">
        <ele>256.39001464844</ele>
        <time>2010-10-09T11:48:48Z</time>
      </trkpt>
      <trkpt lat="45.14586" lon="5.01203">
        <ele>256.41400146484</ele>
        <time>2010-10-09T11:48:56Z</time>
      </trkpt>
      <trkpt lat="45.14622" lon="5.0123">
        <ele>255.79499816894</ele>
        <time>2010-10-09T11:49:02Z</time>
      </trkpt>
      <trkpt lat="45.14634" lon="5.01242">
        <ele>255.58700561523</ele>
        <time>2010-10-09T11:49:04Z</time>
      </trkpt>
      <trkpt lat="45.14663" lon="5.01297">
        <ele>255.125</ele>
        <time>2010-10-09T11:49:11Z</time>
      </trkpt>
      <trkpt lat="45.14684" lon="5.01358">
        <ele>255.8869934082</ele>
        <time>2010-10-09T11:49:19Z</time>
      </trkpt>
      <trkpt lat="45.14702" lon="5.01414">
        <ele>255.93400573731</ele>
        <time>2010-10-09T11:49:26Z</time>
      </trkpt>
      <trkpt lat="45.14718" lon="5.01459">
        <ele>256.64898681641</ele>
        <time>2010-10-09T11:49:32Z</time>
      </trkpt>
      <trkpt lat="45.14748" lon="5.01513">
        <ele>259.12600708008</ele>
        <time>2010-10-09T11:49:41Z</time>
      </trkpt>
      <trkpt lat="45.14759" lon="5.01526">
        <ele>259.95001220703</ele>
        <time>2010-10-09T11:49:44Z</time>
      </trkpt>
      <trkpt lat="45.14766" lon="5.01545">
        <ele>260.31600952148</ele>
        <time>2010-10-09T11:49:48Z</time>
      </trkpt>
      <trkpt lat="45.14765" lon="5.01551">
        <ele>260.22698974609</ele>
        <time>2010-10-09T11:49:49Z</time>
      </trkpt>
      <trkpt lat="45.14765" lon="5.01575">
        <ele>259.11999511719</ele>
        <time>2010-10-09T11:49:52Z</time>
      </trkpt>
      <trkpt lat="45.14779" lon="5.0161">
        <ele>257.30099487305</ele>
        <time>2010-10-09T11:49:56Z</time>
      </trkpt>
      <trkpt lat="45.14809" lon="5.01649">
        <ele>256.83599853516</ele>
        <time>2010-10-09T11:50:02Z</time>
      </trkpt>
      <trkpt lat="45.14843" lon="5.01694">
        <ele>257.27600097656</ele>
        <time>2010-10-09T11:50:10Z</time>
      </trkpt>
      <trkpt lat="45.14854" lon="5.0171">
        <ele>257.45199584961</ele>
        <time>2010-10-09T11:50:13Z</time>
      </trkpt>
      <trkpt lat="45.14859" lon="5.0173">
        <ele>257.49499511719</ele>
        <time>2010-10-09T11:50:16Z</time>
      </trkpt>
      <trkpt lat="45.14856" lon="5.01736">
        <ele>257.31298828125</ele>
        <time>2010-10-09T11:50:17Z</time>
      </trkpt>
      <trkpt lat="45.14822" lon="5.01783">
        <ele>254.57400512695</ele>
        <time>2010-10-09T11:50:24Z</time>
      </trkpt>
      <trkpt lat="45.1481" lon="5.01799">
        <ele>253.41499328613</ele>
        <time>2010-10-09T11:50:26Z</time>
      </trkpt>
      <trkpt lat="45.14772" lon="5.01848">
        <ele>251.93200683594</ele>
        <time>2010-10-09T11:50:33Z</time>
      </trkpt>
      <trkpt lat="45.14734" lon="5.01898">
        <ele>251.20100402832</ele>
        <time>2010-10-09T11:50:40Z</time>
      </trkpt>
      <trkpt lat="45.14702" lon="5.0195">
        <ele>251.37800598144</ele>
        <time>2010-10-09T11:50:47Z</time>
      </trkpt>
      <trkpt lat="45.14669" lon="5.02019">
        <ele>251.40299987793</ele>
        <time>2010-10-09T11:50:56Z</time>
      </trkpt>
      <trkpt lat="45.14635" lon="5.02089">
        <ele>251.7200012207</ele>
        <time>2010-10-09T11:51:05Z</time>
      </trkpt>
      <trkpt lat="45.14608" lon="5.02143">
        <ele>250.80900573731</ele>
        <time>2010-10-09T11:51:12Z</time>
      </trkpt>
      <trkpt lat="45.146" lon="5.02157">
        <ele>251.28500366211</ele>
        <time>2010-10-09T11:51:14Z</time>
      </trkpt>
      <trkpt lat="45.14571" lon="5.02196">
        <ele>252.6190032959</ele>
        <time>2010-10-09T11:51:21Z</time>
      </trkpt>
      <trkpt lat="45.14539" lon="5.02227">
        <ele>253.20700073242</ele>
        <time>2010-10-09T11:51:28Z</time>
      </trkpt>
      <trkpt lat="45.14504" lon="5.02266">
        <ele>252.63299560547</ele>
        <time>2010-10-09T11:51:35Z</time>
      </trkpt>
      <trkpt lat="45.14477" lon="5.02318">
        <ele>252.30400085449</ele>
        <time>2010-10-09T11:51:42Z</time>
      </trkpt>
      <trkpt lat="45.14459" lon="5.02373">
        <ele>252.10099792481</ele>
        <time>2010-10-09T11:51:49Z</time>
      </trkpt>
      <trkpt lat="45.14433" lon="5.02452">
        <ele>253.02400207519</ele>
        <time>2010-10-09T11:51:59Z</time>
      </trkpt>
      <trkpt lat="45.14418" lon="5.02497">
        <ele>254.49499511719</ele>
        <time>2010-10-09T11:52:06Z</time>
      </trkpt>
      <trkpt lat="45.14408" lon="5.02531">
        <ele>256.47399902344</ele>
        <time>2010-10-09T11:52:12Z</time>
      </trkpt>
      <trkpt lat="45.14404" lon="5.0255">
        <ele>257.3219909668</ele>
        <time>2010-10-09T11:52:15Z</time>
      </trkpt>
      <trkpt lat="45.14405" lon="5.02576">
        <ele>258.49899291992</ele>
        <time>2010-10-09T11:52:19Z</time>
      </trkpt>
      <trkpt lat="45.1441" lon="5.02593">
        <ele>259.41000366211</ele>
        <time>2010-10-09T11:52:22Z</time>
      </trkpt>
      <trkpt lat="45.14419" lon="5.02608">
        <ele>260.19500732422</ele>
        <time>2010-10-09T11:52:25Z</time>
      </trkpt>
      <trkpt lat="45.14449" lon="5.02642">
        <ele>262.57998657227</ele>
        <time>2010-10-09T11:52:33Z</time>
      </trkpt>
      <trkpt lat="45.14484" lon="5.02683">
        <ele>265.14401245117</ele>
        <time>2010-10-09T11:52:43Z</time>
      </trkpt>
      <trkpt lat="45.14512" lon="5.02714">
        <ele>266.91400146484</ele>
        <time>2010-10-09T11:52:51Z</time>
      </trkpt>
      <trkpt lat="45.14536" lon="5.02743">
        <ele>268.35501098633</ele>
        <time>2010-10-09T11:52:58Z</time>
      </trkpt>
      <trkpt lat="45.14562" lon="5.02774">
        <ele>270.30700683594</ele>
        <time>2010-10-09T11:53:06Z</time>
      </trkpt>
      <trkpt lat="45.14582" lon="5.02799">
        <ele>271.85699462891</ele>
        <time>2010-10-09T11:53:12Z</time>
      </trkpt>
      <trkpt lat="45.14601" lon="5.02822">
        <ele>272.83700561523</ele>
        <time>2010-10-09T11:53:18Z</time>
      </trkpt>
      <trkpt lat="45.14617" lon="5.02841">
        <ele>273.78601074219</ele>
        <time>2010-10-09T11:53:23Z</time>
      </trkpt>
      <trkpt lat="45.14623" lon="5.02848">
        <ele>274.24798583984</ele>
        <time>2010-10-09T11:53:25Z</time>
      </trkpt>
      <trkpt lat="45.14646" lon="5.02874">
        <ele>275.71499633789</ele>
        <time>2010-10-09T11:53:32Z</time>
      </trkpt>
      <trkpt lat="45.1465" lon="5.02879">
        <ele>275.93701171875</ele>
        <time>2010-10-09T11:53:33Z</time>
      </trkpt>
      <trkpt lat="45.1466" lon="5.02911">
        <ele>277.08200073242</ele>
        <time>2010-10-09T11:53:39Z</time>
      </trkpt>
      <trkpt lat="45.14659" lon="5.02922">
        <ele>277.67300415039</ele>
        <time>2010-10-09T11:53:41Z</time>
      </trkpt>
      <trkpt lat="45.14654" lon="5.02957">
        <ele>279.10501098633</ele>
        <time>2010-10-09T11:53:48Z</time>
      </trkpt>
      <trkpt lat="45.14647" lon="5.03">
        <ele>280.99200439453</ele>
        <time>2010-10-09T11:53:57Z</time>
      </trkpt>
      <trkpt lat="45.14639" lon="5.03046">
        <ele>282.72799682617</ele>
        <time>2010-10-09T11:54:07Z</time>
      </trkpt>
      <trkpt lat="45.14632" lon="5.03085">
        <ele>284.16000366211</ele>
        <time>2010-10-09T11:54:16Z</time>
      </trkpt>
      <trkpt lat="45.14625" lon="5.03125">
        <ele>284.84399414062</ele>
        <time>2010-10-09T11:54:24Z</time>
      </trkpt>
      <trkpt lat="45.14616" lon="5.03173">
        <ele>284.82000732422</ele>
        <time>2010-10-09T11:54:32Z</time>
      </trkpt>
      <trkpt lat="45.14606" lon="5.03233">
        <ele>284.90100097656</ele>
        <time>2010-10-09T11:54:41Z</time>
      </trkpt>
      <trkpt lat="45.14595" lon="5.03292">
        <ele>285.4049987793</ele>
        <time>2010-10-09T11:54:50Z</time>
      </trkpt>
      <trkpt lat="45.14589" lon="5.03324">
        <ele>284.83801269531</ele>
        <time>2010-10-09T11:54:56Z</time>
      </trkpt>
      <trkpt lat="45.14579" lon="5.0337">
        <ele>285.05801391602</ele>
        <time>2010-10-09T11:55:05Z</time>
      </trkpt>
      <trkpt lat="45.14571" lon="5.03409">
        <ele>286.31500244141</ele>
        <time>2010-10-09T11:55:13Z</time>
      </trkpt>
      <trkpt lat="45.14563" lon="5.03448">
        <ele>286.86898803711</ele>
        <time>2010-10-09T11:55:20Z</time>
      </trkpt>
      <trkpt lat="45.1455" lon="5.03491">
        <ele>287.18600463867</ele>
        <time>2010-10-09T11:55:27Z</time>
      </trkpt>
      <trkpt lat="45.1452" lon="5.0357">
        <ele>288.58499145508</ele>
        <time>2010-10-09T11:55:38Z</time>
      </trkpt>
      <trkpt lat="45.145" lon="5.03628">
        <ele>289.84399414062</ele>
        <time>2010-10-09T11:55:46Z</time>
      </trkpt>
      <trkpt lat="45.14495" lon="5.03665">
        <ele>291.42401123047</ele>
        <time>2010-10-09T11:55:51Z</time>
      </trkpt>
      <trkpt lat="45.14497" lon="5.03717">
        <ele>292.96398925781</ele>
        <time>2010-10-09T11:55:59Z</time>
      </trkpt>
      <trkpt lat="45.14499" lon="5.0376">
        <ele>295.1130065918</ele>
        <time>2010-10-09T11:56:06Z</time>
      </trkpt>
      <trkpt lat="45.14493" lon="5.03793">
        <ele>296.5119934082</ele>
        <time>2010-10-09T11:56:12Z</time>
      </trkpt>
      <trkpt lat="45.14491" lon="5.0382">
        <ele>298.44900512695</ele>
        <time>2010-10-09T11:56:17Z</time>
      </trkpt>
      <trkpt lat="45.14484" lon="5.03847">
        <ele>298.53601074219</ele>
        <time>2010-10-09T11:56:21Z</time>
      </trkpt>
      <trkpt lat="45.14479" lon="5.03852">
        <ele>298.50100708008</ele>
        <time>2010-10-09T11:56:22Z</time>
      </trkpt>
      <trkpt lat="45.14466" lon="5.03864">
        <ele>299.07501220703</ele>
        <time>2010-10-09T11:56:25Z</time>
      </trkpt>
      <trkpt lat="45.14449" lon="5.03884">
        <ele>299.57501220703</ele>
        <time>2010-10-09T11:56:29Z</time>
      </trkpt>
      <trkpt lat="45.14402" lon="5.03918">
        <ele>300.06799316406</ele>
        <time>2010-10-09T11:56:38Z</time>
      </trkpt>
      <trkpt lat="45.14355" lon="5.0395">
        <ele>300.53399658203</ele>
        <time>2010-10-09T11:56:46Z</time>
      </trkpt>
      <trkpt lat="45.14308" lon="5.03984">
        <ele>300.47100830078</ele>
        <time>2010-10-09T11:56:53Z</time>
      </trkpt>
      <trkpt lat="45.14257" lon="5.04021">
        <ele>297.31100463867</ele>
        <time>2010-10-09T11:57:00Z</time>
      </trkpt>
      <trkpt lat="45.14216" lon="5.04048">
        <ele>297.09100341797</ele>
        <time>2010-10-09T11:57:06Z</time>
      </trkpt>
      <trkpt lat="45.1416" lon="5.04089">
        <ele>295.3210144043</ele>
        <time>2010-10-09T11:57:15Z</time>
      </trkpt>
      <trkpt lat="45.14115" lon="5.04121">
        <ele>292.70098876953</ele>
        <time>2010-10-09T11:57:21Z</time>
      </trkpt>
      <trkpt lat="45.14044" lon="5.04173">
        <ele>290.26098632812</ele>
        <time>2010-10-09T11:57:30Z</time>
      </trkpt>
      <trkpt lat="45.13969" lon="5.04227">
        <ele>288.51800537109</ele>
        <time>2010-10-09T11:57:40Z</time>
      </trkpt>
      <trkpt lat="45.13954" lon="5.04237">
        <ele>287.67001342773</ele>
        <time>2010-10-09T11:57:42Z</time>
      </trkpt>
      <trkpt lat="45.13888" lon="5.04285">
        <ele>285.93099975586</ele>
        <time>2010-10-09T11:57:51Z</time>
      </trkpt>
      <trkpt lat="45.13821" lon="5.04333">
        <ele>283.83999633789</ele>
        <time>2010-10-09T11:58:00Z</time>
      </trkpt>
      <trkpt lat="45.13754" lon="5.04382">
        <ele>282.6969909668</ele>
        <time>2010-10-09T11:58:09Z</time>
      </trkpt>
      <trkpt lat="45.1371" lon="5.04414">
        <ele>282.71701049805</ele>
        <time>2010-10-09T11:58:15Z</time>
      </trkpt>
      <trkpt lat="45.13671" lon="5.04442">
        <ele>283.17599487305</ele>
        <time>2010-10-09T11:58:21Z</time>
      </trkpt>
      <trkpt lat="45.13627" lon="5.04474">
        <ele>286.12799072266</ele>
        <time>2010-10-09T11:58:29Z</time>
      </trkpt>
      <trkpt lat="45.13573" lon="5.04511">
        <ele>288.75399780273</ele>
        <time>2010-10-09T11:58:39Z</time>
      </trkpt>
      <trkpt lat="45.13524" lon="5.04539">
        <ele>290.58700561523</ele>
        <time>2010-10-09T11:58:48Z</time>
      </trkpt>
      <trkpt lat="45.13485" lon="5.04555">
        <ele>291.38198852539</ele>
        <time>2010-10-09T11:58:55Z</time>
      </trkpt>
      <trkpt lat="45.13438" lon="5.04572">
        <ele>292.48901367188</ele>
        <time>2010-10-09T11:59:04Z</time>
      </trkpt>
      <trkpt lat="45.13393" lon="5.04581">
        <ele>292.07800292969</ele>
        <time>2010-10-09T11:59:12Z</time>
      </trkpt>
      <trkpt lat="45.13342" lon="5.04586">
        <ele>293.89300537109</ele>
        <time>2010-10-09T11:59:21Z</time>
      </trkpt>
      <trkpt lat="45.13277" lon="5.04589">
        <ele>294.51300048828</ele>
        <time>2010-10-09T11:59:32Z</time>
      </trkpt>
      <trkpt lat="45.13223" lon="5.04592">
        <ele>295.09799194336</ele>
        <time>2010-10-09T11:59:41Z</time>
      </trkpt>
      <trkpt lat="45.13182" lon="5.04593">
        <ele>295.24600219727</ele>
        <time>2010-10-09T11:59:48Z</time>
      </trkpt>
      <trkpt lat="45.13134" lon="5.04595">
        <ele>295.72299194336</ele>
        <time>2010-10-09T11:59:56Z</time>
      </trkpt>
      <trkpt lat="45.13086" lon="5.04597">
        <ele>295.95300292969</ele>
        <time>2010-10-09T12:00:04Z</time>
      </trkpt>
      <trkpt lat="45.13052" lon="5.04598">
        <ele>297.5830078125</ele>
        <time>2010-10-09T12:00:10Z</time>
      </trkpt>
      <trkpt lat="45.13005" lon="5.046">
        <ele>298.59399414062</ele>
        <time>2010-10-09T12:00:18Z</time>
      </trkpt>
      <trkpt lat="45.12952" lon="5.04603">
        <ele>299.05801391602</ele>
        <time>2010-10-09T12:00:27Z</time>
      </trkpt>
      <trkpt lat="45.12909" lon="5.04605">
        <ele>300.27600097656</ele>
        <time>2010-10-09T12:00:35Z</time>
      </trkpt>
      <trkpt lat="45.12858" lon="5.04607">
        <ele>301.55899047852</ele>
        <time>2010-10-09T12:00:44Z</time>
      </trkpt>
      <trkpt lat="45.12789" lon="5.04611">
        <ele>302.69900512695</ele>
        <time>2010-10-09T12:00:55Z</time>
      </trkpt>
      <trkpt lat="45.12746" lon="5.04613">
        <ele>301.97100830078</ele>
        <time>2010-10-09T12:01:02Z</time>
      </trkpt>
      <trkpt lat="45.12696" lon="5.04614">
        <ele>301.82800292969</ele>
        <time>2010-10-09T12:01:10Z</time>
      </trkpt>
      <trkpt lat="45.1265" lon="5.04616">
        <ele>302.01699829102</ele>
        <time>2010-10-09T12:01:18Z</time>
      </trkpt>
      <trkpt lat="45.12595" lon="5.04622">
        <ele>301.57501220703</ele>
        <time>2010-10-09T12:01:27Z</time>
      </trkpt>
      <trkpt lat="45.12542" lon="5.04629">
        <ele>300.84399414062</ele>
        <time>2010-10-09T12:01:35Z</time>
      </trkpt>
      <trkpt lat="45.12477" lon="5.04641">
        <ele>301.28500366211</ele>
        <time>2010-10-09T12:01:44Z</time>
      </trkpt>
      <trkpt lat="45.12419" lon="5.04651">
        <ele>300.4049987793</ele>
        <time>2010-10-09T12:01:52Z</time>
      </trkpt>
      <trkpt lat="45.12364" lon="5.04663">
        <ele>300.04699707031</ele>
        <time>2010-10-09T12:02:00Z</time>
      </trkpt>
      <trkpt lat="45.12317" lon="5.04672">
        <ele>299.87399291992</ele>
        <time>2010-10-09T12:02:07Z</time>
      </trkpt>
      <trkpt lat="45.1227" lon="5.04685">
        <ele>300.20498657227</ele>
        <time>2010-10-09T12:02:14Z</time>
      </trkpt>
      <trkpt lat="45.12212" lon="5.04698">
        <ele>299.50799560547</ele>
        <time>2010-10-09T12:02:22Z</time>
      </trkpt>
      <trkpt lat="45.1216" lon="5.04708">
        <ele>299.61801147461</ele>
        <time>2010-10-09T12:02:30Z</time>
      </trkpt>
      <trkpt lat="45.12101" lon="5.0472">
        <ele>300.12298583984</ele>
        <time>2010-10-09T12:02:39Z</time>
      </trkpt>
      <trkpt lat="45.12029" lon="5.04742">
        <ele>300.90899658203</ele>
        <time>2010-10-09T12:02:50Z</time>
      </trkpt>
      <trkpt lat="45.11979" lon="5.04762">
        <ele>301.40399169922</ele>
        <time>2010-10-09T12:02:58Z</time>
      </trkpt>
      <trkpt lat="45.1194" lon="5.04777">
        <ele>301.64599609375</ele>
        <time>2010-10-09T12:03:05Z</time>
      </trkpt>
      <trkpt lat="45.11928" lon="5.04797">
        <ele>301.41400146484</ele>
        <time>2010-10-09T12:03:09Z</time>
      </trkpt>
      <trkpt lat="45.11929" lon="5.04804">
        <ele>301.42498779297</ele>
        <time>2010-10-09T12:03:10Z</time>
      </trkpt>
      <trkpt lat="45.11946" lon="5.04854">
        <ele>301.78201293945</ele>
        <time>2010-10-09T12:03:17Z</time>
      </trkpt>
      <trkpt lat="45.11955" lon="5.04882">
        <ele>302.36801147461</ele>
        <time>2010-10-09T12:03:21Z</time>
      </trkpt>
      <trkpt lat="45.11965" lon="5.04899">
        <ele>302.5830078125</ele>
        <time>2010-10-09T12:03:24Z</time>
      </trkpt>
      <trkpt lat="45.11969" lon="5.04921">
        <ele>302.71099853516</ele>
        <time>2010-10-09T12:03:28Z</time>
      </trkpt>
      <trkpt lat="45.11957" lon="5.04927">
        <ele>302.48999023438</ele>
        <time>2010-10-09T12:03:31Z</time>
      </trkpt>
      <trkpt lat="45.11912" lon="5.04946">
        <ele>300.42700195312</ele>
        <time>2010-10-09T12:03:40Z</time>
      </trkpt>
      <trkpt lat="45.11883" lon="5.04964">
        <ele>297.69900512695</ele>
        <time>2010-10-09T12:03:44Z</time>
      </trkpt>
      <trkpt lat="45.11841" lon="5.04995">
        <ele>290.8030090332</ele>
        <time>2010-10-09T12:03:49Z</time>
      </trkpt>
      <trkpt lat="45.11833" lon="5.05002">
        <ele>290.13800048828</ele>
        <time>2010-10-09T12:03:50Z</time>
      </trkpt>
      <trkpt lat="45.11807" lon="5.05039">
        <ele>287.41000366211</ele>
        <time>2010-10-09T12:03:54Z</time>
      </trkpt>
      <trkpt lat="45.11787" lon="5.05087">
        <ele>284.5539855957</ele>
        <time>2010-10-09T12:03:58Z</time>
      </trkpt>
      <trkpt lat="45.11767" lon="5.051">
        <ele>283.03601074219</ele>
        <time>2010-10-09T12:04:01Z</time>
      </trkpt>
      <trkpt lat="45.11758" lon="5.051">
        <ele>282.3039855957</ele>
        <time>2010-10-09T12:04:02Z</time>
      </trkpt>
      <trkpt lat="45.11724" lon="5.05107">
        <ele>277.78298950195</ele>
        <time>2010-10-09T12:04:06Z</time>
      </trkpt>
      <trkpt lat="45.11678" lon="5.05109">
        <ele>270.08801269531</ele>
        <time>2010-10-09T12:04:10Z</time>
      </trkpt>
      <trkpt lat="45.11637" lon="5.05125">
        <ele>266.57800292969</ele>
        <time>2010-10-09T12:04:14Z</time>
      </trkpt>
      <trkpt lat="45.11576" lon="5.05173">
        <ele>262.32400512695</ele>
        <time>2010-10-09T12:04:20Z</time>
      </trkpt>
      <trkpt lat="45.11565" lon="5.0518">
        <ele>261.92098999023</ele>
        <time>2010-10-09T12:04:21Z</time>
      </trkpt>
      <trkpt lat="45.11523" lon="5.05188">
        <ele>260.10598754883</ele>
        <time>2010-10-09T12:04:25Z</time>
      </trkpt>
      <trkpt lat="45.11512" lon="5.05185">
        <ele>259.23999023438</ele>
        <time>2010-10-09T12:04:26Z</time>
      </trkpt>
      <trkpt lat="45.11456" lon="5.05172">
        <ele>259.43899536133</ele>
        <time>2010-10-09T12:04:32Z</time>
      </trkpt>
      <trkpt lat="45.11401" lon="5.05168">
        <ele>258.61499023438</ele>
        <time>2010-10-09T12:04:38Z</time>
      </trkpt>
      <trkpt lat="45.1135" lon="5.05167">
        <ele>258.05599975586</ele>
        <time>2010-10-09T12:04:44Z</time>
      </trkpt>
      <trkpt lat="45.113" lon="5.05166">
        <ele>257.16101074219</ele>
        <time>2010-10-09T12:04:51Z</time>
      </trkpt>
      <trkpt lat="45.11259" lon="5.05167">
        <ele>256.86401367188</ele>
        <time>2010-10-09T12:04:57Z</time>
      </trkpt>
      <trkpt lat="45.11213" lon="5.05164">
        <ele>256.37799072266</ele>
        <time>2010-10-09T12:05:04Z</time>
      </trkpt>
      <trkpt lat="45.11161" lon="5.05156">
        <ele>256.11801147461</ele>
        <time>2010-10-09T12:05:12Z</time>
      </trkpt>
      <trkpt lat="45.11105" lon="5.05145">
        <ele>257.30599975586</ele>
        <time>2010-10-09T12:05:21Z</time>
      </trkpt>
      <trkpt lat="45.1106" lon="5.05139">
        <ele>257.12799072266</ele>
        <time>2010-10-09T12:05:28Z</time>
      </trkpt>
      <trkpt lat="45.1101" lon="5.05133">
        <ele>255.12199401856</ele>
        <time>2010-10-09T12:05:35Z</time>
      </trkpt>
      <trkpt lat="45.10936" lon="5.05122">
        <ele>252.94299316406</ele>
        <time>2010-10-09T12:05:45Z</time>
      </trkpt>
      <trkpt lat="45.10868" lon="5.05109">
        <ele>252.27699279785</ele>
        <time>2010-10-09T12:05:54Z</time>
      </trkpt>
      <trkpt lat="45.10807" lon="5.05098">
        <ele>250.27600097656</ele>
        <time>2010-10-09T12:06:02Z</time>
      </trkpt>
      <trkpt lat="45.10772" lon="5.05091">
        <ele>249.37300109863</ele>
        <time>2010-10-09T12:06:07Z</time>
      </trkpt>
      <trkpt lat="45.10728" lon="5.05097">
        <ele>250.90899658203</ele>
        <time>2010-10-09T12:06:14Z</time>
      </trkpt>
      <trkpt lat="45.10687" lon="5.05112">
        <ele>251.58000183106</ele>
        <time>2010-10-09T12:06:21Z</time>
      </trkpt>
      <trkpt lat="45.10643" lon="5.05136">
        <ele>251.63499450684</ele>
        <time>2010-10-09T12:06:29Z</time>
      </trkpt>
      <trkpt lat="45.10632" lon="5.05143">
        <ele>251.37399291992</ele>
        <time>2010-10-09T12:06:31Z</time>
      </trkpt>
      <trkpt lat="45.10588" lon="5.05159">
        <ele>248.80200195312</ele>
        <time>2010-10-09T12:06:37Z</time>
      </trkpt>
      <trkpt lat="45.10541" lon="5.05179">
        <ele>247.27699279785</ele>
        <time>2010-10-09T12:06:43Z</time>
      </trkpt>
      <trkpt lat="45.10482" lon="5.05205">
        <ele>245.16999816894</ele>
        <time>2010-10-09T12:06:51Z</time>
      </trkpt>
      <trkpt lat="45.10453" lon="5.05219">
        <ele>243.23500061035</ele>
        <time>2010-10-09T12:06:55Z</time>
      </trkpt>
      <trkpt lat="45.10439" lon="5.05227">
        <ele>243.59300231934</ele>
        <time>2010-10-09T12:06:57Z</time>
      </trkpt>
      <trkpt lat="45.10414" lon="5.05239">
        <ele>244.2799987793</ele>
        <time>2010-10-09T12:07:01Z</time>
      </trkpt>
      <trkpt lat="45.10408" lon="5.05237">
        <ele>244.24299621582</ele>
        <time>2010-10-09T12:07:02Z</time>
      </trkpt>
      <trkpt lat="45.10386" lon="5.05225">
        <ele>244.81599426269</ele>
        <time>2010-10-09T12:07:06Z</time>
      </trkpt>
      <trkpt lat="45.10353" lon="5.05208">
        <ele>247.57400512695</ele>
        <time>2010-10-09T12:07:14Z</time>
      </trkpt>
      <trkpt lat="45.10334" lon="5.05197">
        <ele>250.24200439453</ele>
        <time>2010-10-09T12:07:20Z</time>
      </trkpt>
      <trkpt lat="45.10323" lon="5.05193">
        <ele>251.9940032959</ele>
        <time>2010-10-09T12:07:25Z</time>
      </trkpt>
      <trkpt lat="45.1032" lon="5.05205">
        <ele>253.78300476074</ele>
        <time>2010-10-09T12:07:30Z</time>
      </trkpt>
      <trkpt lat="45.10322" lon="5.05213">
        <ele>254.37899780273</ele>
        <time>2010-10-09T12:07:32Z</time>
      </trkpt>
      <trkpt lat="45.10329" lon="5.05251">
        <ele>256.26901245117</ele>
        <time>2010-10-09T12:07:39Z</time>
      </trkpt>
      <trkpt lat="45.10329" lon="5.05279">
        <ele>257.44400024414</ele>
        <time>2010-10-09T12:07:44Z</time>
      </trkpt>
      <trkpt lat="45.10326" lon="5.05289">
        <ele>258.01901245117</ele>
        <time>2010-10-09T12:07:46Z</time>
      </trkpt>
      <trkpt lat="45.10323" lon="5.05299">
        <ele>258.58801269531</ele>
        <time>2010-10-09T12:07:48Z</time>
      </trkpt>
      <trkpt lat="45.10304" lon="5.05322">
        <ele>259.21301269531</ele>
        <time>2010-10-09T12:07:53Z</time>
      </trkpt>
      <trkpt lat="45.10266" lon="5.05356">
        <ele>257.93301391602</ele>
        <time>2010-10-09T12:08:00Z</time>
      </trkpt>
      <trkpt lat="45.10248" lon="5.05379">
        <ele>258.57299804688</ele>
        <time>2010-10-09T12:08:05Z</time>
      </trkpt>
      <trkpt lat="45.10223" lon="5.05397">
        <ele>256.56399536133</ele>
        <time>2010-10-09T12:08:10Z</time>
      </trkpt>
      <trkpt lat="45.10204" lon="5.05407">
        <ele>255.01699829102</ele>
        <time>2010-10-09T12:08:13Z</time>
      </trkpt>
      <trkpt lat="45.10161" lon="5.05422">
        <ele>250.49800109863</ele>
        <time>2010-10-09T12:08:19Z</time>
      </trkpt>
      <trkpt lat="45.10131" lon="5.05435">
        <ele>248.39999389648</ele>
        <time>2010-10-09T12:08:23Z</time>
      </trkpt>
      <trkpt lat="45.10082" lon="5.05448">
        <ele>246.4700012207</ele>
        <time>2010-10-09T12:08:29Z</time>
      </trkpt>
      <trkpt lat="45.10049" lon="5.05454">
        <ele>244.28100585938</ele>
        <time>2010-10-09T12:08:33Z</time>
      </trkpt>
      <trkpt lat="45.10002" lon="5.05458">
        <ele>242.83099365234</ele>
        <time>2010-10-09T12:08:39Z</time>
      </trkpt>
      <trkpt lat="45.0995" lon="5.05467">
        <ele>240.64900207519</ele>
        <time>2010-10-09T12:08:46Z</time>
      </trkpt>
      <trkpt lat="45.09912" lon="5.05479">
        <ele>239.00500488281</ele>
        <time>2010-10-09T12:08:51Z</time>
      </trkpt>
      <trkpt lat="45.09858" lon="5.05483">
        <ele>237.37300109863</ele>
        <time>2010-10-09T12:08:58Z</time>
      </trkpt>
      <trkpt lat="45.09851" lon="5.05483">
        <ele>237.10200500488</ele>
        <time>2010-10-09T12:08:59Z</time>
      </trkpt>
      <trkpt lat="45.09811" lon="5.05488">
        <ele>236.23300170898</ele>
        <time>2010-10-09T12:09:05Z</time>
      </trkpt>
      <trkpt lat="45.09778" lon="5.055">
        <ele>235.55299377441</ele>
        <time>2010-10-09T12:09:10Z</time>
      </trkpt>
      <trkpt lat="45.09743" lon="5.05516">
        <ele>233.80999755859</ele>
        <time>2010-10-09T12:09:15Z</time>
      </trkpt>
      <trkpt lat="45.09702" lon="5.05536">
        <ele>231.77799987793</ele>
        <time>2010-10-09T12:09:21Z</time>
      </trkpt>
      <trkpt lat="45.09655" lon="5.05558">
        <ele>231.28799438477</ele>
        <time>2010-10-09T12:09:28Z</time>
      </trkpt>
      <trkpt lat="45.09609" lon="5.05579">
        <ele>229.97599792481</ele>
        <time>2010-10-09T12:09:35Z</time>
      </trkpt>
      <trkpt lat="45.09557" lon="5.05599">
        <ele>228.85699462891</ele>
        <time>2010-10-09T12:09:43Z</time>
      </trkpt>
      <trkpt lat="45.09524" lon="5.05611">
        <ele>228.67900085449</ele>
        <time>2010-10-09T12:09:48Z</time>
      </trkpt>
      <trkpt lat="45.09478" lon="5.05615">
        <ele>227.22999572754</ele>
        <time>2010-10-09T12:09:55Z</time>
      </trkpt>
      <trkpt lat="45.09454" lon="5.05616">
        <ele>227.55400085449</ele>
        <time>2010-10-09T12:10:00Z</time>
      </trkpt>
      <trkpt lat="45.09444" lon="5.05614">
        <ele>227.09599304199</ele>
        <time>2010-10-09T12:10:04Z</time>
      </trkpt>
      <trkpt lat="45.09441" lon="5.05613">
        <ele>227.11799621582</ele>
        <time>2010-10-09T12:10:08Z</time>
      </trkpt>
      <trkpt lat="45.09439" lon="5.05614">
        <ele>227.44599914551</ele>
        <time>2010-10-09T12:10:21Z</time>
      </trkpt>
      <trkpt lat="45.09433" lon="5.05627">
        <ele>226.64300537109</ele>
        <time>2010-10-09T12:10:26Z</time>
      </trkpt>
      <trkpt lat="45.09431" lon="5.05634">
        <ele>226.16000366211</ele>
        <time>2010-10-09T12:10:27Z</time>
      </trkpt>
      <trkpt lat="45.09425" lon="5.05681">
        <ele>226.18200683594</ele>
        <time>2010-10-09T12:10:33Z</time>
      </trkpt>
      <trkpt lat="45.09415" lon="5.05747">
        <ele>225.68899536133</ele>
        <time>2010-10-09T12:10:40Z</time>
      </trkpt>
      <trkpt lat="45.09395" lon="5.05823">
        <ele>224.83299255371</ele>
        <time>2010-10-09T12:10:48Z</time>
      </trkpt>
      <trkpt lat="45.0938" lon="5.05895">
        <ele>224.31599426269</ele>
        <time>2010-10-09T12:10:55Z</time>
      </trkpt>
      <trkpt lat="45.09371" lon="5.05982">
        <ele>225.04899597168</ele>
        <time>2010-10-09T12:11:03Z</time>
      </trkpt>
      <trkpt lat="45.09364" lon="5.06087">
        <ele>225.12899780273</ele>
        <time>2010-10-09T12:11:13Z</time>
      </trkpt>
      <trkpt lat="45.09365" lon="5.0617">
        <ele>225.94200134277</ele>
        <time>2010-10-09T12:11:21Z</time>
      </trkpt>
      <trkpt lat="45.09367" lon="5.0622">
        <ele>226.58399963379</ele>
        <time>2010-10-09T12:11:26Z</time>
      </trkpt>
      <trkpt lat="45.09367" lon="5.06269">
        <ele>227.53500366211</ele>
        <time>2010-10-09T12:11:31Z</time>
      </trkpt>
      <trkpt lat="45.09368" lon="5.06329">
        <ele>228.30599975586</ele>
        <time>2010-10-09T12:11:37Z</time>
      </trkpt>
      <trkpt lat="45.09372" lon="5.0642">
        <ele>228.88400268555</ele>
        <time>2010-10-09T12:11:46Z</time>
      </trkpt>
      <trkpt lat="45.09378" lon="5.0652">
        <ele>229.62300109863</ele>
        <time>2010-10-09T12:11:56Z</time>
      </trkpt>
      <trkpt lat="45.09379" lon="5.0659">
        <ele>229.88999938965</ele>
        <time>2010-10-09T12:12:03Z</time>
      </trkpt>
      <trkpt lat="45.09372" lon="5.06661">
        <ele>230.95399475098</ele>
        <time>2010-10-09T12:12:10Z</time>
      </trkpt>
      <trkpt lat="45.09365" lon="5.06742">
        <ele>231.72099304199</ele>
        <time>2010-10-09T12:12:18Z</time>
      </trkpt>
      <trkpt lat="45.09369" lon="5.06833">
        <ele>232.50700378418</ele>
        <time>2010-10-09T12:12:27Z</time>
      </trkpt>
      <trkpt lat="45.09374" lon="5.06933">
        <ele>233.50199890137</ele>
        <time>2010-10-09T12:12:37Z</time>
      </trkpt>
      <trkpt lat="45.09379" lon="5.07018">
        <ele>234.64700317383</ele>
        <time>2010-10-09T12:12:46Z</time>
      </trkpt>
      <trkpt lat="45.09383" lon="5.07099">
        <ele>236.4700012207</ele>
        <time>2010-10-09T12:12:55Z</time>
      </trkpt>
      <trkpt lat="45.09384" lon="5.07158">
        <ele>237.39300537109</ele>
        <time>2010-10-09T12:13:02Z</time>
      </trkpt>
      <trkpt lat="45.09368" lon="5.07194">
        <ele>238.55499267578</ele>
        <time>2010-10-09T12:13:07Z</time>
      </trkpt>
      <trkpt lat="45.09362" lon="5.07198">
        <ele>238.53500366211</ele>
        <time>2010-10-09T12:13:08Z</time>
      </trkpt>
      <trkpt lat="45.0935" lon="5.07205">
        <ele>238.47900390625</ele>
        <time>2010-10-09T12:13:10Z</time>
      </trkpt>
      <trkpt lat="45.09323" lon="5.07236">
        <ele>238.14900207519</ele>
        <time>2010-10-09T12:13:15Z</time>
      </trkpt>
      <trkpt lat="45.09319" lon="5.07244">
        <ele>238.03399658203</ele>
        <time>2010-10-09T12:13:16Z</time>
      </trkpt>
      <trkpt lat="45.09291" lon="5.07304">
        <ele>236.49000549316</ele>
        <time>2010-10-09T12:13:23Z</time>
      </trkpt>
      <trkpt lat="45.09265" lon="5.0736">
        <ele>237.47300720215</ele>
        <time>2010-10-09T12:13:30Z</time>
      </trkpt>
      <trkpt lat="45.09236" lon="5.0742">
        <ele>237.1369934082</ele>
        <time>2010-10-09T12:13:38Z</time>
      </trkpt>
      <trkpt lat="45.09208" lon="5.07479">
        <ele>238.87699890137</ele>
        <time>2010-10-09T12:13:46Z</time>
      </trkpt>
      <trkpt lat="45.09177" lon="5.07544">
        <ele>240.31900024414</ele>
        <time>2010-10-09T12:13:55Z</time>
      </trkpt>
      <trkpt lat="45.0915" lon="5.07605">
        <ele>241.41000366211</ele>
        <time>2010-10-09T12:14:03Z</time>
      </trkpt>
      <trkpt lat="45.09124" lon="5.07653">
        <ele>241.70899963379</ele>
        <time>2010-10-09T12:14:10Z</time>
      </trkpt>
      <trkpt lat="45.09091" lon="5.07691">
        <ele>243.25</ele>
        <time>2010-10-09T12:14:17Z</time>
      </trkpt>
      <trkpt lat="45.09035" lon="5.07743">
        <ele>244.34199523926</ele>
        <time>2010-10-09T12:14:28Z</time>
      </trkpt>
      <trkpt lat="45.08995" lon="5.07776">
        <ele>243.30999755859</ele>
        <time>2010-10-09T12:14:35Z</time>
      </trkpt>
      <trkpt lat="45.08936" lon="5.07813">
        <ele>241.94400024414</ele>
        <time>2010-10-09T12:14:44Z</time>
      </trkpt>
      <trkpt lat="45.08879" lon="5.0785">
        <ele>239.62199401856</ele>
        <time>2010-10-09T12:14:52Z</time>
      </trkpt>
      <trkpt lat="45.08862" lon="5.07873">
        <ele>238.33599853516</ele>
        <time>2010-10-09T12:14:55Z</time>
      </trkpt>
      <trkpt lat="45.08851" lon="5.07892">
        <ele>237.4109954834</ele>
        <time>2010-10-09T12:14:57Z</time>
      </trkpt>
      <trkpt lat="45.08834" lon="5.07947">
        <ele>236.32200622559</ele>
        <time>2010-10-09T12:15:02Z</time>
      </trkpt>
      <trkpt lat="45.08817" lon="5.08037">
        <ele>233.44599914551</ele>
        <time>2010-10-09T12:15:09Z</time>
      </trkpt>
      <trkpt lat="45.08805" lon="5.08102">
        <ele>231.46699523926</ele>
        <time>2010-10-09T12:15:14Z</time>
      </trkpt>
      <trkpt lat="45.08784" lon="5.08225">
        <ele>227.67300415039</ele>
        <time>2010-10-09T12:15:23Z</time>
      </trkpt>
      <trkpt lat="45.08774" lon="5.08297">
        <ele>224.94799804688</ele>
        <time>2010-10-09T12:15:28Z</time>
      </trkpt>
      <trkpt lat="45.08764" lon="5.08372">
        <ele>222.48399353027</ele>
        <time>2010-10-09T12:15:33Z</time>
      </trkpt>
      <trkpt lat="45.08754" lon="5.08449">
        <ele>219.7440032959</ele>
        <time>2010-10-09T12:15:38Z</time>
      </trkpt>
      <trkpt lat="45.08746" lon="5.08511">
        <ele>217.44900512695</ele>
        <time>2010-10-09T12:15:42Z</time>
      </trkpt>
      <trkpt lat="45.08735" lon="5.08586">
        <ele>215.41400146484</ele>
        <time>2010-10-09T12:15:47Z</time>
      </trkpt>
      <trkpt lat="45.08725" lon="5.08672">
        <ele>214.8809967041</ele>
        <time>2010-10-09T12:15:53Z</time>
      </trkpt>
      <trkpt lat="45.08701" lon="5.08768">
        <ele>212.87800598144</ele>
        <time>2010-10-09T12:16:00Z</time>
      </trkpt>
      <trkpt lat="45.08663" lon="5.08897">
        <ele>211.89599609375</ele>
        <time>2010-10-09T12:16:10Z</time>
      </trkpt>
      <trkpt lat="45.0863" lon="5.08963">
        <ele>210.19700622559</ele>
        <time>2010-10-09T12:16:16Z</time>
      </trkpt>
      <trkpt lat="45.08595" lon="5.0904">
        <ele>209.75199890137</ele>
        <time>2010-10-09T12:16:23Z</time>
      </trkpt>
      <trkpt lat="45.08575" lon="5.09114">
        <ele>208.47999572754</ele>
        <time>2010-10-09T12:16:29Z</time>
      </trkpt>
      <trkpt lat="45.08548" lon="5.0921">
        <ele>208.10200500488</ele>
        <time>2010-10-09T12:16:37Z</time>
      </trkpt>
      <trkpt lat="45.08525" lon="5.09249">
        <ele>206.80200195312</ele>
        <time>2010-10-09T12:16:41Z</time>
      </trkpt>
      <trkpt lat="45.0849" lon="5.09303">
        <ele>205.75399780273</ele>
        <time>2010-10-09T12:16:47Z</time>
      </trkpt>
      <trkpt lat="45.08474" lon="5.09345">
        <ele>205.72099304199</ele>
        <time>2010-10-09T12:16:51Z</time>
      </trkpt>
      <trkpt lat="45.08464" lon="5.09403">
        <ele>205.83099365234</ele>
        <time>2010-10-09T12:16:56Z</time>
      </trkpt>
      <trkpt lat="45.08451" lon="5.09521">
        <ele>205.49800109863</ele>
        <time>2010-10-09T12:17:06Z</time>
      </trkpt>
      <trkpt lat="45.08451" lon="5.09543">
        <ele>206.10499572754</ele>
        <time>2010-10-09T12:17:08Z</time>
      </trkpt>
      <trkpt lat="45.08459" lon="5.09586">
        <ele>206.68600463867</ele>
        <time>2010-10-09T12:17:12Z</time>
      </trkpt>
      <trkpt lat="45.08488" lon="5.09656">
        <ele>206.35600280762</ele>
        <time>2010-10-09T12:17:19Z</time>
      </trkpt>
      <trkpt lat="45.08512" lon="5.09711">
        <ele>207.17100524902</ele>
        <time>2010-10-09T12:17:25Z</time>
      </trkpt>
      <trkpt lat="45.08545" lon="5.09802">
        <ele>208.62699890137</ele>
        <time>2010-10-09T12:17:35Z</time>
      </trkpt>
      <trkpt lat="45.08567" lon="5.09884">
        <ele>208.15299987793</ele>
        <time>2010-10-09T12:17:43Z</time>
      </trkpt>
      <trkpt lat="45.08598" lon="5.1">
        <ele>209.13800048828</ele>
        <time>2010-10-09T12:17:54Z</time>
      </trkpt>
      <trkpt lat="45.08625" lon="5.101">
        <ele>210.73100280762</ele>
        <time>2010-10-09T12:18:04Z</time>
      </trkpt>
      <trkpt lat="45.08643" lon="5.10186">
        <ele>212.01400756836</ele>
        <time>2010-10-09T12:18:12Z</time>
      </trkpt>
      <trkpt lat="45.08658" lon="5.10258">
        <ele>210.89700317383</ele>
        <time>2010-10-09T12:18:18Z</time>
      </trkpt>
      <trkpt lat="45.08683" lon="5.10347">
        <ele>210.31399536133</ele>
        <time>2010-10-09T12:18:25Z</time>
      </trkpt>
      <trkpt lat="45.0872" lon="5.10477">
        <ele>209.5890045166</ele>
        <time>2010-10-09T12:18:35Z</time>
      </trkpt>
      <trkpt lat="45.08758" lon="5.10627">
        <ele>208.89300537109</ele>
        <time>2010-10-09T12:18:46Z</time>
      </trkpt>
      <trkpt lat="45.08776" lon="5.10725">
        <ele>207.94200134277</ele>
        <time>2010-10-09T12:18:53Z</time>
      </trkpt>
      <trkpt lat="45.08781" lon="5.10825">
        <ele>208.70100402832</ele>
        <time>2010-10-09T12:19:00Z</time>
      </trkpt>
      <trkpt lat="45.08786" lon="5.10949">
        <ele>208.03900146484</ele>
        <time>2010-10-09T12:19:09Z</time>
      </trkpt>
      <trkpt lat="45.08798" lon="5.11027">
        <ele>209.13299560547</ele>
        <time>2010-10-09T12:19:15Z</time>
      </trkpt>
      <trkpt lat="45.08821" lon="5.11151">
        <ele>208.25900268555</ele>
        <time>2010-10-09T12:19:25Z</time>
      </trkpt>
      <trkpt lat="45.08831" lon="5.11233">
        <ele>209.45599365234</ele>
        <time>2010-10-09T12:19:32Z</time>
      </trkpt>
      <trkpt lat="45.08836" lon="5.11285">
        <ele>209.75700378418</ele>
        <time>2010-10-09T12:19:37Z</time>
      </trkpt>
      <trkpt lat="45.08842" lon="5.11359">
        <ele>209.99099731445</ele>
        <time>2010-10-09T12:19:45Z</time>
      </trkpt>
      <trkpt lat="45.08847" lon="5.11428">
        <ele>210.79800415039</ele>
        <time>2010-10-09T12:19:53Z</time>
      </trkpt>
      <trkpt lat="45.08855" lon="5.11524">
        <ele>211.57200622559</ele>
        <time>2010-10-09T12:20:04Z</time>
      </trkpt>
      <trkpt lat="45.08862" lon="5.11606">
        <ele>212.73899841309</ele>
        <time>2010-10-09T12:20:13Z</time>
      </trkpt>
      <trkpt lat="45.08869" lon="5.11705">
        <ele>212.53900146484</ele>
        <time>2010-10-09T12:20:23Z</time>
      </trkpt>
      <trkpt lat="45.08876" lon="5.11807">
        <ele>212.10899353027</ele>
        <time>2010-10-09T12:20:33Z</time>
      </trkpt>
      <trkpt lat="45.08884" lon="5.11924">
        <ele>213.36500549316</ele>
        <time>2010-10-09T12:20:45Z</time>
      </trkpt>
      <trkpt lat="45.08892" lon="5.12031">
        <ele>213.67399597168</ele>
        <time>2010-10-09T12:20:56Z</time>
      </trkpt>
      <trkpt lat="45.08899" lon="5.12155">
        <ele>215.28999328613</ele>
        <time>2010-10-09T12:21:09Z</time>
      </trkpt>
      <trkpt lat="45.08905" lon="5.12262">
        <ele>216.04800415039</ele>
        <time>2010-10-09T12:21:20Z</time>
      </trkpt>
      <trkpt lat="45.0891" lon="5.12354">
        <ele>217.73199462891</ele>
        <time>2010-10-09T12:21:30Z</time>
      </trkpt>
      <trkpt lat="45.08913" lon="5.12441">
        <ele>219.02699279785</ele>
        <time>2010-10-09T12:21:40Z</time>
      </trkpt>
      <trkpt lat="45.08909" lon="5.125">
        <ele>220.11599731445</ele>
        <time>2010-10-09T12:21:47Z</time>
      </trkpt>
      <trkpt lat="45.08894" lon="5.12558">
        <ele>220.71200561523</ele>
        <time>2010-10-09T12:21:54Z</time>
      </trkpt>
      <trkpt lat="45.08871" lon="5.12627">
        <ele>220.41900634766</ele>
        <time>2010-10-09T12:22:02Z</time>
      </trkpt>
      <trkpt lat="45.08855" lon="5.12682">
        <ele>219.58099365234</ele>
        <time>2010-10-09T12:22:08Z</time>
      </trkpt>
      <trkpt lat="45.08829" lon="5.12767">
        <ele>218.7559967041</ele>
        <time>2010-10-09T12:22:17Z</time>
      </trkpt>
      <trkpt lat="45.08812" lon="5.12844">
        <ele>217.6609954834</ele>
        <time>2010-10-09T12:22:25Z</time>
      </trkpt>
      <trkpt lat="45.088" lon="5.12916">
        <ele>217.32000732422</ele>
        <time>2010-10-09T12:22:32Z</time>
      </trkpt>
      <trkpt lat="45.08794" lon="5.12977">
        <ele>215.58200073242</ele>
        <time>2010-10-09T12:22:38Z</time>
      </trkpt>
      <trkpt lat="45.08795" lon="5.12996">
        <ele>215.44999694824</ele>
        <time>2010-10-09T12:22:40Z</time>
      </trkpt>
      <trkpt lat="45.08797" lon="5.13024">
        <ele>215.58599853516</ele>
        <time>2010-10-09T12:22:43Z</time>
      </trkpt>
      <trkpt lat="45.08792" lon="5.1306">
        <ele>215.37600708008</ele>
        <time>2010-10-09T12:22:47Z</time>
      </trkpt>
      <trkpt lat="45.08788" lon="5.1308">
        <ele>215.85299682617</ele>
        <time>2010-10-09T12:22:51Z</time>
      </trkpt>
      <trkpt lat="45.08788" lon="5.13081">
        <ele>215.89500427246</ele>
        <time>2010-10-09T12:22:52Z</time>
      </trkpt>
      <trkpt lat="45.08784" lon="5.13106">
        <ele>215.80999755859</ele>
        <time>2010-10-09T12:22:58Z</time>
      </trkpt>
      <trkpt lat="45.08776" lon="5.13138">
        <ele>215.63499450684</ele>
        <time>2010-10-09T12:23:03Z</time>
      </trkpt>
      <trkpt lat="45.08757" lon="5.13177">
        <ele>215.85400390625</ele>
        <time>2010-10-09T12:23:09Z</time>
      </trkpt>
      <trkpt lat="45.08736" lon="5.13219">
        <ele>215.40199279785</ele>
        <time>2010-10-09T12:23:15Z</time>
      </trkpt>
      <trkpt lat="45.0871" lon="5.13278">
        <ele>215.87699890137</ele>
        <time>2010-10-09T12:23:23Z</time>
      </trkpt>
      <trkpt lat="45.0868" lon="5.13346">
        <ele>215.37899780273</ele>
        <time>2010-10-09T12:23:32Z</time>
      </trkpt>
      <trkpt lat="45.08659" lon="5.13397">
        <ele>216.55000305176</ele>
        <time>2010-10-09T12:23:39Z</time>
      </trkpt>
      <trkpt lat="45.08647" lon="5.13427">
        <ele>216.21699523926</ele>
        <time>2010-10-09T12:23:43Z</time>
      </trkpt>
      <trkpt lat="45.08633" lon="5.13459">
        <ele>215.79800415039</ele>
        <time>2010-10-09T12:23:47Z</time>
      </trkpt>
      <trkpt lat="45.08625" lon="5.13474">
        <ele>215.66600036621</ele>
        <time>2010-10-09T12:23:49Z</time>
      </trkpt>
      <trkpt lat="45.08614" lon="5.13507">
        <ele>215.92300415039</ele>
        <time>2010-10-09T12:23:53Z</time>
      </trkpt>
      <trkpt lat="45.08586" lon="5.1357">
        <ele>214.57800292969</ele>
        <time>2010-10-09T12:24:01Z</time>
      </trkpt>
      <trkpt lat="45.08559" lon="5.13613">
        <ele>214.45199584961</ele>
        <time>2010-10-09T12:24:07Z</time>
      </trkpt>
      <trkpt lat="45.08504" lon="5.13686">
        <ele>214.94700622559</ele>
        <time>2010-10-09T12:24:18Z</time>
      </trkpt>
      <trkpt lat="45.08447" lon="5.13761">
        <ele>216.02799987793</ele>
        <time>2010-10-09T12:24:29Z</time>
      </trkpt>
      <trkpt lat="45.08418" lon="5.138">
        <ele>215.72599792481</ele>
        <time>2010-10-09T12:24:35Z</time>
      </trkpt>
      <trkpt lat="45.08381" lon="5.13847">
        <ele>216.11700439453</ele>
        <time>2010-10-09T12:24:42Z</time>
      </trkpt>
      <trkpt lat="45.08354" lon="5.13896">
        <ele>215.69400024414</ele>
        <time>2010-10-09T12:24:48Z</time>
      </trkpt>
      <trkpt lat="45.0833" lon="5.13968">
        <ele>214.51800537109</ele>
        <time>2010-10-09T12:24:55Z</time>
      </trkpt>
      <trkpt lat="45.083" lon="5.14066">
        <ele>215.04899597168</ele>
        <time>2010-10-09T12:25:05Z</time>
      </trkpt>
      <trkpt lat="45.08279" lon="5.14142">
        <ele>216.29100036621</ele>
        <time>2010-10-09T12:25:13Z</time>
      </trkpt>
      <trkpt lat="45.0825" lon="5.14242">
        <ele>217.19099426269</ele>
        <time>2010-10-09T12:25:24Z</time>
      </trkpt>
      <trkpt lat="45.08221" lon="5.14333">
        <ele>218.46699523926</ele>
        <time>2010-10-09T12:25:34Z</time>
      </trkpt>
      <trkpt lat="45.08186" lon="5.14434">
        <ele>218.90299987793</ele>
        <time>2010-10-09T12:25:45Z</time>
      </trkpt>
      <trkpt lat="45.08168" lon="5.14498">
        <ele>219.67399597168</ele>
        <time>2010-10-09T12:25:52Z</time>
      </trkpt>
      <trkpt lat="45.08154" lon="5.14546">
        <ele>217.71099853516</ele>
        <time>2010-10-09T12:25:57Z</time>
      </trkpt>
      <trkpt lat="45.08151" lon="5.14556">
        <ele>217.40699768066</ele>
        <time>2010-10-09T12:25:58Z</time>
      </trkpt>
      <trkpt lat="45.08131" lon="5.14621">
        <ele>216.0950012207</ele>
        <time>2010-10-09T12:26:04Z</time>
      </trkpt>
      <trkpt lat="45.08101" lon="5.14698">
        <ele>214.99800109863</ele>
        <time>2010-10-09T12:26:11Z</time>
      </trkpt>
      <trkpt lat="45.08069" lon="5.14786">
        <ele>214.80400085449</ele>
        <time>2010-10-09T12:26:19Z</time>
      </trkpt>
      <trkpt lat="45.08049" lon="5.14851">
        <ele>214.71899414062</ele>
        <time>2010-10-09T12:26:25Z</time>
      </trkpt>
      <trkpt lat="45.08028" lon="5.14936">
        <ele>215.48399353027</ele>
        <time>2010-10-09T12:26:33Z</time>
      </trkpt>
      <trkpt lat="45.08007" lon="5.15021">
        <ele>217.85899353027</ele>
        <time>2010-10-09T12:26:42Z</time>
      </trkpt>
      <trkpt lat="45.07989" lon="5.15099">
        <ele>219.07499694824</ele>
        <time>2010-10-09T12:26:51Z</time>
      </trkpt>
      <trkpt lat="45.0798" lon="5.15163">
        <ele>217.38000488281</ele>
        <time>2010-10-09T12:26:57Z</time>
      </trkpt>
      <trkpt lat="45.07967" lon="5.15273">
        <ele>217.00199890137</ele>
        <time>2010-10-09T12:27:07Z</time>
      </trkpt>
      <trkpt lat="45.0794" lon="5.15374">
        <ele>218.41900634766</ele>
        <time>2010-10-09T12:27:17Z</time>
      </trkpt>
      <trkpt lat="45.07923" lon="5.15441">
        <ele>219.43200683594</ele>
        <time>2010-10-09T12:27:24Z</time>
      </trkpt>
      <trkpt lat="45.07904" lon="5.15525">
        <ele>218.33999633789</ele>
        <time>2010-10-09T12:27:32Z</time>
      </trkpt>
      <trkpt lat="45.07881" lon="5.1564">
        <ele>216.05400085449</ele>
        <time>2010-10-09T12:27:42Z</time>
      </trkpt>
      <trkpt lat="45.07866" lon="5.15724">
        <ele>214.2440032959</ele>
        <time>2010-10-09T12:27:49Z</time>
      </trkpt>
      <trkpt lat="45.07838" lon="5.15843">
        <ele>213.36399841309</ele>
        <time>2010-10-09T12:27:59Z</time>
      </trkpt>
      <trkpt lat="45.07808" lon="5.15957">
        <ele>212.63400268555</ele>
        <time>2010-10-09T12:28:09Z</time>
      </trkpt>
      <trkpt lat="45.07788" lon="5.16035">
        <ele>211.14399719238</ele>
        <time>2010-10-09T12:28:16Z</time>
      </trkpt>
      <trkpt lat="45.07768" lon="5.16092">
        <ele>208.92599487305</ele>
        <time>2010-10-09T12:28:21Z</time>
      </trkpt>
      <trkpt lat="45.07736" lon="5.16147">
        <ele>206.08099365234</ele>
        <time>2010-10-09T12:28:26Z</time>
      </trkpt>
      <trkpt lat="45.07698" lon="5.16209">
        <ele>204.61500549316</ele>
        <time>2010-10-09T12:28:32Z</time>
      </trkpt>
      <trkpt lat="45.07672" lon="5.1625">
        <ele>204.40199279785</ele>
        <time>2010-10-09T12:28:37Z</time>
      </trkpt>
      <trkpt lat="45.07666" lon="5.16258">
        <ele>204.8630065918</ele>
        <time>2010-10-09T12:28:40Z</time>
      </trkpt>
      <trkpt lat="45.07663" lon="5.16266">
        <ele>204.93200683594</ele>
        <time>2010-10-09T12:28:43Z</time>
      </trkpt>
      <trkpt lat="45.07668" lon="5.163">
        <ele>204.66700744629</ele>
        <time>2010-10-09T12:28:48Z</time>
      </trkpt>
      <trkpt lat="45.07681" lon="5.16358">
        <ele>204.87399291992</ele>
        <time>2010-10-09T12:28:55Z</time>
      </trkpt>
      <trkpt lat="45.07703" lon="5.16456">
        <ele>205.38999938965</ele>
        <time>2010-10-09T12:29:06Z</time>
      </trkpt>
      <trkpt lat="45.07722" lon="5.16541">
        <ele>205.71600341797</ele>
        <time>2010-10-09T12:29:15Z</time>
      </trkpt>
      <trkpt lat="45.07744" lon="5.1664">
        <ele>204.8450012207</ele>
        <time>2010-10-09T12:29:25Z</time>
      </trkpt>
      <trkpt lat="45.07763" lon="5.16725">
        <ele>204.54100036621</ele>
        <time>2010-10-09T12:29:33Z</time>
      </trkpt>
      <trkpt lat="45.07794" lon="5.16859">
        <ele>203.31300354004</ele>
        <time>2010-10-09T12:29:45Z</time>
      </trkpt>
      <trkpt lat="45.07825" lon="5.16957">
        <ele>202.42100524902</ele>
        <time>2010-10-09T12:29:54Z</time>
      </trkpt>
      <trkpt lat="45.07852" lon="5.17031">
        <ele>201.95100402832</ele>
        <time>2010-10-09T12:30:01Z</time>
      </trkpt>
      <trkpt lat="45.07894" lon="5.1712">
        <ele>201.52699279785</ele>
        <time>2010-10-09T12:30:10Z</time>
      </trkpt>
      <trkpt lat="45.07936" lon="5.17196">
        <ele>200.08299255371</ele>
        <time>2010-10-09T12:30:18Z</time>
      </trkpt>
      <trkpt lat="45.07985" lon="5.17275">
        <ele>196.83299255371</ele>
        <time>2010-10-09T12:30:26Z</time>
      </trkpt>
      <trkpt lat="45.07991" lon="5.17285">
        <ele>196.53399658203</ele>
        <time>2010-10-09T12:30:27Z</time>
      </trkpt>
      <trkpt lat="45.08021" lon="5.17326">
        <ele>194.70399475098</ele>
        <time>2010-10-09T12:30:31Z</time>
      </trkpt>
      <trkpt lat="45.08059" lon="5.17383">
        <ele>192.08299255371</ele>
        <time>2010-10-09T12:30:36Z</time>
      </trkpt>
      <trkpt lat="45.08107" lon="5.17465">
        <ele>190.97300720215</ele>
        <time>2010-10-09T12:30:43Z</time>
      </trkpt>
      <trkpt lat="45.08162" lon="5.1755">
        <ele>188.92399597168</ele>
        <time>2010-10-09T12:30:51Z</time>
      </trkpt>
      <trkpt lat="45.08195" lon="5.17601">
        <ele>188.03700256348</ele>
        <time>2010-10-09T12:30:56Z</time>
      </trkpt>
      <trkpt lat="45.08236" lon="5.17659">
        <ele>186.48899841309</ele>
        <time>2010-10-09T12:31:02Z</time>
      </trkpt>
      <trkpt lat="45.08294" lon="5.17733">
        <ele>185.69700622559</ele>
        <time>2010-10-09T12:31:10Z</time>
      </trkpt>
      <trkpt lat="45.08338" lon="5.17789">
        <ele>185.27000427246</ele>
        <time>2010-10-09T12:31:16Z</time>
      </trkpt>
      <trkpt lat="45.08387" lon="5.17853">
        <ele>184.31700134277</ele>
        <time>2010-10-09T12:31:23Z</time>
      </trkpt>
      <trkpt lat="45.08429" lon="5.17932">
        <ele>182.2140045166</ele>
        <time>2010-10-09T12:31:30Z</time>
      </trkpt>
      <trkpt lat="45.08477" lon="5.18029">
        <ele>179.83299255371</ele>
        <time>2010-10-09T12:31:38Z</time>
      </trkpt>
      <trkpt lat="45.08487" lon="5.18054">
        <ele>178.81199645996</ele>
        <time>2010-10-09T12:31:40Z</time>
      </trkpt>
      <trkpt lat="45.0851" lon="5.18129">
        <ele>177.86199951172</ele>
        <time>2010-10-09T12:31:46Z</time>
      </trkpt>
      <trkpt lat="45.08519" lon="5.1816">
        <ele>177.31199645996</ele>
        <time>2010-10-09T12:31:49Z</time>
      </trkpt>
      <trkpt lat="45.08532" lon="5.18204">
        <ele>177.17599487305</ele>
        <time>2010-10-09T12:31:54Z</time>
      </trkpt>
      <trkpt lat="45.08538" lon="5.18222">
        <ele>176.99000549316</ele>
        <time>2010-10-09T12:31:58Z</time>
      </trkpt>
      <trkpt lat="45.08538" lon="5.18223">
        <ele>177.04899597168</ele>
        <time>2010-10-09T12:32:01Z</time>
      </trkpt>
      <trkpt lat="45.08539" lon="5.18223">
        <ele>177.24200439453</ele>
        <time>2010-10-09T12:33:15Z</time>
      </trkpt>
      <trkpt lat="45.08543" lon="5.18235">
        <ele>176.92100524902</ele>
        <time>2010-10-09T12:33:19Z</time>
      </trkpt>
      <trkpt lat="45.08552" lon="5.18262">
        <ele>176.63400268555</ele>
        <time>2010-10-09T12:33:26Z</time>
      </trkpt>
      <trkpt lat="45.08556" lon="5.18273">
        <ele>176.39599609375</ele>
        <time>2010-10-09T12:33:31Z</time>
      </trkpt>
      <trkpt lat="45.08556" lon="5.18273">
        <ele>176.35000610352</ele>
        <time>2010-10-09T12:33:33Z</time>
      </trkpt>
      <trkpt lat="45.08559" lon="5.18282">
        <ele>176.16200256348</ele>
        <time>2010-10-09T12:33:58Z</time>
      </trkpt>
      <trkpt lat="45.08562" lon="5.18304">
        <ele>175.5</ele>
        <time>2010-10-09T12:34:02Z</time>
      </trkpt>
      <trkpt lat="45.08564" lon="5.18348">
        <ele>173.66200256348</ele>
        <time>2010-10-09T12:34:07Z</time>
      </trkpt>
      <trkpt lat="45.08566" lon="5.18379">
        <ele>172.42700195312</ele>
        <time>2010-10-09T12:34:10Z</time>
      </trkpt>
      <trkpt lat="45.08567" lon="5.18461">
        <ele>170.24200439453</ele>
        <time>2010-10-09T12:34:17Z</time>
      </trkpt>
      <trkpt lat="45.08566" lon="5.18523">
        <ele>168.82699584961</ele>
        <time>2010-10-09T12:34:22Z</time>
      </trkpt>
      <trkpt lat="45.0857" lon="5.18593">
        <ele>168.97200012207</ele>
        <time>2010-10-09T12:34:28Z</time>
      </trkpt>
      <trkpt lat="45.0857" lon="5.18674">
        <ele>169.69099426269</ele>
        <time>2010-10-09T12:34:36Z</time>
      </trkpt>
      <trkpt lat="45.08568" lon="5.1874">
        <ele>169.7619934082</ele>
        <time>2010-10-09T12:34:43Z</time>
      </trkpt>
      <trkpt lat="45.08563" lon="5.18765">
        <ele>169.85099792481</ele>
        <time>2010-10-09T12:34:46Z</time>
      </trkpt>
      <trkpt lat="45.08549" lon="5.18791">
        <ele>170.50700378418</ele>
        <time>2010-10-09T12:34:50Z</time>
      </trkpt>
      <trkpt lat="45.08545" lon="5.18815">
        <ele>170.63999938965</ele>
        <time>2010-10-09T12:34:53Z</time>
      </trkpt>
      <trkpt lat="45.0855" lon="5.18831">
        <ele>170.64199829102</ele>
        <time>2010-10-09T12:34:55Z</time>
      </trkpt>
      <trkpt lat="45.08559" lon="5.18872">
        <ele>170.86399841309</ele>
        <time>2010-10-09T12:35:00Z</time>
      </trkpt>
      <trkpt lat="45.08558" lon="5.18881">
        <ele>170.68600463867</ele>
        <time>2010-10-09T12:35:01Z</time>
      </trkpt>
      <trkpt lat="45.08552" lon="5.18958">
        <ele>170.27600097656</ele>
        <time>2010-10-09T12:35:09Z</time>
      </trkpt>
      <trkpt lat="45.08543" lon="5.19069">
        <ele>171.16900634766</ele>
        <time>2010-10-09T12:35:20Z</time>
      </trkpt>
      <trkpt lat="45.08534" lon="5.19189">
        <ele>171.4640045166</ele>
        <time>2010-10-09T12:35:31Z</time>
      </trkpt>
      <trkpt lat="45.08525" lon="5.19299">
        <ele>171.76400756836</ele>
        <time>2010-10-09T12:35:41Z</time>
      </trkpt>
      <trkpt lat="45.08519" lon="5.19386">
        <ele>172.80099487305</ele>
        <time>2010-10-09T12:35:50Z</time>
      </trkpt>
      <trkpt lat="45.08512" lon="5.19465">
        <ele>173.82000732422</ele>
        <time>2010-10-09T12:35:59Z</time>
      </trkpt>
      <trkpt lat="45.08509" lon="5.19517">
        <ele>175.37600708008</ele>
        <time>2010-10-09T12:36:06Z</time>
      </trkpt>
      <trkpt lat="45.08506" lon="5.19565">
        <ele>176.87300109863</ele>
        <time>2010-10-09T12:36:14Z</time>
      </trkpt>
      <trkpt lat="45.08506" lon="5.19618">
        <ele>177.46000671387</ele>
        <time>2010-10-09T12:36:22Z</time>
      </trkpt>
      <trkpt lat="45.08506" lon="5.19673">
        <ele>177.98500061035</ele>
        <time>2010-10-09T12:36:28Z</time>
      </trkpt>
      <trkpt lat="45.08504" lon="5.19742">
        <ele>177.80000305176</ele>
        <time>2010-10-09T12:36:36Z</time>
      </trkpt>
      <trkpt lat="45.08502" lon="5.19859">
        <ele>179.1609954834</ele>
        <time>2010-10-09T12:36:49Z</time>
      </trkpt>
      <trkpt lat="45.08501" lon="5.19934">
        <ele>179.94599914551</ele>
        <time>2010-10-09T12:36:58Z</time>
      </trkpt>
      <trkpt lat="45.08501" lon="5.2002">
        <ele>180.18699645996</ele>
        <time>2010-10-09T12:37:08Z</time>
      </trkpt>
      <trkpt lat="45.08503" lon="5.20095">
        <ele>180.22200012207</ele>
        <time>2010-10-09T12:37:16Z</time>
      </trkpt>
      <trkpt lat="45.08504" lon="5.20152">
        <ele>180.3809967041</ele>
        <time>2010-10-09T12:37:22Z</time>
      </trkpt>
      <trkpt lat="45.08506" lon="5.20239">
        <ele>180.66400146484</ele>
        <time>2010-10-09T12:37:31Z</time>
      </trkpt>
      <trkpt lat="45.08507" lon="5.20344">
        <ele>180.96000671387</ele>
        <time>2010-10-09T12:37:42Z</time>
      </trkpt>
      <trkpt lat="45.08508" lon="5.20417">
        <ele>181.37199401856</ele>
        <time>2010-10-09T12:37:50Z</time>
      </trkpt>
      <trkpt lat="45.08509" lon="5.20515">
        <ele>181.21800231934</ele>
        <time>2010-10-09T12:38:02Z</time>
      </trkpt>
      <trkpt lat="45.08511" lon="5.20571">
        <ele>181.6130065918</ele>
        <time>2010-10-09T12:38:09Z</time>
      </trkpt>
      <trkpt lat="45.08511" lon="5.20634">
        <ele>181.88200378418</ele>
        <time>2010-10-09T12:38:17Z</time>
      </trkpt>
      <trkpt lat="45.08512" lon="5.20698">
        <ele>181.59300231934</ele>
        <time>2010-10-09T12:38:25Z</time>
      </trkpt>
      <trkpt lat="45.08512" lon="5.2072">
        <ele>181.47900390625</ele>
        <time>2010-10-09T12:38:28Z</time>
      </trkpt>
      <trkpt lat="45.08514" lon="5.20781">
        <ele>181.45799255371</ele>
        <time>2010-10-09T12:38:36Z</time>
      </trkpt>
      <trkpt lat="45.08515" lon="5.20866">
        <ele>181.15600585938</ele>
        <time>2010-10-09T12:38:47Z</time>
      </trkpt>
      <trkpt lat="45.08516" lon="5.20934">
        <ele>180.96200561523</ele>
        <time>2010-10-09T12:38:56Z</time>
      </trkpt>
      <trkpt lat="45.08515" lon="5.20989">
        <ele>182.03700256348</ele>
        <time>2010-10-09T12:39:04Z</time>
      </trkpt>
      <trkpt lat="45.0851" lon="5.21031">
        <ele>183.35699462891</ele>
        <time>2010-10-09T12:39:11Z</time>
      </trkpt>
      <trkpt lat="45.08496" lon="5.21082">
        <ele>185.14300537109</ele>
        <time>2010-10-09T12:39:20Z</time>
      </trkpt>
      <trkpt lat="45.08484" lon="5.21119">
        <ele>186.18400573731</ele>
        <time>2010-10-09T12:39:27Z</time>
      </trkpt>
      <trkpt lat="45.08474" lon="5.21156">
        <ele>187.8809967041</ele>
        <time>2010-10-09T12:39:34Z</time>
      </trkpt>
      <trkpt lat="45.08471" lon="5.21179">
        <ele>188.46499633789</ele>
        <time>2010-10-09T12:39:38Z</time>
      </trkpt>
      <trkpt lat="45.0847" lon="5.21191">
        <ele>189.02299499512</ele>
        <time>2010-10-09T12:39:40Z</time>
      </trkpt>
      <trkpt lat="45.08456" lon="5.21229">
        <ele>189.52900695801</ele>
        <time>2010-10-09T12:39:47Z</time>
      </trkpt>
      <trkpt lat="45.08438" lon="5.21271">
        <ele>190.36000061035</ele>
        <time>2010-10-09T12:39:55Z</time>
      </trkpt>
      <trkpt lat="45.08429" lon="5.21308">
        <ele>192.87800598144</ele>
        <time>2010-10-09T12:40:02Z</time>
      </trkpt>
      <trkpt lat="45.08424" lon="5.21343">
        <ele>195.28199768066</ele>
        <time>2010-10-09T12:40:09Z</time>
      </trkpt>
      <trkpt lat="45.08415" lon="5.2137">
        <ele>195.79200744629</ele>
        <time>2010-10-09T12:40:14Z</time>
      </trkpt>
      <trkpt lat="45.08401" lon="5.21402">
        <ele>195.64999389648</ele>
        <time>2010-10-09T12:40:20Z</time>
      </trkpt>
      <trkpt lat="45.08383" lon="5.21443">
        <ele>195.47200012207</ele>
        <time>2010-10-09T12:40:27Z</time>
      </trkpt>
      <trkpt lat="45.0838" lon="5.21469">
        <ele>195.90699768066</ele>
        <time>2010-10-09T12:40:31Z</time>
      </trkpt>
      <trkpt lat="45.08381" lon="5.21475">
        <ele>196.15199279785</ele>
        <time>2010-10-09T12:40:32Z</time>
      </trkpt>
      <trkpt lat="45.08384" lon="5.21486">
        <ele>196.49000549316</ele>
        <time>2010-10-09T12:40:34Z</time>
      </trkpt>
      <trkpt lat="45.08383" lon="5.2151">
        <ele>196.61500549316</ele>
        <time>2010-10-09T12:40:38Z</time>
      </trkpt>
      <trkpt lat="45.08381" lon="5.21515">
        <ele>196.7200012207</ele>
        <time>2010-10-09T12:40:39Z</time>
      </trkpt>
      <trkpt lat="45.08375" lon="5.21526">
        <ele>196.99200439453</ele>
        <time>2010-10-09T12:40:41Z</time>
      </trkpt>
      <trkpt lat="45.08369" lon="5.21536">
        <ele>197.35499572754</ele>
        <time>2010-10-09T12:40:43Z</time>
      </trkpt>
      <trkpt lat="45.08362" lon="5.21554">
        <ele>197.57499694824</ele>
        <time>2010-10-09T12:40:46Z</time>
      </trkpt>
      <trkpt lat="45.08358" lon="5.2159">
        <ele>197.63400268555</ele>
        <time>2010-10-09T12:40:51Z</time>
      </trkpt>
      <trkpt lat="45.08367" lon="5.21609">
        <ele>197.67999267578</ele>
        <time>2010-10-09T12:40:54Z</time>
      </trkpt>
      <trkpt lat="45.08381" lon="5.21619">
        <ele>197.95399475098</ele>
        <time>2010-10-09T12:40:57Z</time>
      </trkpt>
      <trkpt lat="45.08395" lon="5.21625">
        <ele>198.57099914551</ele>
        <time>2010-10-09T12:41:00Z</time>
      </trkpt>
      <trkpt lat="45.08407" lon="5.21642">
        <ele>199.36099243164</ele>
        <time>2010-10-09T12:41:04Z</time>
      </trkpt>
      <trkpt lat="45.08422" lon="5.2169">
        <ele>202.05599975586</ele>
        <time>2010-10-09T12:41:13Z</time>
      </trkpt>
      <trkpt lat="45.08428" lon="5.21714">
        <ele>204.47399902344</ele>
        <time>2010-10-09T12:41:18Z</time>
      </trkpt>
      <trkpt lat="45.0843" lon="5.21733">
        <ele>206.29699707031</ele>
        <time>2010-10-09T12:41:22Z</time>
      </trkpt>
      <trkpt lat="45.0843" lon="5.21761">
        <ele>208.66299438477</ele>
        <time>2010-10-09T12:41:28Z</time>
      </trkpt>
      <trkpt lat="45.08432" lon="5.21772">
        <ele>209.23300170898</ele>
        <time>2010-10-09T12:41:30Z</time>
      </trkpt>
      <trkpt lat="45.08443" lon="5.21791">
        <ele>209.32800292969</ele>
        <time>2010-10-09T12:41:34Z</time>
      </trkpt>
      <trkpt lat="45.08481" lon="5.21827">
        <ele>209.04899597168</ele>
        <time>2010-10-09T12:41:44Z</time>
      </trkpt>
      <trkpt lat="45.08498" lon="5.2184">
        <ele>208.57299804688</ele>
        <time>2010-10-09T12:41:48Z</time>
      </trkpt>
      <trkpt lat="45.08517" lon="5.21849">
        <ele>208.87899780273</ele>
        <time>2010-10-09T12:41:53Z</time>
      </trkpt>
      <trkpt lat="45.08522" lon="5.21856">
        <ele>209.15899658203</ele>
        <time>2010-10-09T12:41:57Z</time>
      </trkpt>
      <trkpt lat="45.08518" lon="5.21869">
        <ele>209.39900207519</ele>
        <time>2010-10-09T12:42:03Z</time>
      </trkpt>
      <trkpt lat="45.08512" lon="5.2188">
        <ele>209.45700073242</ele>
        <time>2010-10-09T12:42:09Z</time>
      </trkpt>
      <trkpt lat="45.08504" lon="5.21898">
        <ele>209.48599243164</ele>
        <time>2010-10-09T12:42:16Z</time>
      </trkpt>
      <trkpt lat="45.08492" lon="5.21928">
        <ele>209.80000305176</ele>
        <time>2010-10-09T12:42:23Z</time>
      </trkpt>
      <trkpt lat="45.08476" lon="5.21972">
        <ele>210.14500427246</ele>
        <time>2010-10-09T12:42:30Z</time>
      </trkpt>
      <trkpt lat="45.08455" lon="5.22022">
        <ele>210.5359954834</ele>
        <time>2010-10-09T12:42:38Z</time>
      </trkpt>
      <trkpt lat="45.08428" lon="5.22072">
        <ele>210.58500671387</ele>
        <time>2010-10-09T12:42:47Z</time>
      </trkpt>
      <trkpt lat="45.08392" lon="5.22125">
        <ele>211.23599243164</ele>
        <time>2010-10-09T12:42:57Z</time>
      </trkpt>
      <trkpt lat="45.08382" lon="5.22143">
        <ele>211.33500671387</ele>
        <time>2010-10-09T12:43:00Z</time>
      </trkpt>
      <trkpt lat="45.08356" lon="5.22206">
        <ele>210.48500061035</ele>
        <time>2010-10-09T12:43:09Z</time>
      </trkpt>
      <trkpt lat="45.08335" lon="5.22271">
        <ele>210.33799743652</ele>
        <time>2010-10-09T12:43:18Z</time>
      </trkpt>
      <trkpt lat="45.0833" lon="5.22308">
        <ele>210.45700073242</ele>
        <time>2010-10-09T12:43:23Z</time>
      </trkpt>
      <trkpt lat="45.08322" lon="5.22381">
        <ele>209.98399353027</ele>
        <time>2010-10-09T12:43:32Z</time>
      </trkpt>
      <trkpt lat="45.08307" lon="5.2245">
        <ele>209.14399719238</ele>
        <time>2010-10-09T12:43:41Z</time>
      </trkpt>
      <trkpt lat="45.08288" lon="5.22495">
        <ele>208.8630065918</ele>
        <time>2010-10-09T12:43:47Z</time>
      </trkpt>
      <trkpt lat="45.08259" lon="5.22536">
        <ele>208.69500732422</ele>
        <time>2010-10-09T12:43:54Z</time>
      </trkpt>
      <trkpt lat="45.08225" lon="5.22582">
        <ele>209.20799255371</ele>
        <time>2010-10-09T12:44:02Z</time>
      </trkpt>
      <trkpt lat="45.08188" lon="5.22634">
        <ele>210.28300476074</ele>
        <time>2010-10-09T12:44:11Z</time>
      </trkpt>
      <trkpt lat="45.08151" lon="5.22685">
        <ele>212.44599914551</ele>
        <time>2010-10-09T12:44:21Z</time>
      </trkpt>
      <trkpt lat="45.08121" lon="5.22728">
        <ele>214.54100036621</ele>
        <time>2010-10-09T12:44:30Z</time>
      </trkpt>
      <trkpt lat="45.08101" lon="5.22765">
        <ele>216.14199829102</ele>
        <time>2010-10-09T12:44:37Z</time>
      </trkpt>
      <trkpt lat="45.08094" lon="5.22782">
        <ele>216.7619934082</ele>
        <time>2010-10-09T12:44:40Z</time>
      </trkpt>
      <trkpt lat="45.08076" lon="5.22825">
        <ele>217.7140045166</ele>
        <time>2010-10-09T12:44:47Z</time>
      </trkpt>
      <trkpt lat="45.08051" lon="5.22889">
        <ele>218.32000732422</ele>
        <time>2010-10-09T12:44:57Z</time>
      </trkpt>
      <trkpt lat="45.08036" lon="5.22939">
        <ele>219.02699279785</ele>
        <time>2010-10-09T12:45:04Z</time>
      </trkpt>
      <trkpt lat="45.08029" lon="5.22993">
        <ele>219.54699707031</ele>
        <time>2010-10-09T12:45:11Z</time>
      </trkpt>
      <trkpt lat="45.08017" lon="5.23048">
        <ele>219.59399414062</ele>
        <time>2010-10-09T12:45:18Z</time>
      </trkpt>
      <trkpt lat="45.07996" lon="5.2311">
        <ele>220.91299438477</ele>
        <time>2010-10-09T12:45:27Z</time>
      </trkpt>
      <trkpt lat="45.07973" lon="5.23174">
        <ele>221.45399475098</ele>
        <time>2010-10-09T12:45:36Z</time>
      </trkpt>
      <trkpt lat="45.07958" lon="5.2322">
        <ele>221.89100646973</ele>
        <time>2010-10-09T12:45:42Z</time>
      </trkpt>
      <trkpt lat="45.07941" lon="5.23268">
        <ele>221.57200622559</ele>
        <time>2010-10-09T12:45:48Z</time>
      </trkpt>
      <trkpt lat="45.0791" lon="5.2333">
        <ele>220.91299438477</ele>
        <time>2010-10-09T12:45:56Z</time>
      </trkpt>
      <trkpt lat="45.07886" lon="5.2338">
        <ele>221.39300537109</ele>
        <time>2010-10-09T12:46:03Z</time>
      </trkpt>
      <trkpt lat="45.07865" lon="5.23433">
        <ele>221.67100524902</ele>
        <time>2010-10-09T12:46:10Z</time>
      </trkpt>
      <trkpt lat="45.0785" lon="5.23492">
        <ele>221.91900634766</ele>
        <time>2010-10-09T12:46:17Z</time>
      </trkpt>
      <trkpt lat="45.07833" lon="5.23558">
        <ele>222.09800720215</ele>
        <time>2010-10-09T12:46:25Z</time>
      </trkpt>
      <trkpt lat="45.07814" lon="5.2363">
        <ele>222.14100646973</ele>
        <time>2010-10-09T12:46:34Z</time>
      </trkpt>
      <trkpt lat="45.07787" lon="5.23719">
        <ele>221.45700073242</ele>
        <time>2010-10-09T12:46:45Z</time>
      </trkpt>
      <trkpt lat="45.07762" lon="5.23804">
        <ele>221.7140045166</ele>
        <time>2010-10-09T12:46:55Z</time>
      </trkpt>
      <trkpt lat="45.07737" lon="5.2389">
        <ele>221.65699768066</ele>
        <time>2010-10-09T12:47:05Z</time>
      </trkpt>
      <trkpt lat="45.07708" lon="5.23987">
        <ele>220.89100646973</ele>
        <time>2010-10-09T12:47:16Z</time>
      </trkpt>
      <trkpt lat="45.07705" lon="5.23995">
        <ele>220.82000732422</ele>
        <time>2010-10-09T12:47:17Z</time>
      </trkpt>
      <trkpt lat="45.07685" lon="5.2402">
        <ele>220.64900207519</ele>
        <time>2010-10-09T12:47:21Z</time>
      </trkpt>
      <trkpt lat="45.07657" lon="5.2403">
        <ele>220.20799255371</ele>
        <time>2010-10-09T12:47:25Z</time>
      </trkpt>
      <trkpt lat="45.07581" lon="5.24036">
        <ele>219.22900390625</ele>
        <time>2010-10-09T12:47:35Z</time>
      </trkpt>
      <trkpt lat="45.07523" lon="5.24042">
        <ele>218.88299560547</ele>
        <time>2010-10-09T12:47:43Z</time>
      </trkpt>
      <trkpt lat="45.0745" lon="5.24048">
        <ele>218.79200744629</ele>
        <time>2010-10-09T12:47:53Z</time>
      </trkpt>
      <trkpt lat="45.07393" lon="5.24052">
        <ele>218.41499328613</ele>
        <time>2010-10-09T12:48:01Z</time>
      </trkpt>
      <trkpt lat="45.07334" lon="5.24057">
        <ele>218.21000671387</ele>
        <time>2010-10-09T12:48:09Z</time>
      </trkpt>
      <trkpt lat="45.07275" lon="5.24063">
        <ele>216.76899719238</ele>
        <time>2010-10-09T12:48:17Z</time>
      </trkpt>
      <trkpt lat="45.07225" lon="5.24068">
        <ele>214.51899719238</ele>
        <time>2010-10-09T12:48:23Z</time>
      </trkpt>
      <trkpt lat="45.07216" lon="5.24069">
        <ele>214.02799987793</ele>
        <time>2010-10-09T12:48:24Z</time>
      </trkpt>
      <trkpt lat="45.07167" lon="5.2406">
        <ele>210.98199462891</ele>
        <time>2010-10-09T12:48:29Z</time>
      </trkpt>
      <trkpt lat="45.0714" lon="5.24047">
        <ele>210.37899780273</ele>
        <time>2010-10-09T12:48:32Z</time>
      </trkpt>
      <trkpt lat="45.07106" lon="5.24056">
        <ele>210.08500671387</ele>
        <time>2010-10-09T12:48:36Z</time>
      </trkpt>
      <trkpt lat="45.07092" lon="5.24087">
        <ele>210.24800109863</ele>
        <time>2010-10-09T12:48:39Z</time>
      </trkpt>
      <trkpt lat="45.07079" lon="5.24159">
        <ele>210.57600402832</ele>
        <time>2010-10-09T12:48:46Z</time>
      </trkpt>
      <trkpt lat="45.07067" lon="5.24216">
        <ele>211.0119934082</ele>
        <time>2010-10-09T12:48:52Z</time>
      </trkpt>
      <trkpt lat="45.0705" lon="5.24277">
        <ele>211.21899414062</ele>
        <time>2010-10-09T12:48:59Z</time>
      </trkpt>
      <trkpt lat="45.07026" lon="5.2433">
        <ele>210.90199279785</ele>
        <time>2010-10-09T12:49:06Z</time>
      </trkpt>
      <trkpt lat="45.07009" lon="5.24353">
        <ele>210.74200439453</ele>
        <time>2010-10-09T12:49:10Z</time>
      </trkpt>
      <trkpt lat="45.06984" lon="5.24385">
        <ele>210.48399353027</ele>
        <time>2010-10-09T12:49:16Z</time>
      </trkpt>
      <trkpt lat="45.06962" lon="5.24396">
        <ele>209.60899353027</ele>
        <time>2010-10-09T12:49:20Z</time>
      </trkpt>
      <trkpt lat="45.0695" lon="5.24391">
        <ele>209.17300415039</ele>
        <time>2010-10-09T12:49:22Z</time>
      </trkpt>
      <trkpt lat="45.069" lon="5.24364">
        <ele>206.93299865723</ele>
        <time>2010-10-09T12:49:29Z</time>
      </trkpt>
      <trkpt lat="45.06853" lon="5.24346">
        <ele>204.92199707031</ele>
        <time>2010-10-09T12:49:35Z</time>
      </trkpt>
      <trkpt lat="45.06804" lon="5.2433">
        <ele>202.13800048828</ele>
        <time>2010-10-09T12:49:41Z</time>
      </trkpt>
      <trkpt lat="45.06731" lon="5.24304">
        <ele>200.25100708008</ele>
        <time>2010-10-09T12:49:50Z</time>
      </trkpt>
      <trkpt lat="45.06628" lon="5.24266">
        <ele>198.16200256348</ele>
        <time>2010-10-09T12:50:03Z</time>
      </trkpt>
      <trkpt lat="45.06576" lon="5.24245">
        <ele>198.46800231934</ele>
        <time>2010-10-09T12:50:10Z</time>
      </trkpt>
      <trkpt lat="45.0657" lon="5.24241">
        <ele>198.83299255371</ele>
        <time>2010-10-09T12:50:11Z</time>
      </trkpt>
      <trkpt lat="45.06549" lon="5.24212">
        <ele>200.57699584961</ele>
        <time>2010-10-09T12:50:16Z</time>
      </trkpt>
      <trkpt lat="45.06532" lon="5.24157">
        <ele>202.51400756836</ele>
        <time>2010-10-09T12:50:24Z</time>
      </trkpt>
      <trkpt lat="45.06525" lon="5.24132">
        <ele>203.83299255371</ele>
        <time>2010-10-09T12:50:29Z</time>
      </trkpt>
      <trkpt lat="45.06519" lon="5.24118">
        <ele>204.54800415039</ele>
        <time>2010-10-09T12:50:34Z</time>
      </trkpt>
      <trkpt lat="45.06513" lon="5.24108">
        <ele>204.8390045166</ele>
        <time>2010-10-09T12:50:37Z</time>
      </trkpt>
      <trkpt lat="45.06494" lon="5.24115">
        <ele>205.21200561523</ele>
        <time>2010-10-09T12:50:42Z</time>
      </trkpt>
      <trkpt lat="45.06467" lon="5.24133">
        <ele>206.07699584961</ele>
        <time>2010-10-09T12:50:48Z</time>
      </trkpt>
      <trkpt lat="45.0642" lon="5.24164">
        <ele>206.72099304199</ele>
        <time>2010-10-09T12:50:58Z</time>
      </trkpt>
      <trkpt lat="45.06374" lon="5.24194">
        <ele>207.05599975586</ele>
        <time>2010-10-09T12:51:07Z</time>
      </trkpt>
      <trkpt lat="45.06325" lon="5.24224">
        <ele>207.63900756836</ele>
        <time>2010-10-09T12:51:16Z</time>
      </trkpt>
      <trkpt lat="45.06297" lon="5.24239">
        <ele>207.74600219727</ele>
        <time>2010-10-09T12:51:21Z</time>
      </trkpt>
      <trkpt lat="45.06251" lon="5.24244">
        <ele>206.91400146484</ele>
        <time>2010-10-09T12:51:28Z</time>
      </trkpt>
      <trkpt lat="45.06195" lon="5.24255">
        <ele>205.77000427246</ele>
        <time>2010-10-09T12:51:36Z</time>
      </trkpt>
      <trkpt lat="45.06137" lon="5.24264">
        <ele>204.32899475098</ele>
        <time>2010-10-09T12:51:44Z</time>
      </trkpt>
      <trkpt lat="45.0609" lon="5.24267">
        <ele>203.13299560547</ele>
        <time>2010-10-09T12:51:50Z</time>
      </trkpt>
      <trkpt lat="45.06052" lon="5.24283">
        <ele>202.49200439453</ele>
        <time>2010-10-09T12:51:55Z</time>
      </trkpt>
      <trkpt lat="45.06014" lon="5.24327">
        <ele>201.29899597168</ele>
        <time>2010-10-09T12:52:01Z</time>
      </trkpt>
      <trkpt lat="45.05993" lon="5.24368">
        <ele>200.19999694824</ele>
        <time>2010-10-09T12:52:05Z</time>
      </trkpt>
      <trkpt lat="45.05988" lon="5.24378">
        <ele>199.97399902344</ele>
        <time>2010-10-09T12:52:06Z</time>
      </trkpt>
      <trkpt lat="45.0598" lon="5.24426">
        <ele>198.78700256348</ele>
        <time>2010-10-09T12:52:10Z</time>
      </trkpt>
      <trkpt lat="45.0598" lon="5.24438">
        <ele>198.39300537109</ele>
        <time>2010-10-09T12:52:11Z</time>
      </trkpt>
      <trkpt lat="45.05979" lon="5.24523">
        <ele>195.38400268555</ele>
        <time>2010-10-09T12:52:18Z</time>
      </trkpt>
      <trkpt lat="45.05986" lon="5.24605">
        <ele>193.95599365234</ele>
        <time>2010-10-09T12:52:25Z</time>
      </trkpt>
      <trkpt lat="45.05991" lon="5.2464">
        <ele>192.9940032959</ele>
        <time>2010-10-09T12:52:28Z</time>
      </trkpt>
      <trkpt lat="45.05997" lon="5.24663">
        <ele>191.97200012207</ele>
        <time>2010-10-09T12:52:30Z</time>
      </trkpt>
      <trkpt lat="45.06021" lon="5.24692">
        <ele>190.77099609375</ele>
        <time>2010-10-09T12:52:34Z</time>
      </trkpt>
      <trkpt lat="45.06043" lon="5.24704">
        <ele>190.44099426269</ele>
        <time>2010-10-09T12:52:37Z</time>
      </trkpt>
      <trkpt lat="45.06058" lon="5.24728">
        <ele>190.00999450684</ele>
        <time>2010-10-09T12:52:40Z</time>
      </trkpt>
      <trkpt lat="45.06055" lon="5.24753">
        <ele>189.80400085449</ele>
        <time>2010-10-09T12:52:42Z</time>
      </trkpt>
      <trkpt lat="45.06038" lon="5.24815">
        <ele>189.06599426269</ele>
        <time>2010-10-09T12:52:48Z</time>
      </trkpt>
      <trkpt lat="45.06011" lon="5.24893">
        <ele>187.08099365234</ele>
        <time>2010-10-09T12:52:56Z</time>
      </trkpt>
      <trkpt lat="45.0598" lon="5.24947">
        <ele>187.2799987793</ele>
        <time>2010-10-09T12:53:03Z</time>
      </trkpt>
      <trkpt lat="45.05949" lon="5.24982">
        <ele>187.03300476074</ele>
        <time>2010-10-09T12:53:09Z</time>
      </trkpt>
      <trkpt lat="45.05905" lon="5.25021">
        <ele>187.47700500488</ele>
        <time>2010-10-09T12:53:17Z</time>
      </trkpt>
      <trkpt lat="45.05868" lon="5.25054">
        <ele>188.37100219727</ele>
        <time>2010-10-09T12:53:24Z</time>
      </trkpt>
      <trkpt lat="45.05846" lon="5.2508">
        <ele>189.83500671387</ele>
        <time>2010-10-09T12:53:29Z</time>
      </trkpt>
      <trkpt lat="45.05831" lon="5.25122">
        <ele>191.08099365234</ele>
        <time>2010-10-09T12:53:35Z</time>
      </trkpt>
      <trkpt lat="45.0583" lon="5.2513">
        <ele>191.18699645996</ele>
        <time>2010-10-09T12:53:36Z</time>
      </trkpt>
      <trkpt lat="45.05825" lon="5.25202">
        <ele>192.0059967041</ele>
        <time>2010-10-09T12:53:45Z</time>
      </trkpt>
      <trkpt lat="45.05827" lon="5.2526">
        <ele>192.39500427246</ele>
        <time>2010-10-09T12:53:52Z</time>
      </trkpt>
      <trkpt lat="45.05835" lon="5.25339">
        <ele>190.33000183106</ele>
        <time>2010-10-09T12:54:00Z</time>
      </trkpt>
      <trkpt lat="45.05837" lon="5.25395">
        <ele>188.12899780273</ele>
        <time>2010-10-09T12:54:05Z</time>
      </trkpt>
      <trkpt lat="45.05835" lon="5.25431">
        <ele>186.8869934082</ele>
        <time>2010-10-09T12:54:08Z</time>
      </trkpt>
      <trkpt lat="45.05823" lon="5.25475">
        <ele>185.35400390625</ele>
        <time>2010-10-09T12:54:12Z</time>
      </trkpt>
      <trkpt lat="45.05791" lon="5.25552">
        <ele>186.35800170898</ele>
        <time>2010-10-09T12:54:20Z</time>
      </trkpt>
      <trkpt lat="45.05766" lon="5.25615">
        <ele>188.83999633789</ele>
        <time>2010-10-09T12:54:28Z</time>
      </trkpt>
      <trkpt lat="45.05757" lon="5.25652">
        <ele>190.39100646973</ele>
        <time>2010-10-09T12:54:33Z</time>
      </trkpt>
      <trkpt lat="45.05756" lon="5.2571">
        <ele>192.74200439453</ele>
        <time>2010-10-09T12:54:41Z</time>
      </trkpt>
      <trkpt lat="45.05758" lon="5.25737">
        <ele>193.75199890137</ele>
        <time>2010-10-09T12:54:45Z</time>
      </trkpt>
      <trkpt lat="45.05758" lon="5.2575">
        <ele>194.14700317383</ele>
        <time>2010-10-09T12:54:47Z</time>
      </trkpt>
      <trkpt lat="45.05746" lon="5.25769">
        <ele>195.20300292969</ele>
        <time>2010-10-09T12:54:51Z</time>
      </trkpt>
      <trkpt lat="45.05742" lon="5.25759">
        <ele>196.39700317383</ele>
        <time>2010-10-09T12:54:53Z</time>
      </trkpt>
      <trkpt lat="45.05741" lon="5.25753">
        <ele>196.8690032959</ele>
        <time>2010-10-09T12:54:54Z</time>
      </trkpt>
      <trkpt lat="45.05738" lon="5.25696">
        <ele>198.32400512695</ele>
        <time>2010-10-09T12:55:03Z</time>
      </trkpt>
      <trkpt lat="45.05738" lon="5.2569">
        <ele>198.66000366211</ele>
        <time>2010-10-09T12:55:04Z</time>
      </trkpt>
      <trkpt lat="45.05727" lon="5.25657">
        <ele>200.28900146484</ele>
        <time>2010-10-09T12:55:10Z</time>
      </trkpt>
      <trkpt lat="45.05711" lon="5.25637">
        <ele>201.64300537109</ele>
        <time>2010-10-09T12:55:15Z</time>
      </trkpt>
      <trkpt lat="45.05696" lon="5.25626">
        <ele>202.57099914551</ele>
        <time>2010-10-09T12:55:19Z</time>
      </trkpt>
      <trkpt lat="45.0566" lon="5.25619">
        <ele>204.78500366211</ele>
        <time>2010-10-09T12:55:27Z</time>
      </trkpt>
      <trkpt lat="45.05615" lon="5.25618">
        <ele>207.81700134277</ele>
        <time>2010-10-09T12:55:37Z</time>
      </trkpt>
      <trkpt lat="45.05583" lon="5.25628">
        <ele>209.88400268555</ele>
        <time>2010-10-09T12:55:44Z</time>
      </trkpt>
      <trkpt lat="45.05553" lon="5.25653">
        <ele>211.92799377441</ele>
        <time>2010-10-09T12:55:51Z</time>
      </trkpt>
      <trkpt lat="45.05512" lon="5.25701">
        <ele>214.74899291992</ele>
        <time>2010-10-09T12:56:01Z</time>
      </trkpt>
      <trkpt lat="45.05467" lon="5.25757">
        <ele>217.77000427246</ele>
        <time>2010-10-09T12:56:12Z</time>
      </trkpt>
      <trkpt lat="45.05442" lon="5.25798">
        <ele>219.59100341797</ele>
        <time>2010-10-09T12:56:19Z</time>
      </trkpt>
      <trkpt lat="45.05433" lon="5.25835">
        <ele>220.38200378418</ele>
        <time>2010-10-09T12:56:24Z</time>
      </trkpt>
      <trkpt lat="45.05426" lon="5.25912">
        <ele>221.13400268555</ele>
        <time>2010-10-09T12:56:33Z</time>
      </trkpt>
      <trkpt lat="45.05416" lon="5.25988">
        <ele>221.68200683594</ele>
        <time>2010-10-09T12:56:42Z</time>
      </trkpt>
      <trkpt lat="45.05396" lon="5.26069">
        <ele>222.92100524902</ele>
        <time>2010-10-09T12:56:52Z</time>
      </trkpt>
      <trkpt lat="45.05376" lon="5.26111">
        <ele>223.90600585938</ele>
        <time>2010-10-09T12:56:58Z</time>
      </trkpt>
      <trkpt lat="45.05341" lon="5.26168">
        <ele>225.78700256348</ele>
        <time>2010-10-09T12:57:07Z</time>
      </trkpt>
      <trkpt lat="45.05332" lon="5.26188">
        <ele>226.27099609375</ele>
        <time>2010-10-09T12:57:10Z</time>
      </trkpt>
      <trkpt lat="45.05325" lon="5.26228">
        <ele>227.14900207519</ele>
        <time>2010-10-09T12:57:15Z</time>
      </trkpt>
      <trkpt lat="45.05333" lon="5.26305">
        <ele>228.54299926758</ele>
        <time>2010-10-09T12:57:23Z</time>
      </trkpt>
      <trkpt lat="45.05344" lon="5.26403">
        <ele>230.52099609375</ele>
        <time>2010-10-09T12:57:33Z</time>
      </trkpt>
      <trkpt lat="45.05351" lon="5.26466">
        <ele>231.53500366211</ele>
        <time>2010-10-09T12:57:39Z</time>
      </trkpt>
      <trkpt lat="45.05344" lon="5.26521">
        <ele>232.36099243164</ele>
        <time>2010-10-09T12:57:44Z</time>
      </trkpt>
      <trkpt lat="45.05326" lon="5.26559">
        <ele>233.35800170898</ele>
        <time>2010-10-09T12:57:48Z</time>
      </trkpt>
      <trkpt lat="45.05307" lon="5.26582">
        <ele>234.26400756836</ele>
        <time>2010-10-09T12:57:51Z</time>
      </trkpt>
      <trkpt lat="45.05235" lon="5.26644">
        <ele>236.28700256348</ele>
        <time>2010-10-09T12:58:01Z</time>
      </trkpt>
      <trkpt lat="45.05193" lon="5.26686">
        <ele>236.55900573731</ele>
        <time>2010-10-09T12:58:07Z</time>
      </trkpt>
      <trkpt lat="45.05146" lon="5.26741">
        <ele>237.14500427246</ele>
        <time>2010-10-09T12:58:15Z</time>
      </trkpt>
      <trkpt lat="45.05109" lon="5.26784">
        <ele>237.78900146484</ele>
        <time>2010-10-09T12:58:22Z</time>
      </trkpt>
      <trkpt lat="45.05083" lon="5.26821">
        <ele>238.32699584961</ele>
        <time>2010-10-09T12:58:28Z</time>
      </trkpt>
      <trkpt lat="45.0508" lon="5.26827">
        <ele>238.40299987793</ele>
        <time>2010-10-09T12:58:29Z</time>
      </trkpt>
      <trkpt lat="45.05064" lon="5.26839">
        <ele>239.12699890137</ele>
        <time>2010-10-09T12:58:33Z</time>
      </trkpt>
      <trkpt lat="45.05059" lon="5.26831">
        <ele>239.35899353027</ele>
        <time>2010-10-09T12:58:35Z</time>
      </trkpt>
      <trkpt lat="45.05047" lon="5.26793">
        <ele>239.65100097656</ele>
        <time>2010-10-09T12:58:43Z</time>
      </trkpt>
      <trkpt lat="45.05042" lon="5.26758">
        <ele>240.04200744629</ele>
        <time>2010-10-09T12:58:50Z</time>
      </trkpt>
      <trkpt lat="45.05038" lon="5.26711">
        <ele>240.07600402832</ele>
        <time>2010-10-09T12:58:59Z</time>
      </trkpt>
      <trkpt lat="45.05032" lon="5.26659">
        <ele>239.88600158691</ele>
        <time>2010-10-09T12:59:08Z</time>
      </trkpt>
      <trkpt lat="45.0502" lon="5.26609">
        <ele>240.5059967041</ele>
        <time>2010-10-09T12:59:16Z</time>
      </trkpt>
      <trkpt lat="45.05008" lon="5.2655">
        <ele>241.1190032959</ele>
        <time>2010-10-09T12:59:25Z</time>
      </trkpt>
      <trkpt lat="45.05001" lon="5.26531">
        <ele>241.32699584961</ele>
        <time>2010-10-09T12:59:28Z</time>
      </trkpt>
      <trkpt lat="45.04982" lon="5.26512">
        <ele>241.66900634766</ele>
        <time>2010-10-09T12:59:33Z</time>
      </trkpt>
      <trkpt lat="45.04967" lon="5.26508">
        <ele>241.8630065918</ele>
        <time>2010-10-09T12:59:36Z</time>
      </trkpt>
      <trkpt lat="45.04935" lon="5.26497">
        <ele>242.36700439453</ele>
        <time>2010-10-09T12:59:43Z</time>
      </trkpt>
      <trkpt lat="45.0493" lon="5.26496">
        <ele>242.3630065918</ele>
        <time>2010-10-09T12:59:44Z</time>
      </trkpt>
      <trkpt lat="45.04915" lon="5.2649">
        <ele>242.27000427246</ele>
        <time>2010-10-09T12:59:47Z</time>
      </trkpt>
      <trkpt lat="45.04895" lon="5.26492">
        <ele>242.59100341797</ele>
        <time>2010-10-09T12:59:51Z</time>
      </trkpt>
      <trkpt lat="45.0489" lon="5.26496">
        <ele>242.67199707031</ele>
        <time>2010-10-09T12:59:52Z</time>
      </trkpt>
      <trkpt lat="45.0484" lon="5.2655">
        <ele>243.25300598144</ele>
        <time>2010-10-09T13:00:04Z</time>
      </trkpt>
      <trkpt lat="45.04817" lon="5.26572">
        <ele>243.12899780273</ele>
        <time>2010-10-09T13:00:09Z</time>
      </trkpt>
      <trkpt lat="45.04794" lon="5.26579">
        <ele>242.74899291992</ele>
        <time>2010-10-09T13:00:13Z</time>
      </trkpt>
      <trkpt lat="45.04751" lon="5.26587">
        <ele>242.87199401856</ele>
        <time>2010-10-09T13:00:21Z</time>
      </trkpt>
      <trkpt lat="45.0471" lon="5.266">
        <ele>243.68600463867</ele>
        <time>2010-10-09T13:00:29Z</time>
      </trkpt>
      <trkpt lat="45.04663" lon="5.26617">
        <ele>244.41400146484</ele>
        <time>2010-10-09T13:00:38Z</time>
      </trkpt>
      <trkpt lat="45.04617" lon="5.26634">
        <ele>245.58799743652</ele>
        <time>2010-10-09T13:00:47Z</time>
      </trkpt>
      <trkpt lat="45.04572" lon="5.2665">
        <ele>247.33700561523</ele>
        <time>2010-10-09T13:00:56Z</time>
      </trkpt>
      <trkpt lat="45.04549" lon="5.26658">
        <ele>248.03900146484</ele>
        <time>2010-10-09T13:01:01Z</time>
      </trkpt>
      <trkpt lat="45.04528" lon="5.26651">
        <ele>248.56100463867</ele>
        <time>2010-10-09T13:01:06Z</time>
      </trkpt>
      <trkpt lat="45.04522" lon="5.26633">
        <ele>249.20700073242</ele>
        <time>2010-10-09T13:01:09Z</time>
      </trkpt>
      <trkpt lat="45.04525" lon="5.26608">
        <ele>250.06199645996</ele>
        <time>2010-10-09T13:01:13Z</time>
      </trkpt>
      <trkpt lat="45.04528" lon="5.26602">
        <ele>250.32699584961</ele>
        <time>2010-10-09T13:01:14Z</time>
      </trkpt>
      <trkpt lat="45.04545" lon="5.26571">
        <ele>251.86700439453</ele>
        <time>2010-10-09T13:01:20Z</time>
      </trkpt>
      <trkpt lat="45.04556" lon="5.2654">
        <ele>252.92399597168</ele>
        <time>2010-10-09T13:01:25Z</time>
      </trkpt>
      <trkpt lat="45.04561" lon="5.26481">
        <ele>254.05999755859</ele>
        <time>2010-10-09T13:01:33Z</time>
      </trkpt>
      <trkpt lat="45.04562" lon="5.26459">
        <ele>253.99200439453</ele>
        <time>2010-10-09T13:01:36Z</time>
      </trkpt>
      <trkpt lat="45.04557" lon="5.26412">
        <ele>254.49699401856</ele>
        <time>2010-10-09T13:01:42Z</time>
      </trkpt>
      <trkpt lat="45.04559" lon="5.26382">
        <ele>254.89999389648</ele>
        <time>2010-10-09T13:01:46Z</time>
      </trkpt>
      <trkpt lat="45.04571" lon="5.26367">
        <ele>255.01499938965</ele>
        <time>2010-10-09T13:01:49Z</time>
      </trkpt>
      <trkpt lat="45.04622" lon="5.26334">
        <ele>255.05700683594</ele>
        <time>2010-10-09T13:01:59Z</time>
      </trkpt>
      <trkpt lat="45.04659" lon="5.26319">
        <ele>255.47900390625</ele>
        <time>2010-10-09T13:02:06Z</time>
      </trkpt>
      <trkpt lat="45.04709" lon="5.26318">
        <ele>255.96800231934</ele>
        <time>2010-10-09T13:02:15Z</time>
      </trkpt>
      <trkpt lat="45.04749" lon="5.2632">
        <ele>256.24700927734</ele>
        <time>2010-10-09T13:02:22Z</time>
      </trkpt>
      <trkpt lat="45.04791" lon="5.26318">
        <ele>256.62298583984</ele>
        <time>2010-10-09T13:02:29Z</time>
      </trkpt>
      <trkpt lat="45.04804" lon="5.26314">
        <ele>256.32998657227</ele>
        <time>2010-10-09T13:02:31Z</time>
      </trkpt>
      <trkpt lat="45.04826" lon="5.26296">
        <ele>255.99600219727</ele>
        <time>2010-10-09T13:02:35Z</time>
      </trkpt>
      <trkpt lat="45.0483" lon="5.26272">
        <ele>256.125</ele>
        <time>2010-10-09T13:02:38Z</time>
      </trkpt>
      <trkpt lat="45.04821" lon="5.26252">
        <ele>256.86898803711</ele>
        <time>2010-10-09T13:02:41Z</time>
      </trkpt>
      <trkpt lat="45.04811" lon="5.26245">
        <ele>257.49899291992</ele>
        <time>2010-10-09T13:02:43Z</time>
      </trkpt>
      <trkpt lat="45.0478" lon="5.26228">
        <ele>260.18200683594</ele>
        <time>2010-10-09T13:02:50Z</time>
      </trkpt>
      <trkpt lat="45.04771" lon="5.26224">
        <ele>260.88000488281</ele>
        <time>2010-10-09T13:02:52Z</time>
      </trkpt>
      <trkpt lat="45.04743" lon="5.26212">
        <ele>262.95599365234</ele>
        <time>2010-10-09T13:02:59Z</time>
      </trkpt>
      <trkpt lat="45.04712" lon="5.26205">
        <ele>264.94198608398</ele>
        <time>2010-10-09T13:03:06Z</time>
      </trkpt>
      <trkpt lat="45.04681" lon="5.2619">
        <ele>267.19100952148</ele>
        <time>2010-10-09T13:03:13Z</time>
      </trkpt>
      <trkpt lat="45.04649" lon="5.2619">
        <ele>269.40701293945</ele>
        <time>2010-10-09T13:03:20Z</time>
      </trkpt>
      <trkpt lat="45.04627" lon="5.26194">
        <ele>270.92098999023</ele>
        <time>2010-10-09T13:03:25Z</time>
      </trkpt>
      <trkpt lat="45.04618" lon="5.26197">
        <ele>271.51000976562</ele>
        <time>2010-10-09T13:03:27Z</time>
      </trkpt>
      <trkpt lat="45.04585" lon="5.26213">
        <ele>273.95700073242</ele>
        <time>2010-10-09T13:03:35Z</time>
      </trkpt>
      <trkpt lat="45.04562" lon="5.26218">
        <ele>274.79501342773</ele>
        <time>2010-10-09T13:03:40Z</time>
      </trkpt>
      <trkpt lat="45.04527" lon="5.26216">
        <ele>276.74899291992</ele>
        <time>2010-10-09T13:03:48Z</time>
      </trkpt>
      <trkpt lat="45.04496" lon="5.26217">
        <ele>278.33999633789</ele>
        <time>2010-10-09T13:03:55Z</time>
      </trkpt>
      <trkpt lat="45.04464" lon="5.26226">
        <ele>278.73901367188</ele>
        <time>2010-10-09T13:04:02Z</time>
      </trkpt>
      <trkpt lat="45.04419" lon="5.26251">
        <ele>279.14001464844</ele>
        <time>2010-10-09T13:04:11Z</time>
      </trkpt>
      <trkpt lat="45.0437" lon="5.2627">
        <ele>279.55099487305</ele>
        <time>2010-10-09T13:04:20Z</time>
      </trkpt>
      <trkpt lat="45.04359" lon="5.26275">
        <ele>279.51098632812</ele>
        <time>2010-10-09T13:04:22Z</time>
      </trkpt>
      <trkpt lat="45.04343" lon="5.26299">
        <ele>279.10800170898</ele>
        <time>2010-10-09T13:04:26Z</time>
      </trkpt>
      <trkpt lat="45.04341" lon="5.26324">
        <ele>278.71798706055</ele>
        <time>2010-10-09T13:04:29Z</time>
      </trkpt>
      <trkpt lat="45.04346" lon="5.26403">
        <ele>279.56500244141</ele>
        <time>2010-10-09T13:04:38Z</time>
      </trkpt>
      <trkpt lat="45.04343" lon="5.26444">
        <ele>280.70401000977</ele>
        <time>2010-10-09T13:04:43Z</time>
      </trkpt>
      <trkpt lat="45.04342" lon="5.26459">
        <ele>281.25299072266</ele>
        <time>2010-10-09T13:04:45Z</time>
      </trkpt>
      <trkpt lat="45.0433" lon="5.26491">
        <ele>282.49200439453</ele>
        <time>2010-10-09T13:04:50Z</time>
      </trkpt>
      <trkpt lat="45.04322" lon="5.26502">
        <ele>282.7200012207</ele>
        <time>2010-10-09T13:04:52Z</time>
      </trkpt>
      <trkpt lat="45.04303" lon="5.26514">
        <ele>282.95098876953</ele>
        <time>2010-10-09T13:04:56Z</time>
      </trkpt>
      <trkpt lat="45.04297" lon="5.26514">
        <ele>283.14999389648</ele>
        <time>2010-10-09T13:04:57Z</time>
      </trkpt>
      <trkpt lat="45.0425" lon="5.26507">
        <ele>286.5710144043</ele>
        <time>2010-10-09T13:05:06Z</time>
      </trkpt>
      <trkpt lat="45.04225" lon="5.26505">
        <ele>289.19400024414</ele>
        <time>2010-10-09T13:05:11Z</time>
      </trkpt>
      <trkpt lat="45.04185" lon="5.26504">
        <ele>291.52899169922</ele>
        <time>2010-10-09T13:05:19Z</time>
      </trkpt>
      <trkpt lat="45.04175" lon="5.26504">
        <ele>292.06500244141</ele>
        <time>2010-10-09T13:05:21Z</time>
      </trkpt>
      <trkpt lat="45.04154" lon="5.26496">
        <ele>293.53601074219</ele>
        <time>2010-10-09T13:05:26Z</time>
      </trkpt>
      <trkpt lat="45.04142" lon="5.26489">
        <ele>294.60598754883</ele>
        <time>2010-10-09T13:05:32Z</time>
      </trkpt>
      <trkpt lat="45.04142" lon="5.26488">
        <ele>294.62899780273</ele>
        <time>2010-10-09T13:05:33Z</time>
      </trkpt>
      <trkpt lat="45.04138" lon="5.26486">
        <ele>295.00399780273</ele>
        <time>2010-10-09T13:05:43Z</time>
      </trkpt>
      <trkpt lat="45.04135" lon="5.26484">
        <ele>294.9049987793</ele>
        <time>2010-10-09T13:05:48Z</time>
      </trkpt>
      <trkpt lat="45.04132" lon="5.26486">
        <ele>294.55599975586</ele>
        <time>2010-10-09T13:05:53Z</time>
      </trkpt>
      <trkpt lat="45.04128" lon="5.26489">
        <ele>294.96701049805</ele>
        <time>2010-10-09T13:05:59Z</time>
      </trkpt>
      <trkpt lat="45.04127" lon="5.26489">
        <ele>294.94000244141</ele>
        <time>2010-10-09T13:06:00Z</time>
      </trkpt>
      <trkpt lat="45.04119" lon="5.26494">
        <ele>295.1130065918</ele>
        <time>2010-10-09T13:06:08Z</time>
      </trkpt>
      <trkpt lat="45.04116" lon="5.26494">
        <ele>295.97601318359</ele>
        <time>2010-10-09T13:06:14Z</time>
      </trkpt>
      <trkpt lat="45.04113" lon="5.26491">
        <ele>296.44500732422</ele>
        <time>2010-10-09T13:06:20Z</time>
      </trkpt>
      <trkpt lat="45.04109" lon="5.2649">
        <ele>296.625</ele>
        <time>2010-10-09T13:06:54Z</time>
      </trkpt>
      <trkpt lat="45.04094" lon="5.26498">
        <ele>296.52099609375</ele>
        <time>2010-10-09T13:07:15Z</time>
      </trkpt>
      <trkpt lat="45.04073" lon="5.26508">
        <ele>296.22100830078</ele>
        <time>2010-10-09T13:07:21Z</time>
      </trkpt>
      <trkpt lat="45.04065" lon="5.26512">
        <ele>296.34899902344</ele>
        <time>2010-10-09T13:07:23Z</time>
      </trkpt>
      <trkpt lat="45.04059" lon="5.2654">
        <ele>296.21099853516</ele>
        <time>2010-10-09T13:07:28Z</time>
      </trkpt>
      <trkpt lat="45.04066" lon="5.26556">
        <ele>296.33499145508</ele>
        <time>2010-10-09T13:07:31Z</time>
      </trkpt>
      <trkpt lat="45.04073" lon="5.26565">
        <ele>296.91198730469</ele>
        <time>2010-10-09T13:07:33Z</time>
      </trkpt>
      <trkpt lat="45.04081" lon="5.26572">
        <ele>297.18499755859</ele>
        <time>2010-10-09T13:07:35Z</time>
      </trkpt>
      <trkpt lat="45.04103" lon="5.26605">
        <ele>298.10998535156</ele>
        <time>2010-10-09T13:07:42Z</time>
      </trkpt>
      <trkpt lat="45.04125" lon="5.26626">
        <ele>299.89199829102</ele>
        <time>2010-10-09T13:07:49Z</time>
      </trkpt>
      <trkpt lat="45.04128" lon="5.26629">
        <ele>300.0419921875</ele>
        <time>2010-10-09T13:07:50Z</time>
      </trkpt>
      <trkpt lat="45.04136" lon="5.26655">
        <ele>301.27499389648</ele>
        <time>2010-10-09T13:07:55Z</time>
      </trkpt>
      <trkpt lat="45.04134" lon="5.26666">
        <ele>301.63800048828</ele>
        <time>2010-10-09T13:07:57Z</time>
      </trkpt>
      <trkpt lat="45.04132" lon="5.26677">
        <ele>301.50900268555</ele>
        <time>2010-10-09T13:07:59Z</time>
      </trkpt>
      <trkpt lat="45.04136" lon="5.26716">
        <ele>300.74899291992</ele>
        <time>2010-10-09T13:08:04Z</time>
      </trkpt>
      <trkpt lat="45.04138" lon="5.26765">
        <ele>299.0539855957</ele>
        <time>2010-10-09T13:08:10Z</time>
      </trkpt>
      <trkpt lat="45.0414" lon="5.26786">
        <ele>297.70001220703</ele>
        <time>2010-10-09T13:08:12Z</time>
      </trkpt>
      <trkpt lat="45.04158" lon="5.26849">
        <ele>292.03698730469</ele>
        <time>2010-10-09T13:08:17Z</time>
      </trkpt>
      <trkpt lat="45.04169" lon="5.26872">
        <ele>291.38400268555</ele>
        <time>2010-10-09T13:08:19Z</time>
      </trkpt>
      <trkpt lat="45.04193" lon="5.26923">
        <ele>293.53399658203</ele>
        <time>2010-10-09T13:08:24Z</time>
      </trkpt>
      <trkpt lat="45.04196" lon="5.26931">
        <ele>293.80599975586</ele>
        <time>2010-10-09T13:08:25Z</time>
      </trkpt>
      <trkpt lat="45.04208" lon="5.26979">
        <ele>296.4469909668</ele>
        <time>2010-10-09T13:08:31Z</time>
      </trkpt>
      <trkpt lat="45.04213" lon="5.27001">
        <ele>297.43499755859</ele>
        <time>2010-10-09T13:08:34Z</time>
      </trkpt>
      <trkpt lat="45.04215" lon="5.27029">
        <ele>299.0950012207</ele>
        <time>2010-10-09T13:08:38Z</time>
      </trkpt>
      <trkpt lat="45.04206" lon="5.27072">
        <ele>301.62701416016</ele>
        <time>2010-10-09T13:08:46Z</time>
      </trkpt>
      <trkpt lat="45.04196" lon="5.27115">
        <ele>303.98901367188</ele>
        <time>2010-10-09T13:08:54Z</time>
      </trkpt>
      <trkpt lat="45.04196" lon="5.2712">
        <ele>304.25100708008</ele>
        <time>2010-10-09T13:08:55Z</time>
      </trkpt>
      <trkpt lat="45.04197" lon="5.27137">
        <ele>304.55700683594</ele>
        <time>2010-10-09T13:08:58Z</time>
      </trkpt>
      <trkpt lat="45.04204" lon="5.27173">
        <ele>305.84600830078</ele>
        <time>2010-10-09T13:09:05Z</time>
      </trkpt>
      <trkpt lat="45.04204" lon="5.27185">
        <ele>306.42199707031</ele>
        <time>2010-10-09T13:09:09Z</time>
      </trkpt>
      <trkpt lat="45.04193" lon="5.27191">
        <ele>306.54598999023</ele>
        <time>2010-10-09T13:09:14Z</time>
      </trkpt>
      <trkpt lat="45.04174" lon="5.27201">
        <ele>307.62200927734</ele>
        <time>2010-10-09T13:09:20Z</time>
      </trkpt>
      <trkpt lat="45.0415" lon="5.27212">
        <ele>309.44400024414</ele>
        <time>2010-10-09T13:09:28Z</time>
      </trkpt>
      <trkpt lat="45.04126" lon="5.27212">
        <ele>312.16198730469</ele>
        <time>2010-10-09T13:09:36Z</time>
      </trkpt>
      <trkpt lat="45.04099" lon="5.27215">
        <ele>314.95901489258</ele>
        <time>2010-10-09T13:09:45Z</time>
      </trkpt>
      <trkpt lat="45.04073" lon="5.27217">
        <ele>317.01000976562</ele>
        <time>2010-10-09T13:09:53Z</time>
      </trkpt>
      <trkpt lat="45.04045" lon="5.27215">
        <ele>317.90100097656</ele>
        <time>2010-10-09T13:10:01Z</time>
      </trkpt>
      <trkpt lat="45.04016" lon="5.27207">
        <ele>319.87100219727</ele>
        <time>2010-10-09T13:10:09Z</time>
      </trkpt>
      <trkpt lat="45.03989" lon="5.27208">
        <ele>322.50500488281</ele>
        <time>2010-10-09T13:10:17Z</time>
      </trkpt>
      <trkpt lat="45.0396" lon="5.27212">
        <ele>325.50900268555</ele>
        <time>2010-10-09T13:10:26Z</time>
      </trkpt>
      <trkpt lat="45.03928" lon="5.27216">
        <ele>329.04699707031</ele>
        <time>2010-10-09T13:10:36Z</time>
      </trkpt>
      <trkpt lat="45.03896" lon="5.27219">
        <ele>332.31799316406</ele>
        <time>2010-10-09T13:10:45Z</time>
      </trkpt>
      <trkpt lat="45.03883" lon="5.27221">
        <ele>333.56100463867</ele>
        <time>2010-10-09T13:10:48Z</time>
      </trkpt>
      <trkpt lat="45.03866" lon="5.27222">
        <ele>335.80801391602</ele>
        <time>2010-10-09T13:10:52Z</time>
      </trkpt>
      <trkpt lat="45.03851" lon="5.27211">
        <ele>337.79901123047</ele>
        <time>2010-10-09T13:10:56Z</time>
      </trkpt>
      <trkpt lat="45.03847" lon="5.272">
        <ele>338.58700561523</ele>
        <time>2010-10-09T13:10:58Z</time>
      </trkpt>
      <trkpt lat="45.03845" lon="5.27188">
        <ele>339.43301391602</ele>
        <time>2010-10-09T13:11:00Z</time>
      </trkpt>
      <trkpt lat="45.03844" lon="5.27176">
        <ele>339.87600708008</ele>
        <time>2010-10-09T13:11:02Z</time>
      </trkpt>
      <trkpt lat="45.03841" lon="5.27152">
        <ele>340.56201171875</ele>
        <time>2010-10-09T13:11:06Z</time>
      </trkpt>
      <trkpt lat="45.03833" lon="5.27131">
        <ele>341.36401367188</ele>
        <time>2010-10-09T13:11:10Z</time>
      </trkpt>
      <trkpt lat="45.03817" lon="5.27116">
        <ele>342.07400512695</ele>
        <time>2010-10-09T13:11:15Z</time>
      </trkpt>
      <trkpt lat="45.03799" lon="5.27102">
        <ele>342.91198730469</ele>
        <time>2010-10-09T13:11:21Z</time>
      </trkpt>
      <trkpt lat="45.03797" lon="5.27098">
        <ele>342.96701049805</ele>
        <time>2010-10-09T13:11:22Z</time>
      </trkpt>
      <trkpt lat="45.03793" lon="5.27062">
        <ele>342.59100341797</ele>
        <time>2010-10-09T13:11:28Z</time>
      </trkpt>
      <trkpt lat="45.03783" lon="5.27036">
        <ele>342.11099243164</ele>
        <time>2010-10-09T13:11:32Z</time>
      </trkpt>
      <trkpt lat="45.03768" lon="5.27009">
        <ele>341.43499755859</ele>
        <time>2010-10-09T13:11:36Z</time>
      </trkpt>
      <trkpt lat="45.03749" lon="5.26961">
        <ele>344.41000366211</ele>
        <time>2010-10-09T13:11:43Z</time>
      </trkpt>
      <trkpt lat="45.03727" lon="5.26906">
        <ele>348.36700439453</ele>
        <time>2010-10-09T13:11:51Z</time>
      </trkpt>
      <trkpt lat="45.03717" lon="5.26887">
        <ele>349.50299072266</ele>
        <time>2010-10-09T13:11:54Z</time>
      </trkpt>
      <trkpt lat="45.03712" lon="5.26874">
        <ele>349.9049987793</ele>
        <time>2010-10-09T13:11:56Z</time>
      </trkpt>
      <trkpt lat="45.03697" lon="5.26845">
        <ele>351.10198974609</ele>
        <time>2010-10-09T13:12:01Z</time>
      </trkpt>
      <trkpt lat="45.03683" lon="5.26819">
        <ele>352.69000244141</ele>
        <time>2010-10-09T13:12:06Z</time>
      </trkpt>
      <trkpt lat="45.03656" lon="5.26773">
        <ele>355.09899902344</ele>
        <time>2010-10-09T13:12:16Z</time>
      </trkpt>
      <trkpt lat="45.03653" lon="5.26769">
        <ele>355.33700561523</ele>
        <time>2010-10-09T13:12:17Z</time>
      </trkpt>
      <trkpt lat="45.03627" lon="5.26754">
        <ele>354.80899047852</ele>
        <time>2010-10-09T13:12:23Z</time>
      </trkpt>
      <trkpt lat="45.03616" lon="5.26749">
        <ele>354.44799804688</ele>
        <time>2010-10-09T13:12:25Z</time>
      </trkpt>
      <trkpt lat="45.03569" lon="5.26723">
        <ele>355.94400024414</ele>
        <time>2010-10-09T13:12:34Z</time>
      </trkpt>
      <trkpt lat="45.03534" lon="5.26715">
        <ele>358.99899291992</ele>
        <time>2010-10-09T13:12:41Z</time>
      </trkpt>
      <trkpt lat="45.03519" lon="5.26713">
        <ele>360.49798583984</ele>
        <time>2010-10-09T13:12:44Z</time>
      </trkpt>
      <trkpt lat="45.03514" lon="5.26713">
        <ele>360.98098754883</ele>
        <time>2010-10-09T13:12:45Z</time>
      </trkpt>
      <trkpt lat="45.03503" lon="5.2671">
        <ele>362.00900268555</ele>
        <time>2010-10-09T13:12:47Z</time>
      </trkpt>
      <trkpt lat="45.03496" lon="5.26705">
        <ele>362.82598876953</ele>
        <time>2010-10-09T13:12:49Z</time>
      </trkpt>
      <trkpt lat="45.03485" lon="5.26684">
        <ele>363.7799987793</ele>
        <time>2010-10-09T13:12:54Z</time>
      </trkpt>
      <trkpt lat="45.03481" lon="5.26665">
        <ele>363.49798583984</ele>
        <time>2010-10-09T13:12:57Z</time>
      </trkpt>
      <trkpt lat="45.03472" lon="5.26626">
        <ele>363.58999633789</ele>
        <time>2010-10-09T13:13:03Z</time>
      </trkpt>
      <trkpt lat="45.03468" lon="5.26614">
        <ele>363.72198486328</ele>
        <time>2010-10-09T13:13:05Z</time>
      </trkpt>
      <trkpt lat="45.03461" lon="5.26584">
        <ele>363.94500732422</ele>
        <time>2010-10-09T13:13:10Z</time>
      </trkpt>
      <trkpt lat="45.03459" lon="5.26549">
        <ele>362.11801147461</ele>
        <time>2010-10-09T13:13:15Z</time>
      </trkpt>
      <trkpt lat="45.03465" lon="5.26523">
        <ele>361.15200805664</ele>
        <time>2010-10-09T13:13:18Z</time>
      </trkpt>
      <trkpt lat="45.03479" lon="5.26479">
        <ele>361.56298828125</ele>
        <time>2010-10-09T13:13:24Z</time>
      </trkpt>
      <trkpt lat="45.03484" lon="5.26459">
        <ele>361.69900512695</ele>
        <time>2010-10-09T13:13:27Z</time>
      </trkpt>
      <trkpt lat="45.03482" lon="5.26433">
        <ele>362.06900024414</ele>
        <time>2010-10-09T13:13:31Z</time>
      </trkpt>
      <trkpt lat="45.03469" lon="5.26419">
        <ele>361.5</ele>
        <time>2010-10-09T13:13:34Z</time>
      </trkpt>
      <trkpt lat="45.03447" lon="5.26386">
        <ele>359.3039855957</ele>
        <time>2010-10-09T13:13:39Z</time>
      </trkpt>
      <trkpt lat="45.03445" lon="5.26355">
        <ele>358.05200195312</ele>
        <time>2010-10-09T13:13:42Z</time>
      </trkpt>
      <trkpt lat="45.03451" lon="5.26297">
        <ele>358.67300415039</ele>
        <time>2010-10-09T13:13:48Z</time>
      </trkpt>
      <trkpt lat="45.0345" lon="5.26249">
        <ele>361.27099609375</ele>
        <time>2010-10-09T13:13:54Z</time>
      </trkpt>
      <trkpt lat="45.03447" lon="5.26196">
        <ele>363.37100219727</ele>
        <time>2010-10-09T13:14:02Z</time>
      </trkpt>
      <trkpt lat="45.03445" lon="5.26171">
        <ele>363.82598876953</ele>
        <time>2010-10-09T13:14:06Z</time>
      </trkpt>
      <trkpt lat="45.03445" lon="5.26123">
        <ele>362.88800048828</ele>
        <time>2010-10-09T13:14:13Z</time>
      </trkpt>
      <trkpt lat="45.03456" lon="5.26074">
        <ele>362.58401489258</ele>
        <time>2010-10-09T13:14:20Z</time>
      </trkpt>
      <trkpt lat="45.0346" lon="5.26052">
        <ele>361.86700439453</ele>
        <time>2010-10-09T13:14:23Z</time>
      </trkpt>
      <trkpt lat="45.03461" lon="5.25989">
        <ele>359.79800415039</ele>
        <time>2010-10-09T13:14:30Z</time>
      </trkpt>
      <trkpt lat="45.03454" lon="5.25945">
        <ele>359.61499023438</ele>
        <time>2010-10-09T13:14:35Z</time>
      </trkpt>
      <trkpt lat="45.03438" lon="5.25902">
        <ele>361.35598754883</ele>
        <time>2010-10-09T13:14:41Z</time>
      </trkpt>
      <trkpt lat="45.0343" lon="5.25885">
        <ele>362.23999023438</ele>
        <time>2010-10-09T13:14:44Z</time>
      </trkpt>
      <trkpt lat="45.03412" lon="5.25865">
        <ele>362.64300537109</ele>
        <time>2010-10-09T13:14:50Z</time>
      </trkpt>
      <trkpt lat="45.03407" lon="5.25862">
        <ele>362.64401245117</ele>
        <time>2010-10-09T13:14:52Z</time>
      </trkpt>
      <trkpt lat="45.034" lon="5.25858">
        <ele>362.73901367188</ele>
        <time>2010-10-09T13:14:56Z</time>
      </trkpt>
      <trkpt lat="45.034" lon="5.25862">
        <ele>362.61499023438</ele>
        <time>2010-10-09T13:14:58Z</time>
      </trkpt>
      <trkpt lat="45.034" lon="5.25865">
        <ele>362.43399047852</ele>
        <time>2010-10-09T13:15:02Z</time>
      </trkpt>
      <trkpt lat="45.03407" lon="5.25882">
        <ele>361.56100463867</ele>
        <time>2010-10-09T13:16:00Z</time>
      </trkpt>
      <trkpt lat="45.0341" lon="5.25893">
        <ele>360.90399169922</ele>
        <time>2010-10-09T13:16:02Z</time>
      </trkpt>
      <trkpt lat="45.03418" lon="5.25913">
        <ele>359.86401367188</ele>
        <time>2010-10-09T13:16:05Z</time>
      </trkpt>
      <trkpt lat="45.03425" lon="5.25939">
        <ele>358.36700439453</ele>
        <time>2010-10-09T13:16:08Z</time>
      </trkpt>
      <trkpt lat="45.03426" lon="5.25984">
        <ele>355.28201293945</ele>
        <time>2010-10-09T13:16:12Z</time>
      </trkpt>
      <trkpt lat="45.0341" lon="5.26017">
        <ele>352.48300170898</ele>
        <time>2010-10-09T13:16:15Z</time>
      </trkpt>
      <trkpt lat="45.03386" lon="5.26043">
        <ele>350.05801391602</ele>
        <time>2010-10-09T13:16:18Z</time>
      </trkpt>
      <trkpt lat="45.03363" lon="5.26034">
        <ele>347.23901367188</ele>
        <time>2010-10-09T13:16:20Z</time>
      </trkpt>
      <trkpt lat="45.03353" lon="5.26026">
        <ele>346.6789855957</ele>
        <time>2010-10-09T13:16:21Z</time>
      </trkpt>
      <trkpt lat="45.03334" lon="5.26008">
        <ele>344.61599731445</ele>
        <time>2010-10-09T13:16:23Z</time>
      </trkpt>
      <trkpt lat="45.03305" lon="5.26005">
        <ele>342.49398803711</ele>
        <time>2010-10-09T13:16:26Z</time>
      </trkpt>
      <trkpt lat="45.03291" lon="5.26032">
        <ele>340.5530090332</ele>
        <time>2010-10-09T13:16:28Z</time>
      </trkpt>
      <trkpt lat="45.03282" lon="5.26062">
        <ele>338.49301147461</ele>
        <time>2010-10-09T13:16:30Z</time>
      </trkpt>
      <trkpt lat="45.03255" lon="5.26137">
        <ele>334.6780090332</ele>
        <time>2010-10-09T13:16:35Z</time>
      </trkpt>
      <trkpt lat="45.03224" lon="5.26227">
        <ele>330.50601196289</ele>
        <time>2010-10-09T13:16:41Z</time>
      </trkpt>
      <trkpt lat="45.03202" lon="5.26268">
        <ele>328.8030090332</ele>
        <time>2010-10-09T13:16:44Z</time>
      </trkpt>
      <trkpt lat="45.03158" lon="5.26323">
        <ele>325.6960144043</ele>
        <time>2010-10-09T13:16:49Z</time>
      </trkpt>
      <trkpt lat="45.03093" lon="5.26405">
        <ele>322.68301391602</ele>
        <time>2010-10-09T13:16:57Z</time>
      </trkpt>
      <trkpt lat="45.03035" lon="5.26481">
        <ele>320.1549987793</ele>
        <time>2010-10-09T13:17:05Z</time>
      </trkpt>
      <trkpt lat="45.02964" lon="5.26571">
        <ele>317.72100830078</ele>
        <time>2010-10-09T13:17:15Z</time>
      </trkpt>
      <trkpt lat="45.02911" lon="5.2664">
        <ele>316.17700195312</ele>
        <time>2010-10-09T13:17:23Z</time>
      </trkpt>
      <trkpt lat="45.02901" lon="5.26653">
        <ele>316.11801147461</ele>
        <time>2010-10-09T13:17:25Z</time>
      </trkpt>
      <trkpt lat="45.02888" lon="5.26666">
        <ele>316.02301025391</ele>
        <time>2010-10-09T13:17:29Z</time>
      </trkpt>
      <trkpt lat="45.02869" lon="5.2669">
        <ele>314.8330078125</ele>
        <time>2010-10-09T13:17:34Z</time>
      </trkpt>
      <trkpt lat="45.02847" lon="5.26724">
        <ele>313.35101318359</ele>
        <time>2010-10-09T13:17:39Z</time>
      </trkpt>
      <trkpt lat="45.02819" lon="5.26754">
        <ele>312.24899291992</ele>
        <time>2010-10-09T13:17:44Z</time>
      </trkpt>
      <trkpt lat="45.02794" lon="5.26772">
        <ele>311.82000732422</ele>
        <time>2010-10-09T13:17:48Z</time>
      </trkpt>
      <trkpt lat="45.02777" lon="5.26788">
        <ele>311.42999267578</ele>
        <time>2010-10-09T13:17:51Z</time>
      </trkpt>
      <trkpt lat="45.02758" lon="5.26824">
        <ele>310.89099121094</ele>
        <time>2010-10-09T13:17:56Z</time>
      </trkpt>
      <trkpt lat="45.02753" lon="5.26831">
        <ele>310.38800048828</ele>
        <time>2010-10-09T13:17:57Z</time>
      </trkpt>
      <trkpt lat="45.02723" lon="5.2688">
        <ele>308.01000976562</ele>
        <time>2010-10-09T13:18:03Z</time>
      </trkpt>
      <trkpt lat="45.02687" lon="5.26908">
        <ele>306.19799804688</ele>
        <time>2010-10-09T13:18:08Z</time>
      </trkpt>
      <trkpt lat="45.02625" lon="5.26934">
        <ele>304.90100097656</ele>
        <time>2010-10-09T13:18:16Z</time>
      </trkpt>
      <trkpt lat="45.02598" lon="5.26958">
        <ele>304.19500732422</ele>
        <time>2010-10-09T13:18:20Z</time>
      </trkpt>
      <trkpt lat="45.02586" lon="5.26973">
        <ele>303.98999023438</ele>
        <time>2010-10-09T13:18:22Z</time>
      </trkpt>
      <trkpt lat="45.0256" lon="5.26995">
        <ele>303.83401489258</ele>
        <time>2010-10-09T13:18:26Z</time>
      </trkpt>
      <trkpt lat="45.02496" lon="5.27022">
        <ele>303.10598754883</ele>
        <time>2010-10-09T13:18:35Z</time>
      </trkpt>
      <trkpt lat="45.02457" lon="5.27048">
        <ele>302.80999755859</ele>
        <time>2010-10-09T13:18:41Z</time>
      </trkpt>
      <trkpt lat="45.02412" lon="5.27091">
        <ele>301.48300170898</ele>
        <time>2010-10-09T13:18:48Z</time>
      </trkpt>
      <trkpt lat="45.02371" lon="5.27136">
        <ele>300.41198730469</ele>
        <time>2010-10-09T13:18:55Z</time>
      </trkpt>
      <trkpt lat="45.02344" lon="5.27164">
        <ele>299.85000610352</ele>
        <time>2010-10-09T13:19:00Z</time>
      </trkpt>
      <trkpt lat="45.02318" lon="5.27168">
        <ele>298.28698730469</ele>
        <time>2010-10-09T13:19:04Z</time>
      </trkpt>
      <trkpt lat="45.02304" lon="5.27154">
        <ele>296.12200927734</ele>
        <time>2010-10-09T13:19:06Z</time>
      </trkpt>
      <trkpt lat="45.0229" lon="5.27136">
        <ele>295.03601074219</ele>
        <time>2010-10-09T13:19:08Z</time>
      </trkpt>
      <trkpt lat="45.02273" lon="5.27094">
        <ele>293.40701293945</ele>
        <time>2010-10-09T13:19:12Z</time>
      </trkpt>
      <trkpt lat="45.02272" lon="5.27076">
        <ele>294.75201416016</ele>
        <time>2010-10-09T13:19:14Z</time>
      </trkpt>
      <trkpt lat="45.02276" lon="5.27037">
        <ele>299.48300170898</ele>
        <time>2010-10-09T13:19:21Z</time>
      </trkpt>
      <trkpt lat="45.02273" lon="5.27016">
        <ele>301.32000732422</ele>
        <time>2010-10-09T13:19:27Z</time>
      </trkpt>
      <trkpt lat="45.02265" lon="5.26997">
        <ele>303.2799987793</ele>
        <time>2010-10-09T13:19:33Z</time>
      </trkpt>
      <trkpt lat="45.0225" lon="5.26983">
        <ele>305.58200073242</ele>
        <time>2010-10-09T13:19:39Z</time>
      </trkpt>
      <trkpt lat="45.02235" lon="5.26975">
        <ele>307.65200805664</ele>
        <time>2010-10-09T13:19:45Z</time>
      </trkpt>
      <trkpt lat="45.02216" lon="5.26963">
        <ele>309.34100341797</ele>
        <time>2010-10-09T13:19:52Z</time>
      </trkpt>
      <trkpt lat="45.02199" lon="5.26952">
        <ele>310.56600952148</ele>
        <time>2010-10-09T13:19:57Z</time>
      </trkpt>
      <trkpt lat="45.0218" lon="5.2694">
        <ele>311.65899658203</ele>
        <time>2010-10-09T13:20:03Z</time>
      </trkpt>
      <trkpt lat="45.02161" lon="5.26922">
        <ele>312.8030090332</ele>
        <time>2010-10-09T13:20:10Z</time>
      </trkpt>
      <trkpt lat="45.02143" lon="5.26906">
        <ele>313.47698974609</ele>
        <time>2010-10-09T13:20:16Z</time>
      </trkpt>
      <trkpt lat="45.02122" lon="5.26885">
        <ele>315.17700195312</ele>
        <time>2010-10-09T13:20:24Z</time>
      </trkpt>
      <trkpt lat="45.02102" lon="5.26872">
        <ele>316.54800415039</ele>
        <time>2010-10-09T13:20:31Z</time>
      </trkpt>
      <trkpt lat="45.02082" lon="5.26874">
        <ele>316.87799072266</ele>
        <time>2010-10-09T13:20:36Z</time>
      </trkpt>
      <trkpt lat="45.02058" lon="5.26883">
        <ele>318.18899536133</ele>
        <time>2010-10-09T13:20:43Z</time>
      </trkpt>
      <trkpt lat="45.02039" lon="5.269">
        <ele>318.51098632812</ele>
        <time>2010-10-09T13:20:49Z</time>
      </trkpt>
      <trkpt lat="45.02022" lon="5.26922">
        <ele>319.83898925781</ele>
        <time>2010-10-09T13:20:55Z</time>
      </trkpt>
      <trkpt lat="45.01999" lon="5.26951">
        <ele>321.14001464844</ele>
        <time>2010-10-09T13:21:03Z</time>
      </trkpt>
      <trkpt lat="45.01972" lon="5.26974">
        <ele>323.01098632812</ele>
        <time>2010-10-09T13:21:11Z</time>
      </trkpt>
      <trkpt lat="45.01951" lon="5.26973">
        <ele>325.20300292969</ele>
        <time>2010-10-09T13:21:17Z</time>
      </trkpt>
      <trkpt lat="45.0194" lon="5.26967">
        <ele>327.18301391602</ele>
        <time>2010-10-09T13:21:21Z</time>
      </trkpt>
      <trkpt lat="45.01921" lon="5.26955">
        <ele>330.27899169922</ele>
        <time>2010-10-09T13:21:29Z</time>
      </trkpt>
      <trkpt lat="45.01908" lon="5.26946">
        <ele>331.75799560547</ele>
        <time>2010-10-09T13:21:35Z</time>
      </trkpt>
      <trkpt lat="45.0189" lon="5.26933">
        <ele>333.78900146484</ele>
        <time>2010-10-09T13:21:43Z</time>
      </trkpt>
      <trkpt lat="45.01875" lon="5.26922">
        <ele>335.52801513672</ele>
        <time>2010-10-09T13:21:50Z</time>
      </trkpt>
      <trkpt lat="45.01857" lon="5.26912">
        <ele>337.58599853516</ele>
        <time>2010-10-09T13:21:58Z</time>
      </trkpt>
      <trkpt lat="45.01836" lon="5.26902">
        <ele>339.24200439453</ele>
        <time>2010-10-09T13:22:06Z</time>
      </trkpt>
      <trkpt lat="45.01811" lon="5.26895">
        <ele>340.84899902344</ele>
        <time>2010-10-09T13:22:14Z</time>
      </trkpt>
      <trkpt lat="45.01781" lon="5.26892">
        <ele>343.49398803711</ele>
        <time>2010-10-09T13:22:23Z</time>
      </trkpt>
      <trkpt lat="45.01759" lon="5.26887">
        <ele>346.39898681641</ele>
        <time>2010-10-09T13:22:30Z</time>
      </trkpt>
      <trkpt lat="45.01743" lon="5.26878">
        <ele>348.79800415039</ele>
        <time>2010-10-09T13:22:35Z</time>
      </trkpt>
      <trkpt lat="45.0173" lon="5.26869">
        <ele>350.61898803711</ele>
        <time>2010-10-09T13:22:39Z</time>
      </trkpt>
      <trkpt lat="45.01717" lon="5.26857">
        <ele>352.75601196289</ele>
        <time>2010-10-09T13:22:44Z</time>
      </trkpt>
      <trkpt lat="45.01699" lon="5.2684">
        <ele>355.20999145508</ele>
        <time>2010-10-09T13:22:51Z</time>
      </trkpt>
      <trkpt lat="45.01681" lon="5.26822">
        <ele>357.01599121094</ele>
        <time>2010-10-09T13:22:59Z</time>
      </trkpt>
      <trkpt lat="45.01664" lon="5.26805">
        <ele>358.54501342773</ele>
        <time>2010-10-09T13:23:06Z</time>
      </trkpt>
      <trkpt lat="45.01649" lon="5.26789">
        <ele>360.23498535156</ele>
        <time>2010-10-09T13:23:13Z</time>
      </trkpt>
      <trkpt lat="45.01637" lon="5.26778">
        <ele>361.49099731445</ele>
        <time>2010-10-09T13:23:18Z</time>
      </trkpt>
      <trkpt lat="45.01621" lon="5.26768">
        <ele>362.05499267578</ele>
        <time>2010-10-09T13:23:24Z</time>
      </trkpt>
      <trkpt lat="45.01601" lon="5.26755">
        <ele>362.56201171875</ele>
        <time>2010-10-09T13:23:31Z</time>
      </trkpt>
      <trkpt lat="45.01576" lon="5.26744">
        <ele>363.57901000977</ele>
        <time>2010-10-09T13:23:39Z</time>
      </trkpt>
      <trkpt lat="45.0156" lon="5.26737">
        <ele>364.51098632812</ele>
        <time>2010-10-09T13:23:45Z</time>
      </trkpt>
      <trkpt lat="45.01551" lon="5.2673">
        <ele>364.76098632812</ele>
        <time>2010-10-09T13:23:51Z</time>
      </trkpt>
      <trkpt lat="45.01548" lon="5.26729">
        <ele>365.07000732422</ele>
        <time>2010-10-09T13:23:56Z</time>
      </trkpt>
      <trkpt lat="45.01545" lon="5.26731">
        <ele>364.78500366211</ele>
        <time>2010-10-09T13:24:51Z</time>
      </trkpt>
      <trkpt lat="45.0154" lon="5.2673">
        <ele>364.46398925781</ele>
        <time>2010-10-09T13:24:53Z</time>
      </trkpt>
      <trkpt lat="45.01532" lon="5.26727">
        <ele>363.60598754883</ele>
        <time>2010-10-09T13:24:55Z</time>
      </trkpt>
      <trkpt lat="45.01503" lon="5.26699">
        <ele>360.91500854492</ele>
        <time>2010-10-09T13:25:02Z</time>
      </trkpt>
      <trkpt lat="45.01482" lon="5.26667">
        <ele>358.88000488281</ele>
        <time>2010-10-09T13:25:07Z</time>
      </trkpt>
      <trkpt lat="45.01476" lon="5.26653">
        <ele>358.83099365234</ele>
        <time>2010-10-09T13:25:09Z</time>
      </trkpt>
      <trkpt lat="45.01464" lon="5.26611">
        <ele>359.40798950195</ele>
        <time>2010-10-09T13:25:15Z</time>
      </trkpt>
      <trkpt lat="45.01454" lon="5.26572">
        <ele>360.04800415039</ele>
        <time>2010-10-09T13:25:21Z</time>
      </trkpt>
      <trkpt lat="45.01438" lon="5.26525">
        <ele>361.47100830078</ele>
        <time>2010-10-09T13:25:29Z</time>
      </trkpt>
      <trkpt lat="45.01431" lon="5.26509">
        <ele>361.87600708008</ele>
        <time>2010-10-09T13:25:32Z</time>
      </trkpt>
      <trkpt lat="45.01407" lon="5.26493">
        <ele>362.7200012207</ele>
        <time>2010-10-09T13:25:38Z</time>
      </trkpt>
      <trkpt lat="45.01384" lon="5.26479">
        <ele>363.51599121094</ele>
        <time>2010-10-09T13:25:44Z</time>
      </trkpt>
      <trkpt lat="45.01379" lon="5.26464">
        <ele>364.36599731445</ele>
        <time>2010-10-09T13:25:47Z</time>
      </trkpt>
      <trkpt lat="45.01366" lon="5.2644">
        <ele>364.80200195312</ele>
        <time>2010-10-09T13:25:52Z</time>
      </trkpt>
      <trkpt lat="45.01331" lon="5.26428">
        <ele>365.50698852539</ele>
        <time>2010-10-09T13:26:00Z</time>
      </trkpt>
      <trkpt lat="45.01294" lon="5.26412">
        <ele>366.62799072266</ele>
        <time>2010-10-09T13:26:08Z</time>
      </trkpt>
      <trkpt lat="45.01267" lon="5.26416">
        <ele>367.71099853516</ele>
        <time>2010-10-09T13:26:14Z</time>
      </trkpt>
      <trkpt lat="45.01237" lon="5.26415">
        <ele>368.92401123047</ele>
        <time>2010-10-09T13:26:21Z</time>
      </trkpt>
      <trkpt lat="45.01199" lon="5.2642">
        <ele>370.47799682617</ele>
        <time>2010-10-09T13:26:29Z</time>
      </trkpt>
      <trkpt lat="45.01158" lon="5.26409">
        <ele>371.78900146484</ele>
        <time>2010-10-09T13:26:38Z</time>
      </trkpt>
      <trkpt lat="45.01117" lon="5.26399">
        <ele>373.52600097656</ele>
        <time>2010-10-09T13:26:47Z</time>
      </trkpt>
      <trkpt lat="45.01095" lon="5.26398">
        <ele>374.66198730469</ele>
        <time>2010-10-09T13:26:52Z</time>
      </trkpt>
      <trkpt lat="45.01066" lon="5.26394">
        <ele>375.34799194336</ele>
        <time>2010-10-09T13:26:59Z</time>
      </trkpt>
      <trkpt lat="45.01039" lon="5.26386">
        <ele>375.90899658203</ele>
        <time>2010-10-09T13:27:05Z</time>
      </trkpt>
      <trkpt lat="45.01004" lon="5.26364">
        <ele>377.09899902344</ele>
        <time>2010-10-09T13:27:13Z</time>
      </trkpt>
      <trkpt lat="45.00963" lon="5.26336">
        <ele>378.84600830078</ele>
        <time>2010-10-09T13:27:23Z</time>
      </trkpt>
      <trkpt lat="45.00927" lon="5.26312">
        <ele>380.64001464844</ele>
        <time>2010-10-09T13:27:32Z</time>
      </trkpt>
      <trkpt lat="45.00897" lon="5.26294">
        <ele>381.70300292969</ele>
        <time>2010-10-09T13:27:39Z</time>
      </trkpt>
      <trkpt lat="45.00854" lon="5.26273">
        <ele>383.16799926758</ele>
        <time>2010-10-09T13:27:49Z</time>
      </trkpt>
      <trkpt lat="45.00824" lon="5.26268">
        <ele>384.64801025391</ele>
        <time>2010-10-09T13:27:56Z</time>
      </trkpt>
      <trkpt lat="45.00811" lon="5.26276">
        <ele>385.63400268555</ele>
        <time>2010-10-09T13:28:00Z</time>
      </trkpt>
      <trkpt lat="45.00806" lon="5.26284">
        <ele>386.11599731445</ele>
        <time>2010-10-09T13:28:02Z</time>
      </trkpt>
      <trkpt lat="45.00789" lon="5.26289">
        <ele>387.12100219727</ele>
        <time>2010-10-09T13:28:07Z</time>
      </trkpt>
      <trkpt lat="45.00754" lon="5.26272">
        <ele>388.36499023438</ele>
        <time>2010-10-09T13:28:16Z</time>
      </trkpt>
      <trkpt lat="45.00741" lon="5.26264">
        <ele>388.60501098633</ele>
        <time>2010-10-09T13:28:19Z</time>
      </trkpt>
      <trkpt lat="45.00708" lon="5.26252">
        <ele>390.39999389648</ele>
        <time>2010-10-09T13:28:27Z</time>
      </trkpt>
      <trkpt lat="45.00695" lon="5.26248">
        <ele>390.6669921875</ele>
        <time>2010-10-09T13:28:30Z</time>
      </trkpt>
      <trkpt lat="45.0066" lon="5.26252">
        <ele>392.3330078125</ele>
        <time>2010-10-09T13:28:38Z</time>
      </trkpt>
      <trkpt lat="45.00637" lon="5.26258">
        <ele>393.01300048828</ele>
        <time>2010-10-09T13:28:43Z</time>
      </trkpt>
      <trkpt lat="45.00606" lon="5.26258">
        <ele>394.80899047852</ele>
        <time>2010-10-09T13:28:50Z</time>
      </trkpt>
      <trkpt lat="45.00579" lon="5.26256">
        <ele>395.90200805664</ele>
        <time>2010-10-09T13:28:56Z</time>
      </trkpt>
      <trkpt lat="45.00567" lon="5.26253">
        <ele>396.66000366211</ele>
        <time>2010-10-09T13:28:59Z</time>
      </trkpt>
      <trkpt lat="45.00535" lon="5.26235">
        <ele>398.46301269531</ele>
        <time>2010-10-09T13:29:07Z</time>
      </trkpt>
      <trkpt lat="45.00521" lon="5.26216">
        <ele>399.94000244141</ele>
        <time>2010-10-09T13:29:12Z</time>
      </trkpt>
      <trkpt lat="45.0051" lon="5.26203">
        <ele>399.8869934082</ele>
        <time>2010-10-09T13:29:15Z</time>
      </trkpt>
      <trkpt lat="45.00474" lon="5.26181">
        <ele>401.22601318359</ele>
        <time>2010-10-09T13:29:23Z</time>
      </trkpt>
      <trkpt lat="45.00441" lon="5.26169">
        <ele>402.05999755859</ele>
        <time>2010-10-09T13:29:30Z</time>
      </trkpt>
      <trkpt lat="45.00406" lon="5.26157">
        <ele>404.35598754883</ele>
        <time>2010-10-09T13:29:38Z</time>
      </trkpt>
      <trkpt lat="45.00369" lon="5.26144">
        <ele>406.07501220703</ele>
        <time>2010-10-09T13:29:46Z</time>
      </trkpt>
      <trkpt lat="45.0036" lon="5.26137">
        <ele>406.86401367188</ele>
        <time>2010-10-09T13:29:48Z</time>
      </trkpt>
      <trkpt lat="45.00349" lon="5.26124">
        <ele>407.71398925781</ele>
        <time>2010-10-09T13:29:51Z</time>
      </trkpt>
      <trkpt lat="45.00338" lon="5.26107">
        <ele>408.72100830078</ele>
        <time>2010-10-09T13:29:54Z</time>
      </trkpt>
      <trkpt lat="45.00315" lon="5.26088">
        <ele>410.27899169922</ele>
        <time>2010-10-09T13:29:59Z</time>
      </trkpt>
      <trkpt lat="45.0027" lon="5.2608">
        <ele>411.58599853516</ele>
        <time>2010-10-09T13:30:07Z</time>
      </trkpt>
      <trkpt lat="45.00249" lon="5.26062">
        <ele>413.5299987793</ele>
        <time>2010-10-09T13:30:12Z</time>
      </trkpt>
      <trkpt lat="45.00243" lon="5.26053">
        <ele>414.33898925781</ele>
        <time>2010-10-09T13:30:14Z</time>
      </trkpt>
      <trkpt lat="45.00237" lon="5.26043">
        <ele>415.09298706055</ele>
        <time>2010-10-09T13:30:16Z</time>
      </trkpt>
      <trkpt lat="45.00226" lon="5.26015">
        <ele>417.23098754883</ele>
        <time>2010-10-09T13:30:21Z</time>
      </trkpt>
      <trkpt lat="45.00222" lon="5.25992">
        <ele>418.97799682617</ele>
        <time>2010-10-09T13:30:25Z</time>
      </trkpt>
      <trkpt lat="45.00222" lon="5.25973">
        <ele>420.19198608398</ele>
        <time>2010-10-09T13:30:28Z</time>
      </trkpt>
      <trkpt lat="45.00213" lon="5.25944">
        <ele>421.67401123047</ele>
        <time>2010-10-09T13:30:33Z</time>
      </trkpt>
      <trkpt lat="45.00197" lon="5.25933">
        <ele>422.64401245117</ele>
        <time>2010-10-09T13:30:37Z</time>
      </trkpt>
      <trkpt lat="45.00185" lon="5.25933">
        <ele>423.80499267578</ele>
        <time>2010-10-09T13:30:40Z</time>
      </trkpt>
      <trkpt lat="45.0016" lon="5.25936">
        <ele>426.01300048828</ele>
        <time>2010-10-09T13:30:47Z</time>
      </trkpt>
      <trkpt lat="45.00141" lon="5.2593">
        <ele>427.9460144043</ele>
        <time>2010-10-09T13:30:53Z</time>
      </trkpt>
      <trkpt lat="45.00126" lon="5.25921">
        <ele>429.97900390625</ele>
        <time>2010-10-09T13:30:59Z</time>
      </trkpt>
      <trkpt lat="45.00108" lon="5.25917">
        <ele>431.19900512695</ele>
        <time>2010-10-09T13:31:05Z</time>
      </trkpt>
      <trkpt lat="45.00093" lon="5.25921">
        <ele>432.2200012207</ele>
        <time>2010-10-09T13:31:10Z</time>
      </trkpt>
      <trkpt lat="45.00072" lon="5.25932">
        <ele>433.54598999023</ele>
        <time>2010-10-09T13:31:17Z</time>
      </trkpt>
      <trkpt lat="45.0006" lon="5.25937">
        <ele>434.78201293945</ele>
        <time>2010-10-09T13:31:22Z</time>
      </trkpt>
      <trkpt lat="45.00043" lon="5.25936">
        <ele>437.00601196289</ele>
        <time>2010-10-09T13:31:30Z</time>
      </trkpt>
      <trkpt lat="45.00037" lon="5.25932">
        <ele>437.54901123047</ele>
        <time>2010-10-09T13:31:35Z</time>
      </trkpt>
      <trkpt lat="45.00032" lon="5.25925">
        <ele>437.72399902344</ele>
        <time>2010-10-09T13:31:40Z</time>
      </trkpt>
      <trkpt lat="45.0003" lon="5.2593">
        <ele>437.60299682617</ele>
        <time>2010-10-09T13:31:45Z</time>
      </trkpt>
      <trkpt lat="45.00035" lon="5.25933">
        <ele>437.78399658203</ele>
        <time>2010-10-09T13:31:51Z</time>
      </trkpt>
      <trkpt lat="45.00036" lon="5.25932">
        <ele>437.71600341797</ele>
        <time>2010-10-09T13:31:54Z</time>
      </trkpt>
      <trkpt lat="45.00033" lon="5.25927">
        <ele>437.67401123047</ele>
        <time>2010-10-09T13:32:01Z</time>
      </trkpt>
      <trkpt lat="45.00032" lon="5.25926">
        <ele>437.71701049805</ele>
        <time>2010-10-09T13:33:14Z</time>
      </trkpt>
      <trkpt lat="45.00024" lon="5.25924">
        <ele>437.3869934082</ele>
        <time>2010-10-09T13:33:17Z</time>
      </trkpt>
      <trkpt lat="45" lon="5.25902">
        <ele>434.49398803711</ele>
        <time>2010-10-09T13:33:22Z</time>
      </trkpt>
      <trkpt lat="44.99994" lon="5.25896">
        <ele>434.13800048828</ele>
        <time>2010-10-09T13:33:23Z</time>
      </trkpt>
      <trkpt lat="44.99979" lon="5.25888">
        <ele>433.08099365234</ele>
        <time>2010-10-09T13:33:25Z</time>
      </trkpt>
      <trkpt lat="44.9996" lon="5.25887">
        <ele>430.65301513672</ele>
        <time>2010-10-09T13:33:27Z</time>
      </trkpt>
      <trkpt lat="44.99893" lon="5.25894">
        <ele>424.39001464844</ele>
        <time>2010-10-09T13:33:33Z</time>
      </trkpt>
      <trkpt lat="44.99832" lon="5.25905">
        <ele>419.74301147461</ele>
        <time>2010-10-09T13:33:38Z</time>
      </trkpt>
      <trkpt lat="44.99779" lon="5.25909">
        <ele>415.37799072266</ele>
        <time>2010-10-09T13:33:42Z</time>
      </trkpt>
      <trkpt lat="44.99765" lon="5.2591">
        <ele>414.01998901367</ele>
        <time>2010-10-09T13:33:43Z</time>
      </trkpt>
      <trkpt lat="44.99697" lon="5.25895">
        <ele>407.54598999023</ele>
        <time>2010-10-09T13:33:48Z</time>
      </trkpt>
      <trkpt lat="44.99638" lon="5.25908">
        <ele>404.26998901367</ele>
        <time>2010-10-09T13:33:52Z</time>
      </trkpt>
      <trkpt lat="44.99623" lon="5.25911">
        <ele>403.60998535156</ele>
        <time>2010-10-09T13:33:53Z</time>
      </trkpt>
      <trkpt lat="44.99573" lon="5.25906">
        <ele>401.63500976562</ele>
        <time>2010-10-09T13:33:57Z</time>
      </trkpt>
      <trkpt lat="44.99564" lon="5.25903">
        <ele>402.24798583984</ele>
        <time>2010-10-09T13:33:58Z</time>
      </trkpt>
      <trkpt lat="44.99556" lon="5.25883">
        <ele>405.64898681641</ele>
        <time>2010-10-09T13:34:01Z</time>
      </trkpt>
      <trkpt lat="44.99566" lon="5.25879">
        <ele>406.33801269531</ele>
        <time>2010-10-09T13:34:03Z</time>
      </trkpt>
      <trkpt lat="44.9958" lon="5.25868">
        <ele>407.07699584961</ele>
        <time>2010-10-09T13:34:06Z</time>
      </trkpt>
      <trkpt lat="44.99603" lon="5.25826">
        <ele>408.81100463867</ele>
        <time>2010-10-09T13:34:14Z</time>
      </trkpt>
      <trkpt lat="44.99606" lon="5.25821">
        <ele>409.09799194336</ele>
        <time>2010-10-09T13:34:15Z</time>
      </trkpt>
      <trkpt lat="44.99609" lon="5.2581">
        <ele>409.61099243164</ele>
        <time>2010-10-09T13:34:17Z</time>
      </trkpt>
      <trkpt lat="44.99609" lon="5.2578">
        <ele>410.99700927734</ele>
        <time>2010-10-09T13:34:23Z</time>
      </trkpt>
      <trkpt lat="44.99598" lon="5.25776">
        <ele>411.28601074219</ele>
        <time>2010-10-09T13:34:26Z</time>
      </trkpt>
      <trkpt lat="44.99596" lon="5.25779">
        <ele>411.42599487305</ele>
        <time>2010-10-09T13:34:27Z</time>
      </trkpt>
      <trkpt lat="44.9959" lon="5.25785">
        <ele>411.59298706055</ele>
        <time>2010-10-09T13:34:29Z</time>
      </trkpt>
      <trkpt lat="44.99582" lon="5.25807">
        <ele>412.18701171875</ele>
        <time>2010-10-09T13:34:33Z</time>
      </trkpt>
      <trkpt lat="44.99577" lon="5.25825">
        <ele>412.86599731445</ele>
        <time>2010-10-09T13:34:36Z</time>
      </trkpt>
      <trkpt lat="44.99558" lon="5.25851">
        <ele>414.8630065918</ele>
        <time>2010-10-09T13:34:42Z</time>
      </trkpt>
      <trkpt lat="44.99545" lon="5.25855">
        <ele>416.01699829102</ele>
        <time>2010-10-09T13:34:46Z</time>
      </trkpt>
      <trkpt lat="44.99535" lon="5.25854">
        <ele>416.62799072266</ele>
        <time>2010-10-09T13:34:49Z</time>
      </trkpt>
      <trkpt lat="44.99501" lon="5.25843">
        <ele>419.3030090332</ele>
        <time>2010-10-09T13:34:57Z</time>
      </trkpt>
      <trkpt lat="44.99479" lon="5.25829">
        <ele>420.62200927734</ele>
        <time>2010-10-09T13:35:03Z</time>
      </trkpt>
      <trkpt lat="44.99466" lon="5.25808">
        <ele>422.05599975586</ele>
        <time>2010-10-09T13:35:08Z</time>
      </trkpt>
      <trkpt lat="44.99453" lon="5.25766">
        <ele>424.00698852539</ele>
        <time>2010-10-09T13:35:16Z</time>
      </trkpt>
      <trkpt lat="44.99437" lon="5.25735">
        <ele>425.71798706055</ele>
        <time>2010-10-09T13:35:23Z</time>
      </trkpt>
      <trkpt lat="44.99412" lon="5.25714">
        <ele>426.89999389648</ele>
        <time>2010-10-09T13:35:30Z</time>
      </trkpt>
      <trkpt lat="44.99379" lon="5.257">
        <ele>428.93200683594</ele>
        <time>2010-10-09T13:35:38Z</time>
      </trkpt>
      <trkpt lat="44.99334" lon="5.25679">
        <ele>431.22399902344</ele>
        <time>2010-10-09T13:35:48Z</time>
      </trkpt>
      <trkpt lat="44.99297" lon="5.25671">
        <ele>433.55099487305</ele>
        <time>2010-10-09T13:35:56Z</time>
      </trkpt>
      <trkpt lat="44.99246" lon="5.25672">
        <ele>436.23901367188</ele>
        <time>2010-10-09T13:36:06Z</time>
      </trkpt>
      <trkpt lat="44.99205" lon="5.25665">
        <ele>438.30899047852</ele>
        <time>2010-10-09T13:36:14Z</time>
      </trkpt>
      <trkpt lat="44.99165" lon="5.25652">
        <ele>440.59298706055</ele>
        <time>2010-10-09T13:36:22Z</time>
      </trkpt>
      <trkpt lat="44.99131" lon="5.25646">
        <ele>443.03900146484</ele>
        <time>2010-10-09T13:36:29Z</time>
      </trkpt>
      <trkpt lat="44.99106" lon="5.25652">
        <ele>444.6960144043</ele>
        <time>2010-10-09T13:36:34Z</time>
      </trkpt>
      <trkpt lat="44.99081" lon="5.25647">
        <ele>446.18099975586</ele>
        <time>2010-10-09T13:36:39Z</time>
      </trkpt>
      <trkpt lat="44.99068" lon="5.25626">
        <ele>447.74099731445</ele>
        <time>2010-10-09T13:36:43Z</time>
      </trkpt>
      <trkpt lat="44.99065" lon="5.25619">
        <ele>447.93701171875</ele>
        <time>2010-10-09T13:36:44Z</time>
      </trkpt>
      <trkpt lat="44.9905" lon="5.25571">
        <ele>450.16299438477</ele>
        <time>2010-10-09T13:36:51Z</time>
      </trkpt>
      <trkpt lat="44.99041" lon="5.25551">
        <ele>451.03698730469</ele>
        <time>2010-10-09T13:36:54Z</time>
      </trkpt>
      <trkpt lat="44.99011" lon="5.25505">
        <ele>453.19000244141</ele>
        <time>2010-10-09T13:37:02Z</time>
      </trkpt>
      <trkpt lat="44.98972" lon="5.25463">
        <ele>456.0719909668</ele>
        <time>2010-10-09T13:37:11Z</time>
      </trkpt>
      <trkpt lat="44.9893" lon="5.25429">
        <ele>458.87600708008</ele>
        <time>2010-10-09T13:37:20Z</time>
      </trkpt>
      <trkpt lat="44.98893" lon="5.25405">
        <ele>461.09799194336</ele>
        <time>2010-10-09T13:37:28Z</time>
      </trkpt>
      <trkpt lat="44.98857" lon="5.25383">
        <ele>463.55700683594</ele>
        <time>2010-10-09T13:37:36Z</time>
      </trkpt>
      <trkpt lat="44.9881" lon="5.25364">
        <ele>466.22399902344</ele>
        <time>2010-10-09T13:37:46Z</time>
      </trkpt>
      <trkpt lat="44.98768" lon="5.25351">
        <ele>468.625</ele>
        <time>2010-10-09T13:37:55Z</time>
      </trkpt>
      <trkpt lat="44.98728" lon="5.25343">
        <ele>470.84899902344</ele>
        <time>2010-10-09T13:38:04Z</time>
      </trkpt>
      <trkpt lat="44.98691" lon="5.25342">
        <ele>473.08200073242</ele>
        <time>2010-10-09T13:38:12Z</time>
      </trkpt>
      <trkpt lat="44.98649" lon="5.25358">
        <ele>475.17599487305</ele>
        <time>2010-10-09T13:38:21Z</time>
      </trkpt>
      <trkpt lat="44.9864" lon="5.25363">
        <ele>475.70001220703</ele>
        <time>2010-10-09T13:38:23Z</time>
      </trkpt>
      <trkpt lat="44.98603" lon="5.2538">
        <ele>478.11700439453</ele>
        <time>2010-10-09T13:38:31Z</time>
      </trkpt>
      <trkpt lat="44.98598" lon="5.25381">
        <ele>478.40100097656</ele>
        <time>2010-10-09T13:38:32Z</time>
      </trkpt>
      <trkpt lat="44.98581" lon="5.25373">
        <ele>479.69900512695</ele>
        <time>2010-10-09T13:38:36Z</time>
      </trkpt>
      <trkpt lat="44.98578" lon="5.25354">
        <ele>480.47900390625</ele>
        <time>2010-10-09T13:38:39Z</time>
      </trkpt>
      <trkpt lat="44.98585" lon="5.25337">
        <ele>481.10299682617</ele>
        <time>2010-10-09T13:38:42Z</time>
      </trkpt>
      <trkpt lat="44.9861" lon="5.253">
        <ele>483.11700439453</ele>
        <time>2010-10-09T13:38:49Z</time>
      </trkpt>
      <trkpt lat="44.98621" lon="5.25285">
        <ele>483.92498779297</ele>
        <time>2010-10-09T13:38:52Z</time>
      </trkpt>
      <trkpt lat="44.98634" lon="5.25276">
        <ele>484.9580078125</ele>
        <time>2010-10-09T13:38:56Z</time>
      </trkpt>
      <trkpt lat="44.98635" lon="5.25275">
        <ele>485.20999145508</ele>
        <time>2010-10-09T13:38:59Z</time>
      </trkpt>
      <trkpt lat="44.98634" lon="5.25271">
        <ele>485.55999755859</ele>
        <time>2010-10-09T13:39:13Z</time>
      </trkpt>
      <trkpt lat="44.98633" lon="5.2527">
        <ele>485.39001464844</ele>
        <time>2010-10-09T13:39:15Z</time>
      </trkpt>
      <trkpt lat="44.98629" lon="5.25261">
        <ele>485.53601074219</ele>
        <time>2010-10-09T13:39:54Z</time>
      </trkpt>
      <trkpt lat="44.9863" lon="5.25261">
        <ele>485.57800292969</ele>
        <time>2010-10-09T13:39:55Z</time>
      </trkpt>
      <trkpt lat="44.9864" lon="5.25252">
        <ele>486.05099487305</ele>
        <time>2010-10-09T13:40:06Z</time>
      </trkpt>
      <trkpt lat="44.98647" lon="5.25245">
        <ele>486.17599487305</ele>
        <time>2010-10-09T13:40:08Z</time>
      </trkpt>
      <trkpt lat="44.98656" lon="5.25229">
        <ele>486.4469909668</ele>
        <time>2010-10-09T13:40:11Z</time>
      </trkpt>
      <trkpt lat="44.98663" lon="5.25218">
        <ele>487.03399658203</ele>
        <time>2010-10-09T13:40:13Z</time>
      </trkpt>
      <trkpt lat="44.9867" lon="5.25202">
        <ele>488.40100097656</ele>
        <time>2010-10-09T13:40:16Z</time>
      </trkpt>
      <trkpt lat="44.98677" lon="5.25187">
        <ele>489.14401245117</ele>
        <time>2010-10-09T13:40:19Z</time>
      </trkpt>
      <trkpt lat="44.98683" lon="5.2517">
        <ele>489.73999023438</ele>
        <time>2010-10-09T13:40:22Z</time>
      </trkpt>
      <trkpt lat="44.98698" lon="5.2513">
        <ele>491.55200195312</ele>
        <time>2010-10-09T13:40:29Z</time>
      </trkpt>
      <trkpt lat="44.98705" lon="5.25105">
        <ele>492.67098999023</ele>
        <time>2010-10-09T13:40:33Z</time>
      </trkpt>
      <trkpt lat="44.98705" lon="5.25065">
        <ele>494.24899291992</ele>
        <time>2010-10-09T13:40:39Z</time>
      </trkpt>
      <trkpt lat="44.98703" lon="5.25059">
        <ele>494.47601318359</ele>
        <time>2010-10-09T13:40:40Z</time>
      </trkpt>
      <trkpt lat="44.98687" lon="5.25007">
        <ele>496.84399414062</ele>
        <time>2010-10-09T13:40:49Z</time>
      </trkpt>
      <trkpt lat="44.98684" lon="5.25002">
        <ele>497.04998779297</ele>
        <time>2010-10-09T13:40:50Z</time>
      </trkpt>
      <trkpt lat="44.98663" lon="5.24982">
        <ele>498.62701416016</ele>
        <time>2010-10-09T13:40:56Z</time>
      </trkpt>
      <trkpt lat="44.9866" lon="5.24981">
        <ele>499.05700683594</ele>
        <time>2010-10-09T13:40:57Z</time>
      </trkpt>
      <trkpt lat="44.98628" lon="5.24986">
        <ele>500.69100952148</ele>
        <time>2010-10-09T13:41:04Z</time>
      </trkpt>
      <trkpt lat="44.98623" lon="5.24988">
        <ele>500.94198608398</ele>
        <time>2010-10-09T13:41:05Z</time>
      </trkpt>
      <trkpt lat="44.986" lon="5.25001">
        <ele>502.38299560547</ele>
        <time>2010-10-09T13:41:10Z</time>
      </trkpt>
      <trkpt lat="44.98553" lon="5.25007">
        <ele>504.78399658203</ele>
        <time>2010-10-09T13:41:19Z</time>
      </trkpt>
      <trkpt lat="44.98516" lon="5.25006">
        <ele>506.97299194336</ele>
        <time>2010-10-09T13:41:26Z</time>
      </trkpt>
      <trkpt lat="44.98475" lon="5.25004">
        <ele>509.44299316406</ele>
        <time>2010-10-09T13:41:33Z</time>
      </trkpt>
      <trkpt lat="44.98439" lon="5.25003">
        <ele>511.35800170898</ele>
        <time>2010-10-09T13:41:39Z</time>
      </trkpt>
      <trkpt lat="44.98394" lon="5.25005">
        <ele>513.87799072266</ele>
        <time>2010-10-09T13:41:47Z</time>
      </trkpt>
      <trkpt lat="44.98354" lon="5.2502">
        <ele>516.24499511719</ele>
        <time>2010-10-09T13:41:55Z</time>
      </trkpt>
      <trkpt lat="44.98345" lon="5.25023">
        <ele>516.86102294922</ele>
        <time>2010-10-09T13:41:57Z</time>
      </trkpt>
      <trkpt lat="44.98328" lon="5.25027">
        <ele>517.89398193359</ele>
        <time>2010-10-09T13:42:01Z</time>
      </trkpt>
      <trkpt lat="44.98296" lon="5.25027">
        <ele>519.74597167969</ele>
        <time>2010-10-09T13:42:09Z</time>
      </trkpt>
      <trkpt lat="44.98265" lon="5.25027">
        <ele>521.60900878906</ele>
        <time>2010-10-09T13:42:17Z</time>
      </trkpt>
      <trkpt lat="44.98233" lon="5.25021">
        <ele>523.77197265625</ele>
        <time>2010-10-09T13:42:25Z</time>
      </trkpt>
      <trkpt lat="44.98203" lon="5.25009">
        <ele>525.58099365234</ele>
        <time>2010-10-09T13:42:33Z</time>
      </trkpt>
      <trkpt lat="44.98188" lon="5.25005">
        <ele>526.4580078125</ele>
        <time>2010-10-09T13:42:37Z</time>
      </trkpt>
      <trkpt lat="44.98151" lon="5.24998">
        <ele>528.4990234375</ele>
        <time>2010-10-09T13:42:45Z</time>
      </trkpt>
      <trkpt lat="44.98121" lon="5.24992">
        <ele>530.02099609375</ele>
        <time>2010-10-09T13:42:51Z</time>
      </trkpt>
      <trkpt lat="44.98081" lon="5.24984">
        <ele>532.18298339844</ele>
        <time>2010-10-09T13:42:59Z</time>
      </trkpt>
      <trkpt lat="44.98043" lon="5.24976">
        <ele>534.36798095703</ele>
        <time>2010-10-09T13:43:07Z</time>
      </trkpt>
      <trkpt lat="44.98018" lon="5.24977">
        <ele>535.94000244141</ele>
        <time>2010-10-09T13:43:13Z</time>
      </trkpt>
      <trkpt lat="44.97992" lon="5.24982">
        <ele>537.26000976562</ele>
        <time>2010-10-09T13:43:19Z</time>
      </trkpt>
      <trkpt lat="44.97958" lon="5.24993">
        <ele>539.11901855469</ele>
        <time>2010-10-09T13:43:27Z</time>
      </trkpt>
      <trkpt lat="44.97949" lon="5.24995">
        <ele>539.80499267578</ele>
        <time>2010-10-09T13:43:29Z</time>
      </trkpt>
      <trkpt lat="44.97919" lon="5.25003">
        <ele>541.15002441406</ele>
        <time>2010-10-09T13:43:36Z</time>
      </trkpt>
      <trkpt lat="44.97886" lon="5.2501">
        <ele>543.14898681641</ele>
        <time>2010-10-09T13:43:44Z</time>
      </trkpt>
      <trkpt lat="44.97856" lon="5.25011">
        <ele>545.48901367188</ele>
        <time>2010-10-09T13:43:52Z</time>
      </trkpt>
      <trkpt lat="44.97849" lon="5.24996">
        <ele>546.76702880859</ele>
        <time>2010-10-09T13:43:56Z</time>
      </trkpt>
      <trkpt lat="44.97848" lon="5.24992">
        <ele>547.22302246094</ele>
        <time>2010-10-09T13:43:57Z</time>
      </trkpt>
      <trkpt lat="44.97859" lon="5.24976">
        <ele>548.08801269531</ele>
        <time>2010-10-09T13:44:02Z</time>
      </trkpt>
      <trkpt lat="44.97878" lon="5.2495">
        <ele>549.13897705078</ele>
        <time>2010-10-09T13:44:09Z</time>
      </trkpt>
      <trkpt lat="44.97887" lon="5.24939">
        <ele>549.62799072266</ele>
        <time>2010-10-09T13:44:12Z</time>
      </trkpt>
      <trkpt lat="44.97913" lon="5.24924">
        <ele>551.72302246094</ele>
        <time>2010-10-09T13:44:19Z</time>
      </trkpt>
      <trkpt lat="44.97949" lon="5.2491">
        <ele>553.62701416016</ele>
        <time>2010-10-09T13:44:28Z</time>
      </trkpt>
      <trkpt lat="44.97953" lon="5.24908">
        <ele>553.95397949219</ele>
        <time>2010-10-09T13:44:29Z</time>
      </trkpt>
      <trkpt lat="44.97975" lon="5.24882">
        <ele>555.416015625</ele>
        <time>2010-10-09T13:44:36Z</time>
      </trkpt>
      <trkpt lat="44.97995" lon="5.24856">
        <ele>557.06500244141</ele>
        <time>2010-10-09T13:44:43Z</time>
      </trkpt>
      <trkpt lat="44.98016" lon="5.24831">
        <ele>558.28100585938</ele>
        <time>2010-10-09T13:44:50Z</time>
      </trkpt>
      <trkpt lat="44.98042" lon="5.24801">
        <ele>560.35101318359</ele>
        <time>2010-10-09T13:44:59Z</time>
      </trkpt>
      <trkpt lat="44.98061" lon="5.24781">
        <ele>561.53900146484</ele>
        <time>2010-10-09T13:45:05Z</time>
      </trkpt>
      <trkpt lat="44.98087" lon="5.24752">
        <ele>563.72399902344</ele>
        <time>2010-10-09T13:45:14Z</time>
      </trkpt>
      <trkpt lat="44.98107" lon="5.24722">
        <ele>565.65100097656</ele>
        <time>2010-10-09T13:45:22Z</time>
      </trkpt>
      <trkpt lat="44.98112" lon="5.24703">
        <ele>566.69299316406</ele>
        <time>2010-10-09T13:45:26Z</time>
      </trkpt>
      <trkpt lat="44.98111" lon="5.24692">
        <ele>567.04400634766</ele>
        <time>2010-10-09T13:45:28Z</time>
      </trkpt>
      <trkpt lat="44.98096" lon="5.24685">
        <ele>567.84197998047</ele>
        <time>2010-10-09T13:45:32Z</time>
      </trkpt>
      <trkpt lat="44.98088" lon="5.24691">
        <ele>568.46197509766</ele>
        <time>2010-10-09T13:45:34Z</time>
      </trkpt>
      <trkpt lat="44.98055" lon="5.24718">
        <ele>570.69396972656</ele>
        <time>2010-10-09T13:45:42Z</time>
      </trkpt>
      <trkpt lat="44.98011" lon="5.24736">
        <ele>572.97698974609</ele>
        <time>2010-10-09T13:45:51Z</time>
      </trkpt>
      <trkpt lat="44.97993" lon="5.24744">
        <ele>574.15600585938</ele>
        <time>2010-10-09T13:45:55Z</time>
      </trkpt>
      <trkpt lat="44.97976" lon="5.24748">
        <ele>575.07702636719</ele>
        <time>2010-10-09T13:45:59Z</time>
      </trkpt>
      <trkpt lat="44.97941" lon="5.24747">
        <ele>577.06799316406</ele>
        <time>2010-10-09T13:46:07Z</time>
      </trkpt>
      <trkpt lat="44.97915" lon="5.24732">
        <ele>578.79302978516</ele>
        <time>2010-10-09T13:46:14Z</time>
      </trkpt>
      <trkpt lat="44.97897" lon="5.24708">
        <ele>580.61102294922</ele>
        <time>2010-10-09T13:46:21Z</time>
      </trkpt>
      <trkpt lat="44.9789" lon="5.24681">
        <ele>581.91101074219</ele>
        <time>2010-10-09T13:46:27Z</time>
      </trkpt>
      <trkpt lat="44.97889" lon="5.24655">
        <ele>583.60699462891</ele>
        <time>2010-10-09T13:46:33Z</time>
      </trkpt>
      <trkpt lat="44.97887" lon="5.2463">
        <ele>584.94396972656</ele>
        <time>2010-10-09T13:46:39Z</time>
      </trkpt>
      <trkpt lat="44.97875" lon="5.2461">
        <ele>586.13897705078</ele>
        <time>2010-10-09T13:46:45Z</time>
      </trkpt>
      <trkpt lat="44.97859" lon="5.24606">
        <ele>587.26501464844</ele>
        <time>2010-10-09T13:46:50Z</time>
      </trkpt>
      <trkpt lat="44.9784" lon="5.24609">
        <ele>588.37799072266</ele>
        <time>2010-10-09T13:46:56Z</time>
      </trkpt>
      <trkpt lat="44.9782" lon="5.24608">
        <ele>589.77801513672</ele>
        <time>2010-10-09T13:47:02Z</time>
      </trkpt>
      <trkpt lat="44.97798" lon="5.24592">
        <ele>590.98101806641</ele>
        <time>2010-10-09T13:47:09Z</time>
      </trkpt>
      <trkpt lat="44.97776" lon="5.24565">
        <ele>592.79797363281</ele>
        <time>2010-10-09T13:47:17Z</time>
      </trkpt>
      <trkpt lat="44.97755" lon="5.24534">
        <ele>594.72399902344</ele>
        <time>2010-10-09T13:47:25Z</time>
      </trkpt>
      <trkpt lat="44.97736" lon="5.24505">
        <ele>596.40002441406</ele>
        <time>2010-10-09T13:47:32Z</time>
      </trkpt>
      <trkpt lat="44.97709" lon="5.24463">
        <ele>598.89099121094</ele>
        <time>2010-10-09T13:47:42Z</time>
      </trkpt>
      <trkpt lat="44.97694" lon="5.24447">
        <ele>599.92102050781</ele>
        <time>2010-10-09T13:47:47Z</time>
      </trkpt>
      <trkpt lat="44.97665" lon="5.24434">
        <ele>601.6669921875</ele>
        <time>2010-10-09T13:47:55Z</time>
      </trkpt>
      <trkpt lat="44.97636" lon="5.24427">
        <ele>603.44598388672</ele>
        <time>2010-10-09T13:48:03Z</time>
      </trkpt>
      <trkpt lat="44.97611" lon="5.24418">
        <ele>605.15698242188</ele>
        <time>2010-10-09T13:48:10Z</time>
      </trkpt>
      <trkpt lat="44.97588" lon="5.24406">
        <ele>606.41802978516</ele>
        <time>2010-10-09T13:48:17Z</time>
      </trkpt>
      <trkpt lat="44.97566" lon="5.2438">
        <ele>608.34997558594</ele>
        <time>2010-10-09T13:48:25Z</time>
      </trkpt>
      <trkpt lat="44.97552" lon="5.2435">
        <ele>610.11297607422</ele>
        <time>2010-10-09T13:48:32Z</time>
      </trkpt>
      <trkpt lat="44.97536" lon="5.2433">
        <ele>611.51098632812</ele>
        <time>2010-10-09T13:48:38Z</time>
      </trkpt>
      <trkpt lat="44.9752" lon="5.24325">
        <ele>612.71502685547</ele>
        <time>2010-10-09T13:48:43Z</time>
      </trkpt>
      <trkpt lat="44.97496" lon="5.24338">
        <ele>614.34197998047</ele>
        <time>2010-10-09T13:48:50Z</time>
      </trkpt>
      <trkpt lat="44.97493" lon="5.24342">
        <ele>614.64398193359</ele>
        <time>2010-10-09T13:48:51Z</time>
      </trkpt>
      <trkpt lat="44.97483" lon="5.24368">
        <ele>615.51702880859</ele>
        <time>2010-10-09T13:48:56Z</time>
      </trkpt>
      <trkpt lat="44.97487" lon="5.24393">
        <ele>616.78601074219</ele>
        <time>2010-10-09T13:49:00Z</time>
      </trkpt>
      <trkpt lat="44.9749" lon="5.24399">
        <ele>617.06896972656</ele>
        <time>2010-10-09T13:49:01Z</time>
      </trkpt>
      <trkpt lat="44.97497" lon="5.24428">
        <ele>618.51000976562</ele>
        <time>2010-10-09T13:49:06Z</time>
      </trkpt>
      <trkpt lat="44.97488" lon="5.24431">
        <ele>619.18597412109</ele>
        <time>2010-10-09T13:49:08Z</time>
      </trkpt>
      <trkpt lat="44.9748" lon="5.24422">
        <ele>619.93902587891</ele>
        <time>2010-10-09T13:49:10Z</time>
      </trkpt>
      <trkpt lat="44.97453" lon="5.24394">
        <ele>621.64898681641</ele>
        <time>2010-10-09T13:49:16Z</time>
      </trkpt>
      <trkpt lat="44.97435" lon="5.24366">
        <ele>622.53802490234</ele>
        <time>2010-10-09T13:49:21Z</time>
      </trkpt>
      <trkpt lat="44.97433" lon="5.24359">
        <ele>622.63299560547</ele>
        <time>2010-10-09T13:49:22Z</time>
      </trkpt>
      <trkpt lat="44.97427" lon="5.24339">
        <ele>623.79498291016</ele>
        <time>2010-10-09T13:49:25Z</time>
      </trkpt>
      <trkpt lat="44.97422" lon="5.24319">
        <ele>624.32299804688</ele>
        <time>2010-10-09T13:49:28Z</time>
      </trkpt>
      <trkpt lat="44.97403" lon="5.24278">
        <ele>626.45397949219</ele>
        <time>2010-10-09T13:49:35Z</time>
      </trkpt>
      <trkpt lat="44.97376" lon="5.24233">
        <ele>629.34997558594</ele>
        <time>2010-10-09T13:49:44Z</time>
      </trkpt>
      <trkpt lat="44.97349" lon="5.24187">
        <ele>631.23297119141</ele>
        <time>2010-10-09T13:49:53Z</time>
      </trkpt>
      <trkpt lat="44.97339" lon="5.24171">
        <ele>631.916015625</ele>
        <time>2010-10-09T13:49:56Z</time>
      </trkpt>
      <trkpt lat="44.97311" lon="5.24136">
        <ele>633.98498535156</ele>
        <time>2010-10-09T13:50:04Z</time>
      </trkpt>
      <trkpt lat="44.97298" lon="5.24121">
        <ele>634.92602539062</ele>
        <time>2010-10-09T13:50:08Z</time>
      </trkpt>
      <trkpt lat="44.97277" lon="5.24094">
        <ele>636.59997558594</ele>
        <time>2010-10-09T13:50:15Z</time>
      </trkpt>
      <trkpt lat="44.9726" lon="5.24067">
        <ele>637.98199462891</ele>
        <time>2010-10-09T13:50:21Z</time>
      </trkpt>
      <trkpt lat="44.97238" lon="5.2402">
        <ele>640.48199462891</ele>
        <time>2010-10-09T13:50:30Z</time>
      </trkpt>
      <trkpt lat="44.97234" lon="5.24009">
        <ele>640.92901611328</ele>
        <time>2010-10-09T13:50:32Z</time>
      </trkpt>
      <trkpt lat="44.97226" lon="5.23964">
        <ele>642.6259765625</ele>
        <time>2010-10-09T13:50:39Z</time>
      </trkpt>
      <trkpt lat="44.97221" lon="5.23915">
        <ele>644.55798339844</ele>
        <time>2010-10-09T13:50:46Z</time>
      </trkpt>
      <trkpt lat="44.97216" lon="5.2387">
        <ele>646.78802490234</ele>
        <time>2010-10-09T13:50:53Z</time>
      </trkpt>
      <trkpt lat="44.97213" lon="5.23845">
        <ele>648.02001953125</ele>
        <time>2010-10-09T13:50:57Z</time>
      </trkpt>
      <trkpt lat="44.97201" lon="5.238">
        <ele>649.79302978516</ele>
        <time>2010-10-09T13:51:05Z</time>
      </trkpt>
      <trkpt lat="44.97199" lon="5.23794">
        <ele>649.99200439453</ele>
        <time>2010-10-09T13:51:06Z</time>
      </trkpt>
      <trkpt lat="44.9719" lon="5.23772">
        <ele>650.57598876953</ele>
        <time>2010-10-09T13:51:10Z</time>
      </trkpt>
      <trkpt lat="44.97187" lon="5.23736">
        <ele>651.18298339844</ele>
        <time>2010-10-09T13:51:15Z</time>
      </trkpt>
      <trkpt lat="44.97188" lon="5.23681">
        <ele>651.09301757812</ele>
        <time>2010-10-09T13:51:22Z</time>
      </trkpt>
      <trkpt lat="44.97182" lon="5.23652">
        <ele>651.06799316406</ele>
        <time>2010-10-09T13:51:26Z</time>
      </trkpt>
      <trkpt lat="44.97179" lon="5.2363">
        <ele>651.40502929688</ele>
        <time>2010-10-09T13:51:30Z</time>
      </trkpt>
      <trkpt lat="44.97179" lon="5.23625">
        <ele>651.61499023438</ele>
        <time>2010-10-09T13:51:34Z</time>
      </trkpt>
      <trkpt lat="44.97171" lon="5.23628">
        <ele>653.07897949219</ele>
        <time>2010-10-09T13:55:33Z</time>
      </trkpt>
      <trkpt lat="44.9717" lon="5.23623">
        <ele>653.08502197266</ele>
        <time>2010-10-09T13:55:38Z</time>
      </trkpt>
      <trkpt lat="44.97176" lon="5.23614">
        <ele>654.08099365234</ele>
        <time>2010-10-09T13:59:28Z</time>
      </trkpt>
      <trkpt lat="44.97173" lon="5.23602">
        <ele>653.59802246094</ele>
        <time>2010-10-09T13:59:31Z</time>
      </trkpt>
      <trkpt lat="44.97161" lon="5.23563">
        <ele>651.06701660156</ele>
        <time>2010-10-09T13:59:37Z</time>
      </trkpt>
      <trkpt lat="44.97149" lon="5.23528">
        <ele>649.50598144531</ele>
        <time>2010-10-09T13:59:41Z</time>
      </trkpt>
      <trkpt lat="44.97128" lon="5.23472">
        <ele>646.27197265625</ele>
        <time>2010-10-09T13:59:46Z</time>
      </trkpt>
      <trkpt lat="44.97102" lon="5.23417">
        <ele>642.55999755859</ele>
        <time>2010-10-09T13:59:51Z</time>
      </trkpt>
      <trkpt lat="44.97075" lon="5.23346">
        <ele>638.50598144531</ele>
        <time>2010-10-09T13:59:57Z</time>
      </trkpt>
      <trkpt lat="44.9707" lon="5.23334">
        <ele>637.72802734375</ele>
        <time>2010-10-09T13:59:58Z</time>
      </trkpt>
      <trkpt lat="44.9706" lon="5.23316">
        <ele>636.52099609375</ele>
        <time>2010-10-09T14:00:00Z</time>
      </trkpt>
      <trkpt lat="44.97038" lon="5.23249">
        <ele>632.09600830078</ele>
        <time>2010-10-09T14:00:06Z</time>
      </trkpt>
      <trkpt lat="44.97035" lon="5.23241">
        <ele>631.13598632812</ele>
        <time>2010-10-09T14:00:07Z</time>
      </trkpt>
      <trkpt lat="44.97028" lon="5.2323">
        <ele>628.875</ele>
        <time>2010-10-09T14:00:09Z</time>
      </trkpt>
      <trkpt lat="44.97015" lon="5.23236">
        <ele>628.14202880859</ele>
        <time>2010-10-09T14:00:11Z</time>
      </trkpt>
      <trkpt lat="44.9698" lon="5.23266">
        <ele>626.88397216797</ele>
        <time>2010-10-09T14:00:16Z</time>
      </trkpt>
      <trkpt lat="44.96962" lon="5.23283">
        <ele>626.44097900391</ele>
        <time>2010-10-09T14:00:19Z</time>
      </trkpt>
      <trkpt lat="44.96947" lon="5.23314">
        <ele>627.43798828125</ele>
        <time>2010-10-09T14:00:23Z</time>
      </trkpt>
      <trkpt lat="44.96945" lon="5.2333">
        <ele>628.44500732422</ele>
        <time>2010-10-09T14:00:25Z</time>
      </trkpt>
      <trkpt lat="44.96963" lon="5.23347">
        <ele>631.18200683594</ele>
        <time>2010-10-09T14:00:29Z</time>
      </trkpt>
      <trkpt lat="44.96973" lon="5.23368">
        <ele>633.25701904297</ele>
        <time>2010-10-09T14:00:34Z</time>
      </trkpt>
      <trkpt lat="44.96979" lon="5.23398">
        <ele>635.26300048828</ele>
        <time>2010-10-09T14:00:40Z</time>
      </trkpt>
      <trkpt lat="44.96985" lon="5.23423">
        <ele>637.39001464844</ele>
        <time>2010-10-09T14:00:46Z</time>
      </trkpt>
      <trkpt lat="44.96986" lon="5.23439">
        <ele>638.71899414062</ele>
        <time>2010-10-09T14:00:50Z</time>
      </trkpt>
      <trkpt lat="44.96994" lon="5.23462">
        <ele>640.26300048828</ele>
        <time>2010-10-09T14:00:56Z</time>
      </trkpt>
      <trkpt lat="44.96999" lon="5.23478">
        <ele>641.56298828125</ele>
        <time>2010-10-09T14:01:01Z</time>
      </trkpt>
      <trkpt lat="44.96997" lon="5.23496">
        <ele>642.71997070312</ele>
        <time>2010-10-09T14:01:06Z</time>
      </trkpt>
      <trkpt lat="44.96995" lon="5.23516">
        <ele>644.32397460938</ele>
        <time>2010-10-09T14:01:12Z</time>
      </trkpt>
      <trkpt lat="44.96995" lon="5.23535">
        <ele>645.44097900391</ele>
        <time>2010-10-09T14:01:18Z</time>
      </trkpt>
      <trkpt lat="44.96997" lon="5.2355">
        <ele>646.48999023438</ele>
        <time>2010-10-09T14:01:23Z</time>
      </trkpt>
      <trkpt lat="44.97004" lon="5.23568">
        <ele>647.68402099609</ele>
        <time>2010-10-09T14:01:29Z</time>
      </trkpt>
      <trkpt lat="44.97004" lon="5.23582">
        <ele>649.05798339844</ele>
        <time>2010-10-09T14:01:34Z</time>
      </trkpt>
      <trkpt lat="44.97002" lon="5.23599">
        <ele>650.69500732422</ele>
        <time>2010-10-09T14:01:40Z</time>
      </trkpt>
      <trkpt lat="44.96999" lon="5.23589">
        <ele>651.96899414062</ele>
        <time>2010-10-09T14:01:45Z</time>
      </trkpt>
      <trkpt lat="44.96998" lon="5.23586">
        <ele>652.13098144531</ele>
        <time>2010-10-09T14:01:46Z</time>
      </trkpt>
      <trkpt lat="44.96991" lon="5.23569">
        <ele>653.82702636719</ele>
        <time>2010-10-09T14:01:52Z</time>
      </trkpt>
      <trkpt lat="44.96978" lon="5.23549">
        <ele>655.78997802734</ele>
        <time>2010-10-09T14:01:59Z</time>
      </trkpt>
      <trkpt lat="44.9696" lon="5.23526">
        <ele>657.46398925781</ele>
        <time>2010-10-09T14:02:06Z</time>
      </trkpt>
      <trkpt lat="44.96952" lon="5.23507">
        <ele>658.94598388672</ele>
        <time>2010-10-09T14:02:11Z</time>
      </trkpt>
      <trkpt lat="44.96949" lon="5.23499">
        <ele>660.4990234375</ele>
        <time>2010-10-09T14:02:14Z</time>
      </trkpt>
      <trkpt lat="44.96941" lon="5.23484">
        <ele>662.08697509766</ele>
        <time>2010-10-09T14:02:18Z</time>
      </trkpt>
      <trkpt lat="44.96931" lon="5.23464">
        <ele>664.29302978516</ele>
        <time>2010-10-09T14:02:24Z</time>
      </trkpt>
      <trkpt lat="44.9692" lon="5.23445">
        <ele>665.88397216797</ele>
        <time>2010-10-09T14:02:29Z</time>
      </trkpt>
      <trkpt lat="44.96912" lon="5.2343">
        <ele>667.40899658203</ele>
        <time>2010-10-09T14:02:34Z</time>
      </trkpt>
      <trkpt lat="44.96904" lon="5.23411">
        <ele>669.40997314453</ele>
        <time>2010-10-09T14:02:40Z</time>
      </trkpt>
      <trkpt lat="44.96897" lon="5.234">
        <ele>670.71997070312</ele>
        <time>2010-10-09T14:02:44Z</time>
      </trkpt>
      <trkpt lat="44.96889" lon="5.23387">
        <ele>672.40698242188</ele>
        <time>2010-10-09T14:02:50Z</time>
      </trkpt>
      <trkpt lat="44.96885" lon="5.23369">
        <ele>674.10198974609</ele>
        <time>2010-10-09T14:02:57Z</time>
      </trkpt>
      <trkpt lat="44.96881" lon="5.23348">
        <ele>675.81298828125</ele>
        <time>2010-10-09T14:03:02Z</time>
      </trkpt>
      <trkpt lat="44.96876" lon="5.23324">
        <ele>677.00201416016</ele>
        <time>2010-10-09T14:03:08Z</time>
      </trkpt>
      <trkpt lat="44.96889" lon="5.23297">
        <ele>678.59698486328</ele>
        <time>2010-10-09T14:03:14Z</time>
      </trkpt>
      <trkpt lat="44.96889" lon="5.2328">
        <ele>679.791015625</ele>
        <time>2010-10-09T14:03:18Z</time>
      </trkpt>
      <trkpt lat="44.96886" lon="5.23282">
        <ele>681.25201416016</ele>
        <time>2010-10-09T14:03:22Z</time>
      </trkpt>
      <trkpt lat="44.9689" lon="5.23288">
        <ele>681.48999023438</ele>
        <time>2010-10-09T14:03:24Z</time>
      </trkpt>
      <trkpt lat="44.96913" lon="5.23326">
        <ele>682.90802001953</ele>
        <time>2010-10-09T14:03:32Z</time>
      </trkpt>
      <trkpt lat="44.96915" lon="5.23338">
        <ele>683.68798828125</ele>
        <time>2010-10-09T14:03:34Z</time>
      </trkpt>
      <trkpt lat="44.96919" lon="5.23373">
        <ele>685.77502441406</ele>
        <time>2010-10-09T14:03:40Z</time>
      </trkpt>
      <trkpt lat="44.96923" lon="5.23385">
        <ele>686.51599121094</ele>
        <time>2010-10-09T14:03:42Z</time>
      </trkpt>
      <trkpt lat="44.96926" lon="5.23408">
        <ele>688.34100341797</ele>
        <time>2010-10-09T14:03:46Z</time>
      </trkpt>
      <trkpt lat="44.96931" lon="5.23432">
        <ele>689.59197998047</ele>
        <time>2010-10-09T14:03:50Z</time>
      </trkpt>
      <trkpt lat="44.96936" lon="5.23448">
        <ele>690.26300048828</ele>
        <time>2010-10-09T14:03:53Z</time>
      </trkpt>
      <trkpt lat="44.96939" lon="5.23466">
        <ele>691.11999511719</ele>
        <time>2010-10-09T14:03:56Z</time>
      </trkpt>
      <trkpt lat="44.96924" lon="5.2349">
        <ele>692.166015625</ele>
        <time>2010-10-09T14:03:59Z</time>
      </trkpt>
      <trkpt lat="44.96926" lon="5.23534">
        <ele>694.65100097656</ele>
        <time>2010-10-09T14:04:06Z</time>
      </trkpt>
      <trkpt lat="44.96932" lon="5.23565">
        <ele>696.36499023438</ele>
        <time>2010-10-09T14:04:12Z</time>
      </trkpt>
      <trkpt lat="44.96932" lon="5.23595">
        <ele>697.71600341797</ele>
        <time>2010-10-09T14:04:18Z</time>
      </trkpt>
      <trkpt lat="44.96927" lon="5.23623">
        <ele>698.83001708984</ele>
        <time>2010-10-09T14:04:24Z</time>
      </trkpt>
      <trkpt lat="44.96916" lon="5.23649">
        <ele>700.65100097656</ele>
        <time>2010-10-09T14:04:30Z</time>
      </trkpt>
      <trkpt lat="44.96912" lon="5.23672">
        <ele>702.18597412109</ele>
        <time>2010-10-09T14:04:36Z</time>
      </trkpt>
      <trkpt lat="44.96908" lon="5.237">
        <ele>703.81298828125</ele>
        <time>2010-10-09T14:04:42Z</time>
      </trkpt>
      <trkpt lat="44.96908" lon="5.23727">
        <ele>705.55603027344</ele>
        <time>2010-10-09T14:04:48Z</time>
      </trkpt>
      <trkpt lat="44.96906" lon="5.23752">
        <ele>706.99499511719</ele>
        <time>2010-10-09T14:04:53Z</time>
      </trkpt>
      <trkpt lat="44.96904" lon="5.23788">
        <ele>709.34002685547</ele>
        <time>2010-10-09T14:05:01Z</time>
      </trkpt>
      <trkpt lat="44.969" lon="5.23818">
        <ele>711.31201171875</ele>
        <time>2010-10-09T14:05:08Z</time>
      </trkpt>
      <trkpt lat="44.96889" lon="5.23846">
        <ele>713.083984375</ele>
        <time>2010-10-09T14:05:15Z</time>
      </trkpt>
      <trkpt lat="44.96876" lon="5.23885">
        <ele>715.37097167969</ele>
        <time>2010-10-09T14:05:24Z</time>
      </trkpt>
      <trkpt lat="44.96865" lon="5.23918">
        <ele>717.59301757812</ele>
        <time>2010-10-09T14:05:32Z</time>
      </trkpt>
      <trkpt lat="44.96853" lon="5.23947">
        <ele>719.63500976562</ele>
        <time>2010-10-09T14:05:40Z</time>
      </trkpt>
      <trkpt lat="44.96841" lon="5.23969">
        <ele>720.9169921875</ele>
        <time>2010-10-09T14:05:46Z</time>
      </trkpt>
      <trkpt lat="44.96831" lon="5.23964">
        <ele>722.1240234375</ele>
        <time>2010-10-09T14:05:50Z</time>
      </trkpt>
      <trkpt lat="44.96831" lon="5.23959">
        <ele>722.44201660156</ele>
        <time>2010-10-09T14:05:51Z</time>
      </trkpt>
      <trkpt lat="44.96835" lon="5.23922">
        <ele>724.94500732422</ele>
        <time>2010-10-09T14:05:58Z</time>
      </trkpt>
      <trkpt lat="44.96833" lon="5.2389">
        <ele>726.82800292969</ele>
        <time>2010-10-09T14:06:04Z</time>
      </trkpt>
      <trkpt lat="44.96827" lon="5.23857">
        <ele>728.89697265625</ele>
        <time>2010-10-09T14:06:11Z</time>
      </trkpt>
      <trkpt lat="44.96826" lon="5.23817">
        <ele>730.99798583984</ele>
        <time>2010-10-09T14:06:19Z</time>
      </trkpt>
      <trkpt lat="44.96828" lon="5.23789">
        <ele>732.32702636719</ele>
        <time>2010-10-09T14:06:25Z</time>
      </trkpt>
      <trkpt lat="44.96824" lon="5.23768">
        <ele>733.7490234375</ele>
        <time>2010-10-09T14:06:30Z</time>
      </trkpt>
      <trkpt lat="44.96823" lon="5.23761">
        <ele>734.2509765625</ele>
        <time>2010-10-09T14:06:32Z</time>
      </trkpt>
      <trkpt lat="44.96814" lon="5.2375">
        <ele>735.68597412109</ele>
        <time>2010-10-09T14:06:37Z</time>
      </trkpt>
      <trkpt lat="44.96809" lon="5.23759">
        <ele>736.74499511719</ele>
        <time>2010-10-09T14:06:41Z</time>
      </trkpt>
      <trkpt lat="44.96796" lon="5.23781">
        <ele>738.11999511719</ele>
        <time>2010-10-09T14:06:48Z</time>
      </trkpt>
      <trkpt lat="44.96788" lon="5.23795">
        <ele>739.68701171875</ele>
        <time>2010-10-09T14:06:53Z</time>
      </trkpt>
      <trkpt lat="44.96779" lon="5.23808">
        <ele>740.78601074219</ele>
        <time>2010-10-09T14:06:58Z</time>
      </trkpt>
      <trkpt lat="44.96766" lon="5.23833">
        <ele>742.07202148438</ele>
        <time>2010-10-09T14:07:04Z</time>
      </trkpt>
      <trkpt lat="44.96759" lon="5.23859">
        <ele>744.01098632812</ele>
        <time>2010-10-09T14:07:10Z</time>
      </trkpt>
      <trkpt lat="44.96756" lon="5.2388">
        <ele>745.96801757812</ele>
        <time>2010-10-09T14:07:15Z</time>
      </trkpt>
      <trkpt lat="44.96756" lon="5.23903">
        <ele>747.208984375</ele>
        <time>2010-10-09T14:07:20Z</time>
      </trkpt>
      <trkpt lat="44.96752" lon="5.23929">
        <ele>749.82897949219</ele>
        <time>2010-10-09T14:07:26Z</time>
      </trkpt>
      <trkpt lat="44.9675" lon="5.23937">
        <ele>750.61602783203</ele>
        <time>2010-10-09T14:07:28Z</time>
      </trkpt>
      <trkpt lat="44.96745" lon="5.23966">
        <ele>753.77801513672</ele>
        <time>2010-10-09T14:07:36Z</time>
      </trkpt>
      <trkpt lat="44.96742" lon="5.23983">
        <ele>755.59399414062</ele>
        <time>2010-10-09T14:07:42Z</time>
      </trkpt>
      <trkpt lat="44.96738" lon="5.24002">
        <ele>757.47698974609</ele>
        <time>2010-10-09T14:07:49Z</time>
      </trkpt>
      <trkpt lat="44.96732" lon="5.24028">
        <ele>759.92797851562</ele>
        <time>2010-10-09T14:07:58Z</time>
      </trkpt>
      <trkpt lat="44.96731" lon="5.24044">
        <ele>761.74798583984</ele>
        <time>2010-10-09T14:08:04Z</time>
      </trkpt>
      <trkpt lat="44.96728" lon="5.24058">
        <ele>763.15002441406</ele>
        <time>2010-10-09T14:08:09Z</time>
      </trkpt>
      <trkpt lat="44.96728" lon="5.24061">
        <ele>763.42999267578</ele>
        <time>2010-10-09T14:08:10Z</time>
      </trkpt>
      <trkpt lat="44.96724" lon="5.24073">
        <ele>764.44500732422</ele>
        <time>2010-10-09T14:08:14Z</time>
      </trkpt>
      <trkpt lat="44.96722" lon="5.24085">
        <ele>765.58099365234</ele>
        <time>2010-10-09T14:08:18Z</time>
      </trkpt>
      <trkpt lat="44.96714" lon="5.24089">
        <ele>767.19799804688</ele>
        <time>2010-10-09T14:08:23Z</time>
      </trkpt>
      <trkpt lat="44.96713" lon="5.24087">
        <ele>767.41101074219</ele>
        <time>2010-10-09T14:08:24Z</time>
      </trkpt>
      <trkpt lat="44.96708" lon="5.24068">
        <ele>768.76000976562</ele>
        <time>2010-10-09T14:08:30Z</time>
      </trkpt>
      <trkpt lat="44.96706" lon="5.24049">
        <ele>769.71899414062</ele>
        <time>2010-10-09T14:08:35Z</time>
      </trkpt>
      <trkpt lat="44.96698" lon="5.24018">
        <ele>772.16802978516</ele>
        <time>2010-10-09T14:08:42Z</time>
      </trkpt>
      <trkpt lat="44.96691" lon="5.23986">
        <ele>774.64398193359</ele>
        <time>2010-10-09T14:08:50Z</time>
      </trkpt>
      <trkpt lat="44.96684" lon="5.2396">
        <ele>776.84301757812</ele>
        <time>2010-10-09T14:08:58Z</time>
      </trkpt>
      <trkpt lat="44.96679" lon="5.23944">
        <ele>778.51599121094</ele>
        <time>2010-10-09T14:09:04Z</time>
      </trkpt>
      <trkpt lat="44.96671" lon="5.23918">
        <ele>780.58099365234</ele>
        <time>2010-10-09T14:09:13Z</time>
      </trkpt>
      <trkpt lat="44.96667" lon="5.23904">
        <ele>782.01000976562</ele>
        <time>2010-10-09T14:09:19Z</time>
      </trkpt>
      <trkpt lat="44.96663" lon="5.23885">
        <ele>783.73101806641</ele>
        <time>2010-10-09T14:09:26Z</time>
      </trkpt>
      <trkpt lat="44.96661" lon="5.23871">
        <ele>784.86102294922</ele>
        <time>2010-10-09T14:09:31Z</time>
      </trkpt>
      <trkpt lat="44.96659" lon="5.23856">
        <ele>786.36297607422</ele>
        <time>2010-10-09T14:09:37Z</time>
      </trkpt>
      <trkpt lat="44.96657" lon="5.23842">
        <ele>787.60797119141</ele>
        <time>2010-10-09T14:09:42Z</time>
      </trkpt>
      <trkpt lat="44.9665" lon="5.23845">
        <ele>788.99298095703</ele>
        <time>2010-10-09T14:09:47Z</time>
      </trkpt>
      <trkpt lat="44.96649" lon="5.23865">
        <ele>790.31896972656</ele>
        <time>2010-10-09T14:09:52Z</time>
      </trkpt>
      <trkpt lat="44.96646" lon="5.23894">
        <ele>791.87298583984</ele>
        <time>2010-10-09T14:09:58Z</time>
      </trkpt>
      <trkpt lat="44.96648" lon="5.2394">
        <ele>794.55102539062</ele>
        <time>2010-10-09T14:10:06Z</time>
      </trkpt>
      <trkpt lat="44.96647" lon="5.23973">
        <ele>797.27801513672</ele>
        <time>2010-10-09T14:10:13Z</time>
      </trkpt>
      <trkpt lat="44.96643" lon="5.23994">
        <ele>799.68902587891</ele>
        <time>2010-10-09T14:10:20Z</time>
      </trkpt>
      <trkpt lat="44.96632" lon="5.24006">
        <ele>801.63098144531</ele>
        <time>2010-10-09T14:10:26Z</time>
      </trkpt>
      <trkpt lat="44.96629" lon="5.24006">
        <ele>801.82598876953</ele>
        <time>2010-10-09T14:10:27Z</time>
      </trkpt>
      <trkpt lat="44.96617" lon="5.23988">
        <ele>802.41198730469</ele>
        <time>2010-10-09T14:10:31Z</time>
      </trkpt>
      <trkpt lat="44.96604" lon="5.23968">
        <ele>803.41998291016</ele>
        <time>2010-10-09T14:10:36Z</time>
      </trkpt>
      <trkpt lat="44.96587" lon="5.23947">
        <ele>804.57098388672</ele>
        <time>2010-10-09T14:10:43Z</time>
      </trkpt>
      <trkpt lat="44.9657" lon="5.2393">
        <ele>805.31402587891</ele>
        <time>2010-10-09T14:10:50Z</time>
      </trkpt>
      <trkpt lat="44.96546" lon="5.23909">
        <ele>806.46697998047</ele>
        <time>2010-10-09T14:10:59Z</time>
      </trkpt>
      <trkpt lat="44.96518" lon="5.23885">
        <ele>807.37799072266</ele>
        <time>2010-10-09T14:11:08Z</time>
      </trkpt>
      <trkpt lat="44.96486" lon="5.23859">
        <ele>808.78601074219</ele>
        <time>2010-10-09T14:11:18Z</time>
      </trkpt>
      <trkpt lat="44.96471" lon="5.23849">
        <ele>809.26599121094</ele>
        <time>2010-10-09T14:11:22Z</time>
      </trkpt>
      <trkpt lat="44.96437" lon="5.23834">
        <ele>809.85998535156</ele>
        <time>2010-10-09T14:11:30Z</time>
      </trkpt>
      <trkpt lat="44.9641" lon="5.23822">
        <ele>810.78900146484</ele>
        <time>2010-10-09T14:11:37Z</time>
      </trkpt>
      <trkpt lat="44.96367" lon="5.23805">
        <ele>811.77801513672</ele>
        <time>2010-10-09T14:11:47Z</time>
      </trkpt>
      <trkpt lat="44.96321" lon="5.23784">
        <ele>813.81701660156</ele>
        <time>2010-10-09T14:11:58Z</time>
      </trkpt>
      <trkpt lat="44.96286" lon="5.23772">
        <ele>815.18499755859</ele>
        <time>2010-10-09T14:12:06Z</time>
      </trkpt>
      <trkpt lat="44.96256" lon="5.2376">
        <ele>816.37200927734</ele>
        <time>2010-10-09T14:12:13Z</time>
      </trkpt>
      <trkpt lat="44.96234" lon="5.23751">
        <ele>817.23199462891</ele>
        <time>2010-10-09T14:12:19Z</time>
      </trkpt>
      <trkpt lat="44.96218" lon="5.23745">
        <ele>817.79699707031</ele>
        <time>2010-10-09T14:12:25Z</time>
      </trkpt>
      <trkpt lat="44.96199" lon="5.23737">
        <ele>818.40399169922</ele>
        <time>2010-10-09T14:12:32Z</time>
      </trkpt>
      <trkpt lat="44.96175" lon="5.23725">
        <ele>819.10900878906</ele>
        <time>2010-10-09T14:12:41Z</time>
      </trkpt>
      <trkpt lat="44.96155" lon="5.23712">
        <ele>819.81597900391</ele>
        <time>2010-10-09T14:12:49Z</time>
      </trkpt>
      <trkpt lat="44.96132" lon="5.23694">
        <ele>820.48901367188</ele>
        <time>2010-10-09T14:12:59Z</time>
      </trkpt>
      <trkpt lat="44.96114" lon="5.23686">
        <ele>821.44201660156</ele>
        <time>2010-10-09T14:13:06Z</time>
      </trkpt>
      <trkpt lat="44.96095" lon="5.23679">
        <ele>821.85900878906</ele>
        <time>2010-10-09T14:13:13Z</time>
      </trkpt>
      <trkpt lat="44.96079" lon="5.23673">
        <ele>822.55902099609</ele>
        <time>2010-10-09T14:13:19Z</time>
      </trkpt>
      <trkpt lat="44.96062" lon="5.2367">
        <ele>823.03002929688</ele>
        <time>2010-10-09T14:13:25Z</time>
      </trkpt>
      <trkpt lat="44.96043" lon="5.23665">
        <ele>823.57501220703</ele>
        <time>2010-10-09T14:13:31Z</time>
      </trkpt>
      <trkpt lat="44.96025" lon="5.23656">
        <ele>824.36499023438</ele>
        <time>2010-10-09T14:13:37Z</time>
      </trkpt>
      <trkpt lat="44.96001" lon="5.23643">
        <ele>825.15002441406</ele>
        <time>2010-10-09T14:13:44Z</time>
      </trkpt>
      <trkpt lat="44.95976" lon="5.23627">
        <ele>825.88098144531</ele>
        <time>2010-10-09T14:13:51Z</time>
      </trkpt>
      <trkpt lat="44.95953" lon="5.23608">
        <ele>826.73400878906</ele>
        <time>2010-10-09T14:13:58Z</time>
      </trkpt>
      <trkpt lat="44.95931" lon="5.23587">
        <ele>827.69799804688</ele>
        <time>2010-10-09T14:14:05Z</time>
      </trkpt>
      <trkpt lat="44.95905" lon="5.2356">
        <ele>828.90802001953</ele>
        <time>2010-10-09T14:14:14Z</time>
      </trkpt>
      <trkpt lat="44.95883" lon="5.23536">
        <ele>829.66497802734</ele>
        <time>2010-10-09T14:14:21Z</time>
      </trkpt>
      <trkpt lat="44.95857" lon="5.23503">
        <ele>830.50598144531</ele>
        <time>2010-10-09T14:14:30Z</time>
      </trkpt>
      <trkpt lat="44.95836" lon="5.2347">
        <ele>831.30700683594</ele>
        <time>2010-10-09T14:14:38Z</time>
      </trkpt>
      <trkpt lat="44.95821" lon="5.23441">
        <ele>832.01702880859</ele>
        <time>2010-10-09T14:14:45Z</time>
      </trkpt>
      <trkpt lat="44.9581" lon="5.23406">
        <ele>832.77899169922</ele>
        <time>2010-10-09T14:14:52Z</time>
      </trkpt>
      <trkpt lat="44.9581" lon="5.23381">
        <ele>833.69897460938</ele>
        <time>2010-10-09T14:14:57Z</time>
      </trkpt>
      <trkpt lat="44.95816" lon="5.23351">
        <ele>834.10101318359</ele>
        <time>2010-10-09T14:15:03Z</time>
      </trkpt>
      <trkpt lat="44.95816" lon="5.23325">
        <ele>834.83898925781</ele>
        <time>2010-10-09T14:15:08Z</time>
      </trkpt>
      <trkpt lat="44.95803" lon="5.23316">
        <ele>835.09399414062</ele>
        <time>2010-10-09T14:15:12Z</time>
      </trkpt>
      <trkpt lat="44.95776" lon="5.23317">
        <ele>836.22802734375</ele>
        <time>2010-10-09T14:15:19Z</time>
      </trkpt>
      <trkpt lat="44.95759" lon="5.23305">
        <ele>836.72100830078</ele>
        <time>2010-10-09T14:15:24Z</time>
      </trkpt>
      <trkpt lat="44.95727" lon="5.23271">
        <ele>837.71600341797</ele>
        <time>2010-10-09T14:15:34Z</time>
      </trkpt>
      <trkpt lat="44.95701" lon="5.23241">
        <ele>838.87701416016</ele>
        <time>2010-10-09T14:15:43Z</time>
      </trkpt>
      <trkpt lat="44.95673" lon="5.23205">
        <ele>840.03497314453</ele>
        <time>2010-10-09T14:15:52Z</time>
      </trkpt>
      <trkpt lat="44.95658" lon="5.23174">
        <ele>841.01599121094</ele>
        <time>2010-10-09T14:15:58Z</time>
      </trkpt>
      <trkpt lat="44.95659" lon="5.23148">
        <ele>841.97900390625</ele>
        <time>2010-10-09T14:16:03Z</time>
      </trkpt>
      <trkpt lat="44.95669" lon="5.23108">
        <ele>843.03100585938</ele>
        <time>2010-10-09T14:16:11Z</time>
      </trkpt>
      <trkpt lat="44.9567" lon="5.23077">
        <ele>843.73999023438</ele>
        <time>2010-10-09T14:16:17Z</time>
      </trkpt>
      <trkpt lat="44.95659" lon="5.23053">
        <ele>844.57800292969</ele>
        <time>2010-10-09T14:16:22Z</time>
      </trkpt>
      <trkpt lat="44.95631" lon="5.23016">
        <ele>845.66198730469</ele>
        <time>2010-10-09T14:16:32Z</time>
      </trkpt>
      <trkpt lat="44.95611" lon="5.22985">
        <ele>846.33599853516</ele>
        <time>2010-10-09T14:16:40Z</time>
      </trkpt>
      <trkpt lat="44.95593" lon="5.22952">
        <ele>847.64898681641</ele>
        <time>2010-10-09T14:16:48Z</time>
      </trkpt>
      <trkpt lat="44.95579" lon="5.22943">
        <ele>848.17999267578</ele>
        <time>2010-10-09T14:16:52Z</time>
      </trkpt>
      <trkpt lat="44.95558" lon="5.22931">
        <ele>849.03399658203</ele>
        <time>2010-10-09T14:16:58Z</time>
      </trkpt>
      <trkpt lat="44.9554" lon="5.2291">
        <ele>849.58197021484</ele>
        <time>2010-10-09T14:17:04Z</time>
      </trkpt>
      <trkpt lat="44.95522" lon="5.22883">
        <ele>851.18597412109</ele>
        <time>2010-10-09T14:17:11Z</time>
      </trkpt>
      <trkpt lat="44.95497" lon="5.22856">
        <ele>852.59002685547</ele>
        <time>2010-10-09T14:17:19Z</time>
      </trkpt>
      <trkpt lat="44.95474" lon="5.22833">
        <ele>853.82299804688</ele>
        <time>2010-10-09T14:17:26Z</time>
      </trkpt>
      <trkpt lat="44.95437" lon="5.2281">
        <ele>855.5419921875</ele>
        <time>2010-10-09T14:17:36Z</time>
      </trkpt>
      <trkpt lat="44.95406" lon="5.22785">
        <ele>857.22198486328</ele>
        <time>2010-10-09T14:17:45Z</time>
      </trkpt>
      <trkpt lat="44.95376" lon="5.22762">
        <ele>858.42102050781</ele>
        <time>2010-10-09T14:17:54Z</time>
      </trkpt>
      <trkpt lat="44.95351" lon="5.22737">
        <ele>860.20098876953</ele>
        <time>2010-10-09T14:18:02Z</time>
      </trkpt>
      <trkpt lat="44.95326" lon="5.22703">
        <ele>861.55200195312</ele>
        <time>2010-10-09T14:18:11Z</time>
      </trkpt>
      <trkpt lat="44.95309" lon="5.2268">
        <ele>862.70697021484</ele>
        <time>2010-10-09T14:18:17Z</time>
      </trkpt>
      <trkpt lat="44.95284" lon="5.22647">
        <ele>864.38201904297</ele>
        <time>2010-10-09T14:18:25Z</time>
      </trkpt>
      <trkpt lat="44.95268" lon="5.22602">
        <ele>865.98901367188</ele>
        <time>2010-10-09T14:18:33Z</time>
      </trkpt>
      <trkpt lat="44.9525" lon="5.22585">
        <ele>866.46697998047</ele>
        <time>2010-10-09T14:18:38Z</time>
      </trkpt>
      <trkpt lat="44.95237" lon="5.22593">
        <ele>867.05200195312</ele>
        <time>2010-10-09T14:18:41Z</time>
      </trkpt>
      <trkpt lat="44.9522" lon="5.22608">
        <ele>868.24798583984</ele>
        <time>2010-10-09T14:18:45Z</time>
      </trkpt>
      <trkpt lat="44.95211" lon="5.22607">
        <ele>868.48199462891</ele>
        <time>2010-10-09T14:18:47Z</time>
      </trkpt>
      <trkpt lat="44.95191" lon="5.22604">
        <ele>869.27099609375</ele>
        <time>2010-10-09T14:18:51Z</time>
      </trkpt>
      <trkpt lat="44.9515" lon="5.2261">
        <ele>870.7919921875</ele>
        <time>2010-10-09T14:19:00Z</time>
      </trkpt>
      <trkpt lat="44.95129" lon="5.22611">
        <ele>872.17297363281</ele>
        <time>2010-10-09T14:19:05Z</time>
      </trkpt>
      <trkpt lat="44.95113" lon="5.22621">
        <ele>873.03698730469</ele>
        <time>2010-10-09T14:19:09Z</time>
      </trkpt>
      <trkpt lat="44.9511" lon="5.22632">
        <ele>873.48901367188</ele>
        <time>2010-10-09T14:19:11Z</time>
      </trkpt>
      <trkpt lat="44.95097" lon="5.22663">
        <ele>874.31097412109</ele>
        <time>2010-10-09T14:19:17Z</time>
      </trkpt>
      <trkpt lat="44.95093" lon="5.22666">
        <ele>874.33197021484</ele>
        <time>2010-10-09T14:19:18Z</time>
      </trkpt>
      <trkpt lat="44.9507" lon="5.22673">
        <ele>875.29302978516</ele>
        <time>2010-10-09T14:19:24Z</time>
      </trkpt>
      <trkpt lat="44.95055" lon="5.22668">
        <ele>875.42797851562</ele>
        <time>2010-10-09T14:19:29Z</time>
      </trkpt>
      <trkpt lat="44.95035" lon="5.22655">
        <ele>876.15100097656</ele>
        <time>2010-10-09T14:19:35Z</time>
      </trkpt>
      <trkpt lat="44.95018" lon="5.2264">
        <ele>876.61602783203</ele>
        <time>2010-10-09T14:19:40Z</time>
      </trkpt>
      <trkpt lat="44.94982" lon="5.22612">
        <ele>877.63000488281</ele>
        <time>2010-10-09T14:19:50Z</time>
      </trkpt>
      <trkpt lat="44.94952" lon="5.22592">
        <ele>878.65600585938</ele>
        <time>2010-10-09T14:19:58Z</time>
      </trkpt>
      <trkpt lat="44.94919" lon="5.22573">
        <ele>880.10302734375</ele>
        <time>2010-10-09T14:20:07Z</time>
      </trkpt>
      <trkpt lat="44.94889" lon="5.22556">
        <ele>880.94500732422</ele>
        <time>2010-10-09T14:20:15Z</time>
      </trkpt>
      <trkpt lat="44.94881" lon="5.22551">
        <ele>880.95300292969</ele>
        <time>2010-10-09T14:20:17Z</time>
      </trkpt>
      <trkpt lat="44.94867" lon="5.2253">
        <ele>881.48901367188</ele>
        <time>2010-10-09T14:20:22Z</time>
      </trkpt>
      <trkpt lat="44.94845" lon="5.22474">
        <ele>883.51599121094</ele>
        <time>2010-10-09T14:20:33Z</time>
      </trkpt>
      <trkpt lat="44.94832" lon="5.22455">
        <ele>884.14398193359</ele>
        <time>2010-10-09T14:20:38Z</time>
      </trkpt>
      <trkpt lat="44.94819" lon="5.22461">
        <ele>884.80102539062</ele>
        <time>2010-10-09T14:20:42Z</time>
      </trkpt>
      <trkpt lat="44.94814" lon="5.22475">
        <ele>885.51000976562</ele>
        <time>2010-10-09T14:20:45Z</time>
      </trkpt>
      <trkpt lat="44.94803" lon="5.22526">
        <ele>886.38897705078</ele>
        <time>2010-10-09T14:20:54Z</time>
      </trkpt>
      <trkpt lat="44.94789" lon="5.22566">
        <ele>887.47998046875</ele>
        <time>2010-10-09T14:21:01Z</time>
      </trkpt>
      <trkpt lat="44.94776" lon="5.22583">
        <ele>887.76397705078</ele>
        <time>2010-10-09T14:21:05Z</time>
      </trkpt>
      <trkpt lat="44.94754" lon="5.22591">
        <ele>889.10699462891</ele>
        <time>2010-10-09T14:21:10Z</time>
      </trkpt>
      <trkpt lat="44.94749" lon="5.22589">
        <ele>889.00201416016</ele>
        <time>2010-10-09T14:21:11Z</time>
      </trkpt>
      <trkpt lat="44.94695" lon="5.22564">
        <ele>890.67797851562</ele>
        <time>2010-10-09T14:21:21Z</time>
      </trkpt>
      <trkpt lat="44.94659" lon="5.22533">
        <ele>891.82000732422</ele>
        <time>2010-10-09T14:21:28Z</time>
      </trkpt>
      <trkpt lat="44.94629" lon="5.22492">
        <ele>893.19598388672</ele>
        <time>2010-10-09T14:21:35Z</time>
      </trkpt>
      <trkpt lat="44.94595" lon="5.22443">
        <ele>894.46502685547</ele>
        <time>2010-10-09T14:21:43Z</time>
      </trkpt>
      <trkpt lat="44.9457" lon="5.2239">
        <ele>896.1669921875</ele>
        <time>2010-10-09T14:21:51Z</time>
      </trkpt>
      <trkpt lat="44.94555" lon="5.22343">
        <ele>897.74700927734</ele>
        <time>2010-10-09T14:21:57Z</time>
      </trkpt>
      <trkpt lat="44.94545" lon="5.22299">
        <ele>899.01098632812</ele>
        <time>2010-10-09T14:22:03Z</time>
      </trkpt>
      <trkpt lat="44.94541" lon="5.22249">
        <ele>899.91497802734</ele>
        <time>2010-10-09T14:22:10Z</time>
      </trkpt>
      <trkpt lat="44.94536" lon="5.22189">
        <ele>901.62097167969</ele>
        <time>2010-10-09T14:22:19Z</time>
      </trkpt>
      <trkpt lat="44.94535" lon="5.22142">
        <ele>902.62298583984</ele>
        <time>2010-10-09T14:22:26Z</time>
      </trkpt>
      <trkpt lat="44.94534" lon="5.22128">
        <ele>902.90600585938</ele>
        <time>2010-10-09T14:22:28Z</time>
      </trkpt>
      <trkpt lat="44.94525" lon="5.22075">
        <ele>904.52301025391</ele>
        <time>2010-10-09T14:22:36Z</time>
      </trkpt>
      <trkpt lat="44.94523" lon="5.22062">
        <ele>904.85900878906</ele>
        <time>2010-10-09T14:22:38Z</time>
      </trkpt>
      <trkpt lat="44.94507" lon="5.22007">
        <ele>906.2919921875</ele>
        <time>2010-10-09T14:22:47Z</time>
      </trkpt>
      <trkpt lat="44.94501" lon="5.21981">
        <ele>906.38598632812</ele>
        <time>2010-10-09T14:22:51Z</time>
      </trkpt>
      <trkpt lat="44.94489" lon="5.21962">
        <ele>907.05102539062</ele>
        <time>2010-10-09T14:22:55Z</time>
      </trkpt>
      <trkpt lat="44.94476" lon="5.21965">
        <ele>907.52801513672</ele>
        <time>2010-10-09T14:22:58Z</time>
      </trkpt>
      <trkpt lat="44.94469" lon="5.21982">
        <ele>908.10699462891</ele>
        <time>2010-10-09T14:23:01Z</time>
      </trkpt>
      <trkpt lat="44.94468" lon="5.21995">
        <ele>908.6240234375</ele>
        <time>2010-10-09T14:23:03Z</time>
      </trkpt>
      <trkpt lat="44.94464" lon="5.22059">
        <ele>911.37298583984</ele>
        <time>2010-10-09T14:23:13Z</time>
      </trkpt>
      <trkpt lat="44.94461" lon="5.22084">
        <ele>912.42102050781</ele>
        <time>2010-10-09T14:23:17Z</time>
      </trkpt>
      <trkpt lat="44.94445" lon="5.22124">
        <ele>913.90197753906</ele>
        <time>2010-10-09T14:23:24Z</time>
      </trkpt>
      <trkpt lat="44.94431" lon="5.22164">
        <ele>915.94299316406</ele>
        <time>2010-10-09T14:23:31Z</time>
      </trkpt>
      <trkpt lat="44.94411" lon="5.22214">
        <ele>917.93402099609</ele>
        <time>2010-10-09T14:23:40Z</time>
      </trkpt>
      <trkpt lat="44.94395" lon="5.22253">
        <ele>919.22302246094</ele>
        <time>2010-10-09T14:23:46Z</time>
      </trkpt>
      <trkpt lat="44.94376" lon="5.22292">
        <ele>921.1669921875</ele>
        <time>2010-10-09T14:23:52Z</time>
      </trkpt>
      <trkpt lat="44.94366" lon="5.22325">
        <ele>922.875</ele>
        <time>2010-10-09T14:23:57Z</time>
      </trkpt>
      <trkpt lat="44.94363" lon="5.22354">
        <ele>923.89801025391</ele>
        <time>2010-10-09T14:24:01Z</time>
      </trkpt>
      <trkpt lat="44.94361" lon="5.22385">
        <ele>925.19299316406</ele>
        <time>2010-10-09T14:24:05Z</time>
      </trkpt>
      <trkpt lat="44.94352" lon="5.22418">
        <ele>926.39599609375</ele>
        <time>2010-10-09T14:24:10Z</time>
      </trkpt>
      <trkpt lat="44.94344" lon="5.22429">
        <ele>927.18200683594</ele>
        <time>2010-10-09T14:24:12Z</time>
      </trkpt>
      <trkpt lat="44.94333" lon="5.22442">
        <ele>927.99102783203</ele>
        <time>2010-10-09T14:24:15Z</time>
      </trkpt>
      <trkpt lat="44.94315" lon="5.22451">
        <ele>929.06597900391</ele>
        <time>2010-10-09T14:24:19Z</time>
      </trkpt>
      <trkpt lat="44.94296" lon="5.22452">
        <ele>930.32397460938</ele>
        <time>2010-10-09T14:24:23Z</time>
      </trkpt>
      <trkpt lat="44.94276" lon="5.22444">
        <ele>931.458984375</ele>
        <time>2010-10-09T14:24:28Z</time>
      </trkpt>
      <trkpt lat="44.94244" lon="5.22415">
        <ele>933.63000488281</ele>
        <time>2010-10-09T14:24:36Z</time>
      </trkpt>
      <trkpt lat="44.94204" lon="5.22378">
        <ele>935.83197021484</ele>
        <time>2010-10-09T14:24:47Z</time>
      </trkpt>
      <trkpt lat="44.94181" lon="5.22361">
        <ele>937.32202148438</ele>
        <time>2010-10-09T14:24:53Z</time>
      </trkpt>
      <trkpt lat="44.94149" lon="5.22334">
        <ele>939.43402099609</ele>
        <time>2010-10-09T14:25:02Z</time>
      </trkpt>
      <trkpt lat="44.94116" lon="5.22299">
        <ele>942.03002929688</ele>
        <time>2010-10-09T14:25:12Z</time>
      </trkpt>
      <trkpt lat="44.94089" lon="5.22275">
        <ele>943.64300537109</ele>
        <time>2010-10-09T14:25:20Z</time>
      </trkpt>
      <trkpt lat="44.94065" lon="5.22261">
        <ele>945.30798339844</ele>
        <time>2010-10-09T14:25:27Z</time>
      </trkpt>
      <trkpt lat="44.94034" lon="5.22246">
        <ele>947.14801025391</ele>
        <time>2010-10-09T14:25:35Z</time>
      </trkpt>
      <trkpt lat="44.94026" lon="5.22241">
        <ele>947.75500488281</ele>
        <time>2010-10-09T14:25:37Z</time>
      </trkpt>
      <trkpt lat="44.93999" lon="5.22226">
        <ele>948.92199707031</ele>
        <time>2010-10-09T14:25:44Z</time>
      </trkpt>
      <trkpt lat="44.93985" lon="5.22211">
        <ele>950.11700439453</ele>
        <time>2010-10-09T14:25:49Z</time>
      </trkpt>
      <trkpt lat="44.93959" lon="5.22196">
        <ele>951.71697998047</ele>
        <time>2010-10-09T14:25:56Z</time>
      </trkpt>
      <trkpt lat="44.93927" lon="5.22174">
        <ele>953.69897460938</ele>
        <time>2010-10-09T14:26:05Z</time>
      </trkpt>
      <trkpt lat="44.93893" lon="5.22142">
        <ele>955.91497802734</ele>
        <time>2010-10-09T14:26:15Z</time>
      </trkpt>
      <trkpt lat="44.93864" lon="5.22107">
        <ele>957.87701416016</ele>
        <time>2010-10-09T14:26:24Z</time>
      </trkpt>
      <trkpt lat="44.93833" lon="5.22068">
        <ele>959.77899169922</ele>
        <time>2010-10-09T14:26:34Z</time>
      </trkpt>
      <trkpt lat="44.9381" lon="5.22041">
        <ele>961.88000488281</ele>
        <time>2010-10-09T14:26:41Z</time>
      </trkpt>
      <trkpt lat="44.93797" lon="5.22025">
        <ele>962.77099609375</ele>
        <time>2010-10-09T14:26:45Z</time>
      </trkpt>
      <trkpt lat="44.93773" lon="5.21992">
        <ele>964.78100585938</ele>
        <time>2010-10-09T14:26:53Z</time>
      </trkpt>
      <trkpt lat="44.93758" lon="5.21971">
        <ele>965.62701416016</ele>
        <time>2010-10-09T14:26:58Z</time>
      </trkpt>
      <trkpt lat="44.93732" lon="5.2194">
        <ele>967.63201904297</ele>
        <time>2010-10-09T14:27:06Z</time>
      </trkpt>
      <trkpt lat="44.93708" lon="5.21914">
        <ele>969.28198242188</ele>
        <time>2010-10-09T14:27:13Z</time>
      </trkpt>
      <trkpt lat="44.93682" lon="5.21886">
        <ele>970.90399169922</ele>
        <time>2010-10-09T14:27:21Z</time>
      </trkpt>
      <trkpt lat="44.93654" lon="5.21855">
        <ele>972.80499267578</ele>
        <time>2010-10-09T14:27:29Z</time>
      </trkpt>
      <trkpt lat="44.93619" lon="5.21817">
        <ele>975.15002441406</ele>
        <time>2010-10-09T14:27:39Z</time>
      </trkpt>
      <trkpt lat="44.93595" lon="5.21799">
        <ele>976.49798583984</ele>
        <time>2010-10-09T14:27:45Z</time>
      </trkpt>
      <trkpt lat="44.93562" lon="5.21776">
        <ele>978.63201904297</ele>
        <time>2010-10-09T14:27:53Z</time>
      </trkpt>
      <trkpt lat="44.9353" lon="5.21757">
        <ele>980.71398925781</ele>
        <time>2010-10-09T14:28:01Z</time>
      </trkpt>
      <trkpt lat="44.93493" lon="5.21737">
        <ele>983.16497802734</ele>
        <time>2010-10-09T14:28:10Z</time>
      </trkpt>
      <trkpt lat="44.93456" lon="5.21712">
        <ele>985.85302734375</ele>
        <time>2010-10-09T14:28:19Z</time>
      </trkpt>
      <trkpt lat="44.93428" lon="5.21693">
        <ele>987.72900390625</ele>
        <time>2010-10-09T14:28:26Z</time>
      </trkpt>
      <trkpt lat="44.93393" lon="5.21672">
        <ele>990.47497558594</ele>
        <time>2010-10-09T14:28:35Z</time>
      </trkpt>
      <trkpt lat="44.93353" lon="5.21648">
        <ele>993.89599609375</ele>
        <time>2010-10-09T14:28:46Z</time>
      </trkpt>
      <trkpt lat="44.93325" lon="5.21629">
        <ele>995.85998535156</ele>
        <time>2010-10-09T14:28:55Z</time>
      </trkpt>
      <trkpt lat="44.93309" lon="5.21608">
        <ele>998.32202148438</ele>
        <time>2010-10-09T14:29:02Z</time>
      </trkpt>
      <trkpt lat="44.93298" lon="5.21589">
        <ele>1000.1389770508</ele>
        <time>2010-10-09T14:29:09Z</time>
      </trkpt>
      <trkpt lat="44.93287" lon="5.21567">
        <ele>1002.450012207</ele>
        <time>2010-10-09T14:29:16Z</time>
      </trkpt>
      <trkpt lat="44.93275" lon="5.21542">
        <ele>1004.9180297852</ele>
        <time>2010-10-09T14:29:23Z</time>
      </trkpt>
      <trkpt lat="44.93272" lon="5.21537">
        <ele>1005.3829956055</ele>
        <time>2010-10-09T14:29:24Z</time>
      </trkpt>
      <trkpt lat="44.93255" lon="5.21496">
        <ele>1008.6870117188</ele>
        <time>2010-10-09T14:29:32Z</time>
      </trkpt>
      <trkpt lat="44.9324" lon="5.21464">
        <ele>1010.7670288086</ele>
        <time>2010-10-09T14:29:39Z</time>
      </trkpt>
      <trkpt lat="44.93228" lon="5.21443">
        <ele>1012.6729736328</ele>
        <time>2010-10-09T14:29:45Z</time>
      </trkpt>
      <trkpt lat="44.93213" lon="5.21416">
        <ele>1014.0999755859</ele>
        <time>2010-10-09T14:29:53Z</time>
      </trkpt>
      <trkpt lat="44.93204" lon="5.21399">
        <ele>1015.0739746094</ele>
        <time>2010-10-09T14:29:59Z</time>
      </trkpt>
      <trkpt lat="44.93192" lon="5.21375">
        <ele>1016.7760009766</ele>
        <time>2010-10-09T14:30:07Z</time>
      </trkpt>
      <trkpt lat="44.93181" lon="5.2136">
        <ele>1017.5469970703</ele>
        <time>2010-10-09T14:30:13Z</time>
      </trkpt>
      <trkpt lat="44.93169" lon="5.21346">
        <ele>1018.0310058594</ele>
        <time>2010-10-09T14:30:20Z</time>
      </trkpt>
      <trkpt lat="44.9316" lon="5.21338">
        <ele>1020.2210083008</ele>
        <time>2010-10-09T14:30:25Z</time>
      </trkpt>
      <trkpt lat="44.93151" lon="5.21328">
        <ele>1020.9710083008</ele>
        <time>2010-10-09T14:30:30Z</time>
      </trkpt>
      <trkpt lat="44.9314" lon="5.21317">
        <ele>1021.9530029297</ele>
        <time>2010-10-09T14:30:36Z</time>
      </trkpt>
      <trkpt lat="44.93129" lon="5.21303">
        <ele>1023.3889770508</ele>
        <time>2010-10-09T14:30:42Z</time>
      </trkpt>
      <trkpt lat="44.93118" lon="5.2129">
        <ele>1024.4289550781</ele>
        <time>2010-10-09T14:30:48Z</time>
      </trkpt>
      <trkpt lat="44.93101" lon="5.21273">
        <ele>1026.6839599609</ele>
        <time>2010-10-09T14:30:57Z</time>
      </trkpt>
      <trkpt lat="44.93092" lon="5.21262">
        <ele>1028.0789794922</ele>
        <time>2010-10-09T14:31:02Z</time>
      </trkpt>
      <trkpt lat="44.93079" lon="5.21246">
        <ele>1029.333984375</ele>
        <time>2010-10-09T14:31:09Z</time>
      </trkpt>
      <trkpt lat="44.93066" lon="5.21233">
        <ele>1030.3470458984</ele>
        <time>2010-10-09T14:31:15Z</time>
      </trkpt>
      <trkpt lat="44.93043" lon="5.21213">
        <ele>1032.9110107422</ele>
        <time>2010-10-09T14:31:25Z</time>
      </trkpt>
      <trkpt lat="44.93031" lon="5.212">
        <ele>1033.9549560547</ele>
        <time>2010-10-09T14:31:31Z</time>
      </trkpt>
      <trkpt lat="44.93015" lon="5.21188">
        <ele>1035.0529785156</ele>
        <time>2010-10-09T14:31:38Z</time>
      </trkpt>
      <trkpt lat="44.92998" lon="5.21175">
        <ele>1036.2299804688</ele>
        <time>2010-10-09T14:31:45Z</time>
      </trkpt>
      <trkpt lat="44.92978" lon="5.21165">
        <ele>1038.3349609375</ele>
        <time>2010-10-09T14:31:53Z</time>
      </trkpt>
      <trkpt lat="44.92957" lon="5.21157">
        <ele>1039.5229492188</ele>
        <time>2010-10-09T14:32:01Z</time>
      </trkpt>
      <trkpt lat="44.92931" lon="5.21149">
        <ele>1040.8540039062</ele>
        <time>2010-10-09T14:32:10Z</time>
      </trkpt>
      <trkpt lat="44.9291" lon="5.21146">
        <ele>1042.1340332031</ele>
        <time>2010-10-09T14:32:17Z</time>
      </trkpt>
      <trkpt lat="44.92886" lon="5.21138">
        <ele>1043.8210449219</ele>
        <time>2010-10-09T14:32:25Z</time>
      </trkpt>
      <trkpt lat="44.92862" lon="5.21129">
        <ele>1044.4200439453</ele>
        <time>2010-10-09T14:32:32Z</time>
      </trkpt>
      <trkpt lat="44.92831" lon="5.21121">
        <ele>1045.248046875</ele>
        <time>2010-10-09T14:32:40Z</time>
      </trkpt>
      <trkpt lat="44.92798" lon="5.21112">
        <ele>1047.6280517578</ele>
        <time>2010-10-09T14:32:49Z</time>
      </trkpt>
      <trkpt lat="44.92782" lon="5.21108">
        <ele>1048.7669677734</ele>
        <time>2010-10-09T14:32:54Z</time>
      </trkpt>
      <trkpt lat="44.92768" lon="5.21106">
        <ele>1049.7609863281</ele>
        <time>2010-10-09T14:32:59Z</time>
      </trkpt>
      <trkpt lat="44.92743" lon="5.21101">
        <ele>1051.2130126953</ele>
        <time>2010-10-09T14:33:07Z</time>
      </trkpt>
      <trkpt lat="44.92728" lon="5.21098">
        <ele>1052.0219726562</ele>
        <time>2010-10-09T14:33:13Z</time>
      </trkpt>
      <trkpt lat="44.92711" lon="5.21095">
        <ele>1052.9260253906</ele>
        <time>2010-10-09T14:33:19Z</time>
      </trkpt>
      <trkpt lat="44.92691" lon="5.21091">
        <ele>1054.3399658203</ele>
        <time>2010-10-09T14:33:26Z</time>
      </trkpt>
      <trkpt lat="44.9267" lon="5.21085">
        <ele>1055.6970214844</ele>
        <time>2010-10-09T14:33:33Z</time>
      </trkpt>
      <trkpt lat="44.92648" lon="5.21079">
        <ele>1056.7099609375</ele>
        <time>2010-10-09T14:33:40Z</time>
      </trkpt>
      <trkpt lat="44.9263" lon="5.21078">
        <ele>1057.4429931641</ele>
        <time>2010-10-09T14:33:46Z</time>
      </trkpt>
      <trkpt lat="44.92617" lon="5.21078">
        <ele>1058.2640380859</ele>
        <time>2010-10-09T14:33:51Z</time>
      </trkpt>
      <trkpt lat="44.92602" lon="5.21078">
        <ele>1059.1049804688</ele>
        <time>2010-10-09T14:33:56Z</time>
      </trkpt>
      <trkpt lat="44.92578" lon="5.21078">
        <ele>1060.4520263672</ele>
        <time>2010-10-09T14:34:03Z</time>
      </trkpt>
      <trkpt lat="44.92554" lon="5.21077">
        <ele>1061.6120605469</ele>
        <time>2010-10-09T14:34:10Z</time>
      </trkpt>
      <trkpt lat="44.92538" lon="5.21073">
        <ele>1062.7989501953</ele>
        <time>2010-10-09T14:34:15Z</time>
      </trkpt>
      <trkpt lat="44.9252" lon="5.21067">
        <ele>1063.7099609375</ele>
        <time>2010-10-09T14:34:21Z</time>
      </trkpt>
      <trkpt lat="44.92499" lon="5.2106">
        <ele>1064.7249755859</ele>
        <time>2010-10-09T14:34:28Z</time>
      </trkpt>
      <trkpt lat="44.92484" lon="5.21057">
        <ele>1065.7430419922</ele>
        <time>2010-10-09T14:34:33Z</time>
      </trkpt>
      <trkpt lat="44.92465" lon="5.21054">
        <ele>1066.7669677734</ele>
        <time>2010-10-09T14:34:39Z</time>
      </trkpt>
      <trkpt lat="44.9245" lon="5.21052">
        <ele>1067.8129882812</ele>
        <time>2010-10-09T14:34:44Z</time>
      </trkpt>
      <trkpt lat="44.92435" lon="5.21047">
        <ele>1068.7760009766</ele>
        <time>2010-10-09T14:34:49Z</time>
      </trkpt>
      <trkpt lat="44.92416" lon="5.21044">
        <ele>1069.8480224609</ele>
        <time>2010-10-09T14:34:55Z</time>
      </trkpt>
      <trkpt lat="44.92401" lon="5.2104">
        <ele>1071.1970214844</ele>
        <time>2010-10-09T14:35:01Z</time>
      </trkpt>
      <trkpt lat="44.92385" lon="5.21036">
        <ele>1071.9940185547</ele>
        <time>2010-10-09T14:35:06Z</time>
      </trkpt>
      <trkpt lat="44.92369" lon="5.21031">
        <ele>1073.2330322266</ele>
        <time>2010-10-09T14:35:12Z</time>
      </trkpt>
      <trkpt lat="44.92348" lon="5.21024">
        <ele>1074.4959716797</ele>
        <time>2010-10-09T14:35:19Z</time>
      </trkpt>
      <trkpt lat="44.92324" lon="5.21013">
        <ele>1075.3690185547</ele>
        <time>2010-10-09T14:35:27Z</time>
      </trkpt>
      <trkpt lat="44.92304" lon="5.20996">
        <ele>1076.2309570312</ele>
        <time>2010-10-09T14:35:34Z</time>
      </trkpt>
      <trkpt lat="44.92285" lon="5.20974">
        <ele>1076.9389648438</ele>
        <time>2010-10-09T14:35:41Z</time>
      </trkpt>
      <trkpt lat="44.9227" lon="5.20955">
        <ele>1077.6500244141</ele>
        <time>2010-10-09T14:35:47Z</time>
      </trkpt>
      <trkpt lat="44.92253" lon="5.20934">
        <ele>1078.1049804688</ele>
        <time>2010-10-09T14:35:53Z</time>
      </trkpt>
      <trkpt lat="44.9224" lon="5.20917">
        <ele>1078.6519775391</ele>
        <time>2010-10-09T14:35:58Z</time>
      </trkpt>
      <trkpt lat="44.92222" lon="5.20897">
        <ele>1079.416015625</ele>
        <time>2010-10-09T14:36:04Z</time>
      </trkpt>
      <trkpt lat="44.922" lon="5.20877">
        <ele>1080.2860107422</ele>
        <time>2010-10-09T14:36:10Z</time>
      </trkpt>
      <trkpt lat="44.9218" lon="5.20848">
        <ele>1081.0930175781</ele>
        <time>2010-10-09T14:36:16Z</time>
      </trkpt>
      <trkpt lat="44.92168" lon="5.2082">
        <ele>1082.2409667969</ele>
        <time>2010-10-09T14:36:21Z</time>
      </trkpt>
      <trkpt lat="44.9216" lon="5.20795">
        <ele>1082.2810058594</ele>
        <time>2010-10-09T14:36:25Z</time>
      </trkpt>
      <trkpt lat="44.92163" lon="5.20767">
        <ele>1083.5450439453</ele>
        <time>2010-10-09T14:36:30Z</time>
      </trkpt>
      <trkpt lat="44.92165" lon="5.20762">
        <ele>1083.6600341797</ele>
        <time>2010-10-09T14:36:31Z</time>
      </trkpt>
      <trkpt lat="44.92184" lon="5.20724">
        <ele>1084.6970214844</ele>
        <time>2010-10-09T14:36:39Z</time>
      </trkpt>
      <trkpt lat="44.92184" lon="5.20718">
        <ele>1084.8609619141</ele>
        <time>2010-10-09T14:36:40Z</time>
      </trkpt>
      <trkpt lat="44.92186" lon="5.20683">
        <ele>1085.3840332031</ele>
        <time>2010-10-09T14:36:46Z</time>
      </trkpt>
      <trkpt lat="44.92183" lon="5.2066">
        <ele>1085.7440185547</ele>
        <time>2010-10-09T14:36:49Z</time>
      </trkpt>
      <trkpt lat="44.92173" lon="5.20615">
        <ele>1086.2750244141</ele>
        <time>2010-10-09T14:36:55Z</time>
      </trkpt>
      <trkpt lat="44.92164" lon="5.20569">
        <ele>1086.8420410156</ele>
        <time>2010-10-09T14:37:01Z</time>
      </trkpt>
      <trkpt lat="44.92165" lon="5.20519">
        <ele>1087</ele>
        <time>2010-10-09T14:37:07Z</time>
      </trkpt>
      <trkpt lat="44.92177" lon="5.20457">
        <ele>1087.376953125</ele>
        <time>2010-10-09T14:37:15Z</time>
      </trkpt>
      <trkpt lat="44.92181" lon="5.2041">
        <ele>1088.1199951172</ele>
        <time>2010-10-09T14:37:21Z</time>
      </trkpt>
      <trkpt lat="44.92179" lon="5.20378">
        <ele>1087.9069824219</ele>
        <time>2010-10-09T14:37:25Z</time>
      </trkpt>
      <trkpt lat="44.92166" lon="5.20318">
        <ele>1086.6870117188</ele>
        <time>2010-10-09T14:37:32Z</time>
      </trkpt>
      <trkpt lat="44.92162" lon="5.20304">
        <ele>1086.7440185547</ele>
        <time>2010-10-09T14:37:34Z</time>
      </trkpt>
      <trkpt lat="44.92155" lon="5.20273">
        <ele>1086.6960449219</ele>
        <time>2010-10-09T14:37:39Z</time>
      </trkpt>
      <trkpt lat="44.92148" lon="5.20272">
        <ele>1086.625</ele>
        <time>2010-10-09T14:37:42Z</time>
      </trkpt>
      <trkpt lat="44.92151" lon="5.20279">
        <ele>1086.8740234375</ele>
        <time>2010-10-09T14:37:45Z</time>
      </trkpt>
      <trkpt lat="44.92154" lon="5.20279">
        <ele>1086.7020263672</ele>
        <time>2010-10-09T14:37:48Z</time>
      </trkpt>
      <trkpt lat="44.92157" lon="5.20286">
        <ele>1086.1290283203</ele>
        <time>2010-10-09T14:38:44Z</time>
      </trkpt>
      <trkpt lat="44.92157" lon="5.20286">
        <ele>1086.1829833984</ele>
        <time>2010-10-09T14:38:46Z</time>
      </trkpt>
      <trkpt lat="44.92164" lon="5.20282">
        <ele>1085.2879638672</ele>
        <time>2010-10-09T14:50:34Z</time>
      </trkpt>
      <trkpt lat="44.92165" lon="5.20273">
        <ele>1084.8470458984</ele>
        <time>2010-10-09T14:50:36Z</time>
      </trkpt>
      <trkpt lat="44.92167" lon="5.20246">
        <ele>1083.3869628906</ele>
        <time>2010-10-09T14:50:40Z</time>
      </trkpt>
      <trkpt lat="44.92154" lon="5.20223">
        <ele>1081.3089599609</ele>
        <time>2010-10-09T14:50:43Z</time>
      </trkpt>
      <trkpt lat="44.92129" lon="5.20206">
        <ele>1078.2989501953</ele>
        <time>2010-10-09T14:50:46Z</time>
      </trkpt>
      <trkpt lat="44.9212" lon="5.202">
        <ele>1077.7220458984</ele>
        <time>2010-10-09T14:50:47Z</time>
      </trkpt>
      <trkpt lat="44.92069" lon="5.20164">
        <ele>1070.9639892578</ele>
        <time>2010-10-09T14:50:52Z</time>
      </trkpt>
      <trkpt lat="44.9201" lon="5.20124">
        <ele>1063.5190429688</ele>
        <time>2010-10-09T14:50:57Z</time>
      </trkpt>
      <trkpt lat="44.91949" lon="5.20072">
        <ele>1055.33203125</ele>
        <time>2010-10-09T14:51:02Z</time>
      </trkpt>
      <trkpt lat="44.9188" lon="5.20018">
        <ele>1048.248046875</ele>
        <time>2010-10-09T14:51:07Z</time>
      </trkpt>
      <trkpt lat="44.91821" lon="5.19981">
        <ele>1042.6070556641</ele>
        <time>2010-10-09T14:51:11Z</time>
      </trkpt>
      <trkpt lat="44.91742" lon="5.19951">
        <ele>1035.6560058594</ele>
        <time>2010-10-09T14:51:16Z</time>
      </trkpt>
      <trkpt lat="44.91668" lon="5.19915">
        <ele>1028.0379638672</ele>
        <time>2010-10-09T14:51:21Z</time>
      </trkpt>
      <trkpt lat="44.91608" lon="5.19897">
        <ele>1023.8989868164</ele>
        <time>2010-10-09T14:51:25Z</time>
      </trkpt>
      <trkpt lat="44.91528" lon="5.19888">
        <ele>1017.5319824219</ele>
        <time>2010-10-09T14:51:30Z</time>
      </trkpt>
      <trkpt lat="44.91433" lon="5.19878">
        <ele>1007.7369995117</ele>
        <time>2010-10-09T14:51:36Z</time>
      </trkpt>
      <trkpt lat="44.91386" lon="5.19876">
        <ele>1004.6279907227</ele>
        <time>2010-10-09T14:51:39Z</time>
      </trkpt>
      <trkpt lat="44.91346" lon="5.19885">
        <ele>1004.9489746094</ele>
        <time>2010-10-09T14:51:43Z</time>
      </trkpt>
      <trkpt lat="44.91344" lon="5.19871">
        <ele>1004.9769897461</ele>
        <time>2010-10-09T14:51:45Z</time>
      </trkpt>
      <trkpt lat="44.91355" lon="5.19858">
        <ele>1004.1599731445</ele>
        <time>2010-10-09T14:51:47Z</time>
      </trkpt>
      <trkpt lat="44.91362" lon="5.19857">
        <ele>1003.4769897461</ele>
        <time>2010-10-09T14:51:48Z</time>
      </trkpt>
      <trkpt lat="44.91388" lon="5.19852">
        <ele>1001.9169921875</ele>
        <time>2010-10-09T14:51:51Z</time>
      </trkpt>
      <trkpt lat="44.91428" lon="5.19838">
        <ele>997.90399169922</ele>
        <time>2010-10-09T14:51:55Z</time>
      </trkpt>
      <trkpt lat="44.91476" lon="5.19823">
        <ele>994.04797363281</ele>
        <time>2010-10-09T14:51:59Z</time>
      </trkpt>
      <trkpt lat="44.91513" lon="5.19814">
        <ele>991.29602050781</ele>
        <time>2010-10-09T14:52:02Z</time>
      </trkpt>
      <trkpt lat="44.91597" lon="5.19807">
        <ele>984.78399658203</ele>
        <time>2010-10-09T14:52:08Z</time>
      </trkpt>
      <trkpt lat="44.9168" lon="5.19794">
        <ele>979.63702392578</ele>
        <time>2010-10-09T14:52:14Z</time>
      </trkpt>
      <trkpt lat="44.91737" lon="5.19792">
        <ele>975.23699951172</ele>
        <time>2010-10-09T14:52:18Z</time>
      </trkpt>
      <trkpt lat="44.91812" lon="5.198">
        <ele>968.53802490234</ele>
        <time>2010-10-09T14:52:23Z</time>
      </trkpt>
      <trkpt lat="44.9185" lon="5.19811">
        <ele>967.73901367188</ele>
        <time>2010-10-09T14:52:26Z</time>
      </trkpt>
      <trkpt lat="44.9186" lon="5.19798">
        <ele>968.60998535156</ele>
        <time>2010-10-09T14:52:28Z</time>
      </trkpt>
      <trkpt lat="44.91849" lon="5.19784">
        <ele>968.18701171875</ele>
        <time>2010-10-09T14:52:30Z</time>
      </trkpt>
      <trkpt lat="44.91837" lon="5.19783">
        <ele>967.66802978516</ele>
        <time>2010-10-09T14:52:31Z</time>
      </trkpt>
      <trkpt lat="44.9177" lon="5.19747">
        <ele>961.708984375</ele>
        <time>2010-10-09T14:52:38Z</time>
      </trkpt>
      <trkpt lat="44.91748" lon="5.1974">
        <ele>959.84997558594</ele>
        <time>2010-10-09T14:52:40Z</time>
      </trkpt>
      <trkpt lat="44.91703" lon="5.19714">
        <ele>954.90698242188</ele>
        <time>2010-10-09T14:52:44Z</time>
      </trkpt>
      <trkpt lat="44.91637" lon="5.19666">
        <ele>949.38098144531</ele>
        <time>2010-10-09T14:52:50Z</time>
      </trkpt>
      <trkpt lat="44.91587" lon="5.19641">
        <ele>944.73602294922</ele>
        <time>2010-10-09T14:52:54Z</time>
      </trkpt>
      <trkpt lat="44.91509" lon="5.19623">
        <ele>938.5</ele>
        <time>2010-10-09T14:53:00Z</time>
      </trkpt>
      <trkpt lat="44.91441" lon="5.19612">
        <ele>933.91400146484</ele>
        <time>2010-10-09T14:53:05Z</time>
      </trkpt>
      <trkpt lat="44.914" lon="5.19618">
        <ele>931.74102783203</ele>
        <time>2010-10-09T14:53:08Z</time>
      </trkpt>
      <trkpt lat="44.91358" lon="5.19617">
        <ele>928.96502685547</ele>
        <time>2010-10-09T14:53:11Z</time>
      </trkpt>
      <trkpt lat="44.9132" lon="5.19598">
        <ele>924.73101806641</ele>
        <time>2010-10-09T14:53:14Z</time>
      </trkpt>
      <trkpt lat="44.91294" lon="5.19587">
        <ele>923.36602783203</ele>
        <time>2010-10-09T14:53:16Z</time>
      </trkpt>
      <trkpt lat="44.91279" lon="5.19584">
        <ele>922.15698242188</ele>
        <time>2010-10-09T14:53:17Z</time>
      </trkpt>
      <trkpt lat="44.91234" lon="5.19576">
        <ele>919.60699462891</ele>
        <time>2010-10-09T14:53:20Z</time>
      </trkpt>
      <trkpt lat="44.91194" lon="5.19546">
        <ele>917.40899658203</ele>
        <time>2010-10-09T14:53:23Z</time>
      </trkpt>
      <trkpt lat="44.91185" lon="5.1951">
        <ele>916.11602783203</ele>
        <time>2010-10-09T14:53:25Z</time>
      </trkpt>
      <trkpt lat="44.91187" lon="5.19477">
        <ele>916.21997070312</ele>
        <time>2010-10-09T14:53:27Z</time>
      </trkpt>
      <trkpt lat="44.91194" lon="5.19409">
        <ele>920.458984375</ele>
        <time>2010-10-09T14:53:32Z</time>
      </trkpt>
      <trkpt lat="44.91207" lon="5.19352">
        <ele>923.61798095703</ele>
        <time>2010-10-09T14:53:37Z</time>
      </trkpt>
      <trkpt lat="44.91207" lon="5.19297">
        <ele>925.50897216797</ele>
        <time>2010-10-09T14:53:42Z</time>
      </trkpt>
      <trkpt lat="44.91195" lon="5.19266">
        <ele>927.34899902344</ele>
        <time>2010-10-09T14:53:46Z</time>
      </trkpt>
      <trkpt lat="44.91171" lon="5.19255">
        <ele>928.06799316406</ele>
        <time>2010-10-09T14:53:50Z</time>
      </trkpt>
      <trkpt lat="44.91164" lon="5.19254">
        <ele>928.00201416016</ele>
        <time>2010-10-09T14:53:51Z</time>
      </trkpt>
      <trkpt lat="44.91118" lon="5.19247">
        <ele>926.54998779297</ele>
        <time>2010-10-09T14:53:58Z</time>
      </trkpt>
      <trkpt lat="44.91081" lon="5.19237">
        <ele>924.92797851562</ele>
        <time>2010-10-09T14:54:03Z</time>
      </trkpt>
      <trkpt lat="44.91074" lon="5.19235">
        <ele>924.46801757812</ele>
        <time>2010-10-09T14:54:04Z</time>
      </trkpt>
      <trkpt lat="44.91049" lon="5.19245">
        <ele>924.44799804688</ele>
        <time>2010-10-09T14:54:08Z</time>
      </trkpt>
      <trkpt lat="44.91041" lon="5.19254">
        <ele>924.78698730469</ele>
        <time>2010-10-09T14:54:10Z</time>
      </trkpt>
      <trkpt lat="44.91044" lon="5.19263">
        <ele>925.23101806641</ele>
        <time>2010-10-09T14:54:12Z</time>
      </trkpt>
      <trkpt lat="44.91047" lon="5.19263">
        <ele>925.63702392578</ele>
        <time>2010-10-09T14:54:15Z</time>
      </trkpt>
      <trkpt lat="44.91037" lon="5.19245">
        <ele>925.21502685547</ele>
        <time>2010-10-09T14:57:56Z</time>
      </trkpt>
      <trkpt lat="44.91033" lon="5.19228">
        <ele>925.47100830078</ele>
        <time>2010-10-09T14:58:01Z</time>
      </trkpt>
      <trkpt lat="44.91015" lon="5.19218">
        <ele>924.23699951172</ele>
        <time>2010-10-09T14:58:06Z</time>
      </trkpt>
      <trkpt lat="44.91011" lon="5.19217">
        <ele>924.28900146484</ele>
        <time>2010-10-09T14:58:07Z</time>
      </trkpt>
      <trkpt lat="44.90978" lon="5.19207">
        <ele>925.81799316406</ele>
        <time>2010-10-09T14:58:15Z</time>
      </trkpt>
      <trkpt lat="44.90951" lon="5.19209">
        <ele>927.11602783203</ele>
        <time>2010-10-09T14:58:22Z</time>
      </trkpt>
      <trkpt lat="44.90943" lon="5.19212">
        <ele>927.05603027344</ele>
        <time>2010-10-09T14:58:24Z</time>
      </trkpt>
      <trkpt lat="44.90915" lon="5.19222">
        <ele>928.11499023438</ele>
        <time>2010-10-09T14:58:31Z</time>
      </trkpt>
      <trkpt lat="44.90895" lon="5.19227">
        <ele>928.89202880859</ele>
        <time>2010-10-09T14:58:36Z</time>
      </trkpt>
      <trkpt lat="44.90867" lon="5.19231">
        <ele>929.65399169922</ele>
        <time>2010-10-09T14:58:43Z</time>
      </trkpt>
      <trkpt lat="44.9084" lon="5.19236">
        <ele>931.00701904297</ele>
        <time>2010-10-09T14:58:50Z</time>
      </trkpt>
      <trkpt lat="44.90811" lon="5.19242">
        <ele>931.79498291016</ele>
        <time>2010-10-09T14:58:57Z</time>
      </trkpt>
      <trkpt lat="44.90775" lon="5.1925">
        <ele>931.99298095703</ele>
        <time>2010-10-09T14:59:05Z</time>
      </trkpt>
      <trkpt lat="44.90731" lon="5.1926">
        <ele>932.78802490234</ele>
        <time>2010-10-09T14:59:15Z</time>
      </trkpt>
      <trkpt lat="44.90678" lon="5.19273">
        <ele>932.625</ele>
        <time>2010-10-09T14:59:26Z</time>
      </trkpt>
      <trkpt lat="44.9063" lon="5.19288">
        <ele>932.86602783203</ele>
        <time>2010-10-09T14:59:36Z</time>
      </trkpt>
      <trkpt lat="44.90575" lon="5.19307">
        <ele>933.27001953125</ele>
        <time>2010-10-09T14:59:47Z</time>
      </trkpt>
      <trkpt lat="44.90527" lon="5.19324">
        <ele>933.67700195312</ele>
        <time>2010-10-09T14:59:57Z</time>
      </trkpt>
      <trkpt lat="44.90474" lon="5.19342">
        <ele>934.31799316406</ele>
        <time>2010-10-09T15:00:08Z</time>
      </trkpt>
      <trkpt lat="44.9044" lon="5.1935">
        <ele>934.84100341797</ele>
        <time>2010-10-09T15:00:15Z</time>
      </trkpt>
      <trkpt lat="44.90401" lon="5.19357">
        <ele>935.83801269531</ele>
        <time>2010-10-09T15:00:23Z</time>
      </trkpt>
      <trkpt lat="44.90358" lon="5.19362">
        <ele>935.90802001953</ele>
        <time>2010-10-09T15:00:31Z</time>
      </trkpt>
      <trkpt lat="44.90313" lon="5.19361">
        <ele>936.30700683594</ele>
        <time>2010-10-09T15:00:40Z</time>
      </trkpt>
      <trkpt lat="44.90265" lon="5.19356">
        <ele>935.22802734375</ele>
        <time>2010-10-09T15:00:48Z</time>
      </trkpt>
      <trkpt lat="44.90224" lon="5.19364">
        <ele>934.71600341797</ele>
        <time>2010-10-09T15:00:55Z</time>
      </trkpt>
      <trkpt lat="44.90179" lon="5.19378">
        <ele>935.19598388672</ele>
        <time>2010-10-09T15:01:03Z</time>
      </trkpt>
      <trkpt lat="44.9013" lon="5.19391">
        <ele>935.64202880859</ele>
        <time>2010-10-09T15:01:12Z</time>
      </trkpt>
      <trkpt lat="44.90098" lon="5.1939">
        <ele>935.92102050781</ele>
        <time>2010-10-09T15:01:18Z</time>
      </trkpt>
      <trkpt lat="44.90052" lon="5.1938">
        <ele>936.05902099609</ele>
        <time>2010-10-09T15:01:27Z</time>
      </trkpt>
      <trkpt lat="44.89994" lon="5.19366">
        <ele>935.83099365234</ele>
        <time>2010-10-09T15:01:38Z</time>
      </trkpt>
      <trkpt lat="44.89941" lon="5.19351">
        <ele>936.18499755859</ele>
        <time>2010-10-09T15:01:48Z</time>
      </trkpt>
      <trkpt lat="44.89879" lon="5.19327">
        <ele>936.24102783203</ele>
        <time>2010-10-09T15:02:00Z</time>
      </trkpt>
      <trkpt lat="44.89833" lon="5.19305">
        <ele>936.25799560547</ele>
        <time>2010-10-09T15:02:09Z</time>
      </trkpt>
      <trkpt lat="44.89782" lon="5.1928">
        <ele>936.73797607422</ele>
        <time>2010-10-09T15:02:19Z</time>
      </trkpt>
      <trkpt lat="44.89729" lon="5.1925">
        <ele>936.53198242188</ele>
        <time>2010-10-09T15:02:29Z</time>
      </trkpt>
      <trkpt lat="44.89686" lon="5.19225">
        <ele>936.56201171875</ele>
        <time>2010-10-09T15:02:37Z</time>
      </trkpt>
      <trkpt lat="44.89608" lon="5.19173">
        <ele>937.26300048828</ele>
        <time>2010-10-09T15:02:51Z</time>
      </trkpt>
      <trkpt lat="44.89558" lon="5.1914">
        <ele>937.21600341797</ele>
        <time>2010-10-09T15:03:00Z</time>
      </trkpt>
      <trkpt lat="44.89501" lon="5.19105">
        <ele>937.61401367188</ele>
        <time>2010-10-09T15:03:10Z</time>
      </trkpt>
      <trkpt lat="44.89454" lon="5.19079">
        <ele>937.85699462891</ele>
        <time>2010-10-09T15:03:18Z</time>
      </trkpt>
      <trkpt lat="44.89396" lon="5.19047">
        <ele>938.78399658203</ele>
        <time>2010-10-09T15:03:28Z</time>
      </trkpt>
      <trkpt lat="44.89342" lon="5.19018">
        <ele>939.71801757812</ele>
        <time>2010-10-09T15:03:38Z</time>
      </trkpt>
      <trkpt lat="44.8927" lon="5.18972">
        <ele>941.11999511719</ele>
        <time>2010-10-09T15:03:52Z</time>
      </trkpt>
      <trkpt lat="44.89212" lon="5.1893">
        <ele>941.30102539062</ele>
        <time>2010-10-09T15:04:03Z</time>
      </trkpt>
      <trkpt lat="44.89167" lon="5.18891">
        <ele>941.90002441406</ele>
        <time>2010-10-09T15:04:12Z</time>
      </trkpt>
      <trkpt lat="44.8912" lon="5.18847">
        <ele>942.49798583984</ele>
        <time>2010-10-09T15:04:22Z</time>
      </trkpt>
      <trkpt lat="44.89059" lon="5.18789">
        <ele>943.41900634766</ele>
        <time>2010-10-09T15:04:35Z</time>
      </trkpt>
      <trkpt lat="44.89007" lon="5.18742">
        <ele>943.86798095703</ele>
        <time>2010-10-09T15:04:46Z</time>
      </trkpt>
      <trkpt lat="44.88951" lon="5.18689">
        <ele>943.86499023438</ele>
        <time>2010-10-09T15:04:57Z</time>
      </trkpt>
      <trkpt lat="44.88903" lon="5.18645">
        <ele>943.94897460938</ele>
        <time>2010-10-09T15:05:06Z</time>
      </trkpt>
      <trkpt lat="44.88851" lon="5.18602">
        <ele>944.30999755859</ele>
        <time>2010-10-09T15:05:16Z</time>
      </trkpt>
      <trkpt lat="44.88794" lon="5.18557">
        <ele>944.75598144531</ele>
        <time>2010-10-09T15:05:27Z</time>
      </trkpt>
      <trkpt lat="44.88753" lon="5.18522">
        <ele>945.65600585938</ele>
        <time>2010-10-09T15:05:35Z</time>
      </trkpt>
      <trkpt lat="44.88722" lon="5.18496">
        <ele>945.47601318359</ele>
        <time>2010-10-09T15:05:41Z</time>
      </trkpt>
      <trkpt lat="44.8871" lon="5.18467">
        <ele>945.24200439453</ele>
        <time>2010-10-09T15:05:45Z</time>
      </trkpt>
      <trkpt lat="44.88716" lon="5.18442">
        <ele>944.98297119141</ele>
        <time>2010-10-09T15:05:48Z</time>
      </trkpt>
      <trkpt lat="44.88734" lon="5.18382">
        <ele>945.90301513672</ele>
        <time>2010-10-09T15:05:56Z</time>
      </trkpt>
      <trkpt lat="44.88736" lon="5.18368">
        <ele>946.35498046875</ele>
        <time>2010-10-09T15:05:58Z</time>
      </trkpt>
      <trkpt lat="44.88736" lon="5.18345">
        <ele>947.38000488281</ele>
        <time>2010-10-09T15:06:01Z</time>
      </trkpt>
      <trkpt lat="44.88734" lon="5.18324">
        <ele>948.45001220703</ele>
        <time>2010-10-09T15:06:04Z</time>
      </trkpt>
      <trkpt lat="44.8872" lon="5.18299">
        <ele>949.40502929688</ele>
        <time>2010-10-09T15:06:08Z</time>
      </trkpt>
      <trkpt lat="44.88697" lon="5.18278">
        <ele>949.85302734375</ele>
        <time>2010-10-09T15:06:13Z</time>
      </trkpt>
      <trkpt lat="44.88674" lon="5.18233">
        <ele>950.06097412109</ele>
        <time>2010-10-09T15:06:20Z</time>
      </trkpt>
      <trkpt lat="44.88653" lon="5.18184">
        <ele>947.56896972656</ele>
        <time>2010-10-09T15:06:26Z</time>
      </trkpt>
      <trkpt lat="44.88627" lon="5.18143">
        <ele>948.08801269531</ele>
        <time>2010-10-09T15:06:32Z</time>
      </trkpt>
      <trkpt lat="44.88602" lon="5.18119">
        <ele>949.55499267578</ele>
        <time>2010-10-09T15:06:38Z</time>
      </trkpt>
      <trkpt lat="44.88571" lon="5.18095">
        <ele>951.92102050781</ele>
        <time>2010-10-09T15:06:46Z</time>
      </trkpt>
      <trkpt lat="44.88534" lon="5.18076">
        <ele>953.01397705078</ele>
        <time>2010-10-09T15:06:55Z</time>
      </trkpt>
      <trkpt lat="44.88492" lon="5.18062">
        <ele>955.71899414062</ele>
        <time>2010-10-09T15:07:05Z</time>
      </trkpt>
      <trkpt lat="44.8846" lon="5.18057">
        <ele>956.68298339844</ele>
        <time>2010-10-09T15:07:13Z</time>
      </trkpt>
      <trkpt lat="44.88416" lon="5.18054">
        <ele>959.13598632812</ele>
        <time>2010-10-09T15:07:24Z</time>
      </trkpt>
      <trkpt lat="44.88374" lon="5.18053">
        <ele>960.6259765625</ele>
        <time>2010-10-09T15:07:34Z</time>
      </trkpt>
      <trkpt lat="44.88344" lon="5.18053">
        <ele>962.41400146484</ele>
        <time>2010-10-09T15:07:42Z</time>
      </trkpt>
      <trkpt lat="44.88327" lon="5.1805">
        <ele>963.16497802734</ele>
        <time>2010-10-09T15:07:47Z</time>
      </trkpt>
      <trkpt lat="44.88328" lon="5.18036">
        <ele>964.03802490234</ele>
        <time>2010-10-09T15:07:51Z</time>
      </trkpt>
      <trkpt lat="44.88335" lon="5.18034">
        <ele>964.55902099609</ele>
        <time>2010-10-09T15:07:53Z</time>
      </trkpt>
      <trkpt lat="44.88367" lon="5.18025">
        <ele>965.56298828125</ele>
        <time>2010-10-09T15:08:01Z</time>
      </trkpt>
      <trkpt lat="44.88402" lon="5.18014">
        <ele>967.90197753906</ele>
        <time>2010-10-09T15:08:10Z</time>
      </trkpt>
      <trkpt lat="44.88431" lon="5.18004">
        <ele>969.87799072266</ele>
        <time>2010-10-09T15:08:18Z</time>
      </trkpt>
      <trkpt lat="44.88458" lon="5.17994">
        <ele>971.97998046875</ele>
        <time>2010-10-09T15:08:26Z</time>
      </trkpt>
      <trkpt lat="44.88483" lon="5.17983">
        <ele>974.21099853516</ele>
        <time>2010-10-09T15:08:33Z</time>
      </trkpt>
      <trkpt lat="44.88518" lon="5.17961">
        <ele>977.125</ele>
        <time>2010-10-09T15:08:43Z</time>
      </trkpt>
      <trkpt lat="44.88548" lon="5.1794">
        <ele>979.81500244141</ele>
        <time>2010-10-09T15:08:52Z</time>
      </trkpt>
      <trkpt lat="44.88584" lon="5.17916">
        <ele>982.60198974609</ele>
        <time>2010-10-09T15:09:02Z</time>
      </trkpt>
      <trkpt lat="44.88597" lon="5.17899">
        <ele>984.08599853516</ele>
        <time>2010-10-09T15:09:07Z</time>
      </trkpt>
      <trkpt lat="44.88589" lon="5.1788">
        <ele>985.69500732422</ele>
        <time>2010-10-09T15:09:11Z</time>
      </trkpt>
      <trkpt lat="44.88579" lon="5.17873">
        <ele>986.53399658203</ele>
        <time>2010-10-09T15:09:14Z</time>
      </trkpt>
      <trkpt lat="44.88546" lon="5.17857">
        <ele>989.10101318359</ele>
        <time>2010-10-09T15:09:23Z</time>
      </trkpt>
      <trkpt lat="44.88519" lon="5.17839">
        <ele>991.29302978516</ele>
        <time>2010-10-09T15:09:31Z</time>
      </trkpt>
      <trkpt lat="44.88498" lon="5.17814">
        <ele>992.74499511719</ele>
        <time>2010-10-09T15:09:38Z</time>
      </trkpt>
      <trkpt lat="44.88483" lon="5.17785">
        <ele>994.57702636719</ele>
        <time>2010-10-09T15:09:44Z</time>
      </trkpt>
      <trkpt lat="44.88481" lon="5.1775">
        <ele>995.86199951172</ele>
        <time>2010-10-09T15:09:50Z</time>
      </trkpt>
      <trkpt lat="44.88493" lon="5.17732">
        <ele>996.86102294922</ele>
        <time>2010-10-09T15:09:54Z</time>
      </trkpt>
      <trkpt lat="44.885" lon="5.17729">
        <ele>997.23101806641</ele>
        <time>2010-10-09T15:09:56Z</time>
      </trkpt>
      <trkpt lat="44.88531" lon="5.17715">
        <ele>1000.2360229492</ele>
        <time>2010-10-09T15:10:05Z</time>
      </trkpt>
      <trkpt lat="44.88545" lon="5.17693">
        <ele>1002.4379882812</ele>
        <time>2010-10-09T15:10:11Z</time>
      </trkpt>
      <trkpt lat="44.88554" lon="5.17662">
        <ele>1004.6610107422</ele>
        <time>2010-10-09T15:10:18Z</time>
      </trkpt>
      <trkpt lat="44.8856" lon="5.17624">
        <ele>1006.4810180664</ele>
        <time>2010-10-09T15:10:26Z</time>
      </trkpt>
      <trkpt lat="44.88569" lon="5.17583">
        <ele>1008.8449707031</ele>
        <time>2010-10-09T15:10:35Z</time>
      </trkpt>
      <trkpt lat="44.88585" lon="5.17558">
        <ele>1011.1929931641</ele>
        <time>2010-10-09T15:10:42Z</time>
      </trkpt>
      <trkpt lat="44.88604" lon="5.17537">
        <ele>1013.5380249023</ele>
        <time>2010-10-09T15:10:50Z</time>
      </trkpt>
      <trkpt lat="44.88608" lon="5.17522">
        <ele>1014.0520019531</ele>
        <time>2010-10-09T15:10:54Z</time>
      </trkpt>
      <trkpt lat="44.88601" lon="5.17506">
        <ele>1015.1300048828</ele>
        <time>2010-10-09T15:10:58Z</time>
      </trkpt>
      <trkpt lat="44.88597" lon="5.17504">
        <ele>1015.2109985352</ele>
        <time>2010-10-09T15:10:59Z</time>
      </trkpt>
      <trkpt lat="44.88571" lon="5.17488">
        <ele>1017.5720214844</ele>
        <time>2010-10-09T15:11:06Z</time>
      </trkpt>
      <trkpt lat="44.88545" lon="5.17464">
        <ele>1019.9329833984</ele>
        <time>2010-10-09T15:11:14Z</time>
      </trkpt>
      <trkpt lat="44.88534" lon="5.17438">
        <ele>1021.7379760742</ele>
        <time>2010-10-09T15:11:20Z</time>
      </trkpt>
      <trkpt lat="44.8853" lon="5.17406">
        <ele>1023.7150268555</ele>
        <time>2010-10-09T15:11:26Z</time>
      </trkpt>
      <trkpt lat="44.8853" lon="5.17358">
        <ele>1024.2860107422</ele>
        <time>2010-10-09T15:11:34Z</time>
      </trkpt>
      <trkpt lat="44.88535" lon="5.17309">
        <ele>1024.2700195312</ele>
        <time>2010-10-09T15:11:41Z</time>
      </trkpt>
      <trkpt lat="44.8855" lon="5.17232">
        <ele>1024.9749755859</ele>
        <time>2010-10-09T15:11:51Z</time>
      </trkpt>
      <trkpt lat="44.88566" lon="5.17177">
        <ele>1026.1719970703</ele>
        <time>2010-10-09T15:11:59Z</time>
      </trkpt>
      <trkpt lat="44.88588" lon="5.17106">
        <ele>1028.6529541016</ele>
        <time>2010-10-09T15:12:10Z</time>
      </trkpt>
      <trkpt lat="44.88605" lon="5.17052">
        <ele>1030.6180419922</ele>
        <time>2010-10-09T15:12:19Z</time>
      </trkpt>
      <trkpt lat="44.88612" lon="5.17008">
        <ele>1031.9410400391</ele>
        <time>2010-10-09T15:12:26Z</time>
      </trkpt>
      <trkpt lat="44.88612" lon="5.16959">
        <ele>1034.751953125</ele>
        <time>2010-10-09T15:12:34Z</time>
      </trkpt>
      <trkpt lat="44.8861" lon="5.16905">
        <ele>1037.4720458984</ele>
        <time>2010-10-09T15:12:44Z</time>
      </trkpt>
      <trkpt lat="44.88609" lon="5.16863">
        <ele>1039.4930419922</ele>
        <time>2010-10-09T15:12:52Z</time>
      </trkpt>
      <trkpt lat="44.88601" lon="5.16834">
        <ele>1041.7960205078</ele>
        <time>2010-10-09T15:12:58Z</time>
      </trkpt>
      <trkpt lat="44.88585" lon="5.16801">
        <ele>1043.5419921875</ele>
        <time>2010-10-09T15:13:05Z</time>
      </trkpt>
      <trkpt lat="44.8856" lon="5.16762">
        <ele>1045.7569580078</ele>
        <time>2010-10-09T15:13:14Z</time>
      </trkpt>
      <trkpt lat="44.88541" lon="5.16726">
        <ele>1047.7860107422</ele>
        <time>2010-10-09T15:13:22Z</time>
      </trkpt>
      <trkpt lat="44.88532" lon="5.16686">
        <ele>1050.3819580078</ele>
        <time>2010-10-09T15:13:30Z</time>
      </trkpt>
      <trkpt lat="44.88534" lon="5.1665">
        <ele>1052.2430419922</ele>
        <time>2010-10-09T15:13:37Z</time>
      </trkpt>
      <trkpt lat="44.88543" lon="5.1661">
        <ele>1054.3830566406</ele>
        <time>2010-10-09T15:13:45Z</time>
      </trkpt>
      <trkpt lat="44.88558" lon="5.1658">
        <ele>1056.6619873047</ele>
        <time>2010-10-09T15:13:52Z</time>
      </trkpt>
      <trkpt lat="44.8858" lon="5.1655">
        <ele>1058.1910400391</ele>
        <time>2010-10-09T15:14:00Z</time>
      </trkpt>
      <trkpt lat="44.88599" lon="5.16522">
        <ele>1060.41796875</ele>
        <time>2010-10-09T15:14:07Z</time>
      </trkpt>
      <trkpt lat="44.88619" lon="5.1648">
        <ele>1063.4959716797</ele>
        <time>2010-10-09T15:14:16Z</time>
      </trkpt>
      <trkpt lat="44.88625" lon="5.16443">
        <ele>1065.7139892578</ele>
        <time>2010-10-09T15:14:23Z</time>
      </trkpt>
      <trkpt lat="44.88625" lon="5.16401">
        <ele>1068.1459960938</ele>
        <time>2010-10-09T15:14:30Z</time>
      </trkpt>
      <trkpt lat="44.88625" lon="5.16344">
        <ele>1071.3449707031</ele>
        <time>2010-10-09T15:14:39Z</time>
      </trkpt>
      <trkpt lat="44.88633" lon="5.16291">
        <ele>1074.4379882812</ele>
        <time>2010-10-09T15:14:48Z</time>
      </trkpt>
      <trkpt lat="44.88639" lon="5.16261">
        <ele>1076.9890136719</ele>
        <time>2010-10-09T15:14:54Z</time>
      </trkpt>
      <trkpt lat="44.8864" lon="5.16231">
        <ele>1078.4859619141</ele>
        <time>2010-10-09T15:15:00Z</time>
      </trkpt>
      <trkpt lat="44.88633" lon="5.16199">
        <ele>1080.6700439453</ele>
        <time>2010-10-09T15:15:06Z</time>
      </trkpt>
      <trkpt lat="44.88618" lon="5.16168">
        <ele>1082.3050537109</ele>
        <time>2010-10-09T15:15:12Z</time>
      </trkpt>
      <trkpt lat="44.88601" lon="5.16132">
        <ele>1084.3979492188</ele>
        <time>2010-10-09T15:15:19Z</time>
      </trkpt>
      <trkpt lat="44.88581" lon="5.1609">
        <ele>1086.9720458984</ele>
        <time>2010-10-09T15:15:28Z</time>
      </trkpt>
      <trkpt lat="44.8858" lon="5.16085">
        <ele>1087.4610595703</ele>
        <time>2010-10-09T15:15:29Z</time>
      </trkpt>
      <trkpt lat="44.8858" lon="5.16073">
        <ele>1088.1910400391</ele>
        <time>2010-10-09T15:15:31Z</time>
      </trkpt>
      <trkpt lat="44.88586" lon="5.16057">
        <ele>1088.7729492188</ele>
        <time>2010-10-09T15:15:34Z</time>
      </trkpt>
      <trkpt lat="44.88613" lon="5.16016">
        <ele>1091.0229492188</ele>
        <time>2010-10-09T15:15:43Z</time>
      </trkpt>
      <trkpt lat="44.88641" lon="5.15962">
        <ele>1092.6540527344</ele>
        <time>2010-10-09T15:15:53Z</time>
      </trkpt>
      <trkpt lat="44.8866" lon="5.15911">
        <ele>1094.1099853516</ele>
        <time>2010-10-09T15:16:02Z</time>
      </trkpt>
      <trkpt lat="44.88667" lon="5.15889">
        <ele>1094.6450195312</ele>
        <time>2010-10-09T15:16:06Z</time>
      </trkpt>
      <trkpt lat="44.88684" lon="5.15852">
        <ele>1095.1960449219</ele>
        <time>2010-10-09T15:16:14Z</time>
      </trkpt>
      <trkpt lat="44.88694" lon="5.15831">
        <ele>1094.998046875</ele>
        <time>2010-10-09T15:16:19Z</time>
      </trkpt>
      <trkpt lat="44.88705" lon="5.15811">
        <ele>1093.8420410156</ele>
        <time>2010-10-09T15:16:23Z</time>
      </trkpt>
      <trkpt lat="44.88717" lon="5.15798">
        <ele>1092.7709960938</ele>
        <time>2010-10-09T15:16:27Z</time>
      </trkpt>
      <trkpt lat="44.88721" lon="5.15793">
        <ele>1092.7750244141</ele>
        <time>2010-10-09T15:16:31Z</time>
      </trkpt>
      <trkpt lat="44.88721" lon="5.15792">
        <ele>1092.8239746094</ele>
        <time>2010-10-09T15:16:32Z</time>
      </trkpt>
      <trkpt lat="44.88724" lon="5.15773">
        <ele>1091.9969482422</ele>
        <time>2010-10-09T15:17:00Z</time>
      </trkpt>
      <trkpt lat="44.88727" lon="5.15757">
        <ele>1091.1899414062</ele>
        <time>2010-10-09T15:17:02Z</time>
      </trkpt>
      <trkpt lat="44.88734" lon="5.15704">
        <ele>1087.3620605469</ele>
        <time>2010-10-09T15:17:07Z</time>
      </trkpt>
      <trkpt lat="44.88745" lon="5.15668">
        <ele>1084.4150390625</ele>
        <time>2010-10-09T15:17:10Z</time>
      </trkpt>
      <trkpt lat="44.8877" lon="5.15642">
        <ele>1081.6860351562</ele>
        <time>2010-10-09T15:17:13Z</time>
      </trkpt>
      <trkpt lat="44.88785" lon="5.15614">
        <ele>1079.9959716797</ele>
        <time>2010-10-09T15:17:15Z</time>
      </trkpt>
      <trkpt lat="44.88791" lon="5.15565">
        <ele>1076.1130371094</ele>
        <time>2010-10-09T15:17:18Z</time>
      </trkpt>
      <trkpt lat="44.888" lon="5.15513">
        <ele>1073.5460205078</ele>
        <time>2010-10-09T15:17:21Z</time>
      </trkpt>
      <trkpt lat="44.88815" lon="5.1548">
        <ele>1070.3990478516</ele>
        <time>2010-10-09T15:17:23Z</time>
      </trkpt>
      <trkpt lat="44.88827" lon="5.15467">
        <ele>1069.70703125</ele>
        <time>2010-10-09T15:17:24Z</time>
      </trkpt>
      <trkpt lat="44.88868" lon="5.15407">
        <ele>1064.5369873047</ele>
        <time>2010-10-09T15:17:28Z</time>
      </trkpt>
      <trkpt lat="44.88882" lon="5.15345">
        <ele>1060.3990478516</ele>
        <time>2010-10-09T15:17:31Z</time>
      </trkpt>
      <trkpt lat="44.88902" lon="5.15214">
        <ele>1052.9470214844</ele>
        <time>2010-10-09T15:17:37Z</time>
      </trkpt>
      <trkpt lat="44.88914" lon="5.15105">
        <ele>1046.6839599609</ele>
        <time>2010-10-09T15:17:42Z</time>
      </trkpt>
      <trkpt lat="44.88927" lon="5.15005">
        <ele>1046.9200439453</ele>
        <time>2010-10-09T15:17:47Z</time>
      </trkpt>
      <trkpt lat="44.88939" lon="5.14925">
        <ele>1043.7060546875</ele>
        <time>2010-10-09T15:17:51Z</time>
      </trkpt>
      <trkpt lat="44.88949" lon="5.14889">
        <ele>1042.8010253906</ele>
        <time>2010-10-09T15:17:53Z</time>
      </trkpt>
      <trkpt lat="44.88972" lon="5.14845">
        <ele>1045.2180175781</ele>
        <time>2010-10-09T15:17:56Z</time>
      </trkpt>
      <trkpt lat="44.88985" lon="5.14817">
        <ele>1045.4610595703</ele>
        <time>2010-10-09T15:17:58Z</time>
      </trkpt>
      <trkpt lat="44.89004" lon="5.1474">
        <ele>1043.9809570312</ele>
        <time>2010-10-09T15:18:03Z</time>
      </trkpt>
      <trkpt lat="44.89021" lon="5.14684">
        <ele>1043.8299560547</ele>
        <time>2010-10-09T15:18:07Z</time>
      </trkpt>
      <trkpt lat="44.89028" lon="5.14596">
        <ele>1042.6479492188</ele>
        <time>2010-10-09T15:18:13Z</time>
      </trkpt>
      <trkpt lat="44.89033" lon="5.14524">
        <ele>1041.9270019531</ele>
        <time>2010-10-09T15:18:18Z</time>
      </trkpt>
      <trkpt lat="44.89023" lon="5.14486">
        <ele>1040.5600585938</ele>
        <time>2010-10-09T15:18:21Z</time>
      </trkpt>
      <trkpt lat="44.89005" lon="5.14472">
        <ele>1038.3959960938</ele>
        <time>2010-10-09T15:18:23Z</time>
      </trkpt>
      <trkpt lat="44.88969" lon="5.14461">
        <ele>1035.8759765625</ele>
        <time>2010-10-09T15:18:26Z</time>
      </trkpt>
      <trkpt lat="44.8896" lon="5.1445">
        <ele>1033.9560546875</ele>
        <time>2010-10-09T15:18:27Z</time>
      </trkpt>
      <trkpt lat="44.88911" lon="5.14405">
        <ele>1029.5159912109</ele>
        <time>2010-10-09T15:18:32Z</time>
      </trkpt>
      <trkpt lat="44.88899" lon="5.14399">
        <ele>1028.7459716797</ele>
        <time>2010-10-09T15:18:33Z</time>
      </trkpt>
      <trkpt lat="44.88861" lon="5.1439">
        <ele>1024.6319580078</ele>
        <time>2010-10-09T15:18:36Z</time>
      </trkpt>
      <trkpt lat="44.88849" lon="5.14394">
        <ele>1023.7990112305</ele>
        <time>2010-10-09T15:18:37Z</time>
      </trkpt>
      <trkpt lat="44.88783" lon="5.14389">
        <ele>1019.4210205078</ele>
        <time>2010-10-09T15:18:42Z</time>
      </trkpt>
      <trkpt lat="44.88746" lon="5.14357">
        <ele>1015.6820068359</ele>
        <time>2010-10-09T15:18:45Z</time>
      </trkpt>
      <trkpt lat="44.88723" lon="5.14345">
        <ele>1013.8850097656</ele>
        <time>2010-10-09T15:18:47Z</time>
      </trkpt>
      <trkpt lat="44.8871" lon="5.14336">
        <ele>1014.4349975586</ele>
        <time>2010-10-09T15:18:49Z</time>
      </trkpt>
      <trkpt lat="44.88718" lon="5.14324">
        <ele>1014.491027832</ele>
        <time>2010-10-09T15:18:51Z</time>
      </trkpt>
      <trkpt lat="44.88734" lon="5.14324">
        <ele>1013.8690185547</ele>
        <time>2010-10-09T15:18:53Z</time>
      </trkpt>
      <trkpt lat="44.88785" lon="5.14333">
        <ele>1009.7940063477</ele>
        <time>2010-10-09T15:18:58Z</time>
      </trkpt>
      <trkpt lat="44.88797" lon="5.14334">
        <ele>1008.758972168</ele>
        <time>2010-10-09T15:18:59Z</time>
      </trkpt>
      <trkpt lat="44.88835" lon="5.14329">
        <ele>1005.2700195312</ele>
        <time>2010-10-09T15:19:02Z</time>
      </trkpt>
      <trkpt lat="44.88859" lon="5.1431">
        <ele>1002.4119873047</ele>
        <time>2010-10-09T15:19:04Z</time>
      </trkpt>
      <trkpt lat="44.88919" lon="5.14255">
        <ele>996.99499511719</ele>
        <time>2010-10-09T15:19:09Z</time>
      </trkpt>
      <trkpt lat="44.88942" lon="5.14201">
        <ele>994.34002685547</ele>
        <time>2010-10-09T15:19:12Z</time>
      </trkpt>
      <trkpt lat="44.88935" lon="5.1416">
        <ele>991.21197509766</ele>
        <time>2010-10-09T15:19:14Z</time>
      </trkpt>
      <trkpt lat="44.88916" lon="5.14105">
        <ele>988.25402832031</ele>
        <time>2010-10-09T15:19:17Z</time>
      </trkpt>
      <trkpt lat="44.88917" lon="5.14064">
        <ele>986.74102783203</ele>
        <time>2010-10-09T15:19:19Z</time>
      </trkpt>
      <trkpt lat="44.88905" lon="5.13986">
        <ele>981.7490234375</ele>
        <time>2010-10-09T15:19:23Z</time>
      </trkpt>
      <trkpt lat="44.88894" lon="5.13971">
        <ele>981.0009765625</ele>
        <time>2010-10-09T15:19:24Z</time>
      </trkpt>
      <trkpt lat="44.88818" lon="5.13869">
        <ele>972.69897460938</ele>
        <time>2010-10-09T15:19:31Z</time>
      </trkpt>
      <trkpt lat="44.88808" lon="5.13853">
        <ele>970.65997314453</ele>
        <time>2010-10-09T15:19:32Z</time>
      </trkpt>
      <trkpt lat="44.8877" lon="5.13821">
        <ele>966.22198486328</ele>
        <time>2010-10-09T15:19:35Z</time>
      </trkpt>
      <trkpt lat="44.88741" lon="5.13814">
        <ele>962.91802978516</ele>
        <time>2010-10-09T15:19:37Z</time>
      </trkpt>
      <trkpt lat="44.8867" lon="5.13801">
        <ele>960.23498535156</ele>
        <time>2010-10-09T15:19:42Z</time>
      </trkpt>
      <trkpt lat="44.88647" lon="5.13801">
        <ele>960.61499023438</ele>
        <time>2010-10-09T15:19:44Z</time>
      </trkpt>
      <trkpt lat="44.88641" lon="5.13781">
        <ele>961.46899414062</ele>
        <time>2010-10-09T15:19:47Z</time>
      </trkpt>
      <trkpt lat="44.88658" lon="5.13773">
        <ele>960.83599853516</ele>
        <time>2010-10-09T15:19:49Z</time>
      </trkpt>
      <trkpt lat="44.88688" lon="5.13762">
        <ele>958.86999511719</ele>
        <time>2010-10-09T15:19:52Z</time>
      </trkpt>
      <trkpt lat="44.8872" lon="5.13737">
        <ele>954.88098144531</ele>
        <time>2010-10-09T15:19:55Z</time>
      </trkpt>
      <trkpt lat="44.88739" lon="5.13712">
        <ele>952.833984375</ele>
        <time>2010-10-09T15:19:57Z</time>
      </trkpt>
      <trkpt lat="44.8879" lon="5.13641">
        <ele>947.03302001953</ele>
        <time>2010-10-09T15:20:02Z</time>
      </trkpt>
      <trkpt lat="44.88866" lon="5.13541">
        <ele>941.29400634766</ele>
        <time>2010-10-09T15:20:09Z</time>
      </trkpt>
      <trkpt lat="44.88887" lon="5.13513">
        <ele>940.37200927734</ele>
        <time>2010-10-09T15:20:11Z</time>
      </trkpt>
      <trkpt lat="44.88927" lon="5.13452">
        <ele>937.01397705078</ele>
        <time>2010-10-09T15:20:15Z</time>
      </trkpt>
      <trkpt lat="44.88977" lon="5.13406">
        <ele>931.84197998047</ele>
        <time>2010-10-09T15:20:19Z</time>
      </trkpt>
      <trkpt lat="44.88992" lon="5.13376">
        <ele>930.28198242188</ele>
        <time>2010-10-09T15:20:21Z</time>
      </trkpt>
      <trkpt lat="44.88983" lon="5.13338">
        <ele>927.52099609375</ele>
        <time>2010-10-09T15:20:23Z</time>
      </trkpt>
      <trkpt lat="44.88955" lon="5.13293">
        <ele>924.458984375</ele>
        <time>2010-10-09T15:20:26Z</time>
      </trkpt>
      <trkpt lat="44.88944" lon="5.13255">
        <ele>922.01800537109</ele>
        <time>2010-10-09T15:20:28Z</time>
      </trkpt>
      <trkpt lat="44.88944" lon="5.13193">
        <ele>918.20300292969</ele>
        <time>2010-10-09T15:20:31Z</time>
      </trkpt>
      <trkpt lat="44.88932" lon="5.13154">
        <ele>916.30798339844</ele>
        <time>2010-10-09T15:20:33Z</time>
      </trkpt>
      <trkpt lat="44.8891" lon="5.13125">
        <ele>914.39501953125</ele>
        <time>2010-10-09T15:20:35Z</time>
      </trkpt>
      <trkpt lat="44.88897" lon="5.13114">
        <ele>912.97900390625</ele>
        <time>2010-10-09T15:20:36Z</time>
      </trkpt>
      <trkpt lat="44.88873" lon="5.13095">
        <ele>910.96197509766</ele>
        <time>2010-10-09T15:20:38Z</time>
      </trkpt>
      <trkpt lat="44.88843" lon="5.13093">
        <ele>910.57000732422</ele>
        <time>2010-10-09T15:20:41Z</time>
      </trkpt>
      <trkpt lat="44.88835" lon="5.13073">
        <ele>909.43597412109</ele>
        <time>2010-10-09T15:20:44Z</time>
      </trkpt>
      <trkpt lat="44.88853" lon="5.13071">
        <ele>908.89801025391</ele>
        <time>2010-10-09T15:20:46Z</time>
      </trkpt>
      <trkpt lat="44.88873" lon="5.13078">
        <ele>908.15002441406</ele>
        <time>2010-10-09T15:20:48Z</time>
      </trkpt>
      <trkpt lat="44.88896" lon="5.13084">
        <ele>906.13702392578</ele>
        <time>2010-10-09T15:20:50Z</time>
      </trkpt>
      <trkpt lat="44.88922" lon="5.13085">
        <ele>903.92797851562</ele>
        <time>2010-10-09T15:20:52Z</time>
      </trkpt>
      <trkpt lat="44.8896" lon="5.13104">
        <ele>899.97100830078</ele>
        <time>2010-10-09T15:20:55Z</time>
      </trkpt>
      <trkpt lat="44.88979" lon="5.13136">
        <ele>897.19702148438</ele>
        <time>2010-10-09T15:20:57Z</time>
      </trkpt>
      <trkpt lat="44.88995" lon="5.13194">
        <ele>891.77099609375</ele>
        <time>2010-10-09T15:21:00Z</time>
      </trkpt>
      <trkpt lat="44.89004" lon="5.1325">
        <ele>889.27301025391</ele>
        <time>2010-10-09T15:21:03Z</time>
      </trkpt>
      <trkpt lat="44.89024" lon="5.13267">
        <ele>887.90698242188</ele>
        <time>2010-10-09T15:21:05Z</time>
      </trkpt>
      <trkpt lat="44.89049" lon="5.13251">
        <ele>887.24200439453</ele>
        <time>2010-10-09T15:21:07Z</time>
      </trkpt>
      <trkpt lat="44.89051" lon="5.13218">
        <ele>887.01300048828</ele>
        <time>2010-10-09T15:21:09Z</time>
      </trkpt>
      <trkpt lat="44.89038" lon="5.13165">
        <ele>884.69702148438</ele>
        <time>2010-10-09T15:21:12Z</time>
      </trkpt>
      <trkpt lat="44.89031" lon="5.13147">
        <ele>882.86499023438</ele>
        <time>2010-10-09T15:21:13Z</time>
      </trkpt>
      <trkpt lat="44.89013" lon="5.13091">
        <ele>878.57098388672</ele>
        <time>2010-10-09T15:21:16Z</time>
      </trkpt>
      <trkpt lat="44.89007" lon="5.13007">
        <ele>872.24401855469</ele>
        <time>2010-10-09T15:21:20Z</time>
      </trkpt>
      <trkpt lat="44.89015" lon="5.12897">
        <ele>866.33801269531</ele>
        <time>2010-10-09T15:21:25Z</time>
      </trkpt>
      <trkpt lat="44.89023" lon="5.1281">
        <ele>861.41400146484</ele>
        <time>2010-10-09T15:21:29Z</time>
      </trkpt>
      <trkpt lat="44.89016" lon="5.12749">
        <ele>856.55401611328</ele>
        <time>2010-10-09T15:21:32Z</time>
      </trkpt>
      <trkpt lat="44.89007" lon="5.12732">
        <ele>856.54498291016</ele>
        <time>2010-10-09T15:21:33Z</time>
      </trkpt>
      <trkpt lat="44.88964" lon="5.12647">
        <ele>855.56201171875</ele>
        <time>2010-10-09T15:21:38Z</time>
      </trkpt>
      <trkpt lat="44.88929" lon="5.12607">
        <ele>847.24102783203</ele>
        <time>2010-10-09T15:21:41Z</time>
      </trkpt>
      <trkpt lat="44.88914" lon="5.12599">
        <ele>845.32098388672</ele>
        <time>2010-10-09T15:21:42Z</time>
      </trkpt>
      <trkpt lat="44.88884" lon="5.12558">
        <ele>843.79602050781</ele>
        <time>2010-10-09T15:21:45Z</time>
      </trkpt>
      <trkpt lat="44.88877" lon="5.12539">
        <ele>842.44201660156</ele>
        <time>2010-10-09T15:21:46Z</time>
      </trkpt>
      <trkpt lat="44.88858" lon="5.12481">
        <ele>837.81896972656</ele>
        <time>2010-10-09T15:21:49Z</time>
      </trkpt>
      <trkpt lat="44.88845" lon="5.1242">
        <ele>833.62200927734</ele>
        <time>2010-10-09T15:21:52Z</time>
      </trkpt>
      <trkpt lat="44.88845" lon="5.12399">
        <ele>832.83801269531</ele>
        <time>2010-10-09T15:21:53Z</time>
      </trkpt>
      <trkpt lat="44.88839" lon="5.12315">
        <ele>831.17498779297</ele>
        <time>2010-10-09T15:21:57Z</time>
      </trkpt>
      <trkpt lat="44.88836" lon="5.123">
        <ele>831.52600097656</ele>
        <time>2010-10-09T15:21:58Z</time>
      </trkpt>
      <trkpt lat="44.88843" lon="5.12291">
        <ele>831.41302490234</ele>
        <time>2010-10-09T15:22:01Z</time>
      </trkpt>
      <trkpt lat="44.8885" lon="5.12309">
        <ele>830.07098388672</ele>
        <time>2010-10-09T15:22:03Z</time>
      </trkpt>
      <trkpt lat="44.8885" lon="5.1232">
        <ele>828.875</ele>
        <time>2010-10-09T15:22:04Z</time>
      </trkpt>
      <trkpt lat="44.88859" lon="5.12393">
        <ele>823.98602294922</ele>
        <time>2010-10-09T15:22:09Z</time>
      </trkpt>
      <trkpt lat="44.88865" lon="5.12428">
        <ele>821.53302001953</ele>
        <time>2010-10-09T15:22:11Z</time>
      </trkpt>
      <trkpt lat="44.88894" lon="5.1249">
        <ele>817.89202880859</ele>
        <time>2010-10-09T15:22:15Z</time>
      </trkpt>
      <trkpt lat="44.88908" lon="5.12523">
        <ele>815.88500976562</ele>
        <time>2010-10-09T15:22:17Z</time>
      </trkpt>
      <trkpt lat="44.88945" lon="5.12553">
        <ele>811.46301269531</ele>
        <time>2010-10-09T15:22:20Z</time>
      </trkpt>
      <trkpt lat="44.88959" lon="5.12555">
        <ele>810.83502197266</ele>
        <time>2010-10-09T15:22:21Z</time>
      </trkpt>
      <trkpt lat="44.88992" lon="5.12562">
        <ele>808.89398193359</ele>
        <time>2010-10-09T15:22:23Z</time>
      </trkpt>
      <trkpt lat="44.89047" lon="5.12598">
        <ele>803.21801757812</ele>
        <time>2010-10-09T15:22:27Z</time>
      </trkpt>
      <trkpt lat="44.8911" lon="5.12663">
        <ele>798.16497802734</ele>
        <time>2010-10-09T15:22:32Z</time>
      </trkpt>
      <trkpt lat="44.8913" lon="5.12695">
        <ele>796.40301513672</ele>
        <time>2010-10-09T15:22:34Z</time>
      </trkpt>
      <trkpt lat="44.89144" lon="5.12781">
        <ele>792.166015625</ele>
        <time>2010-10-09T15:22:38Z</time>
      </trkpt>
      <trkpt lat="44.89135" lon="5.12826">
        <ele>789.41101074219</ele>
        <time>2010-10-09T15:22:40Z</time>
      </trkpt>
      <trkpt lat="44.89127" lon="5.12893">
        <ele>784.56799316406</ele>
        <time>2010-10-09T15:22:43Z</time>
      </trkpt>
      <trkpt lat="44.89141" lon="5.12952">
        <ele>781.73297119141</ele>
        <time>2010-10-09T15:22:46Z</time>
      </trkpt>
      <trkpt lat="44.8917" lon="5.12968">
        <ele>779.56500244141</ele>
        <time>2010-10-09T15:22:48Z</time>
      </trkpt>
      <trkpt lat="44.89187" lon="5.12974">
        <ele>779.00201416016</ele>
        <time>2010-10-09T15:22:49Z</time>
      </trkpt>
      <trkpt lat="44.89255" lon="5.1302">
        <ele>773.34100341797</ele>
        <time>2010-10-09T15:22:54Z</time>
      </trkpt>
      <trkpt lat="44.89277" lon="5.1308">
        <ele>769.77502441406</ele>
        <time>2010-10-09T15:22:57Z</time>
      </trkpt>
      <trkpt lat="44.8928" lon="5.131">
        <ele>769.21002197266</ele>
        <time>2010-10-09T15:22:58Z</time>
      </trkpt>
      <trkpt lat="44.89296" lon="5.13161">
        <ele>765.33599853516</ele>
        <time>2010-10-09T15:23:01Z</time>
      </trkpt>
      <trkpt lat="44.8931" lon="5.13197">
        <ele>763.083984375</ele>
        <time>2010-10-09T15:23:03Z</time>
      </trkpt>
      <trkpt lat="44.89325" lon="5.1326">
        <ele>759.29400634766</ele>
        <time>2010-10-09T15:23:06Z</time>
      </trkpt>
      <trkpt lat="44.89355" lon="5.13338">
        <ele>754.98797607422</ele>
        <time>2010-10-09T15:23:10Z</time>
      </trkpt>
      <trkpt lat="44.89372" lon="5.134">
        <ele>751.41302490234</ele>
        <time>2010-10-09T15:23:13Z</time>
      </trkpt>
      <trkpt lat="44.89398" lon="5.13505">
        <ele>745.24102783203</ele>
        <time>2010-10-09T15:23:18Z</time>
      </trkpt>
      <trkpt lat="44.89416" lon="5.13612">
        <ele>738.77301025391</ele>
        <time>2010-10-09T15:23:23Z</time>
      </trkpt>
      <trkpt lat="44.89431" lon="5.13719">
        <ele>733.39801025391</ele>
        <time>2010-10-09T15:23:28Z</time>
      </trkpt>
      <trkpt lat="44.89446" lon="5.13853">
        <ele>725.86901855469</ele>
        <time>2010-10-09T15:23:34Z</time>
      </trkpt>
      <trkpt lat="44.89443" lon="5.13913">
        <ele>724.77600097656</ele>
        <time>2010-10-09T15:23:37Z</time>
      </trkpt>
      <trkpt lat="44.89438" lon="5.13933">
        <ele>725.72998046875</ele>
        <time>2010-10-09T15:23:39Z</time>
      </trkpt>
      <trkpt lat="44.8946" lon="5.13923">
        <ele>724.98602294922</ele>
        <time>2010-10-09T15:23:42Z</time>
      </trkpt>
      <trkpt lat="44.89466" lon="5.13906">
        <ele>723.73498535156</ele>
        <time>2010-10-09T15:23:44Z</time>
      </trkpt>
      <trkpt lat="44.89468" lon="5.13881">
        <ele>721.40399169922</ele>
        <time>2010-10-09T15:23:46Z</time>
      </trkpt>
      <trkpt lat="44.89474" lon="5.13804">
        <ele>716.44598388672</ele>
        <time>2010-10-09T15:23:50Z</time>
      </trkpt>
      <trkpt lat="44.89479" lon="5.13725">
        <ele>712.17901611328</ele>
        <time>2010-10-09T15:23:54Z</time>
      </trkpt>
      <trkpt lat="44.89487" lon="5.13653">
        <ele>707.32299804688</ele>
        <time>2010-10-09T15:23:58Z</time>
      </trkpt>
      <trkpt lat="44.89482" lon="5.13566">
        <ele>702.51397705078</ele>
        <time>2010-10-09T15:24:02Z</time>
      </trkpt>
      <trkpt lat="44.89478" lon="5.13455">
        <ele>697.08599853516</ele>
        <time>2010-10-09T15:24:07Z</time>
      </trkpt>
      <trkpt lat="44.89465" lon="5.1337">
        <ele>691.59997558594</ele>
        <time>2010-10-09T15:24:11Z</time>
      </trkpt>
      <trkpt lat="44.89454" lon="5.13285">
        <ele>686.69299316406</ele>
        <time>2010-10-09T15:24:15Z</time>
      </trkpt>
      <trkpt lat="44.89449" lon="5.13242">
        <ele>684.65997314453</ele>
        <time>2010-10-09T15:24:17Z</time>
      </trkpt>
      <trkpt lat="44.89454" lon="5.13177">
        <ele>680.03997802734</ele>
        <time>2010-10-09T15:24:20Z</time>
      </trkpt>
      <trkpt lat="44.89477" lon="5.13137">
        <ele>678.01098632812</ele>
        <time>2010-10-09T15:24:22Z</time>
      </trkpt>
      <trkpt lat="44.89482" lon="5.13079">
        <ele>674.76098632812</ele>
        <time>2010-10-09T15:24:25Z</time>
      </trkpt>
      <trkpt lat="44.89476" lon="5.13068">
        <ele>674.54901123047</ele>
        <time>2010-10-09T15:24:26Z</time>
      </trkpt>
      <trkpt lat="44.89453" lon="5.13055">
        <ele>673.70599365234</ele>
        <time>2010-10-09T15:24:28Z</time>
      </trkpt>
      <trkpt lat="44.89432" lon="5.13037">
        <ele>671.50897216797</ele>
        <time>2010-10-09T15:24:30Z</time>
      </trkpt>
      <trkpt lat="44.8942" lon="5.12981">
        <ele>668.41497802734</ele>
        <time>2010-10-09T15:24:33Z</time>
      </trkpt>
      <trkpt lat="44.89433" lon="5.12924">
        <ele>665.63098144531</ele>
        <time>2010-10-09T15:24:36Z</time>
      </trkpt>
      <trkpt lat="44.89443" lon="5.12875">
        <ele>662.14099121094</ele>
        <time>2010-10-09T15:24:39Z</time>
      </trkpt>
      <trkpt lat="44.89425" lon="5.12855">
        <ele>660.74798583984</ele>
        <time>2010-10-09T15:24:41Z</time>
      </trkpt>
      <trkpt lat="44.89384" lon="5.12802">
        <ele>654.58001708984</ele>
        <time>2010-10-09T15:24:46Z</time>
      </trkpt>
      <trkpt lat="44.89384" lon="5.12749">
        <ele>652.82202148438</ele>
        <time>2010-10-09T15:24:49Z</time>
      </trkpt>
      <trkpt lat="44.89392" lon="5.12709">
        <ele>650.80297851562</ele>
        <time>2010-10-09T15:24:51Z</time>
      </trkpt>
      <trkpt lat="44.89414" lon="5.12656">
        <ele>647.97198486328</ele>
        <time>2010-10-09T15:24:54Z</time>
      </trkpt>
      <trkpt lat="44.89434" lon="5.12626">
        <ele>645.01397705078</ele>
        <time>2010-10-09T15:24:56Z</time>
      </trkpt>
      <trkpt lat="44.89462" lon="5.12571">
        <ele>640.80499267578</ele>
        <time>2010-10-09T15:24:59Z</time>
      </trkpt>
      <trkpt lat="44.89463" lon="5.12528">
        <ele>638.10699462891</ele>
        <time>2010-10-09T15:25:01Z</time>
      </trkpt>
      <trkpt lat="44.89448" lon="5.12492">
        <ele>636.17999267578</ele>
        <time>2010-10-09T15:25:03Z</time>
      </trkpt>
      <trkpt lat="44.89411" lon="5.12455">
        <ele>632.59197998047</ele>
        <time>2010-10-09T15:25:06Z</time>
      </trkpt>
      <trkpt lat="44.89368" lon="5.12397">
        <ele>628.65002441406</ele>
        <time>2010-10-09T15:25:10Z</time>
      </trkpt>
      <trkpt lat="44.89364" lon="5.1235">
        <ele>625.88500976562</ele>
        <time>2010-10-09T15:25:12Z</time>
      </trkpt>
      <trkpt lat="44.89361" lon="5.12286">
        <ele>622.07598876953</ele>
        <time>2010-10-09T15:25:15Z</time>
      </trkpt>
      <trkpt lat="44.89336" lon="5.12234">
        <ele>618.65802001953</ele>
        <time>2010-10-09T15:25:18Z</time>
      </trkpt>
      <trkpt lat="44.89299" lon="5.12194">
        <ele>615.60198974609</ele>
        <time>2010-10-09T15:25:21Z</time>
      </trkpt>
      <trkpt lat="44.89278" lon="5.12162">
        <ele>613.11102294922</ele>
        <time>2010-10-09T15:25:23Z</time>
      </trkpt>
      <trkpt lat="44.89253" lon="5.12138">
        <ele>608.85900878906</ele>
        <time>2010-10-09T15:25:25Z</time>
      </trkpt>
      <trkpt lat="44.89238" lon="5.12131">
        <ele>607.65502929688</ele>
        <time>2010-10-09T15:25:26Z</time>
      </trkpt>
      <trkpt lat="44.89208" lon="5.1212">
        <ele>606.24798583984</ele>
        <time>2010-10-09T15:25:28Z</time>
      </trkpt>
      <trkpt lat="44.89184" lon="5.12102">
        <ele>605.52301025391</ele>
        <time>2010-10-09T15:25:30Z</time>
      </trkpt>
      <trkpt lat="44.89179" lon="5.12081">
        <ele>606.73602294922</ele>
        <time>2010-10-09T15:25:32Z</time>
      </trkpt>
      <trkpt lat="44.89185" lon="5.12076">
        <ele>607.03997802734</ele>
        <time>2010-10-09T15:25:33Z</time>
      </trkpt>
      <trkpt lat="44.892" lon="5.12083">
        <ele>605.52099609375</ele>
        <time>2010-10-09T15:25:35Z</time>
      </trkpt>
      <trkpt lat="44.89239" lon="5.12103">
        <ele>600.53900146484</ele>
        <time>2010-10-09T15:25:39Z</time>
      </trkpt>
      <trkpt lat="44.89279" lon="5.12105">
        <ele>597.51501464844</ele>
        <time>2010-10-09T15:25:42Z</time>
      </trkpt>
      <trkpt lat="44.89318" lon="5.12123">
        <ele>593.97100830078</ele>
        <time>2010-10-09T15:25:45Z</time>
      </trkpt>
      <trkpt lat="44.89348" lon="5.12127">
        <ele>591.5</ele>
        <time>2010-10-09T15:25:47Z</time>
      </trkpt>
      <trkpt lat="44.89392" lon="5.12125">
        <ele>587.70599365234</ele>
        <time>2010-10-09T15:25:50Z</time>
      </trkpt>
      <trkpt lat="44.89418" lon="5.12146">
        <ele>584.80200195312</ele>
        <time>2010-10-09T15:25:52Z</time>
      </trkpt>
      <trkpt lat="44.89437" lon="5.1218">
        <ele>582.48699951172</ele>
        <time>2010-10-09T15:25:54Z</time>
      </trkpt>
      <trkpt lat="44.89453" lon="5.12207">
        <ele>581.34997558594</ele>
        <time>2010-10-09T15:25:56Z</time>
      </trkpt>
      <trkpt lat="44.89471" lon="5.12202">
        <ele>582.14801025391</ele>
        <time>2010-10-09T15:25:59Z</time>
      </trkpt>
      <trkpt lat="44.89466" lon="5.12181">
        <ele>580.65100097656</ele>
        <time>2010-10-09T15:26:01Z</time>
      </trkpt>
      <trkpt lat="44.89456" lon="5.12158">
        <ele>578.35601806641</ele>
        <time>2010-10-09T15:26:03Z</time>
      </trkpt>
      <trkpt lat="44.89425" lon="5.12082">
        <ele>573.38201904297</ele>
        <time>2010-10-09T15:26:08Z</time>
      </trkpt>
      <trkpt lat="44.89395" lon="5.12042">
        <ele>569.04699707031</ele>
        <time>2010-10-09T15:26:11Z</time>
      </trkpt>
      <trkpt lat="44.89383" lon="5.12033">
        <ele>568.02600097656</ele>
        <time>2010-10-09T15:26:12Z</time>
      </trkpt>
      <trkpt lat="44.89361" lon="5.11991">
        <ele>565.90698242188</ele>
        <time>2010-10-09T15:26:15Z</time>
      </trkpt>
      <trkpt lat="44.89352" lon="5.11964">
        <ele>564.15899658203</ele>
        <time>2010-10-09T15:26:17Z</time>
      </trkpt>
      <trkpt lat="44.89329" lon="5.11951">
        <ele>562.03100585938</ele>
        <time>2010-10-09T15:26:19Z</time>
      </trkpt>
      <trkpt lat="44.89308" lon="5.11934">
        <ele>560.13800048828</ele>
        <time>2010-10-09T15:26:21Z</time>
      </trkpt>
      <trkpt lat="44.89301" lon="5.11901">
        <ele>558.31402587891</ele>
        <time>2010-10-09T15:26:23Z</time>
      </trkpt>
      <trkpt lat="44.89301" lon="5.11884">
        <ele>557.23400878906</ele>
        <time>2010-10-09T15:26:24Z</time>
      </trkpt>
      <trkpt lat="44.89317" lon="5.11803">
        <ele>551.86102294922</ele>
        <time>2010-10-09T15:26:29Z</time>
      </trkpt>
      <trkpt lat="44.89341" lon="5.1179">
        <ele>550.21398925781</ele>
        <time>2010-10-09T15:26:31Z</time>
      </trkpt>
      <trkpt lat="44.89349" lon="5.11789">
        <ele>549.92797851562</ele>
        <time>2010-10-09T15:26:32Z</time>
      </trkpt>
      <trkpt lat="44.89354" lon="5.11788">
        <ele>550.37200927734</ele>
        <time>2010-10-09T15:26:33Z</time>
      </trkpt>
      <trkpt lat="44.89361" lon="5.11788">
        <ele>550.8740234375</ele>
        <time>2010-10-09T15:26:38Z</time>
      </trkpt>
      <trkpt lat="44.8936" lon="5.11792">
        <ele>550.65002441406</ele>
        <time>2010-10-09T15:26:42Z</time>
      </trkpt>
      <trkpt lat="44.89354" lon="5.1179">
        <ele>550.81500244141</ele>
        <time>2010-10-09T15:26:45Z</time>
      </trkpt>
      <trkpt lat="44.89347" lon="5.11789">
        <ele>551.42102050781</ele>
        <time>2010-10-09T15:26:49Z</time>
      </trkpt>
      <trkpt lat="44.89342" lon="5.1179">
        <ele>551.61297607422</ele>
        <time>2010-10-09T15:26:53Z</time>
      </trkpt>
      <trkpt lat="44.89335" lon="5.11788">
        <ele>551.93200683594</ele>
        <time>2010-10-09T15:27:00Z</time>
      </trkpt>
      <trkpt lat="44.89333" lon="5.11789">
        <ele>551.96697998047</ele>
        <time>2010-10-09T15:27:01Z</time>
      </trkpt>
      <trkpt lat="44.89327" lon="5.11791">
        <ele>552.64898681641</ele>
        <time>2010-10-09T15:27:06Z</time>
      </trkpt>
      <trkpt lat="44.89331" lon="5.11796">
        <ele>552.666015625</ele>
        <time>2010-10-09T15:27:10Z</time>
      </trkpt>
      <trkpt lat="44.89331" lon="5.1179">
        <ele>552.19396972656</ele>
        <time>2010-10-09T15:27:13Z</time>
      </trkpt>
      <trkpt lat="44.89325" lon="5.11787">
        <ele>552.56402587891</ele>
        <time>2010-10-09T15:27:18Z</time>
      </trkpt>
      <trkpt lat="44.89325" lon="5.11787">
        <ele>552.75500488281</ele>
        <time>2010-10-09T15:27:20Z</time>
      </trkpt>
      <trkpt lat="44.89325" lon="5.11788">
        <ele>549.98999023438</ele>
        <time>2010-10-09T15:33:44Z</time>
      </trkpt>
      <trkpt lat="44.89335" lon="5.11793">
        <ele>549.53900146484</ele>
        <time>2010-10-09T15:33:55Z</time>
      </trkpt>
      <trkpt lat="44.89348" lon="5.11793">
        <ele>548.38201904297</ele>
        <time>2010-10-09T15:33:58Z</time>
      </trkpt>
      <trkpt lat="44.89364" lon="5.11792">
        <ele>547.16198730469</ele>
        <time>2010-10-09T15:34:01Z</time>
      </trkpt>
      <trkpt lat="44.89378" lon="5.11793">
        <ele>546.07098388672</ele>
        <time>2010-10-09T15:34:03Z</time>
      </trkpt>
      <trkpt lat="44.89399" lon="5.118">
        <ele>544.71197509766</ele>
        <time>2010-10-09T15:34:06Z</time>
      </trkpt>
      <trkpt lat="44.89439" lon="5.11818">
        <ele>543.55102539062</ele>
        <time>2010-10-09T15:34:11Z</time>
      </trkpt>
      <trkpt lat="44.89475" lon="5.11839">
        <ele>538.86999511719</ele>
        <time>2010-10-09T15:34:15Z</time>
      </trkpt>
      <trkpt lat="44.89538" lon="5.11867">
        <ele>534.18902587891</ele>
        <time>2010-10-09T15:34:21Z</time>
      </trkpt>
      <trkpt lat="44.89584" lon="5.11862">
        <ele>530.67602539062</ele>
        <time>2010-10-09T15:34:25Z</time>
      </trkpt>
      <trkpt lat="44.89618" lon="5.1184">
        <ele>527.99298095703</ele>
        <time>2010-10-09T15:34:28Z</time>
      </trkpt>
      <trkpt lat="44.89639" lon="5.11819">
        <ele>526.54699707031</ele>
        <time>2010-10-09T15:34:30Z</time>
      </trkpt>
      <trkpt lat="44.89688" lon="5.11795">
        <ele>522.65502929688</ele>
        <time>2010-10-09T15:34:34Z</time>
      </trkpt>
      <trkpt lat="44.89714" lon="5.11788">
        <ele>521.01800537109</ele>
        <time>2010-10-09T15:34:36Z</time>
      </trkpt>
      <trkpt lat="44.89775" lon="5.1175">
        <ele>516.62799072266</ele>
        <time>2010-10-09T15:34:41Z</time>
      </trkpt>
      <trkpt lat="44.89788" lon="5.11711">
        <ele>514.78198242188</ele>
        <time>2010-10-09T15:34:43Z</time>
      </trkpt>
      <trkpt lat="44.89787" lon="5.11693">
        <ele>513.25201416016</ele>
        <time>2010-10-09T15:34:44Z</time>
      </trkpt>
      <trkpt lat="44.89784" lon="5.11637">
        <ele>511.00900268555</ele>
        <time>2010-10-09T15:34:47Z</time>
      </trkpt>
      <trkpt lat="44.89784" lon="5.11618">
        <ele>510.48001098633</ele>
        <time>2010-10-09T15:34:48Z</time>
      </trkpt>
      <trkpt lat="44.89774" lon="5.11544">
        <ele>507.51998901367</ele>
        <time>2010-10-09T15:34:52Z</time>
      </trkpt>
      <trkpt lat="44.89789" lon="5.11489">
        <ele>506.76901245117</ele>
        <time>2010-10-09T15:34:56Z</time>
      </trkpt>
      <trkpt lat="44.89798" lon="5.11487">
        <ele>506.67999267578</ele>
        <time>2010-10-09T15:34:57Z</time>
      </trkpt>
      <trkpt lat="44.8984" lon="5.11455">
        <ele>503.86999511719</ele>
        <time>2010-10-09T15:35:02Z</time>
      </trkpt>
      <trkpt lat="44.89857" lon="5.11441">
        <ele>501.91299438477</ele>
        <time>2010-10-09T15:35:04Z</time>
      </trkpt>
      <trkpt lat="44.89886" lon="5.11426">
        <ele>500.06500244141</ele>
        <time>2010-10-09T15:35:07Z</time>
      </trkpt>
      <trkpt lat="44.89914" lon="5.11403">
        <ele>498.3450012207</ele>
        <time>2010-10-09T15:35:10Z</time>
      </trkpt>
      <trkpt lat="44.89923" lon="5.11393">
        <ele>497.75100708008</ele>
        <time>2010-10-09T15:35:11Z</time>
      </trkpt>
      <trkpt lat="44.89982" lon="5.11338">
        <ele>492.78799438477</ele>
        <time>2010-10-09T15:35:17Z</time>
      </trkpt>
      <trkpt lat="44.90028" lon="5.11315">
        <ele>489.70700073242</ele>
        <time>2010-10-09T15:35:21Z</time>
      </trkpt>
      <trkpt lat="44.90075" lon="5.11288">
        <ele>486.7380065918</ele>
        <time>2010-10-09T15:35:25Z</time>
      </trkpt>
      <trkpt lat="44.90117" lon="5.11252">
        <ele>484.27499389648</ele>
        <time>2010-10-09T15:35:29Z</time>
      </trkpt>
      <trkpt lat="44.90181" lon="5.11203">
        <ele>481.80099487305</ele>
        <time>2010-10-09T15:35:35Z</time>
      </trkpt>
      <trkpt lat="44.90231" lon="5.11183">
        <ele>478.49301147461</ele>
        <time>2010-10-09T15:35:39Z</time>
      </trkpt>
      <trkpt lat="44.90297" lon="5.11177">
        <ele>472.96798706055</ele>
        <time>2010-10-09T15:35:44Z</time>
      </trkpt>
      <trkpt lat="44.90386" lon="5.11192">
        <ele>468.58200073242</ele>
        <time>2010-10-09T15:35:51Z</time>
      </trkpt>
      <trkpt lat="44.90398" lon="5.11195">
        <ele>468.34799194336</ele>
        <time>2010-10-09T15:35:52Z</time>
      </trkpt>
      <trkpt lat="44.90456" lon="5.11221">
        <ele>466.02700805664</ele>
        <time>2010-10-09T15:35:57Z</time>
      </trkpt>
      <trkpt lat="44.90527" lon="5.11245">
        <ele>462.30899047852</ele>
        <time>2010-10-09T15:36:03Z</time>
      </trkpt>
      <trkpt lat="44.90604" lon="5.11262">
        <ele>454.47399902344</ele>
        <time>2010-10-09T15:36:09Z</time>
      </trkpt>
      <trkpt lat="44.90673" lon="5.11266">
        <ele>448.43600463867</ele>
        <time>2010-10-09T15:36:14Z</time>
      </trkpt>
      <trkpt lat="44.90761" lon="5.11283">
        <ele>441.10400390625</ele>
        <time>2010-10-09T15:36:20Z</time>
      </trkpt>
      <trkpt lat="44.90836" lon="5.11311">
        <ele>434.1549987793</ele>
        <time>2010-10-09T15:36:25Z</time>
      </trkpt>
      <trkpt lat="44.9094" lon="5.11344">
        <ele>426.66000366211</ele>
        <time>2010-10-09T15:36:32Z</time>
      </trkpt>
      <trkpt lat="44.90996" lon="5.11336">
        <ele>425.4460144043</ele>
        <time>2010-10-09T15:36:36Z</time>
      </trkpt>
      <trkpt lat="44.91008" lon="5.11331">
        <ele>425.36199951172</ele>
        <time>2010-10-09T15:36:37Z</time>
      </trkpt>
      <trkpt lat="44.91101" lon="5.11273">
        <ele>422.0299987793</ele>
        <time>2010-10-09T15:36:45Z</time>
      </trkpt>
      <trkpt lat="44.91196" lon="5.11213">
        <ele>420.40798950195</ele>
        <time>2010-10-09T15:36:54Z</time>
      </trkpt>
      <trkpt lat="44.91277" lon="5.11156">
        <ele>420.45199584961</ele>
        <time>2010-10-09T15:37:02Z</time>
      </trkpt>
      <trkpt lat="44.91334" lon="5.11106">
        <ele>419.22500610352</ele>
        <time>2010-10-09T15:37:08Z</time>
      </trkpt>
      <trkpt lat="44.91363" lon="5.11059">
        <ele>418.52700805664</ele>
        <time>2010-10-09T15:37:12Z</time>
      </trkpt>
      <trkpt lat="44.91388" lon="5.10989">
        <ele>417.24499511719</ele>
        <time>2010-10-09T15:37:17Z</time>
      </trkpt>
      <trkpt lat="44.91398" lon="5.10929">
        <ele>415.7380065918</ele>
        <time>2010-10-09T15:37:21Z</time>
      </trkpt>
      <trkpt lat="44.91401" lon="5.10878">
        <ele>413.15899658203</ele>
        <time>2010-10-09T15:37:25Z</time>
      </trkpt>
      <trkpt lat="44.91412" lon="5.10835">
        <ele>410.63598632812</ele>
        <time>2010-10-09T15:37:30Z</time>
      </trkpt>
      <trkpt lat="44.91414" lon="5.10826">
        <ele>410.6669921875</ele>
        <time>2010-10-09T15:37:33Z</time>
      </trkpt>
      <trkpt lat="44.91414" lon="5.10828">
        <ele>410.67199707031</ele>
        <time>2010-10-09T15:37:36Z</time>
      </trkpt>
      <trkpt lat="44.91413" lon="5.10824">
        <ele>410.71798706055</ele>
        <time>2010-10-09T15:37:54Z</time>
      </trkpt>
      <trkpt lat="44.9141" lon="5.1083">
        <ele>409.51901245117</ele>
        <time>2010-10-09T15:43:37Z</time>
      </trkpt>
      <trkpt lat="44.91412" lon="5.1083">
        <ele>409.73001098633</ele>
        <time>2010-10-09T15:43:41Z</time>
      </trkpt>
      <trkpt lat="44.91421" lon="5.10821">
        <ele>409.93399047852</ele>
        <time>2010-10-09T15:44:00Z</time>
      </trkpt>
      <trkpt lat="44.91431" lon="5.10809">
        <ele>410.21798706055</ele>
        <time>2010-10-09T15:44:06Z</time>
      </trkpt>
      <trkpt lat="44.91447" lon="5.10791">
        <ele>410.5530090332</ele>
        <time>2010-10-09T15:44:13Z</time>
      </trkpt>
      <trkpt lat="44.91468" lon="5.10776">
        <ele>410.41900634766</ele>
        <time>2010-10-09T15:44:19Z</time>
      </trkpt>
      <trkpt lat="44.91472" lon="5.10773">
        <ele>410.23300170898</ele>
        <time>2010-10-09T15:44:20Z</time>
      </trkpt>
      <trkpt lat="44.91497" lon="5.10744">
        <ele>408.46398925781</ele>
        <time>2010-10-09T15:44:26Z</time>
      </trkpt>
      <trkpt lat="44.91521" lon="5.10711">
        <ele>406.30099487305</ele>
        <time>2010-10-09T15:44:31Z</time>
      </trkpt>
      <trkpt lat="44.91556" lon="5.10664">
        <ele>404.75698852539</ele>
        <time>2010-10-09T15:44:38Z</time>
      </trkpt>
      <trkpt lat="44.91581" lon="5.10622">
        <ele>403.4469909668</ele>
        <time>2010-10-09T15:44:44Z</time>
      </trkpt>
      <trkpt lat="44.91586" lon="5.10591">
        <ele>401.96499633789</ele>
        <time>2010-10-09T15:44:48Z</time>
      </trkpt>
      <trkpt lat="44.91588" lon="5.10531">
        <ele>398.79299926758</ele>
        <time>2010-10-09T15:44:54Z</time>
      </trkpt>
      <trkpt lat="44.91599" lon="5.10492">
        <ele>396.10699462891</ele>
        <time>2010-10-09T15:44:59Z</time>
      </trkpt>
      <trkpt lat="44.91611" lon="5.10467">
        <ele>394.0950012207</ele>
        <time>2010-10-09T15:45:03Z</time>
      </trkpt>
      <trkpt lat="44.91619" lon="5.10452">
        <ele>392.59799194336</ele>
        <time>2010-10-09T15:45:07Z</time>
      </trkpt>
      <trkpt lat="44.91625" lon="5.10442">
        <ele>391.3030090332</ele>
        <time>2010-10-09T15:45:12Z</time>
      </trkpt>
      <trkpt lat="44.91637" lon="5.10451">
        <ele>391.5299987793</ele>
        <time>2010-10-09T15:45:17Z</time>
      </trkpt>
      <trkpt lat="44.91652" lon="5.10464">
        <ele>392.61801147461</ele>
        <time>2010-10-09T15:45:23Z</time>
      </trkpt>
      <trkpt lat="44.91669" lon="5.10478">
        <ele>393.30099487305</ele>
        <time>2010-10-09T15:45:29Z</time>
      </trkpt>
      <trkpt lat="44.91699" lon="5.10501">
        <ele>394.51901245117</ele>
        <time>2010-10-09T15:45:37Z</time>
      </trkpt>
      <trkpt lat="44.91726" lon="5.10521">
        <ele>395.86801147461</ele>
        <time>2010-10-09T15:45:44Z</time>
      </trkpt>
      <trkpt lat="44.91754" lon="5.1053">
        <ele>397.73699951172</ele>
        <time>2010-10-09T15:45:51Z</time>
      </trkpt>
      <trkpt lat="44.91775" lon="5.10524">
        <ele>399.64401245117</ele>
        <time>2010-10-09T15:45:57Z</time>
      </trkpt>
      <trkpt lat="44.91792" lon="5.10517">
        <ele>401.39099121094</ele>
        <time>2010-10-09T15:46:02Z</time>
      </trkpt>
      <trkpt lat="44.9182" lon="5.10514">
        <ele>403.20498657227</ele>
        <time>2010-10-09T15:46:09Z</time>
      </trkpt>
      <trkpt lat="44.91838" lon="5.10513">
        <ele>403.99700927734</ele>
        <time>2010-10-09T15:46:13Z</time>
      </trkpt>
      <trkpt lat="44.91875" lon="5.10528">
        <ele>405.00399780273</ele>
        <time>2010-10-09T15:46:21Z</time>
      </trkpt>
      <trkpt lat="44.91914" lon="5.10556">
        <ele>406.55200195312</ele>
        <time>2010-10-09T15:46:30Z</time>
      </trkpt>
      <trkpt lat="44.91951" lon="5.10584">
        <ele>408.37298583984</ele>
        <time>2010-10-09T15:46:39Z</time>
      </trkpt>
      <trkpt lat="44.91963" lon="5.10595">
        <ele>408.7380065918</ele>
        <time>2010-10-09T15:46:42Z</time>
      </trkpt>
      <trkpt lat="44.9198" lon="5.10618">
        <ele>409.46600341797</ele>
        <time>2010-10-09T15:46:47Z</time>
      </trkpt>
      <trkpt lat="44.91999" lon="5.10662">
        <ele>412.24700927734</ele>
        <time>2010-10-09T15:46:56Z</time>
      </trkpt>
      <trkpt lat="44.92021" lon="5.10699">
        <ele>413.82901000977</ele>
        <time>2010-10-09T15:47:04Z</time>
      </trkpt>
      <trkpt lat="44.92044" lon="5.10727">
        <ele>415.12100219727</ele>
        <time>2010-10-09T15:47:11Z</time>
      </trkpt>
      <trkpt lat="44.92076" lon="5.10756">
        <ele>415.56900024414</ele>
        <time>2010-10-09T15:47:19Z</time>
      </trkpt>
      <trkpt lat="44.92108" lon="5.10777">
        <ele>415.12899780273</ele>
        <time>2010-10-09T15:47:25Z</time>
      </trkpt>
      <trkpt lat="44.92147" lon="5.108">
        <ele>415.26901245117</ele>
        <time>2010-10-09T15:47:32Z</time>
      </trkpt>
      <trkpt lat="44.92157" lon="5.10805">
        <ele>415.01400756836</ele>
        <time>2010-10-09T15:47:34Z</time>
      </trkpt>
      <trkpt lat="44.9218" lon="5.10834">
        <ele>414.22799682617</ele>
        <time>2010-10-09T15:47:39Z</time>
      </trkpt>
      <trkpt lat="44.92182" lon="5.10843">
        <ele>413.92300415039</ele>
        <time>2010-10-09T15:47:40Z</time>
      </trkpt>
      <trkpt lat="44.92186" lon="5.10862">
        <ele>413.71200561523</ele>
        <time>2010-10-09T15:47:42Z</time>
      </trkpt>
      <trkpt lat="44.92206" lon="5.1089">
        <ele>412.75698852539</ele>
        <time>2010-10-09T15:47:46Z</time>
      </trkpt>
      <trkpt lat="44.92228" lon="5.10895">
        <ele>412.20401000977</ele>
        <time>2010-10-09T15:47:49Z</time>
      </trkpt>
      <trkpt lat="44.92248" lon="5.10885">
        <ele>412.55099487305</ele>
        <time>2010-10-09T15:47:52Z</time>
      </trkpt>
      <trkpt lat="44.92261" lon="5.10872">
        <ele>413.13299560547</ele>
        <time>2010-10-09T15:47:54Z</time>
      </trkpt>
      <trkpt lat="44.92296" lon="5.10853">
        <ele>413.8219909668</ele>
        <time>2010-10-09T15:47:59Z</time>
      </trkpt>
      <trkpt lat="44.92352" lon="5.10831">
        <ele>418.03298950195</ele>
        <time>2010-10-09T15:48:07Z</time>
      </trkpt>
      <trkpt lat="44.92366" lon="5.10821">
        <ele>418.74398803711</ele>
        <time>2010-10-09T15:48:09Z</time>
      </trkpt>
      <trkpt lat="44.92395" lon="5.10802">
        <ele>420.01699829102</ele>
        <time>2010-10-09T15:48:13Z</time>
      </trkpt>
      <trkpt lat="44.92435" lon="5.10795">
        <ele>419.24798583984</ele>
        <time>2010-10-09T15:48:18Z</time>
      </trkpt>
      <trkpt lat="44.92478" lon="5.10804">
        <ele>419.72100830078</ele>
        <time>2010-10-09T15:48:24Z</time>
      </trkpt>
      <trkpt lat="44.92521" lon="5.10828">
        <ele>417.89599609375</ele>
        <time>2010-10-09T15:48:30Z</time>
      </trkpt>
      <trkpt lat="44.92564" lon="5.10854">
        <ele>414.91101074219</ele>
        <time>2010-10-09T15:48:35Z</time>
      </trkpt>
      <trkpt lat="44.92573" lon="5.10861">
        <ele>414.63400268555</ele>
        <time>2010-10-09T15:48:36Z</time>
      </trkpt>
      <trkpt lat="44.92638" lon="5.10913">
        <ele>411.1789855957</ele>
        <time>2010-10-09T15:48:43Z</time>
      </trkpt>
      <trkpt lat="44.92677" lon="5.10956">
        <ele>408.28298950195</ele>
        <time>2010-10-09T15:48:47Z</time>
      </trkpt>
      <trkpt lat="44.92716" lon="5.11032">
        <ele>404.86499023438</ele>
        <time>2010-10-09T15:48:52Z</time>
      </trkpt>
      <trkpt lat="44.92744" lon="5.11072">
        <ele>403.26400756836</ele>
        <time>2010-10-09T15:48:55Z</time>
      </trkpt>
      <trkpt lat="44.92806" lon="5.11145">
        <ele>400.61999511719</ele>
        <time>2010-10-09T15:49:01Z</time>
      </trkpt>
      <trkpt lat="44.92863" lon="5.11204">
        <ele>395.4880065918</ele>
        <time>2010-10-09T15:49:06Z</time>
      </trkpt>
      <trkpt lat="44.92886" lon="5.11223">
        <ele>395.00201416016</ele>
        <time>2010-10-09T15:49:08Z</time>
      </trkpt>
      <trkpt lat="44.92936" lon="5.1124">
        <ele>394.35101318359</ele>
        <time>2010-10-09T15:49:12Z</time>
      </trkpt>
      <trkpt lat="44.92974" lon="5.11252">
        <ele>393.19900512695</ele>
        <time>2010-10-09T15:49:15Z</time>
      </trkpt>
      <trkpt lat="44.92996" lon="5.11275">
        <ele>391.92700195312</ele>
        <time>2010-10-09T15:49:17Z</time>
      </trkpt>
      <trkpt lat="44.93018" lon="5.11297">
        <ele>390.80899047852</ele>
        <time>2010-10-09T15:49:19Z</time>
      </trkpt>
      <trkpt lat="44.93043" lon="5.11313">
        <ele>388.6669921875</ele>
        <time>2010-10-09T15:49:21Z</time>
      </trkpt>
      <trkpt lat="44.93088" lon="5.11358">
        <ele>384.84899902344</ele>
        <time>2010-10-09T15:49:25Z</time>
      </trkpt>
      <trkpt lat="44.93117" lon="5.11362">
        <ele>384.29800415039</ele>
        <time>2010-10-09T15:49:28Z</time>
      </trkpt>
      <trkpt lat="44.93126" lon="5.11354">
        <ele>384.38000488281</ele>
        <time>2010-10-09T15:49:29Z</time>
      </trkpt>
      <trkpt lat="44.93171" lon="5.11326">
        <ele>386.45001220703</ele>
        <time>2010-10-09T15:49:34Z</time>
      </trkpt>
      <trkpt lat="44.93247" lon="5.11319">
        <ele>386.43899536133</ele>
        <time>2010-10-09T15:49:41Z</time>
      </trkpt>
      <trkpt lat="44.93281" lon="5.11318">
        <ele>385.23699951172</ele>
        <time>2010-10-09T15:49:44Z</time>
      </trkpt>
      <trkpt lat="44.93316" lon="5.11311">
        <ele>383.84899902344</ele>
        <time>2010-10-09T15:49:47Z</time>
      </trkpt>
      <trkpt lat="44.93351" lon="5.11317">
        <ele>382.3630065918</ele>
        <time>2010-10-09T15:49:50Z</time>
      </trkpt>
      <trkpt lat="44.93362" lon="5.11325">
        <ele>382.00900268555</ele>
        <time>2010-10-09T15:49:51Z</time>
      </trkpt>
      <trkpt lat="44.93427" lon="5.11385">
        <ele>384.73199462891</ele>
        <time>2010-10-09T15:49:58Z</time>
      </trkpt>
      <trkpt lat="44.93479" lon="5.11426">
        <ele>386.51098632812</ele>
        <time>2010-10-09T15:50:04Z</time>
      </trkpt>
      <trkpt lat="44.93536" lon="5.11453">
        <ele>389.86099243164</ele>
        <time>2010-10-09T15:50:10Z</time>
      </trkpt>
      <trkpt lat="44.9357" lon="5.11466">
        <ele>392.73001098633</ele>
        <time>2010-10-09T15:50:14Z</time>
      </trkpt>
      <trkpt lat="44.93586" lon="5.11473">
        <ele>392.90600585938</ele>
        <time>2010-10-09T15:50:16Z</time>
      </trkpt>
      <trkpt lat="44.93628" lon="5.11513">
        <ele>389.51800537109</ele>
        <time>2010-10-09T15:50:21Z</time>
      </trkpt>
      <trkpt lat="44.93651" lon="5.11547">
        <ele>387.50100708008</ele>
        <time>2010-10-09T15:50:24Z</time>
      </trkpt>
      <trkpt lat="44.93693" lon="5.11578">
        <ele>383.92001342773</ele>
        <time>2010-10-09T15:50:28Z</time>
      </trkpt>
      <trkpt lat="44.93705" lon="5.11583">
        <ele>382.93399047852</ele>
        <time>2010-10-09T15:50:29Z</time>
      </trkpt>
      <trkpt lat="44.93727" lon="5.11596">
        <ele>382.03201293945</ele>
        <time>2010-10-09T15:50:31Z</time>
      </trkpt>
      <trkpt lat="44.93758" lon="5.11615">
        <ele>381.93301391602</ele>
        <time>2010-10-09T15:50:34Z</time>
      </trkpt>
      <trkpt lat="44.93807" lon="5.11626">
        <ele>385.39999389648</ele>
        <time>2010-10-09T15:50:39Z</time>
      </trkpt>
      <trkpt lat="44.93849" lon="5.11637">
        <ele>390.21301269531</ele>
        <time>2010-10-09T15:50:44Z</time>
      </trkpt>
      <trkpt lat="44.93859" lon="5.1164">
        <ele>392.56900024414</ele>
        <time>2010-10-09T15:50:47Z</time>
      </trkpt>
      <trkpt lat="44.93862" lon="5.11642">
        <ele>392.90701293945</ele>
        <time>2010-10-09T15:50:48Z</time>
      </trkpt>
      <trkpt lat="44.93877" lon="5.11645">
        <ele>393.59600830078</ele>
        <time>2010-10-09T15:50:53Z</time>
      </trkpt>
      <trkpt lat="44.93903" lon="5.11661">
        <ele>394.38598632812</ele>
        <time>2010-10-09T15:51:01Z</time>
      </trkpt>
      <trkpt lat="44.93922" lon="5.11675">
        <ele>395.03201293945</ele>
        <time>2010-10-09T15:51:07Z</time>
      </trkpt>
      <trkpt lat="44.93944" lon="5.1169">
        <ele>395.17098999023</ele>
        <time>2010-10-09T15:51:14Z</time>
      </trkpt>
      <trkpt lat="44.93974" lon="5.11714">
        <ele>394.81100463867</ele>
        <time>2010-10-09T15:51:24Z</time>
      </trkpt>
      <trkpt lat="44.94004" lon="5.11735">
        <ele>393.60699462891</ele>
        <time>2010-10-09T15:51:31Z</time>
      </trkpt>
      <trkpt lat="44.94008" lon="5.11738">
        <ele>393.55499267578</ele>
        <time>2010-10-09T15:51:32Z</time>
      </trkpt>
      <trkpt lat="44.94022" lon="5.1176">
        <ele>393.23699951172</ele>
        <time>2010-10-09T15:51:36Z</time>
      </trkpt>
      <trkpt lat="44.94043" lon="5.11803">
        <ele>390.97198486328</ele>
        <time>2010-10-09T15:51:42Z</time>
      </trkpt>
      <trkpt lat="44.94056" lon="5.11814">
        <ele>389.92700195312</ele>
        <time>2010-10-09T15:51:44Z</time>
      </trkpt>
      <trkpt lat="44.9407" lon="5.11823">
        <ele>389.11401367188</ele>
        <time>2010-10-09T15:51:46Z</time>
      </trkpt>
      <trkpt lat="44.94115" lon="5.1184">
        <ele>388.62100219727</ele>
        <time>2010-10-09T15:51:52Z</time>
      </trkpt>
      <trkpt lat="44.94164" lon="5.11857">
        <ele>388.16900634766</ele>
        <time>2010-10-09T15:51:59Z</time>
      </trkpt>
      <trkpt lat="44.94216" lon="5.11882">
        <ele>387.68399047852</ele>
        <time>2010-10-09T15:52:07Z</time>
      </trkpt>
      <trkpt lat="44.9426" lon="5.11902">
        <ele>386.89898681641</ele>
        <time>2010-10-09T15:52:14Z</time>
      </trkpt>
      <trkpt lat="44.94304" lon="5.11915">
        <ele>385.67098999023</ele>
        <time>2010-10-09T15:52:21Z</time>
      </trkpt>
      <trkpt lat="44.94325" lon="5.11916">
        <ele>384.83999633789</ele>
        <time>2010-10-09T15:52:24Z</time>
      </trkpt>
      <trkpt lat="44.94366" lon="5.11908">
        <ele>383.06100463867</ele>
        <time>2010-10-09T15:52:29Z</time>
      </trkpt>
      <trkpt lat="44.9441" lon="5.11904">
        <ele>380.15600585938</ele>
        <time>2010-10-09T15:52:33Z</time>
      </trkpt>
      <trkpt lat="44.94443" lon="5.11905">
        <ele>378.98599243164</ele>
        <time>2010-10-09T15:52:36Z</time>
      </trkpt>
      <trkpt lat="44.94485" lon="5.11927">
        <ele>380.02600097656</ele>
        <time>2010-10-09T15:52:40Z</time>
      </trkpt>
      <trkpt lat="44.94542" lon="5.11966">
        <ele>381.09100341797</ele>
        <time>2010-10-09T15:52:46Z</time>
      </trkpt>
      <trkpt lat="44.94578" lon="5.11978">
        <ele>383.47601318359</ele>
        <time>2010-10-09T15:52:50Z</time>
      </trkpt>
      <trkpt lat="44.94631" lon="5.11996">
        <ele>383.73599243164</ele>
        <time>2010-10-09T15:52:56Z</time>
      </trkpt>
      <trkpt lat="44.94702" lon="5.12029">
        <ele>385.1960144043</ele>
        <time>2010-10-09T15:53:04Z</time>
      </trkpt>
      <trkpt lat="44.94752" lon="5.12047">
        <ele>387.36898803711</ele>
        <time>2010-10-09T15:53:10Z</time>
      </trkpt>
      <trkpt lat="44.94806" lon="5.1207">
        <ele>385.88000488281</ele>
        <time>2010-10-09T15:53:16Z</time>
      </trkpt>
      <trkpt lat="44.94865" lon="5.12096">
        <ele>384.55499267578</ele>
        <time>2010-10-09T15:53:22Z</time>
      </trkpt>
      <trkpt lat="44.94908" lon="5.12132">
        <ele>385.4280090332</ele>
        <time>2010-10-09T15:53:27Z</time>
      </trkpt>
      <trkpt lat="44.94949" lon="5.12188">
        <ele>387.02600097656</ele>
        <time>2010-10-09T15:53:33Z</time>
      </trkpt>
      <trkpt lat="44.94994" lon="5.12249">
        <ele>389.41598510742</ele>
        <time>2010-10-09T15:53:40Z</time>
      </trkpt>
      <trkpt lat="44.95031" lon="5.12293">
        <ele>391.4880065918</ele>
        <time>2010-10-09T15:53:46Z</time>
      </trkpt>
      <trkpt lat="44.9507" lon="5.12337">
        <ele>393.66198730469</ele>
        <time>2010-10-09T15:53:53Z</time>
      </trkpt>
      <trkpt lat="44.95107" lon="5.12377">
        <ele>394.84600830078</ele>
        <time>2010-10-09T15:54:00Z</time>
      </trkpt>
      <trkpt lat="44.95144" lon="5.12413">
        <ele>396.06900024414</ele>
        <time>2010-10-09T15:54:07Z</time>
      </trkpt>
      <trkpt lat="44.95149" lon="5.12418">
        <ele>396.14401245117</ele>
        <time>2010-10-09T15:54:08Z</time>
      </trkpt>
      <trkpt lat="44.95194" lon="5.12444">
        <ele>397.63800048828</ele>
        <time>2010-10-09T15:54:16Z</time>
      </trkpt>
      <trkpt lat="44.95239" lon="5.12464">
        <ele>399.03399658203</ele>
        <time>2010-10-09T15:54:24Z</time>
      </trkpt>
      <trkpt lat="44.95288" lon="5.12484">
        <ele>399.28298950195</ele>
        <time>2010-10-09T15:54:32Z</time>
      </trkpt>
      <trkpt lat="44.95294" lon="5.12488">
        <ele>399.55999755859</ele>
        <time>2010-10-09T15:54:33Z</time>
      </trkpt>
      <trkpt lat="44.95313" lon="5.12508">
        <ele>400.10299682617</ele>
        <time>2010-10-09T15:54:37Z</time>
      </trkpt>
      <trkpt lat="44.95337" lon="5.12554">
        <ele>399.34698486328</ele>
        <time>2010-10-09T15:54:43Z</time>
      </trkpt>
      <trkpt lat="44.95361" lon="5.12576">
        <ele>399.72500610352</ele>
        <time>2010-10-09T15:54:47Z</time>
      </trkpt>
      <trkpt lat="44.95381" lon="5.12587">
        <ele>399.53100585938</ele>
        <time>2010-10-09T15:54:50Z</time>
      </trkpt>
      <trkpt lat="44.95441" lon="5.1261">
        <ele>401.42700195312</ele>
        <time>2010-10-09T15:54:59Z</time>
      </trkpt>
      <trkpt lat="44.95495" lon="5.12634">
        <ele>403.44000244141</ele>
        <time>2010-10-09T15:55:08Z</time>
      </trkpt>
      <trkpt lat="44.95526" lon="5.12656">
        <ele>404.27301025391</ele>
        <time>2010-10-09T15:55:14Z</time>
      </trkpt>
      <trkpt lat="44.95545" lon="5.12673">
        <ele>405.83801269531</ele>
        <time>2010-10-09T15:55:18Z</time>
      </trkpt>
      <trkpt lat="44.95589" lon="5.12722">
        <ele>408.51501464844</ele>
        <time>2010-10-09T15:55:28Z</time>
      </trkpt>
      <trkpt lat="44.95624" lon="5.12761">
        <ele>410.72399902344</ele>
        <time>2010-10-09T15:55:35Z</time>
      </trkpt>
      <trkpt lat="44.9566" lon="5.12802">
        <ele>412.4469909668</ele>
        <time>2010-10-09T15:55:42Z</time>
      </trkpt>
      <trkpt lat="44.95704" lon="5.1286">
        <ele>413.6549987793</ele>
        <time>2010-10-09T15:55:51Z</time>
      </trkpt>
      <trkpt lat="44.95736" lon="5.12914">
        <ele>414.45700073242</ele>
        <time>2010-10-09T15:55:58Z</time>
      </trkpt>
      <trkpt lat="44.95791" lon="5.13002">
        <ele>415.61099243164</ele>
        <time>2010-10-09T15:56:09Z</time>
      </trkpt>
      <trkpt lat="44.95836" lon="5.13075">
        <ele>417.06900024414</ele>
        <time>2010-10-09T15:56:18Z</time>
      </trkpt>
      <trkpt lat="44.9588" lon="5.13145">
        <ele>418.25601196289</ele>
        <time>2010-10-09T15:56:27Z</time>
      </trkpt>
      <trkpt lat="44.95912" lon="5.13196">
        <ele>418.74301147461</ele>
        <time>2010-10-09T15:56:34Z</time>
      </trkpt>
      <trkpt lat="44.95916" lon="5.13203">
        <ele>418.9280090332</ele>
        <time>2010-10-09T15:56:35Z</time>
      </trkpt>
      <trkpt lat="44.95929" lon="5.13239">
        <ele>419.57598876953</ele>
        <time>2010-10-09T15:56:40Z</time>
      </trkpt>
      <trkpt lat="44.95943" lon="5.13242">
        <ele>419.73098754883</ele>
        <time>2010-10-09T15:56:43Z</time>
      </trkpt>
      <trkpt lat="44.95953" lon="5.13222">
        <ele>418.15701293945</ele>
        <time>2010-10-09T15:56:46Z</time>
      </trkpt>
      <trkpt lat="44.95973" lon="5.1316">
        <ele>415.60998535156</ele>
        <time>2010-10-09T15:56:53Z</time>
      </trkpt>
      <trkpt lat="44.95977" lon="5.13151">
        <ele>415.37298583984</ele>
        <time>2010-10-09T15:56:54Z</time>
      </trkpt>
      <trkpt lat="44.96006" lon="5.13101">
        <ele>414.24499511719</ele>
        <time>2010-10-09T15:57:00Z</time>
      </trkpt>
      <trkpt lat="44.96045" lon="5.13039">
        <ele>410.42300415039</ele>
        <time>2010-10-09T15:57:07Z</time>
      </trkpt>
      <trkpt lat="44.96093" lon="5.12966">
        <ele>407.49499511719</ele>
        <time>2010-10-09T15:57:15Z</time>
      </trkpt>
      <trkpt lat="44.96106" lon="5.12948">
        <ele>406.625</ele>
        <time>2010-10-09T15:57:17Z</time>
      </trkpt>
      <trkpt lat="44.96151" lon="5.12894">
        <ele>405.0830078125</ele>
        <time>2010-10-09T15:57:23Z</time>
      </trkpt>
      <trkpt lat="44.96211" lon="5.12831">
        <ele>400.05099487305</ele>
        <time>2010-10-09T15:57:30Z</time>
      </trkpt>
      <trkpt lat="44.96246" lon="5.12792">
        <ele>398.61999511719</ele>
        <time>2010-10-09T15:57:34Z</time>
      </trkpt>
      <trkpt lat="44.96298" lon="5.1276">
        <ele>395.01998901367</ele>
        <time>2010-10-09T15:57:39Z</time>
      </trkpt>
      <trkpt lat="44.96368" lon="5.12723">
        <ele>390.9289855957</ele>
        <time>2010-10-09T15:57:45Z</time>
      </trkpt>
      <trkpt lat="44.96393" lon="5.1271">
        <ele>390.29501342773</ele>
        <time>2010-10-09T15:57:47Z</time>
      </trkpt>
      <trkpt lat="44.96466" lon="5.12663">
        <ele>385.53900146484</ele>
        <time>2010-10-09T15:57:53Z</time>
      </trkpt>
      <trkpt lat="44.96528" lon="5.12586">
        <ele>383.28900146484</ele>
        <time>2010-10-09T15:57:59Z</time>
      </trkpt>
      <trkpt lat="44.96594" lon="5.12506">
        <ele>379.50201416016</ele>
        <time>2010-10-09T15:58:05Z</time>
      </trkpt>
      <trkpt lat="44.96666" lon="5.1244">
        <ele>374.5</ele>
        <time>2010-10-09T15:58:11Z</time>
      </trkpt>
      <trkpt lat="44.9669" lon="5.12419">
        <ele>373.26699829102</ele>
        <time>2010-10-09T15:58:13Z</time>
      </trkpt>
      <trkpt lat="44.96746" lon="5.12362">
        <ele>371.56900024414</ele>
        <time>2010-10-09T15:58:18Z</time>
      </trkpt>
      <trkpt lat="44.96814" lon="5.12268">
        <ele>367.22198486328</ele>
        <time>2010-10-09T15:58:25Z</time>
      </trkpt>
      <trkpt lat="44.9689" lon="5.12157">
        <ele>362.05599975586</ele>
        <time>2010-10-09T15:58:33Z</time>
      </trkpt>
      <trkpt lat="44.96967" lon="5.12049">
        <ele>357.875</ele>
        <time>2010-10-09T15:58:41Z</time>
      </trkpt>
      <trkpt lat="44.96977" lon="5.12038">
        <ele>357.64801025391</ele>
        <time>2010-10-09T15:58:42Z</time>
      </trkpt>
      <trkpt lat="44.97025" lon="5.12004">
        <ele>355.16900634766</ele>
        <time>2010-10-09T15:58:46Z</time>
      </trkpt>
      <trkpt lat="44.97133" lon="5.1194">
        <ele>349.54598999023</ele>
        <time>2010-10-09T15:58:55Z</time>
      </trkpt>
      <trkpt lat="44.97255" lon="5.1187">
        <ele>346.63598632812</ele>
        <time>2010-10-09T15:59:05Z</time>
      </trkpt>
      <trkpt lat="44.97331" lon="5.11833">
        <ele>342.47399902344</ele>
        <time>2010-10-09T15:59:11Z</time>
      </trkpt>
      <trkpt lat="44.97385" lon="5.11817">
        <ele>339.72601318359</ele>
        <time>2010-10-09T15:59:15Z</time>
      </trkpt>
      <trkpt lat="44.9744" lon="5.11799">
        <ele>337.41299438477</ele>
        <time>2010-10-09T15:59:19Z</time>
      </trkpt>
      <trkpt lat="44.97467" lon="5.11791">
        <ele>336.37701416016</ele>
        <time>2010-10-09T15:59:21Z</time>
      </trkpt>
      <trkpt lat="44.97515" lon="5.11752">
        <ele>333.66500854492</ele>
        <time>2010-10-09T15:59:25Z</time>
      </trkpt>
      <trkpt lat="44.97579" lon="5.1165">
        <ele>330.44299316406</ele>
        <time>2010-10-09T15:59:32Z</time>
      </trkpt>
      <trkpt lat="44.97588" lon="5.11635">
        <ele>330.18200683594</ele>
        <time>2010-10-09T15:59:33Z</time>
      </trkpt>
      <trkpt lat="44.97644" lon="5.11547">
        <ele>324.51800537109</ele>
        <time>2010-10-09T15:59:39Z</time>
      </trkpt>
      <trkpt lat="44.9771" lon="5.11448">
        <ele>324.28799438477</ele>
        <time>2010-10-09T15:59:46Z</time>
      </trkpt>
      <trkpt lat="44.9774" lon="5.11408">
        <ele>320.85198974609</ele>
        <time>2010-10-09T15:59:49Z</time>
      </trkpt>
      <trkpt lat="44.97797" lon="5.11364">
        <ele>317.96200561523</ele>
        <time>2010-10-09T15:59:54Z</time>
      </trkpt>
      <trkpt lat="44.97857" lon="5.11326">
        <ele>315.78100585938</ele>
        <time>2010-10-09T15:59:59Z</time>
      </trkpt>
      <trkpt lat="44.9794" lon="5.11271">
        <ele>311.78500366211</ele>
        <time>2010-10-09T16:00:06Z</time>
      </trkpt>
      <trkpt lat="44.97974" lon="5.11244">
        <ele>310.43499755859</ele>
        <time>2010-10-09T16:00:09Z</time>
      </trkpt>
      <trkpt lat="44.98032" lon="5.11168">
        <ele>307.21499633789</ele>
        <time>2010-10-09T16:00:15Z</time>
      </trkpt>
      <trkpt lat="44.98095" lon="5.11085">
        <ele>304.73300170898</ele>
        <time>2010-10-09T16:00:22Z</time>
      </trkpt>
      <trkpt lat="44.98147" lon="5.11035">
        <ele>303.57998657227</ele>
        <time>2010-10-09T16:00:27Z</time>
      </trkpt>
      <trkpt lat="44.98199" lon="5.10977">
        <ele>301.2919921875</ele>
        <time>2010-10-09T16:00:32Z</time>
      </trkpt>
      <trkpt lat="44.98264" lon="5.10895">
        <ele>299.81600952148</ele>
        <time>2010-10-09T16:00:39Z</time>
      </trkpt>
      <trkpt lat="44.98274" lon="5.10886">
        <ele>299.27801513672</ele>
        <time>2010-10-09T16:00:40Z</time>
      </trkpt>
      <trkpt lat="44.98351" lon="5.10839">
        <ele>297.84399414062</ele>
        <time>2010-10-09T16:00:47Z</time>
      </trkpt>
      <trkpt lat="44.98409" lon="5.10806">
        <ele>294.97399902344</ele>
        <time>2010-10-09T16:00:52Z</time>
      </trkpt>
      <trkpt lat="44.98504" lon="5.1075">
        <ele>291.0419921875</ele>
        <time>2010-10-09T16:01:00Z</time>
      </trkpt>
      <trkpt lat="44.9857" lon="5.10701">
        <ele>289.39700317383</ele>
        <time>2010-10-09T16:01:06Z</time>
      </trkpt>
      <trkpt lat="44.98669" lon="5.10622">
        <ele>285.94299316406</ele>
        <time>2010-10-09T16:01:15Z</time>
      </trkpt>
      <trkpt lat="44.9876" lon="5.10552">
        <ele>282.78900146484</ele>
        <time>2010-10-09T16:01:23Z</time>
      </trkpt>
      <trkpt lat="44.98795" lon="5.10503">
        <ele>281.85198974609</ele>
        <time>2010-10-09T16:01:27Z</time>
      </trkpt>
      <trkpt lat="44.98853" lon="5.10389">
        <ele>278.61801147461</ele>
        <time>2010-10-09T16:01:35Z</time>
      </trkpt>
      <trkpt lat="44.98912" lon="5.10274">
        <ele>275.86999511719</ele>
        <time>2010-10-09T16:01:43Z</time>
      </trkpt>
      <trkpt lat="44.9893" lon="5.10254">
        <ele>275.22399902344</ele>
        <time>2010-10-09T16:01:45Z</time>
      </trkpt>
      <trkpt lat="44.98952" lon="5.1025">
        <ele>275.11199951172</ele>
        <time>2010-10-09T16:01:47Z</time>
      </trkpt>
      <trkpt lat="44.99009" lon="5.1024">
        <ele>272.85101318359</ele>
        <time>2010-10-09T16:01:52Z</time>
      </trkpt>
      <trkpt lat="44.99107" lon="5.1021">
        <ele>270.62399291992</ele>
        <time>2010-10-09T16:02:01Z</time>
      </trkpt>
      <trkpt lat="44.99184" lon="5.1018">
        <ele>269.94900512695</ele>
        <time>2010-10-09T16:02:08Z</time>
      </trkpt>
      <trkpt lat="44.99234" lon="5.10141">
        <ele>268.46899414062</ele>
        <time>2010-10-09T16:02:13Z</time>
      </trkpt>
      <trkpt lat="44.99306" lon="5.10081">
        <ele>266.33898925781</ele>
        <time>2010-10-09T16:02:20Z</time>
      </trkpt>
      <trkpt lat="44.99414" lon="5.09994">
        <ele>262.1780090332</ele>
        <time>2010-10-09T16:02:30Z</time>
      </trkpt>
      <trkpt lat="44.99436" lon="5.09976">
        <ele>261.34298706055</ele>
        <time>2010-10-09T16:02:32Z</time>
      </trkpt>
      <trkpt lat="44.99542" lon="5.09889">
        <ele>260.04800415039</ele>
        <time>2010-10-09T16:02:42Z</time>
      </trkpt>
      <trkpt lat="44.99637" lon="5.09803">
        <ele>258.85000610352</ele>
        <time>2010-10-09T16:02:51Z</time>
      </trkpt>
      <trkpt lat="44.99722" lon="5.09733">
        <ele>256.32901000977</ele>
        <time>2010-10-09T16:02:59Z</time>
      </trkpt>
      <trkpt lat="44.99799" lon="5.09682">
        <ele>254.30299377441</ele>
        <time>2010-10-09T16:03:06Z</time>
      </trkpt>
      <trkpt lat="44.99882" lon="5.0964">
        <ele>251.36199951172</ele>
        <time>2010-10-09T16:03:13Z</time>
      </trkpt>
      <trkpt lat="44.99906" lon="5.0963">
        <ele>250.15299987793</ele>
        <time>2010-10-09T16:03:15Z</time>
      </trkpt>
      <trkpt lat="44.99952" lon="5.09603">
        <ele>249.40299987793</ele>
        <time>2010-10-09T16:03:19Z</time>
      </trkpt>
      <trkpt lat="45.00034" lon="5.09535">
        <ele>247.67799377441</ele>
        <time>2010-10-09T16:03:27Z</time>
      </trkpt>
      <trkpt lat="45.00125" lon="5.09458">
        <ele>247.91000366211</ele>
        <time>2010-10-09T16:03:36Z</time>
      </trkpt>
      <trkpt lat="45.00206" lon="5.09384">
        <ele>246.77400207519</ele>
        <time>2010-10-09T16:03:44Z</time>
      </trkpt>
      <trkpt lat="45.00277" lon="5.09319">
        <ele>243.72900390625</ele>
        <time>2010-10-09T16:03:51Z</time>
      </trkpt>
      <trkpt lat="45.00332" lon="5.09283">
        <ele>242.98599243164</ele>
        <time>2010-10-09T16:03:56Z</time>
      </trkpt>
      <trkpt lat="45.00397" lon="5.09248">
        <ele>241.69700622559</ele>
        <time>2010-10-09T16:04:02Z</time>
      </trkpt>
      <trkpt lat="45.00467" lon="5.09204">
        <ele>239.37399291992</ele>
        <time>2010-10-09T16:04:09Z</time>
      </trkpt>
      <trkpt lat="45.00522" lon="5.09161">
        <ele>238.04400634766</ele>
        <time>2010-10-09T16:04:15Z</time>
      </trkpt>
      <trkpt lat="45.00595" lon="5.09112">
        <ele>236.11099243164</ele>
        <time>2010-10-09T16:04:23Z</time>
      </trkpt>
      <trkpt lat="45.00663" lon="5.09074">
        <ele>236.30599975586</ele>
        <time>2010-10-09T16:04:31Z</time>
      </trkpt>
      <trkpt lat="45.00708" lon="5.09055">
        <ele>234.44700622559</ele>
        <time>2010-10-09T16:04:36Z</time>
      </trkpt>
      <trkpt lat="45.00717" lon="5.09049">
        <ele>234.22099304199</ele>
        <time>2010-10-09T16:04:37Z</time>
      </trkpt>
      <trkpt lat="45.00759" lon="5.09011">
        <ele>233.40699768066</ele>
        <time>2010-10-09T16:04:42Z</time>
      </trkpt>
      <trkpt lat="45.00831" lon="5.0895">
        <ele>232.08399963379</ele>
        <time>2010-10-09T16:04:50Z</time>
      </trkpt>
      <trkpt lat="45.00851" lon="5.08937">
        <ele>231.40299987793</ele>
        <time>2010-10-09T16:04:52Z</time>
      </trkpt>
      <trkpt lat="45.00903" lon="5.08908">
        <ele>229.40100097656</ele>
        <time>2010-10-09T16:04:57Z</time>
      </trkpt>
      <trkpt lat="45.00926" lon="5.08898">
        <ele>228.46099853516</ele>
        <time>2010-10-09T16:04:59Z</time>
      </trkpt>
      <trkpt lat="45.00972" lon="5.08897">
        <ele>226.65600585938</ele>
        <time>2010-10-09T16:05:03Z</time>
      </trkpt>
      <trkpt lat="45.01007" lon="5.08891">
        <ele>225.29699707031</ele>
        <time>2010-10-09T16:05:06Z</time>
      </trkpt>
      <trkpt lat="45.01029" lon="5.08876">
        <ele>224.76499938965</ele>
        <time>2010-10-09T16:05:08Z</time>
      </trkpt>
      <trkpt lat="45.01081" lon="5.0883">
        <ele>224.02400207519</ele>
        <time>2010-10-09T16:05:13Z</time>
      </trkpt>
      <trkpt lat="45.01113" lon="5.0878">
        <ele>223.83200073242</ele>
        <time>2010-10-09T16:05:17Z</time>
      </trkpt>
      <trkpt lat="45.01157" lon="5.08685">
        <ele>224.2140045166</ele>
        <time>2010-10-09T16:05:24Z</time>
      </trkpt>
      <trkpt lat="45.01194" lon="5.08624">
        <ele>223.41600036621</ele>
        <time>2010-10-09T16:05:29Z</time>
      </trkpt>
      <trkpt lat="45.01259" lon="5.08532">
        <ele>222.25700378418</ele>
        <time>2010-10-09T16:05:37Z</time>
      </trkpt>
      <trkpt lat="45.013" lon="5.08463">
        <ele>221.2200012207</ele>
        <time>2010-10-09T16:05:43Z</time>
      </trkpt>
      <trkpt lat="45.01314" lon="5.08441">
        <ele>220.81300354004</ele>
        <time>2010-10-09T16:05:45Z</time>
      </trkpt>
      <trkpt lat="45.0135" lon="5.08413">
        <ele>221.01800537109</ele>
        <time>2010-10-09T16:05:49Z</time>
      </trkpt>
      <trkpt lat="45.0136" lon="5.08409">
        <ele>220.93200683594</ele>
        <time>2010-10-09T16:05:50Z</time>
      </trkpt>
      <trkpt lat="45.01407" lon="5.08378">
        <ele>222.30200195312</ele>
        <time>2010-10-09T16:05:55Z</time>
      </trkpt>
      <trkpt lat="45.01415" lon="5.08368">
        <ele>222.23500061035</ele>
        <time>2010-10-09T16:05:56Z</time>
      </trkpt>
      <trkpt lat="45.01503" lon="5.08256">
        <ele>220.57800292969</ele>
        <time>2010-10-09T16:06:07Z</time>
      </trkpt>
      <trkpt lat="45.01556" lon="5.08204">
        <ele>220.04499816894</ele>
        <time>2010-10-09T16:06:13Z</time>
      </trkpt>
      <trkpt lat="45.0162" lon="5.0814">
        <ele>215.76699829102</ele>
        <time>2010-10-09T16:06:20Z</time>
      </trkpt>
      <trkpt lat="45.01694" lon="5.08071">
        <ele>215.53900146484</ele>
        <time>2010-10-09T16:06:28Z</time>
      </trkpt>
      <trkpt lat="45.01752" lon="5.08004">
        <ele>215.66200256348</ele>
        <time>2010-10-09T16:06:35Z</time>
      </trkpt>
      <trkpt lat="45.01819" lon="5.07908">
        <ele>214.30700683594</ele>
        <time>2010-10-09T16:06:44Z</time>
      </trkpt>
      <trkpt lat="45.01879" lon="5.07827">
        <ele>213.70199584961</ele>
        <time>2010-10-09T16:06:52Z</time>
      </trkpt>
      <trkpt lat="45.01929" lon="5.07781">
        <ele>214.22999572754</ele>
        <time>2010-10-09T16:06:58Z</time>
      </trkpt>
      <trkpt lat="45.02017" lon="5.07718">
        <ele>215.2559967041</ele>
        <time>2010-10-09T16:07:08Z</time>
      </trkpt>
      <trkpt lat="45.02084" lon="5.07685">
        <ele>215.00500488281</ele>
        <time>2010-10-09T16:07:15Z</time>
      </trkpt>
      <trkpt lat="45.02156" lon="5.07663">
        <ele>213.6369934082</ele>
        <time>2010-10-09T16:07:22Z</time>
      </trkpt>
      <trkpt lat="45.02202" lon="5.07665">
        <ele>211.47399902344</ele>
        <time>2010-10-09T16:07:26Z</time>
      </trkpt>
      <trkpt lat="45.0224" lon="5.07669">
        <ele>208.93899536133</ele>
        <time>2010-10-09T16:07:29Z</time>
      </trkpt>
      <trkpt lat="45.02293" lon="5.07659">
        <ele>205.79800415039</ele>
        <time>2010-10-09T16:07:33Z</time>
      </trkpt>
      <trkpt lat="45.02344" lon="5.07633">
        <ele>204.41000366211</ele>
        <time>2010-10-09T16:07:37Z</time>
      </trkpt>
      <trkpt lat="45.02398" lon="5.07591">
        <ele>205.2140045166</ele>
        <time>2010-10-09T16:07:42Z</time>
      </trkpt>
      <trkpt lat="45.02443" lon="5.07567">
        <ele>202.85800170898</ele>
        <time>2010-10-09T16:07:46Z</time>
      </trkpt>
      <trkpt lat="45.02487" lon="5.07535">
        <ele>202.37699890137</ele>
        <time>2010-10-09T16:07:50Z</time>
      </trkpt>
      <trkpt lat="45.0251" lon="5.07518">
        <ele>202.00300598144</ele>
        <time>2010-10-09T16:07:52Z</time>
      </trkpt>
      <trkpt lat="45.02559" lon="5.07498">
        <ele>200.10000610352</ele>
        <time>2010-10-09T16:07:56Z</time>
      </trkpt>
      <trkpt lat="45.02604" lon="5.07479">
        <ele>198.95500183106</ele>
        <time>2010-10-09T16:08:00Z</time>
      </trkpt>
      <trkpt lat="45.0265" lon="5.07447">
        <ele>197.55499267578</ele>
        <time>2010-10-09T16:08:05Z</time>
      </trkpt>
      <trkpt lat="45.02658" lon="5.07442">
        <ele>197.50399780273</ele>
        <time>2010-10-09T16:08:06Z</time>
      </trkpt>
      <trkpt lat="45.02676" lon="5.07449">
        <ele>196.91700744629</ele>
        <time>2010-10-09T16:08:09Z</time>
      </trkpt>
      <trkpt lat="45.02679" lon="5.07466">
        <ele>196.6130065918</ele>
        <time>2010-10-09T16:08:11Z</time>
      </trkpt>
      <trkpt lat="45.02678" lon="5.07476">
        <ele>196.67100524902</ele>
        <time>2010-10-09T16:08:12Z</time>
      </trkpt>
      <trkpt lat="45.02683" lon="5.07522">
        <ele>196.23899841309</ele>
        <time>2010-10-09T16:08:17Z</time>
      </trkpt>
      <trkpt lat="45.027" lon="5.07543">
        <ele>196.2440032959</ele>
        <time>2010-10-09T16:08:20Z</time>
      </trkpt>
      <trkpt lat="45.02707" lon="5.07548">
        <ele>195.93200683594</ele>
        <time>2010-10-09T16:08:21Z</time>
      </trkpt>
      <trkpt lat="45.0277" lon="5.07585">
        <ele>195.14300537109</ele>
        <time>2010-10-09T16:08:29Z</time>
      </trkpt>
      <trkpt lat="45.02811" lon="5.076">
        <ele>194.91299438477</ele>
        <time>2010-10-09T16:08:34Z</time>
      </trkpt>
      <trkpt lat="45.02881" lon="5.07608">
        <ele>193.91900634766</ele>
        <time>2010-10-09T16:08:42Z</time>
      </trkpt>
      <trkpt lat="45.02949" lon="5.0761">
        <ele>192.26100158691</ele>
        <time>2010-10-09T16:08:49Z</time>
      </trkpt>
      <trkpt lat="45.03017" lon="5.07608">
        <ele>191.63000488281</ele>
        <time>2010-10-09T16:08:56Z</time>
      </trkpt>
      <trkpt lat="45.03082" lon="5.0759">
        <ele>190.80599975586</ele>
        <time>2010-10-09T16:09:03Z</time>
      </trkpt>
      <trkpt lat="45.03091" lon="5.07587">
        <ele>190.66600036621</ele>
        <time>2010-10-09T16:09:04Z</time>
      </trkpt>
      <trkpt lat="45.03108" lon="5.07582">
        <ele>190.47900390625</ele>
        <time>2010-10-09T16:09:06Z</time>
      </trkpt>
      <trkpt lat="45.0314" lon="5.0759">
        <ele>189.97999572754</ele>
        <time>2010-10-09T16:09:10Z</time>
      </trkpt>
      <trkpt lat="45.03151" lon="5.07607">
        <ele>189.86599731445</ele>
        <time>2010-10-09T16:09:12Z</time>
      </trkpt>
      <trkpt lat="45.0316" lon="5.07638">
        <ele>189.19500732422</ele>
        <time>2010-10-09T16:09:15Z</time>
      </trkpt>
      <trkpt lat="45.03174" lon="5.07646">
        <ele>189.0890045166</ele>
        <time>2010-10-09T16:09:17Z</time>
      </trkpt>
      <trkpt lat="45.03188" lon="5.07637">
        <ele>188.97399902344</ele>
        <time>2010-10-09T16:09:19Z</time>
      </trkpt>
      <trkpt lat="45.032" lon="5.07609">
        <ele>188.47700500488</ele>
        <time>2010-10-09T16:09:22Z</time>
      </trkpt>
      <trkpt lat="45.03218" lon="5.07588">
        <ele>188.70799255371</ele>
        <time>2010-10-09T16:09:25Z</time>
      </trkpt>
      <trkpt lat="45.03234" lon="5.0758">
        <ele>189.41499328613</ele>
        <time>2010-10-09T16:09:27Z</time>
      </trkpt>
      <trkpt lat="45.03277" lon="5.07577">
        <ele>189.60800170898</ele>
        <time>2010-10-09T16:09:32Z</time>
      </trkpt>
      <trkpt lat="45.03349" lon="5.07577">
        <ele>189.0299987793</ele>
        <time>2010-10-09T16:09:40Z</time>
      </trkpt>
      <trkpt lat="45.0341" lon="5.07585">
        <ele>187.68499755859</ele>
        <time>2010-10-09T16:09:47Z</time>
      </trkpt>
      <trkpt lat="45.03464" lon="5.07596">
        <ele>186.79200744629</ele>
        <time>2010-10-09T16:09:53Z</time>
      </trkpt>
      <trkpt lat="45.03497" lon="5.076">
        <ele>186.72700500488</ele>
        <time>2010-10-09T16:09:57Z</time>
      </trkpt>
      <trkpt lat="45.03513" lon="5.07599">
        <ele>186.75199890137</ele>
        <time>2010-10-09T16:09:59Z</time>
      </trkpt>
      <trkpt lat="45.0353" lon="5.07608">
        <ele>186.95199584961</ele>
        <time>2010-10-09T16:10:02Z</time>
      </trkpt>
      <trkpt lat="45.0353" lon="5.07624">
        <ele>186.84599304199</ele>
        <time>2010-10-09T16:10:04Z</time>
      </trkpt>
      <trkpt lat="45.03527" lon="5.07632">
        <ele>186.78100585938</ele>
        <time>2010-10-09T16:10:05Z</time>
      </trkpt>
      <trkpt lat="45.03502" lon="5.07697">
        <ele>186.47599792481</ele>
        <time>2010-10-09T16:10:12Z</time>
      </trkpt>
      <trkpt lat="45.03473" lon="5.07756">
        <ele>186.35200500488</ele>
        <time>2010-10-09T16:10:18Z</time>
      </trkpt>
      <trkpt lat="45.03446" lon="5.07816">
        <ele>186.66799926758</ele>
        <time>2010-10-09T16:10:24Z</time>
      </trkpt>
      <trkpt lat="45.0344" lon="5.07861">
        <ele>186.97700500488</ele>
        <time>2010-10-09T16:10:28Z</time>
      </trkpt>
      <trkpt lat="45.03442" lon="5.07872">
        <ele>187.04299926758</ele>
        <time>2010-10-09T16:10:29Z</time>
      </trkpt>
      <trkpt lat="45.03462" lon="5.0795">
        <ele>187.34899902344</ele>
        <time>2010-10-09T16:10:36Z</time>
      </trkpt>
      <trkpt lat="45.03489" lon="5.08036">
        <ele>187.53700256348</ele>
        <time>2010-10-09T16:10:44Z</time>
      </trkpt>
      <trkpt lat="45.03516" lon="5.08101">
        <ele>188.02699279785</ele>
        <time>2010-10-09T16:10:51Z</time>
      </trkpt>
      <trkpt lat="45.03545" lon="5.08158">
        <ele>188.61799621582</ele>
        <time>2010-10-09T16:10:58Z</time>
      </trkpt>
      <trkpt lat="45.03558" lon="5.08187">
        <ele>189.20500183106</ele>
        <time>2010-10-09T16:11:03Z</time>
      </trkpt>
      <trkpt lat="45.03561" lon="5.08198">
        <ele>189.55400085449</ele>
        <time>2010-10-09T16:11:07Z</time>
      </trkpt>
      <trkpt lat="45.03562" lon="5.08203">
        <ele>189.57899475098</ele>
        <time>2010-10-09T16:11:09Z</time>
      </trkpt>
      <trkpt lat="45.03558" lon="5.08216">
        <ele>189.45799255371</ele>
        <time>2010-10-09T16:11:12Z</time>
      </trkpt>
      <trkpt lat="45.03556" lon="5.0824">
        <ele>189.55700683594</ele>
        <time>2010-10-09T16:11:16Z</time>
      </trkpt>
      <trkpt lat="45.03568" lon="5.0827">
        <ele>189.61000061035</ele>
        <time>2010-10-09T16:11:21Z</time>
      </trkpt>
      <trkpt lat="45.0358" lon="5.08296">
        <ele>189.30900573731</ele>
        <time>2010-10-09T16:11:25Z</time>
      </trkpt>
      <trkpt lat="45.0358" lon="5.08304">
        <ele>189.07000732422</ele>
        <time>2010-10-09T16:11:26Z</time>
      </trkpt>
      <trkpt lat="45.03578" lon="5.08361">
        <ele>189.35200500488</ele>
        <time>2010-10-09T16:11:32Z</time>
      </trkpt>
      <trkpt lat="45.03575" lon="5.08435">
        <ele>189.30799865723</ele>
        <time>2010-10-09T16:11:39Z</time>
      </trkpt>
      <trkpt lat="45.03572" lon="5.08521">
        <ele>189.82800292969</ele>
        <time>2010-10-09T16:11:47Z</time>
      </trkpt>
      <trkpt lat="45.03567" lon="5.08586">
        <ele>190.02900695801</ele>
        <time>2010-10-09T16:11:54Z</time>
      </trkpt>
      <trkpt lat="45.03574" lon="5.08615">
        <ele>189.8390045166</ele>
        <time>2010-10-09T16:11:58Z</time>
      </trkpt>
      <trkpt lat="45.0359" lon="5.08632">
        <ele>189.33200073242</ele>
        <time>2010-10-09T16:12:01Z</time>
      </trkpt>
      <trkpt lat="45.03603" lon="5.0864">
        <ele>189.30799865723</ele>
        <time>2010-10-09T16:12:03Z</time>
      </trkpt>
      <trkpt lat="45.03616" lon="5.08647">
        <ele>188.95300292969</ele>
        <time>2010-10-09T16:12:05Z</time>
      </trkpt>
      <trkpt lat="45.03665" lon="5.0866">
        <ele>187.70199584961</ele>
        <time>2010-10-09T16:12:11Z</time>
      </trkpt>
      <trkpt lat="45.03707" lon="5.08669">
        <ele>186.25500488281</ele>
        <time>2010-10-09T16:12:16Z</time>
      </trkpt>
      <trkpt lat="45.03777" lon="5.08686">
        <ele>184.39799499512</ele>
        <time>2010-10-09T16:12:24Z</time>
      </trkpt>
      <trkpt lat="45.03834" lon="5.087">
        <ele>182.05799865723</ele>
        <time>2010-10-09T16:12:30Z</time>
      </trkpt>
      <trkpt lat="45.03867" lon="5.08708">
        <ele>180.63200378418</ele>
        <time>2010-10-09T16:12:34Z</time>
      </trkpt>
      <trkpt lat="45.03875" lon="5.0871">
        <ele>180.32800292969</ele>
        <time>2010-10-09T16:12:35Z</time>
      </trkpt>
      <trkpt lat="45.03901" lon="5.08713">
        <ele>178.45399475098</ele>
        <time>2010-10-09T16:12:38Z</time>
      </trkpt>
      <trkpt lat="45.03948" lon="5.08703">
        <ele>175.76499938965</ele>
        <time>2010-10-09T16:12:43Z</time>
      </trkpt>
      <trkpt lat="45.04003" lon="5.08687">
        <ele>175.73699951172</ele>
        <time>2010-10-09T16:12:49Z</time>
      </trkpt>
      <trkpt lat="45.04062" lon="5.08671">
        <ele>175.83799743652</ele>
        <time>2010-10-09T16:12:56Z</time>
      </trkpt>
      <trkpt lat="45.0412" lon="5.08651">
        <ele>176.00900268555</ele>
        <time>2010-10-09T16:13:04Z</time>
      </trkpt>
      <trkpt lat="45.04151" lon="5.08639">
        <ele>176.44999694824</ele>
        <time>2010-10-09T16:13:09Z</time>
      </trkpt>
      <trkpt lat="45.04189" lon="5.08627">
        <ele>176.36999511719</ele>
        <time>2010-10-09T16:13:15Z</time>
      </trkpt>
      <trkpt lat="45.04216" lon="5.08608">
        <ele>178.51899719238</ele>
        <time>2010-10-09T16:13:20Z</time>
      </trkpt>
      <trkpt lat="45.04221" lon="5.08603">
        <ele>178.7559967041</ele>
        <time>2010-10-09T16:13:21Z</time>
      </trkpt>
      <trkpt lat="45.04248" lon="5.08568">
        <ele>180.91600036621</ele>
        <time>2010-10-09T16:13:27Z</time>
      </trkpt>
      <trkpt lat="45.04256" lon="5.08548">
        <ele>182.04299926758</ele>
        <time>2010-10-09T16:13:30Z</time>
      </trkpt>
      <trkpt lat="45.04261" lon="5.08534">
        <ele>182.70899963379</ele>
        <time>2010-10-09T16:13:32Z</time>
      </trkpt>
      <trkpt lat="45.04271" lon="5.08508">
        <ele>183.90600585938</ele>
        <time>2010-10-09T16:13:36Z</time>
      </trkpt>
      <trkpt lat="45.04279" lon="5.08493">
        <ele>185.24000549316</ele>
        <time>2010-10-09T16:13:39Z</time>
      </trkpt>
      <trkpt lat="45.04286" lon="5.08485">
        <ele>186.21200561523</ele>
        <time>2010-10-09T16:13:41Z</time>
      </trkpt>
      <trkpt lat="45.04294" lon="5.08478">
        <ele>186.88600158691</ele>
        <time>2010-10-09T16:13:43Z</time>
      </trkpt>
      <trkpt lat="45.04319" lon="5.08456">
        <ele>188.06900024414</ele>
        <time>2010-10-09T16:13:50Z</time>
      </trkpt>
      <trkpt lat="45.04342" lon="5.08456">
        <ele>188.66200256348</ele>
        <time>2010-10-09T16:13:55Z</time>
      </trkpt>
      <trkpt lat="45.04353" lon="5.08468">
        <ele>188.78999328613</ele>
        <time>2010-10-09T16:13:58Z</time>
      </trkpt>
      <trkpt lat="45.04358" lon="5.08481">
        <ele>189.18400573731</ele>
        <time>2010-10-09T16:14:00Z</time>
      </trkpt>
      <trkpt lat="45.04364" lon="5.0854">
        <ele>190.73599243164</ele>
        <time>2010-10-09T16:14:08Z</time>
      </trkpt>
      <trkpt lat="45.04368" lon="5.08574">
        <ele>190.86599731445</ele>
        <time>2010-10-09T16:14:12Z</time>
      </trkpt>
      <trkpt lat="45.0438" lon="5.08601">
        <ele>190.67799377441</ele>
        <time>2010-10-09T16:14:16Z</time>
      </trkpt>
      <trkpt lat="45.044" lon="5.08606">
        <ele>189.85600280762</ele>
        <time>2010-10-09T16:14:19Z</time>
      </trkpt>
      <trkpt lat="45.04407" lon="5.08606">
        <ele>189.38000488281</ele>
        <time>2010-10-09T16:14:20Z</time>
      </trkpt>
      <trkpt lat="45.0449" lon="5.08592">
        <ele>187.42900085449</ele>
        <time>2010-10-09T16:14:31Z</time>
      </trkpt>
      <trkpt lat="45.04535" lon="5.08586">
        <ele>187.69200134277</ele>
        <time>2010-10-09T16:14:37Z</time>
      </trkpt>
      <trkpt lat="45.04596" lon="5.08574">
        <ele>188.66900634766</ele>
        <time>2010-10-09T16:14:45Z</time>
      </trkpt>
      <trkpt lat="45.04652" lon="5.08565">
        <ele>189.73599243164</ele>
        <time>2010-10-09T16:14:53Z</time>
      </trkpt>
      <trkpt lat="45.04702" lon="5.08555">
        <ele>190.2619934082</ele>
        <time>2010-10-09T16:15:00Z</time>
      </trkpt>
      <trkpt lat="45.04762" lon="5.08544">
        <ele>189.90899658203</ele>
        <time>2010-10-09T16:15:08Z</time>
      </trkpt>
      <trkpt lat="45.0479" lon="5.08538">
        <ele>190.18699645996</ele>
        <time>2010-10-09T16:15:12Z</time>
      </trkpt>
      <trkpt lat="45.04816" lon="5.0855">
        <ele>189.68400573731</ele>
        <time>2010-10-09T16:15:16Z</time>
      </trkpt>
      <trkpt lat="45.04824" lon="5.08548">
        <ele>189.58000183106</ele>
        <time>2010-10-09T16:15:18Z</time>
      </trkpt>
      <trkpt lat="45.04838" lon="5.08532">
        <ele>188.8869934082</ele>
        <time>2010-10-09T16:15:21Z</time>
      </trkpt>
      <trkpt lat="45.04851" lon="5.08529">
        <ele>189.14199829102</ele>
        <time>2010-10-09T16:15:23Z</time>
      </trkpt>
      <trkpt lat="45.04911" lon="5.08525">
        <ele>189.71899414062</ele>
        <time>2010-10-09T16:15:31Z</time>
      </trkpt>
      <trkpt lat="45.04975" lon="5.08521">
        <ele>190.00300598144</ele>
        <time>2010-10-09T16:15:40Z</time>
      </trkpt>
      <trkpt lat="45.05026" lon="5.08518">
        <ele>190.67799377441</ele>
        <time>2010-10-09T16:15:48Z</time>
      </trkpt>
      <trkpt lat="45.05054" lon="5.08517">
        <ele>191.05000305176</ele>
        <time>2010-10-09T16:15:53Z</time>
      </trkpt>
      <trkpt lat="45.05074" lon="5.08515">
        <ele>191.21800231934</ele>
        <time>2010-10-09T16:15:57Z</time>
      </trkpt>
      <trkpt lat="45.0508" lon="5.08491">
        <ele>190.67900085449</ele>
        <time>2010-10-09T16:16:01Z</time>
      </trkpt>
      <trkpt lat="45.05079" lon="5.08473">
        <ele>190.14500427246</ele>
        <time>2010-10-09T16:16:03Z</time>
      </trkpt>
      <trkpt lat="45.0507" lon="5.08391">
        <ele>190.47799682617</ele>
        <time>2010-10-09T16:16:12Z</time>
      </trkpt>
      <trkpt lat="45.05065" lon="5.08317">
        <ele>189.76800537109</ele>
        <time>2010-10-09T16:16:20Z</time>
      </trkpt>
      <trkpt lat="45.05065" lon="5.08307">
        <ele>189.67700195312</ele>
        <time>2010-10-09T16:16:21Z</time>
      </trkpt>
      <trkpt lat="45.05057" lon="5.08268">
        <ele>189.58599853516</ele>
        <time>2010-10-09T16:16:25Z</time>
      </trkpt>
      <trkpt lat="45.05031" lon="5.08181">
        <ele>189.42599487305</ele>
        <time>2010-10-09T16:16:34Z</time>
      </trkpt>
      <trkpt lat="45.0502" lon="5.08109">
        <ele>190.27099609375</ele>
        <time>2010-10-09T16:16:41Z</time>
      </trkpt>
      <trkpt lat="45.05017" lon="5.08079">
        <ele>190.14300537109</ele>
        <time>2010-10-09T16:16:44Z</time>
      </trkpt>
      <trkpt lat="45.05019" lon="5.0803">
        <ele>190.04899597168</ele>
        <time>2010-10-09T16:16:50Z</time>
      </trkpt>
      <trkpt lat="45.05021" lon="5.08001">
        <ele>189.88600158691</ele>
        <time>2010-10-09T16:16:55Z</time>
      </trkpt>
      <trkpt lat="45.05023" lon="5.07976">
        <ele>190.19400024414</ele>
        <time>2010-10-09T16:17:01Z</time>
      </trkpt>
      <trkpt lat="45.05025" lon="5.07963">
        <ele>190.41900634766</ele>
        <time>2010-10-09T16:17:08Z</time>
      </trkpt>
      <trkpt lat="45.05025" lon="5.07958">
        <ele>190.46299743652</ele>
        <time>2010-10-09T16:17:13Z</time>
      </trkpt>
      <trkpt lat="45.05026" lon="5.07953">
        <ele>190.24699401856</ele>
        <time>2010-10-09T16:17:23Z</time>
      </trkpt>
      <trkpt lat="45.05029" lon="5.07947">
        <ele>190.30999755859</ele>
        <time>2010-10-09T16:17:26Z</time>
      </trkpt>
      <trkpt lat="45.05037" lon="5.0794">
        <ele>190.27600097656</ele>
        <time>2010-10-09T16:17:30Z</time>
      </trkpt>
      <trkpt lat="45.05043" lon="5.07909">
        <ele>189.40600585938</ele>
        <time>2010-10-09T16:17:35Z</time>
      </trkpt>
      <trkpt lat="45.0505" lon="5.07875">
        <ele>189.16299438477</ele>
        <time>2010-10-09T16:17:40Z</time>
      </trkpt>
      <trkpt lat="45.05058" lon="5.07863">
        <ele>188.87899780273</ele>
        <time>2010-10-09T16:17:42Z</time>
      </trkpt>
      <trkpt lat="45.05086" lon="5.0784">
        <ele>187.55700683594</ele>
        <time>2010-10-09T16:17:47Z</time>
      </trkpt>
      <trkpt lat="45.05128" lon="5.07814">
        <ele>185.56300354004</ele>
        <time>2010-10-09T16:17:53Z</time>
      </trkpt>
      <trkpt lat="45.05169" lon="5.07785">
        <ele>184.93299865723</ele>
        <time>2010-10-09T16:17:59Z</time>
      </trkpt>
      <trkpt lat="45.05192" lon="5.07769">
        <ele>186.16000366211</ele>
        <time>2010-10-09T16:18:03Z</time>
      </trkpt>
      <trkpt lat="45.05223" lon="5.0775">
        <ele>188.39100646973</ele>
        <time>2010-10-09T16:18:09Z</time>
      </trkpt>
      <trkpt lat="45.05243" lon="5.07741">
        <ele>189.7859954834</ele>
        <time>2010-10-09T16:18:13Z</time>
      </trkpt>
      <trkpt lat="45.05265" lon="5.07729">
        <ele>190.43800354004</ele>
        <time>2010-10-09T16:18:18Z</time>
      </trkpt>
      <trkpt lat="45.05277" lon="5.07711">
        <ele>190.40199279785</ele>
        <time>2010-10-09T16:18:21Z</time>
      </trkpt>
      <trkpt lat="45.05307" lon="5.07665">
        <ele>190.70399475098</ele>
        <time>2010-10-09T16:18:28Z</time>
      </trkpt>
      <trkpt lat="45.05349" lon="5.07611">
        <ele>191.28100585938</ele>
        <time>2010-10-09T16:18:37Z</time>
      </trkpt>
      <trkpt lat="45.0536" lon="5.07593">
        <ele>191.50199890137</ele>
        <time>2010-10-09T16:18:41Z</time>
      </trkpt>
      <trkpt lat="45.0536" lon="5.07593">
        <ele>192.27499389648</ele>
        <time>2010-10-09T16:18:43Z</time>
      </trkpt>
      <trkpt lat="45.05364" lon="5.07586">
        <ele>192.03500366211</ele>
        <time>2010-10-09T16:19:24Z</time>
      </trkpt>
      <trkpt lat="45.05374" lon="5.07569">
        <ele>191.40899658203</ele>
        <time>2010-10-09T16:19:28Z</time>
      </trkpt>
      <trkpt lat="45.05394" lon="5.07535">
        <ele>191.83500671387</ele>
        <time>2010-10-09T16:19:34Z</time>
      </trkpt>
      <trkpt lat="45.05415" lon="5.07494">
        <ele>191.26400756836</ele>
        <time>2010-10-09T16:19:40Z</time>
      </trkpt>
      <trkpt lat="45.05439" lon="5.07443">
        <ele>190.73199462891</ele>
        <time>2010-10-09T16:19:46Z</time>
      </trkpt>
      <trkpt lat="45.05477" lon="5.07367">
        <ele>189.02499389648</ele>
        <time>2010-10-09T16:19:54Z</time>
      </trkpt>
      <trkpt lat="45.05523" lon="5.07274">
        <ele>189.07299804688</ele>
        <time>2010-10-09T16:20:03Z</time>
      </trkpt>
      <trkpt lat="45.05565" lon="5.07192">
        <ele>188.0890045166</ele>
        <time>2010-10-09T16:20:11Z</time>
      </trkpt>
      <trkpt lat="45.0559" lon="5.07158">
        <ele>188.51899719238</ele>
        <time>2010-10-09T16:20:15Z</time>
      </trkpt>
      <trkpt lat="45.05598" lon="5.07124">
        <ele>187.56500244141</ele>
        <time>2010-10-09T16:20:18Z</time>
      </trkpt>
      <trkpt lat="45.05602" lon="5.07113">
        <ele>187.42799377441</ele>
        <time>2010-10-09T16:20:19Z</time>
      </trkpt>
      <trkpt lat="45.05634" lon="5.07014">
        <ele>187.82400512695</ele>
        <time>2010-10-09T16:20:28Z</time>
      </trkpt>
      <trkpt lat="45.0565" lon="5.06932">
        <ele>187.02799987793</ele>
        <time>2010-10-09T16:20:35Z</time>
      </trkpt>
      <trkpt lat="45.05662" lon="5.06825">
        <ele>186.20899963379</ele>
        <time>2010-10-09T16:20:44Z</time>
      </trkpt>
      <trkpt lat="45.05678" lon="5.06724">
        <ele>186.2380065918</ele>
        <time>2010-10-09T16:20:53Z</time>
      </trkpt>
      <trkpt lat="45.05704" lon="5.06606">
        <ele>185.625</ele>
        <time>2010-10-09T16:21:04Z</time>
      </trkpt>
      <trkpt lat="45.05732" lon="5.06519">
        <ele>187.21899414062</ele>
        <time>2010-10-09T16:21:13Z</time>
      </trkpt>
      <trkpt lat="45.0574" lon="5.06502">
        <ele>187.68600463867</ele>
        <time>2010-10-09T16:21:15Z</time>
      </trkpt>
      <trkpt lat="45.05755" lon="5.06483">
        <ele>187.99899291992</ele>
        <time>2010-10-09T16:21:18Z</time>
      </trkpt>
      <trkpt lat="45.0577" lon="5.06454">
        <ele>188.67300415039</ele>
        <time>2010-10-09T16:21:22Z</time>
      </trkpt>
      <trkpt lat="45.0578" lon="5.06444">
        <ele>188.6549987793</ele>
        <time>2010-10-09T16:21:24Z</time>
      </trkpt>
      <trkpt lat="45.05832" lon="5.06431">
        <ele>190.25799560547</ele>
        <time>2010-10-09T16:21:32Z</time>
      </trkpt>
      <trkpt lat="45.05845" lon="5.06429">
        <ele>190.30999755859</ele>
        <time>2010-10-09T16:21:34Z</time>
      </trkpt>
      <trkpt lat="45.05884" lon="5.06412">
        <ele>189.89700317383</ele>
        <time>2010-10-09T16:21:40Z</time>
      </trkpt>
      <trkpt lat="45.05937" lon="5.06391">
        <ele>189.4700012207</ele>
        <time>2010-10-09T16:21:47Z</time>
      </trkpt>
      <trkpt lat="45.05984" lon="5.06373">
        <ele>188.93099975586</ele>
        <time>2010-10-09T16:21:53Z</time>
      </trkpt>
      <trkpt lat="45.06043" lon="5.06361">
        <ele>189.83200073242</ele>
        <time>2010-10-09T16:22:00Z</time>
      </trkpt>
      <trkpt lat="45.06093" lon="5.06355">
        <ele>189.86399841309</ele>
        <time>2010-10-09T16:22:06Z</time>
      </trkpt>
      <trkpt lat="45.06145" lon="5.06352">
        <ele>190.16999816894</ele>
        <time>2010-10-09T16:22:12Z</time>
      </trkpt>
      <trkpt lat="45.06221" lon="5.06347">
        <ele>190.54299926758</ele>
        <time>2010-10-09T16:22:21Z</time>
      </trkpt>
      <trkpt lat="45.06287" lon="5.06329">
        <ele>190.50799560547</ele>
        <time>2010-10-09T16:22:29Z</time>
      </trkpt>
      <trkpt lat="45.06352" lon="5.06301">
        <ele>190.7619934082</ele>
        <time>2010-10-09T16:22:37Z</time>
      </trkpt>
      <trkpt lat="45.06411" lon="5.06268">
        <ele>189.54200744629</ele>
        <time>2010-10-09T16:22:44Z</time>
      </trkpt>
      <trkpt lat="45.06486" lon="5.06223">
        <ele>188.88200378418</ele>
        <time>2010-10-09T16:22:53Z</time>
      </trkpt>
      <trkpt lat="45.06551" lon="5.06189">
        <ele>189.86700439453</ele>
        <time>2010-10-09T16:23:01Z</time>
      </trkpt>
      <trkpt lat="45.06626" lon="5.06151">
        <ele>189.37199401856</ele>
        <time>2010-10-09T16:23:10Z</time>
      </trkpt>
      <trkpt lat="45.06683" lon="5.06123">
        <ele>189.77600097656</ele>
        <time>2010-10-09T16:23:17Z</time>
      </trkpt>
      <trkpt lat="45.06728" lon="5.06088">
        <ele>190.49699401856</ele>
        <time>2010-10-09T16:23:23Z</time>
      </trkpt>
      <trkpt lat="45.06769" lon="5.06044">
        <ele>190</ele>
        <time>2010-10-09T16:23:29Z</time>
      </trkpt>
      <trkpt lat="45.06792" lon="5.06011">
        <ele>190.17700195312</ele>
        <time>2010-10-09T16:23:33Z</time>
      </trkpt>
      <trkpt lat="45.06803" lon="5.05972">
        <ele>189.97099304199</ele>
        <time>2010-10-09T16:23:37Z</time>
      </trkpt>
      <trkpt lat="45.06804" lon="5.05952">
        <ele>189.71800231934</ele>
        <time>2010-10-09T16:23:39Z</time>
      </trkpt>
      <trkpt lat="45.06794" lon="5.05819">
        <ele>189.74800109863</ele>
        <time>2010-10-09T16:23:52Z</time>
      </trkpt>
      <trkpt lat="45.06793" lon="5.05809">
        <ele>189.85899353027</ele>
        <time>2010-10-09T16:23:53Z</time>
      </trkpt>
      <trkpt lat="45.06802" lon="5.05787">
        <ele>189.60699462891</ele>
        <time>2010-10-09T16:23:56Z</time>
      </trkpt>
      <trkpt lat="45.06821" lon="5.0578">
        <ele>190.06399536133</ele>
        <time>2010-10-09T16:23:59Z</time>
      </trkpt>
      <trkpt lat="45.06855" lon="5.05761">
        <ele>189.78900146484</ele>
        <time>2010-10-09T16:24:05Z</time>
      </trkpt>
      <trkpt lat="45.06893" lon="5.0573">
        <ele>189.72200012207</ele>
        <time>2010-10-09T16:24:12Z</time>
      </trkpt>
      <trkpt lat="45.06903" lon="5.05718">
        <ele>189.64300537109</ele>
        <time>2010-10-09T16:24:14Z</time>
      </trkpt>
      <trkpt lat="45.06913" lon="5.05707">
        <ele>189.28799438477</ele>
        <time>2010-10-09T16:24:16Z</time>
      </trkpt>
      <trkpt lat="45.06929" lon="5.05683">
        <ele>189.64599609375</ele>
        <time>2010-10-09T16:24:20Z</time>
      </trkpt>
      <trkpt lat="45.06971" lon="5.05649">
        <ele>190.12100219727</ele>
        <time>2010-10-09T16:24:28Z</time>
      </trkpt>
      <trkpt lat="45.06982" lon="5.05642">
        <ele>190.11000061035</ele>
        <time>2010-10-09T16:24:30Z</time>
      </trkpt>
      <trkpt lat="45.06998" lon="5.05619">
        <ele>190.05900573731</ele>
        <time>2010-10-09T16:24:34Z</time>
      </trkpt>
      <trkpt lat="45.07031" lon="5.05552">
        <ele>190.58599853516</ele>
        <time>2010-10-09T16:24:43Z</time>
      </trkpt>
      <trkpt lat="45.0705" lon="5.05517">
        <ele>190.97200012207</ele>
        <time>2010-10-09T16:24:48Z</time>
      </trkpt>
      <trkpt lat="45.07075" lon="5.05462">
        <ele>191.79699707031</ele>
        <time>2010-10-09T16:24:56Z</time>
      </trkpt>
      <trkpt lat="45.0709" lon="5.05434">
        <ele>193.09800720215</ele>
        <time>2010-10-09T16:25:02Z</time>
      </trkpt>
      <trkpt lat="45.07093" lon="5.05429">
        <ele>193.17700195312</ele>
        <time>2010-10-09T16:25:04Z</time>
      </trkpt>
      <trkpt lat="45.07095" lon="5.05422">
        <ele>193.19400024414</ele>
        <time>2010-10-09T16:25:06Z</time>
      </trkpt>
      <trkpt lat="45.07097" lon="5.05376">
        <ele>193.44099426269</ele>
        <time>2010-10-09T16:25:13Z</time>
      </trkpt>
      <trkpt lat="45.07101" lon="5.05311">
        <ele>194.63800048828</ele>
        <time>2010-10-09T16:25:22Z</time>
      </trkpt>
      <trkpt lat="45.07116" lon="5.05286">
        <ele>195.47599792481</ele>
        <time>2010-10-09T16:25:27Z</time>
      </trkpt>
      <trkpt lat="45.07138" lon="5.05256">
        <ele>197.43299865723</ele>
        <time>2010-10-09T16:25:34Z</time>
      </trkpt>
      <trkpt lat="45.07153" lon="5.05235">
        <ele>198.45700073242</ele>
        <time>2010-10-09T16:25:39Z</time>
      </trkpt>
      <trkpt lat="45.07162" lon="5.05222">
        <ele>198.80099487305</ele>
        <time>2010-10-09T16:25:42Z</time>
      </trkpt>
      <trkpt lat="45.07194" lon="5.05182">
        <ele>200.89799499512</ele>
        <time>2010-10-09T16:25:52Z</time>
      </trkpt>
      <trkpt lat="45.07224" lon="5.05143">
        <ele>202.65299987793</ele>
        <time>2010-10-09T16:26:01Z</time>
      </trkpt>
      <trkpt lat="45.07233" lon="5.05129">
        <ele>203.25</ele>
        <time>2010-10-09T16:26:04Z</time>
      </trkpt>
      <trkpt lat="45.07248" lon="5.05114">
        <ele>203.88400268555</ele>
        <time>2010-10-09T16:26:08Z</time>
      </trkpt>
      <trkpt lat="45.07254" lon="5.05106">
        <ele>204.31599426269</ele>
        <time>2010-10-09T16:26:10Z</time>
      </trkpt>
      <trkpt lat="45.07279" lon="5.05074">
        <ele>205.67999267578</ele>
        <time>2010-10-09T16:26:17Z</time>
      </trkpt>
      <trkpt lat="45.07303" lon="5.05046">
        <ele>206.44999694824</ele>
        <time>2010-10-09T16:26:24Z</time>
      </trkpt>
      <trkpt lat="45.07318" lon="5.05024">
        <ele>206.99800109863</ele>
        <time>2010-10-09T16:26:30Z</time>
      </trkpt>
      <trkpt lat="45.07322" lon="5.05011">
        <ele>207.02400207519</ele>
        <time>2010-10-09T16:26:35Z</time>
      </trkpt>
      <trkpt lat="45.07333" lon="5.05002">
        <ele>207.20100402832</ele>
        <time>2010-10-09T16:26:39Z</time>
      </trkpt>
      <trkpt lat="45.07337" lon="5.05">
        <ele>207.26400756836</ele>
        <time>2010-10-09T16:26:40Z</time>
      </trkpt>
      <trkpt lat="45.07362" lon="5.0498">
        <ele>207.86000061035</ele>
        <time>2010-10-09T16:26:47Z</time>
      </trkpt>
      <trkpt lat="45.07394" lon="5.04954">
        <ele>208.09399414062</ele>
        <time>2010-10-09T16:26:55Z</time>
      </trkpt>
      <trkpt lat="45.07427" lon="5.04931">
        <ele>208.25700378418</ele>
        <time>2010-10-09T16:27:02Z</time>
      </trkpt>
      <trkpt lat="45.0746" lon="5.04919">
        <ele>208.36500549316</ele>
        <time>2010-10-09T16:27:08Z</time>
      </trkpt>
      <trkpt lat="45.07498" lon="5.04914">
        <ele>208.66600036621</ele>
        <time>2010-10-09T16:27:14Z</time>
      </trkpt>
      <trkpt lat="45.07552" lon="5.04908">
        <ele>208.61700439453</ele>
        <time>2010-10-09T16:27:23Z</time>
      </trkpt>
      <trkpt lat="45.07616" lon="5.049">
        <ele>208.5119934082</ele>
        <time>2010-10-09T16:27:33Z</time>
      </trkpt>
      <trkpt lat="45.07666" lon="5.04895">
        <ele>208.72399902344</ele>
        <time>2010-10-09T16:27:41Z</time>
      </trkpt>
      <trkpt lat="45.0772" lon="5.04891">
        <ele>208.16400146484</ele>
        <time>2010-10-09T16:27:49Z</time>
      </trkpt>
      <trkpt lat="45.07788" lon="5.04885">
        <ele>208.90800476074</ele>
        <time>2010-10-09T16:27:59Z</time>
      </trkpt>
      <trkpt lat="45.0785" lon="5.04876">
        <ele>209.17100524902</ele>
        <time>2010-10-09T16:28:08Z</time>
      </trkpt>
      <trkpt lat="45.07928" lon="5.04865">
        <ele>210.05900573731</ele>
        <time>2010-10-09T16:28:20Z</time>
      </trkpt>
      <trkpt lat="45.07996" lon="5.04857">
        <ele>211.0299987793</ele>
        <time>2010-10-09T16:28:30Z</time>
      </trkpt>
      <trkpt lat="45.08059" lon="5.0485">
        <ele>210.8450012207</ele>
        <time>2010-10-09T16:28:39Z</time>
      </trkpt>
      <trkpt lat="45.08123" lon="5.04842">
        <ele>210.03100585938</ele>
        <time>2010-10-09T16:28:48Z</time>
      </trkpt>
      <trkpt lat="45.0819" lon="5.04834">
        <ele>208.79899597168</ele>
        <time>2010-10-09T16:28:57Z</time>
      </trkpt>
      <trkpt lat="45.08248" lon="5.04826">
        <ele>207.74000549316</ele>
        <time>2010-10-09T16:29:04Z</time>
      </trkpt>
      <trkpt lat="45.0832" lon="5.04817">
        <ele>207.28500366211</ele>
        <time>2010-10-09T16:29:13Z</time>
      </trkpt>
      <trkpt lat="45.08388" lon="5.04809">
        <ele>207.46200561523</ele>
        <time>2010-10-09T16:29:22Z</time>
      </trkpt>
      <trkpt lat="45.08437" lon="5.04807">
        <ele>207.71000671387</ele>
        <time>2010-10-09T16:29:29Z</time>
      </trkpt>
      <trkpt lat="45.08451" lon="5.04807">
        <ele>207.87399291992</ele>
        <time>2010-10-09T16:29:31Z</time>
      </trkpt>
      <trkpt lat="45.08477" lon="5.04814">
        <ele>207.92700195312</ele>
        <time>2010-10-09T16:29:35Z</time>
      </trkpt>
      <trkpt lat="45.08495" lon="5.048">
        <ele>207.82499694824</ele>
        <time>2010-10-09T16:29:38Z</time>
      </trkpt>
      <trkpt lat="45.08511" lon="5.04795">
        <ele>207.61700439453</ele>
        <time>2010-10-09T16:29:40Z</time>
      </trkpt>
      <trkpt lat="45.0859" lon="5.04782">
        <ele>208.79299926758</ele>
        <time>2010-10-09T16:29:51Z</time>
      </trkpt>
      <trkpt lat="45.08651" lon="5.04776">
        <ele>209.95899963379</ele>
        <time>2010-10-09T16:30:00Z</time>
      </trkpt>
      <trkpt lat="45.08706" lon="5.04773">
        <ele>211.29800415039</ele>
        <time>2010-10-09T16:30:08Z</time>
      </trkpt>
      <trkpt lat="45.08774" lon="5.04764">
        <ele>212.15199279785</ele>
        <time>2010-10-09T16:30:18Z</time>
      </trkpt>
      <trkpt lat="45.08834" lon="5.04754">
        <ele>212.97700500488</ele>
        <time>2010-10-09T16:30:27Z</time>
      </trkpt>
      <trkpt lat="45.08895" lon="5.04746">
        <ele>213.03700256348</ele>
        <time>2010-10-09T16:30:36Z</time>
      </trkpt>
      <trkpt lat="45.08951" lon="5.04739">
        <ele>212.92300415039</ele>
        <time>2010-10-09T16:30:44Z</time>
      </trkpt>
      <trkpt lat="45.0903" lon="5.0473">
        <ele>213.62899780273</ele>
        <time>2010-10-09T16:30:55Z</time>
      </trkpt>
      <trkpt lat="45.09074" lon="5.04731">
        <ele>215.3690032959</ele>
        <time>2010-10-09T16:31:02Z</time>
      </trkpt>
      <trkpt lat="45.09126" lon="5.04735">
        <ele>217.18299865723</ele>
        <time>2010-10-09T16:31:11Z</time>
      </trkpt>
      <trkpt lat="45.0915" lon="5.04738">
        <ele>217.8809967041</ele>
        <time>2010-10-09T16:31:15Z</time>
      </trkpt>
      <trkpt lat="45.09169" lon="5.04755">
        <ele>217.97900390625</ele>
        <time>2010-10-09T16:31:19Z</time>
      </trkpt>
      <trkpt lat="45.09172" lon="5.04762">
        <ele>217.7380065918</ele>
        <time>2010-10-09T16:31:20Z</time>
      </trkpt>
      <trkpt lat="45.09177" lon="5.04779">
        <ele>217.01100158691</ele>
        <time>2010-10-09T16:31:22Z</time>
      </trkpt>
      <trkpt lat="45.0918" lon="5.04815">
        <ele>216.02299499512</ele>
        <time>2010-10-09T16:31:26Z</time>
      </trkpt>
      <trkpt lat="45.0919" lon="5.04823">
        <ele>216.02200317383</ele>
        <time>2010-10-09T16:31:28Z</time>
      </trkpt>
      <trkpt lat="45.09206" lon="5.04813">
        <ele>216.19599914551</ele>
        <time>2010-10-09T16:31:31Z</time>
      </trkpt>
      <trkpt lat="45.09211" lon="5.04811">
        <ele>216.29299926758</ele>
        <time>2010-10-09T16:31:32Z</time>
      </trkpt>
      <trkpt lat="45.09275" lon="5.04795">
        <ele>217.57400512695</ele>
        <time>2010-10-09T16:31:42Z</time>
      </trkpt>
      <trkpt lat="45.09287" lon="5.0479">
        <ele>217.66499328613</ele>
        <time>2010-10-09T16:31:44Z</time>
      </trkpt>
      <trkpt lat="45.09309" lon="5.04772">
        <ele>218.01699829102</ele>
        <time>2010-10-09T16:31:48Z</time>
      </trkpt>
      <trkpt lat="45.09341" lon="5.0473">
        <ele>218.97700500488</ele>
        <time>2010-10-09T16:31:55Z</time>
      </trkpt>
      <trkpt lat="45.09376" lon="5.04705">
        <ele>219.97399902344</ele>
        <time>2010-10-09T16:32:01Z</time>
      </trkpt>
      <trkpt lat="45.09391" lon="5.04694">
        <ele>220.62800598144</ele>
        <time>2010-10-09T16:32:04Z</time>
      </trkpt>
      <trkpt lat="45.09444" lon="5.04668">
        <ele>222.01600646973</ele>
        <time>2010-10-09T16:32:13Z</time>
      </trkpt>
      <trkpt lat="45.0948" lon="5.04653">
        <ele>222.56500244141</ele>
        <time>2010-10-09T16:32:19Z</time>
      </trkpt>
      <trkpt lat="45.0952" lon="5.04634">
        <ele>223.28199768066</ele>
        <time>2010-10-09T16:32:26Z</time>
      </trkpt>
      <trkpt lat="45.09564" lon="5.04606">
        <ele>224.17700195312</ele>
        <time>2010-10-09T16:32:34Z</time>
      </trkpt>
      <trkpt lat="45.09568" lon="5.046">
        <ele>224.40699768066</ele>
        <time>2010-10-09T16:32:35Z</time>
      </trkpt>
      <trkpt lat="45.09587" lon="5.04577">
        <ele>224.93200683594</ele>
        <time>2010-10-09T16:32:39Z</time>
      </trkpt>
      <trkpt lat="45.09602" lon="5.04551">
        <ele>226.00799560547</ele>
        <time>2010-10-09T16:32:43Z</time>
      </trkpt>
      <trkpt lat="45.09618" lon="5.04532">
        <ele>226.84899902344</ele>
        <time>2010-10-09T16:32:47Z</time>
      </trkpt>
      <trkpt lat="45.09631" lon="5.04507">
        <ele>227.58500671387</ele>
        <time>2010-10-09T16:32:52Z</time>
      </trkpt>
      <trkpt lat="45.09626" lon="5.04485">
        <ele>227.98899841309</ele>
        <time>2010-10-09T16:32:56Z</time>
      </trkpt>
      <trkpt lat="45.09626" lon="5.04479">
        <ele>228.19700622559</ele>
        <time>2010-10-09T16:32:57Z</time>
      </trkpt>
      <trkpt lat="45.09637" lon="5.04433">
        <ele>229.14599609375</ele>
        <time>2010-10-09T16:33:05Z</time>
      </trkpt>
      <trkpt lat="45.09645" lon="5.0441">
        <ele>229.26400756836</ele>
        <time>2010-10-09T16:33:09Z</time>
      </trkpt>
      <trkpt lat="45.09663" lon="5.04363">
        <ele>229.97799682617</ele>
        <time>2010-10-09T16:33:17Z</time>
      </trkpt>
      <trkpt lat="45.09687" lon="5.04327">
        <ele>229.18600463867</ele>
        <time>2010-10-09T16:33:23Z</time>
      </trkpt>
      <trkpt lat="45.09718" lon="5.04295">
        <ele>228.75</ele>
        <time>2010-10-09T16:33:29Z</time>
      </trkpt>
      <trkpt lat="45.09763" lon="5.04251">
        <ele>227.29400634766</ele>
        <time>2010-10-09T16:33:37Z</time>
      </trkpt>
      <trkpt lat="45.09805" lon="5.04209">
        <ele>227.23399353027</ele>
        <time>2010-10-09T16:33:44Z</time>
      </trkpt>
      <trkpt lat="45.09853" lon="5.04156">
        <ele>226.97999572754</ele>
        <time>2010-10-09T16:33:52Z</time>
      </trkpt>
      <trkpt lat="45.09871" lon="5.04119">
        <ele>226.5890045166</ele>
        <time>2010-10-09T16:33:56Z</time>
      </trkpt>
      <trkpt lat="45.09892" lon="5.0402">
        <ele>226.11599731445</ele>
        <time>2010-10-09T16:34:05Z</time>
      </trkpt>
      <trkpt lat="45.09887" lon="5.03976">
        <ele>226.18899536133</ele>
        <time>2010-10-09T16:34:09Z</time>
      </trkpt>
      <trkpt lat="45.09884" lon="5.03966">
        <ele>226.11000061035</ele>
        <time>2010-10-09T16:34:10Z</time>
      </trkpt>
      <trkpt lat="45.09855" lon="5.03892">
        <ele>226.76100158691</ele>
        <time>2010-10-09T16:34:18Z</time>
      </trkpt>
      <trkpt lat="45.09833" lon="5.03837">
        <ele>227.01800537109</ele>
        <time>2010-10-09T16:34:24Z</time>
      </trkpt>
      <trkpt lat="45.09816" lon="5.03778">
        <ele>227.48300170898</ele>
        <time>2010-10-09T16:34:30Z</time>
      </trkpt>
      <trkpt lat="45.09804" lon="5.03711">
        <ele>228.76600646973</ele>
        <time>2010-10-09T16:34:37Z</time>
      </trkpt>
      <trkpt lat="45.09794" lon="5.03639">
        <ele>230.42700195312</ele>
        <time>2010-10-09T16:34:45Z</time>
      </trkpt>
      <trkpt lat="45.09793" lon="5.03629">
        <ele>230.46299743652</ele>
        <time>2010-10-09T16:34:46Z</time>
      </trkpt>
      <trkpt lat="45.09799" lon="5.03591">
        <ele>230.04100036621</ele>
        <time>2010-10-09T16:34:50Z</time>
      </trkpt>
      <trkpt lat="45.09819" lon="5.03547">
        <ele>229.55999755859</ele>
        <time>2010-10-09T16:34:55Z</time>
      </trkpt>
      <trkpt lat="45.09868" lon="5.03477">
        <ele>228.23300170898</ele>
        <time>2010-10-09T16:35:04Z</time>
      </trkpt>
      <trkpt lat="45.09891" lon="5.03439">
        <ele>228.13000488281</ele>
        <time>2010-10-09T16:35:09Z</time>
      </trkpt>
      <trkpt lat="45.09909" lon="5.03389">
        <ele>228.75799560547</ele>
        <time>2010-10-09T16:35:15Z</time>
      </trkpt>
      <trkpt lat="45.09929" lon="5.03322">
        <ele>230.8690032959</ele>
        <time>2010-10-09T16:35:24Z</time>
      </trkpt>
      <trkpt lat="45.09949" lon="5.03245">
        <ele>233.7440032959</ele>
        <time>2010-10-09T16:35:35Z</time>
      </trkpt>
      <trkpt lat="45.09972" lon="5.03166">
        <ele>236.03999328613</ele>
        <time>2010-10-09T16:35:46Z</time>
      </trkpt>
      <trkpt lat="45.0999" lon="5.03098">
        <ele>237.74000549316</ele>
        <time>2010-10-09T16:35:55Z</time>
      </trkpt>
      <trkpt lat="45.10007" lon="5.03037">
        <ele>238.77000427246</ele>
        <time>2010-10-09T16:36:03Z</time>
      </trkpt>
      <trkpt lat="45.10023" lon="5.02979">
        <ele>241.11399841309</ele>
        <time>2010-10-09T16:36:11Z</time>
      </trkpt>
      <trkpt lat="45.10041" lon="5.02915">
        <ele>243.45599365234</ele>
        <time>2010-10-09T16:36:21Z</time>
      </trkpt>
      <trkpt lat="45.10055" lon="5.0287">
        <ele>246.10200500488</ele>
        <time>2010-10-09T16:36:29Z</time>
      </trkpt>
      <trkpt lat="45.10062" lon="5.02837">
        <ele>248.12600708008</ele>
        <time>2010-10-09T16:36:35Z</time>
      </trkpt>
      <trkpt lat="45.10069" lon="5.02809">
        <ele>249.35899353027</ele>
        <time>2010-10-09T16:36:40Z</time>
      </trkpt>
      <trkpt lat="45.10073" lon="5.02772">
        <ele>251.17799377441</ele>
        <time>2010-10-09T16:36:46Z</time>
      </trkpt>
      <trkpt lat="45.10069" lon="5.02754">
        <ele>251.8450012207</ele>
        <time>2010-10-09T16:36:49Z</time>
      </trkpt>
      <trkpt lat="45.10043" lon="5.02715">
        <ele>254.52799987793</ele>
        <time>2010-10-09T16:36:58Z</time>
      </trkpt>
      <trkpt lat="45.10014" lon="5.02678">
        <ele>256.91500854492</ele>
        <time>2010-10-09T16:37:06Z</time>
      </trkpt>
      <trkpt lat="45.09999" lon="5.02652">
        <ele>258.51699829102</ele>
        <time>2010-10-09T16:37:12Z</time>
      </trkpt>
      <trkpt lat="45.09991" lon="5.0262">
        <ele>259.80700683594</ele>
        <time>2010-10-09T16:37:17Z</time>
      </trkpt>
      <trkpt lat="45.09978" lon="5.0259">
        <ele>260.9280090332</ele>
        <time>2010-10-09T16:37:21Z</time>
      </trkpt>
      <trkpt lat="45.09972" lon="5.02576">
        <ele>261.85101318359</ele>
        <time>2010-10-09T16:37:23Z</time>
      </trkpt>
      <trkpt lat="45.09949" lon="5.02543">
        <ele>263.4280090332</ele>
        <time>2010-10-09T16:37:29Z</time>
      </trkpt>
      <trkpt lat="45.0993" lon="5.02518">
        <ele>264.88198852539</ele>
        <time>2010-10-09T16:37:33Z</time>
      </trkpt>
      <trkpt lat="45.09914" lon="5.02486">
        <ele>266.72299194336</ele>
        <time>2010-10-09T16:37:37Z</time>
      </trkpt>
      <trkpt lat="45.09902" lon="5.02454">
        <ele>268.75</ele>
        <time>2010-10-09T16:37:41Z</time>
      </trkpt>
      <trkpt lat="45.09889" lon="5.02412">
        <ele>270.89498901367</ele>
        <time>2010-10-09T16:37:46Z</time>
      </trkpt>
      <trkpt lat="45.09874" lon="5.02365">
        <ele>271.56399536133</ele>
        <time>2010-10-09T16:37:52Z</time>
      </trkpt>
      <trkpt lat="45.09867" lon="5.02336">
        <ele>270.36801147461</ele>
        <time>2010-10-09T16:37:56Z</time>
      </trkpt>
      <trkpt lat="45.09859" lon="5.02299">
        <ele>268.625</ele>
        <time>2010-10-09T16:38:00Z</time>
      </trkpt>
      <trkpt lat="45.09856" lon="5.02277">
        <ele>267.67199707031</ele>
        <time>2010-10-09T16:38:02Z</time>
      </trkpt>
      <trkpt lat="45.0986" lon="5.0222">
        <ele>264.15301513672</ele>
        <time>2010-10-09T16:38:07Z</time>
      </trkpt>
      <trkpt lat="45.09871" lon="5.02186">
        <ele>262.90301513672</ele>
        <time>2010-10-09T16:38:10Z</time>
      </trkpt>
      <trkpt lat="45.09896" lon="5.02116">
        <ele>259.29098510742</ele>
        <time>2010-10-09T16:38:16Z</time>
      </trkpt>
      <trkpt lat="45.09909" lon="5.02078">
        <ele>257.88299560547</ele>
        <time>2010-10-09T16:38:19Z</time>
      </trkpt>
      <trkpt lat="45.09931" lon="5.02012">
        <ele>255.12199401856</ele>
        <time>2010-10-09T16:38:24Z</time>
      </trkpt>
      <trkpt lat="45.09949" lon="5.01959">
        <ele>253.34300231934</ele>
        <time>2010-10-09T16:38:28Z</time>
      </trkpt>
      <trkpt lat="45.10007" lon="5.0179">
        <ele>249.7140045166</ele>
        <time>2010-10-09T16:38:41Z</time>
      </trkpt>
      <trkpt lat="45.10046" lon="5.0167">
        <ele>248.45399475098</ele>
        <time>2010-10-09T16:38:50Z</time>
      </trkpt>
      <trkpt lat="45.10059" lon="5.01602">
        <ele>248.53199768066</ele>
        <time>2010-10-09T16:38:55Z</time>
      </trkpt>
      <trkpt lat="45.10069" lon="5.01498">
        <ele>248.48399353027</ele>
        <time>2010-10-09T16:39:03Z</time>
      </trkpt>
      <trkpt lat="45.10077" lon="5.01389">
        <ele>248.83399963379</ele>
        <time>2010-10-09T16:39:12Z</time>
      </trkpt>
      <trkpt lat="45.10086" lon="5.01258">
        <ele>250.19799804688</ele>
        <time>2010-10-09T16:39:23Z</time>
      </trkpt>
      <trkpt lat="45.10097" lon="5.01184">
        <ele>249.91000366211</ele>
        <time>2010-10-09T16:39:29Z</time>
      </trkpt>
      <trkpt lat="45.10117" lon="5.01126">
        <ele>249.13900756836</ele>
        <time>2010-10-09T16:39:34Z</time>
      </trkpt>
      <trkpt lat="45.10147" lon="5.01076">
        <ele>248.59899902344</ele>
        <time>2010-10-09T16:39:39Z</time>
      </trkpt>
      <trkpt lat="45.10192" lon="5.01006">
        <ele>247.16299438477</ele>
        <time>2010-10-09T16:39:46Z</time>
      </trkpt>
      <trkpt lat="45.10237" lon="5.0095">
        <ele>246.44000244141</ele>
        <time>2010-10-09T16:39:52Z</time>
      </trkpt>
      <trkpt lat="45.10289" lon="5.00902">
        <ele>245.35400390625</ele>
        <time>2010-10-09T16:39:58Z</time>
      </trkpt>
      <trkpt lat="45.10381" lon="5.0083">
        <ele>243.54699707031</ele>
        <time>2010-10-09T16:40:08Z</time>
      </trkpt>
      <trkpt lat="45.10434" lon="5.0079">
        <ele>243.74699401856</ele>
        <time>2010-10-09T16:40:14Z</time>
      </trkpt>
      <trkpt lat="45.10498" lon="5.00739">
        <ele>244.92100524902</ele>
        <time>2010-10-09T16:40:22Z</time>
      </trkpt>
      <trkpt lat="45.10555" lon="5.00693">
        <ele>246.96299743652</ele>
        <time>2010-10-09T16:40:30Z</time>
      </trkpt>
      <trkpt lat="45.10597" lon="5.00659">
        <ele>250.25700378418</ele>
        <time>2010-10-09T16:40:37Z</time>
      </trkpt>
      <trkpt lat="45.1063" lon="5.00635">
        <ele>252.0359954834</ele>
        <time>2010-10-09T16:40:43Z</time>
      </trkpt>
      <trkpt lat="45.10672" lon="5.00611">
        <ele>254.82800292969</ele>
        <time>2010-10-09T16:40:52Z</time>
      </trkpt>
      <trkpt lat="45.10705" lon="5.00598">
        <ele>256.52700805664</ele>
        <time>2010-10-09T16:40:59Z</time>
      </trkpt>
      <trkpt lat="45.10742" lon="5.0059">
        <ele>258.59399414062</ele>
        <time>2010-10-09T16:41:07Z</time>
      </trkpt>
      <trkpt lat="45.10776" lon="5.00586">
        <ele>260.90899658203</ele>
        <time>2010-10-09T16:41:15Z</time>
      </trkpt>
      <trkpt lat="45.10808" lon="5.00582">
        <ele>262.91400146484</ele>
        <time>2010-10-09T16:41:23Z</time>
      </trkpt>
      <trkpt lat="45.10837" lon="5.00579">
        <ele>265.12701416016</ele>
        <time>2010-10-09T16:41:31Z</time>
      </trkpt>
      <trkpt lat="45.10865" lon="5.00573">
        <ele>266.875</ele>
        <time>2010-10-09T16:41:39Z</time>
      </trkpt>
      <trkpt lat="45.10897" lon="5.00566">
        <ele>268.38000488281</ele>
        <time>2010-10-09T16:41:48Z</time>
      </trkpt>
      <trkpt lat="45.10918" lon="5.00557">
        <ele>269.02099609375</ele>
        <time>2010-10-09T16:41:53Z</time>
      </trkpt>
      <trkpt lat="45.10947" lon="5.0054">
        <ele>269.20098876953</ele>
        <time>2010-10-09T16:42:00Z</time>
      </trkpt>
      <trkpt lat="45.10984" lon="5.00514">
        <ele>268.20001220703</ele>
        <time>2010-10-09T16:42:07Z</time>
      </trkpt>
      <trkpt lat="45.11023" lon="5.00485">
        <ele>265.67401123047</ele>
        <time>2010-10-09T16:42:13Z</time>
      </trkpt>
      <trkpt lat="45.1107" lon="5.00453">
        <ele>262.68399047852</ele>
        <time>2010-10-09T16:42:19Z</time>
      </trkpt>
      <trkpt lat="45.11113" lon="5.00428">
        <ele>260.37100219727</ele>
        <time>2010-10-09T16:42:24Z</time>
      </trkpt>
      <trkpt lat="45.1118" lon="5.00392">
        <ele>256.71798706055</ele>
        <time>2010-10-09T16:42:31Z</time>
      </trkpt>
      <trkpt lat="45.11271" lon="5.00343">
        <ele>252.65100097656</ele>
        <time>2010-10-09T16:42:40Z</time>
      </trkpt>
      <trkpt lat="45.11338" lon="5.00293">
        <ele>249.4049987793</ele>
        <time>2010-10-09T16:42:47Z</time>
      </trkpt>
      <trkpt lat="45.11398" lon="5.00243">
        <ele>248.84199523926</ele>
        <time>2010-10-09T16:42:54Z</time>
      </trkpt>
      <trkpt lat="45.11447" lon="5.00196">
        <ele>249.13499450684</ele>
        <time>2010-10-09T16:43:01Z</time>
      </trkpt>
      <trkpt lat="45.115" lon="5.00147">
        <ele>248.84800720215</ele>
        <time>2010-10-09T16:43:09Z</time>
      </trkpt>
      <trkpt lat="45.1155" lon="5.00099">
        <ele>248.99800109863</ele>
        <time>2010-10-09T16:43:17Z</time>
      </trkpt>
      <trkpt lat="45.11596" lon="5.00045">
        <ele>247.58000183106</ele>
        <time>2010-10-09T16:43:25Z</time>
      </trkpt>
      <trkpt lat="45.11637" lon="4.99987">
        <ele>246.60200500488</ele>
        <time>2010-10-09T16:43:32Z</time>
      </trkpt>
      <trkpt lat="45.11674" lon="4.99946">
        <ele>243.43800354004</ele>
        <time>2010-10-09T16:43:37Z</time>
      </trkpt>
      <trkpt lat="45.11711" lon="4.99922">
        <ele>240.95300292969</ele>
        <time>2010-10-09T16:43:41Z</time>
      </trkpt>
      <trkpt lat="45.1176" lon="4.99901">
        <ele>237.07099914551</ele>
        <time>2010-10-09T16:43:46Z</time>
      </trkpt>
      <trkpt lat="45.11836" lon="4.9987">
        <ele>232.63400268555</ele>
        <time>2010-10-09T16:43:53Z</time>
      </trkpt>
      <trkpt lat="45.11888" lon="4.99838">
        <ele>229.50700378418</ele>
        <time>2010-10-09T16:43:58Z</time>
      </trkpt>
      <trkpt lat="45.11934" lon="4.9979">
        <ele>226.52900695801</ele>
        <time>2010-10-09T16:44:03Z</time>
      </trkpt>
      <trkpt lat="45.1197" lon="4.99735">
        <ele>225.27900695801</ele>
        <time>2010-10-09T16:44:08Z</time>
      </trkpt>
      <trkpt lat="45.12009" lon="4.99663">
        <ele>225.23899841309</ele>
        <time>2010-10-09T16:44:15Z</time>
      </trkpt>
      <trkpt lat="45.12041" lon="4.99605">
        <ele>225.46200561523</ele>
        <time>2010-10-09T16:44:21Z</time>
      </trkpt>
      <trkpt lat="45.12075" lon="4.99544">
        <ele>225.51899719238</ele>
        <time>2010-10-09T16:44:27Z</time>
      </trkpt>
      <trkpt lat="45.12113" lon="4.99472">
        <ele>223.99800109863</ele>
        <time>2010-10-09T16:44:34Z</time>
      </trkpt>
      <trkpt lat="45.12139" lon="4.99409">
        <ele>223.50500488281</ele>
        <time>2010-10-09T16:44:40Z</time>
      </trkpt>
      <trkpt lat="45.12153" lon="4.9936">
        <ele>223.94799804688</ele>
        <time>2010-10-09T16:44:45Z</time>
      </trkpt>
      <trkpt lat="45.12175" lon="4.99278">
        <ele>223.49600219727</ele>
        <time>2010-10-09T16:44:53Z</time>
      </trkpt>
      <trkpt lat="45.12196" lon="4.99196">
        <ele>224.11599731445</ele>
        <time>2010-10-09T16:45:01Z</time>
      </trkpt>
      <trkpt lat="45.12213" lon="4.99131">
        <ele>224.68200683594</ele>
        <time>2010-10-09T16:45:08Z</time>
      </trkpt>
      <trkpt lat="45.12223" lon="4.99098">
        <ele>225.58200073242</ele>
        <time>2010-10-09T16:45:12Z</time>
      </trkpt>
      <trkpt lat="45.1224" lon="4.9907">
        <ele>227.64199829102</ele>
        <time>2010-10-09T16:45:17Z</time>
      </trkpt>
      <trkpt lat="45.1224" lon="4.99053">
        <ele>228.2559967041</ele>
        <time>2010-10-09T16:45:20Z</time>
      </trkpt>
      <trkpt lat="45.12225" lon="4.99042">
        <ele>227.30599975586</ele>
        <time>2010-10-09T16:45:23Z</time>
      </trkpt>
      <trkpt lat="45.12196" lon="4.99026">
        <ele>225.55700683594</ele>
        <time>2010-10-09T16:45:27Z</time>
      </trkpt>
      <trkpt lat="45.12149" lon="4.98972">
        <ele>222.01100158691</ele>
        <time>2010-10-09T16:45:34Z</time>
      </trkpt>
      <trkpt lat="45.12109" lon="4.98906">
        <ele>220.3869934082</ele>
        <time>2010-10-09T16:45:41Z</time>
      </trkpt>
      <trkpt lat="45.12071" lon="4.98825">
        <ele>219.95799255371</ele>
        <time>2010-10-09T16:45:49Z</time>
      </trkpt>
      <trkpt lat="45.12049" lon="4.98759">
        <ele>218.40899658203</ele>
        <time>2010-10-09T16:45:55Z</time>
      </trkpt>
      <trkpt lat="45.12036" lon="4.98693">
        <ele>218.54899597168</ele>
        <time>2010-10-09T16:46:01Z</time>
      </trkpt>
      <trkpt lat="45.12025" lon="4.98605">
        <ele>218.03100585938</ele>
        <time>2010-10-09T16:46:09Z</time>
      </trkpt>
      <trkpt lat="45.12024" lon="4.98543">
        <ele>218.6190032959</ele>
        <time>2010-10-09T16:46:15Z</time>
      </trkpt>
      <trkpt lat="45.1203" lon="4.98473">
        <ele>219.12399291992</ele>
        <time>2010-10-09T16:46:22Z</time>
      </trkpt>
      <trkpt lat="45.12034" lon="4.98455">
        <ele>219.08099365234</ele>
        <time>2010-10-09T16:46:24Z</time>
      </trkpt>
      <trkpt lat="45.12048" lon="4.98429">
        <ele>219.55400085449</ele>
        <time>2010-10-09T16:46:28Z</time>
      </trkpt>
      <trkpt lat="45.12056" lon="4.98404">
        <ele>220.18299865723</ele>
        <time>2010-10-09T16:46:32Z</time>
      </trkpt>
      <trkpt lat="45.12048" lon="4.98392">
        <ele>220.11099243164</ele>
        <time>2010-10-09T16:46:35Z</time>
      </trkpt>
      <trkpt lat="45.1204" lon="4.98394">
        <ele>220.26899719238</ele>
        <time>2010-10-09T16:46:37Z</time>
      </trkpt>
      <trkpt lat="45.12032" lon="4.98397">
        <ele>219.94299316406</ele>
        <time>2010-10-09T16:46:39Z</time>
      </trkpt>
      <trkpt lat="45.12015" lon="4.98395">
        <ele>219.125</ele>
        <time>2010-10-09T16:46:43Z</time>
      </trkpt>
      <trkpt lat="45.12" lon="4.9839">
        <ele>218.43200683594</ele>
        <time>2010-10-09T16:46:46Z</time>
      </trkpt>
      <trkpt lat="45.11982" lon="4.98396">
        <ele>218.22500610352</ele>
        <time>2010-10-09T16:46:50Z</time>
      </trkpt>
      <trkpt lat="45.11976" lon="4.98416">
        <ele>218.74200439453</ele>
        <time>2010-10-09T16:46:54Z</time>
      </trkpt>
      <trkpt lat="45.11977" lon="4.98426">
        <ele>218.95199584961</ele>
        <time>2010-10-09T16:46:56Z</time>
      </trkpt>
      <trkpt lat="45.11977" lon="4.98439">
        <ele>219.23100280762</ele>
        <time>2010-10-09T16:47:01Z</time>
      </trkpt>
      <trkpt lat="45.11978" lon="4.9844">
        <ele>218.88200378418</ele>
        <time>2010-10-09T16:49:29Z</time>
      </trkpt>
      <trkpt lat="45.11982" lon="4.98422">
        <ele>218.37800598144</ele>
        <time>2010-10-09T16:50:08Z</time>
      </trkpt>
      <trkpt lat="45.1198" lon="4.98403">
        <ele>217.93499755859</ele>
        <time>2010-10-09T16:50:13Z</time>
      </trkpt>
      <trkpt lat="45.11982" lon="4.98395">
        <ele>217.99000549316</ele>
        <time>2010-10-09T16:50:15Z</time>
      </trkpt>
      <trkpt lat="45.11993" lon="4.98394">
        <ele>218.2619934082</ele>
        <time>2010-10-09T16:50:19Z</time>
      </trkpt>
      <trkpt lat="45.1201" lon="4.98401">
        <ele>218.55999755859</ele>
        <time>2010-10-09T16:50:26Z</time>
      </trkpt>
      <trkpt lat="45.12027" lon="4.98413">
        <ele>219.30799865723</ele>
        <time>2010-10-09T16:50:32Z</time>
      </trkpt>
      <trkpt lat="45.12034" lon="4.98424">
        <ele>219.75500488281</ele>
        <time>2010-10-09T16:50:35Z</time>
      </trkpt>
      <trkpt lat="45.12048" lon="4.98432">
        <ele>219.40199279785</ele>
        <time>2010-10-09T16:50:39Z</time>
      </trkpt>
      <trkpt lat="45.12056" lon="4.98418">
        <ele>219.50799560547</ele>
        <time>2010-10-09T16:50:42Z</time>
      </trkpt>
      <trkpt lat="45.12056" lon="4.98395">
        <ele>219.02000427246</ele>
        <time>2010-10-09T16:50:45Z</time>
      </trkpt>
      <trkpt lat="45.12057" lon="4.98367">
        <ele>218.31799316406</ele>
        <time>2010-10-09T16:50:48Z</time>
      </trkpt>
      <trkpt lat="45.12069" lon="4.98299">
        <ele>216.39599609375</ele>
        <time>2010-10-09T16:50:54Z</time>
      </trkpt>
      <trkpt lat="45.12076" lon="4.98232">
        <ele>217.21499633789</ele>
        <time>2010-10-09T16:51:00Z</time>
      </trkpt>
      <trkpt lat="45.12073" lon="4.98154">
        <ele>216.65199279785</ele>
        <time>2010-10-09T16:51:07Z</time>
      </trkpt>
      <trkpt lat="45.12054" lon="4.98065">
        <ele>215.44400024414</ele>
        <time>2010-10-09T16:51:15Z</time>
      </trkpt>
      <trkpt lat="45.12025" lon="4.97954">
        <ele>214.00300598144</ele>
        <time>2010-10-09T16:51:25Z</time>
      </trkpt>
      <trkpt lat="45.12006" lon="4.97866">
        <ele>213.18099975586</ele>
        <time>2010-10-09T16:51:32Z</time>
      </trkpt>
      <trkpt lat="45.11984" lon="4.97735">
        <ele>212.20100402832</ele>
        <time>2010-10-09T16:51:43Z</time>
      </trkpt>
      <trkpt lat="45.11966" lon="4.97634">
        <ele>212.34899902344</ele>
        <time>2010-10-09T16:51:52Z</time>
      </trkpt>
      <trkpt lat="45.1196" lon="4.97592">
        <ele>212.16000366211</ele>
        <time>2010-10-09T16:51:56Z</time>
      </trkpt>
      <trkpt lat="45.11946" lon="4.97518">
        <ele>211.6609954834</ele>
        <time>2010-10-09T16:52:03Z</time>
      </trkpt>
      <trkpt lat="45.11925" lon="4.97394">
        <ele>210.04100036621</ele>
        <time>2010-10-09T16:52:14Z</time>
      </trkpt>
      <trkpt lat="45.11907" lon="4.97287">
        <ele>209.26100158691</ele>
        <time>2010-10-09T16:52:24Z</time>
      </trkpt>
      <trkpt lat="45.1189" lon="4.97191">
        <ele>210.20700073242</ele>
        <time>2010-10-09T16:52:34Z</time>
      </trkpt>
      <trkpt lat="45.11884" lon="4.97155">
        <ele>210.77400207519</ele>
        <time>2010-10-09T16:52:38Z</time>
      </trkpt>
      <trkpt lat="45.11888" lon="4.97113">
        <ele>211.23599243164</ele>
        <time>2010-10-09T16:52:43Z</time>
      </trkpt>
      <trkpt lat="45.11903" lon="4.97091">
        <ele>212.17300415039</ele>
        <time>2010-10-09T16:52:47Z</time>
      </trkpt>
      <trkpt lat="45.11908" lon="4.97072">
        <ele>212.69400024414</ele>
        <time>2010-10-09T16:52:50Z</time>
      </trkpt>
      <trkpt lat="45.11898" lon="4.97058">
        <ele>212.52000427246</ele>
        <time>2010-10-09T16:52:53Z</time>
      </trkpt>
      <trkpt lat="45.11877" lon="4.97041">
        <ele>212.16400146484</ele>
        <time>2010-10-09T16:52:57Z</time>
      </trkpt>
      <trkpt lat="45.11831" lon="4.96979">
        <ele>211.74299621582</ele>
        <time>2010-10-09T16:53:07Z</time>
      </trkpt>
      <trkpt lat="45.11794" lon="4.96922">
        <ele>211.69299316406</ele>
        <time>2010-10-09T16:53:15Z</time>
      </trkpt>
      <trkpt lat="45.11771" lon="4.96884">
        <ele>211.66200256348</ele>
        <time>2010-10-09T16:53:20Z</time>
      </trkpt>
      <trkpt lat="45.11765" lon="4.96846">
        <ele>211.44000244141</ele>
        <time>2010-10-09T16:53:24Z</time>
      </trkpt>
      <trkpt lat="45.11753" lon="4.96825">
        <ele>211.56100463867</ele>
        <time>2010-10-09T16:53:27Z</time>
      </trkpt>
      <trkpt lat="45.11729" lon="4.96811">
        <ele>211.19299316406</ele>
        <time>2010-10-09T16:53:31Z</time>
      </trkpt>
      <trkpt lat="45.11718" lon="4.96799">
        <ele>210.97300720215</ele>
        <time>2010-10-09T16:53:33Z</time>
      </trkpt>
      <trkpt lat="45.1168" lon="4.96739">
        <ele>210.49800109863</ele>
        <time>2010-10-09T16:53:41Z</time>
      </trkpt>
      <trkpt lat="45.11652" lon="4.96676">
        <ele>209.67900085449</ele>
        <time>2010-10-09T16:53:48Z</time>
      </trkpt>
      <trkpt lat="45.11616" lon="4.96584">
        <ele>209.00900268555</ele>
        <time>2010-10-09T16:53:58Z</time>
      </trkpt>
      <trkpt lat="45.11587" lon="4.96509">
        <ele>209.14100646973</ele>
        <time>2010-10-09T16:54:07Z</time>
      </trkpt>
      <trkpt lat="45.11582" lon="4.9648">
        <ele>209.58700561523</ele>
        <time>2010-10-09T16:54:11Z</time>
      </trkpt>
      <trkpt lat="45.11583" lon="4.96453">
        <ele>210.84100341797</ele>
        <time>2010-10-09T16:54:16Z</time>
      </trkpt>
      <trkpt lat="45.11578" lon="4.96447">
        <ele>211.39300537109</ele>
        <time>2010-10-09T16:54:20Z</time>
      </trkpt>
      <trkpt lat="45.11578" lon="4.96447">
        <ele>211.42999267578</ele>
        <time>2010-10-09T16:54:22Z</time>
      </trkpt>
      <trkpt lat="45.11572" lon="4.96454">
        <ele>210.82600402832</ele>
        <time>2010-10-09T16:54:48Z</time>
      </trkpt>
      <trkpt lat="45.11568" lon="4.96452">
        <ele>210.72700500488</ele>
        <time>2010-10-09T16:54:50Z</time>
      </trkpt>
      <trkpt lat="45.11566" lon="4.96449">
        <ele>210.70100402832</ele>
        <time>2010-10-09T16:54:52Z</time>
      </trkpt>
      <trkpt lat="45.11562" lon="4.9643">
        <ele>210.98500061035</ele>
        <time>2010-10-09T16:54:58Z</time>
      </trkpt>
      <trkpt lat="45.11565" lon="4.96427">
        <ele>211.69599914551</ele>
        <time>2010-10-09T16:55:01Z</time>
      </trkpt>
      <trkpt lat="45.11569" lon="4.9643">
        <ele>211.93699645996</ele>
        <time>2010-10-09T16:55:06Z</time>
      </trkpt>
      <trkpt lat="45.1157" lon="4.96432">
        <ele>211.99499511719</ele>
        <time>2010-10-09T16:55:14Z</time>
      </trkpt>
      <trkpt lat="45.1157" lon="4.96432">
        <ele>211.95599365234</ele>
        <time>2010-10-09T16:55:16Z</time>
      </trkpt>
      <trkpt lat="45.11575" lon="4.96431">
        <ele>211.78500366211</ele>
        <time>2010-10-09T16:55:32Z</time>
      </trkpt>
    </trkseg>
  </trk>
</gpx>